<?xml version='1.0' encoding='UTF-8'?><gpx version="1.1" creator="JPX - https://github.com/jenetics/jpx" xmlns="http://www.topografix.com/GPX/1/1"><trk><trkseg><trkpt lat="43.0510289" lon="12.3303332"><ele>297.0</ele><time>2026-04-12T06:15:28.983Z</time></trkpt><trkpt lat="43.050971" lon="12.3302675"><ele>297.0</ele><time>2026-04-12T06:15:36.088Z</time></trkpt><trkpt lat="43.0509798" lon="12.3303617"><ele>297.0</ele><time>2026-04-12T06:15:46.017Z</time></trkpt><trkpt lat="43.0510399" lon="12.3304154"><ele>297.0</ele><time>2026-04-12T06:15:57.672Z</time></trkpt><trkpt lat="43.051105" lon="12.3304069"><ele>297.0</ele><time>2026-04-12T06:16:07.026Z</time></trkpt><trkpt lat="43.0511459" lon="12.3303149"><ele>297.0</ele><time>2026-04-12T06:16:20.127Z</time></trkpt><trkpt lat="43.0512238" lon="12.330214"><ele>297.0</ele><time>2026-04-12T06:16:23.031Z</time></trkpt><trkpt lat="43.051287" lon="12.3301505"><ele>297.0</ele><time>2026-04-12T06:16:25.006Z</time></trkpt><trkpt lat="43.0513427" lon="12.3301009"><ele>297.0</ele><time>2026-04-12T06:16:28.002Z</time></trkpt><trkpt lat="43.0514034" lon="12.3301655"><ele>297.0</ele><time>2026-04-12T06:16:31.006Z</time></trkpt><trkpt lat="43.0514676" lon="12.3301507"><ele>297.0</ele><time>2026-04-12T06:16:35.005Z</time></trkpt><trkpt lat="43.0514485" lon="12.3300279"><ele>297.0</ele><time>2026-04-12T06:16:37.998Z</time></trkpt><trkpt lat="43.0514466" lon="12.3299168"><ele>297.0</ele><time>2026-04-12T06:16:41.006Z</time></trkpt><trkpt lat="43.0513875" lon="12.3299493"><ele>297.0</ele><time>2026-04-12T06:16:47.999Z</time></trkpt><trkpt lat="43.0514296" lon="12.3300472"><ele>297.0</ele><time>2026-04-12T06:16:57.003Z</time></trkpt><trkpt lat="43.051503" lon="12.3301334"><ele>297.0</ele><time>2026-04-12T06:16:59.999Z</time></trkpt><trkpt lat="43.0515545" lon="12.330198"><ele>297.0</ele><time>2026-04-12T06:17:02.004Z</time></trkpt><trkpt lat="43.0516191" lon="12.3302854"><ele>297.0</ele><time>2026-04-12T06:17:04.995Z</time></trkpt><trkpt lat="43.0516858" lon="12.3303723"><ele>297.0</ele><time>2026-04-12T06:17:08.001Z</time></trkpt><trkpt lat="43.0517306" lon="12.3304524"><ele>297.0</ele><time>2026-04-12T06:17:09.998Z</time></trkpt><trkpt lat="43.0517823" lon="12.3305346"><ele>297.0</ele><time>2026-04-12T06:17:12.001Z</time></trkpt><trkpt lat="43.0518391" lon="12.3306111"><ele>297.0</ele><time>2026-04-12T06:17:14.021Z</time></trkpt><trkpt lat="43.0518996" lon="12.3306934"><ele>297.0</ele><time>2026-04-12T06:17:16.091Z</time></trkpt><trkpt lat="43.0519601" lon="12.3307799"><ele>297.0</ele><time>2026-04-12T06:17:18.017Z</time></trkpt><trkpt lat="43.0520127" lon="12.3308853"><ele>297.2</ele><time>2026-04-12T06:17:20.001Z</time></trkpt><trkpt lat="43.0520845" lon="12.3309781"><ele>297.4</ele><time>2026-04-12T06:17:22.014Z</time></trkpt><trkpt lat="43.0521605" lon="12.3310783"><ele>297.6</ele><time>2026-04-12T06:17:24.018Z</time></trkpt><trkpt lat="43.0522377" lon="12.3311831"><ele>297.8</ele><time>2026-04-12T06:17:26.011Z</time></trkpt><trkpt lat="43.0522835" lon="12.3312485"><ele>298.0</ele><time>2026-04-12T06:17:27.144Z</time></trkpt><trkpt lat="43.0523579" lon="12.3313691"><ele>297.6</ele><time>2026-04-12T06:17:29.014Z</time></trkpt><trkpt lat="43.0524075" lon="12.3314227"><ele>297.20000000000005</ele><time>2026-04-12T06:17:30.01Z</time></trkpt><trkpt lat="43.0524536" lon="12.3314831"><ele>296.8</ele><time>2026-04-12T06:17:31.037Z</time></trkpt><trkpt lat="43.0525283" lon="12.3315981"><ele>296.40000000000003</ele><time>2026-04-12T06:17:33.012Z</time></trkpt><trkpt lat="43.0526107" lon="12.3317207"><ele>296.0</ele><time>2026-04-12T06:17:35.002Z</time></trkpt><trkpt lat="43.0526912" lon="12.3318445"><ele>296.0</ele><time>2026-04-12T06:17:37.003Z</time></trkpt><trkpt lat="43.0527659" lon="12.3319705"><ele>296.0</ele><time>2026-04-12T06:17:39.088Z</time></trkpt><trkpt lat="43.0528114" lon="12.3320347"><ele>296.0</ele><time>2026-04-12T06:17:40.002Z</time></trkpt><trkpt lat="43.0528567" lon="12.3320962"><ele>296.0</ele><time>2026-04-12T06:17:41.02Z</time></trkpt><trkpt lat="43.0529395" lon="12.3322104"><ele>296.0</ele><time>2026-04-12T06:17:42.999Z</time></trkpt><trkpt lat="43.0529887" lon="12.3322666"><ele>296.0</ele><time>2026-04-12T06:17:43.998Z</time></trkpt><trkpt lat="43.0530362" lon="12.3323245"><ele>296.25</ele><time>2026-04-12T06:17:45.006Z</time></trkpt><trkpt lat="43.0531149" lon="12.3324411"><ele>296.5</ele><time>2026-04-12T06:17:47Z</time></trkpt><trkpt lat="43.0532016" lon="12.3325509"><ele>296.75</ele><time>2026-04-12T06:17:49.022Z</time></trkpt><trkpt lat="43.0532769" lon="12.3326603"><ele>297.0</ele><time>2026-04-12T06:17:51.002Z</time></trkpt><trkpt lat="43.0533609" lon="12.3327694"><ele>295.0</ele><time>2026-04-12T06:17:53Z</time></trkpt><trkpt lat="43.0534464" lon="12.3328784"><ele>293.0</ele><time>2026-04-12T06:17:55Z</time></trkpt><trkpt lat="43.0535356" lon="12.3329842"><ele>291.0</ele><time>2026-04-12T06:17:57.004Z</time></trkpt><trkpt lat="43.0536256" lon="12.3330864"><ele>289.0</ele><time>2026-04-12T06:17:59.001Z</time></trkpt><trkpt lat="43.0537088" lon="12.3331936"><ele>289.0</ele><time>2026-04-12T06:18:01.008Z</time></trkpt><trkpt lat="43.0537934" lon="12.3332957"><ele>289.0</ele><time>2026-04-12T06:18:03.009Z</time></trkpt><trkpt lat="43.0538745" lon="12.3334033"><ele>289.0</ele><time>2026-04-12T06:18:05.015Z</time></trkpt><trkpt lat="43.0539545" lon="12.3335141"><ele>289.0</ele><time>2026-04-12T06:18:07.014Z</time></trkpt><trkpt lat="43.0540335" lon="12.3336265"><ele>289.0</ele><time>2026-04-12T06:18:09.003Z</time></trkpt><trkpt lat="43.0541139" lon="12.3337256"><ele>289.0</ele><time>2026-04-12T06:18:11.002Z</time></trkpt><trkpt lat="43.0541931" lon="12.3338208"><ele>289.0</ele><time>2026-04-12T06:18:13.007Z</time></trkpt><trkpt lat="43.0542699" lon="12.333921"><ele>289.0</ele><time>2026-04-12T06:18:15.017Z</time></trkpt><trkpt lat="43.0543405" lon="12.3340173"><ele>289.0</ele><time>2026-04-12T06:18:17.013Z</time></trkpt><trkpt lat="43.0544087" lon="12.3341113"><ele>288.8</ele><time>2026-04-12T06:18:19.117Z</time></trkpt><trkpt lat="43.0544837" lon="12.3342065"><ele>288.59999999999997</ele><time>2026-04-12T06:18:21.014Z</time></trkpt><trkpt lat="43.0545513" lon="12.3343059"><ele>288.4</ele><time>2026-04-12T06:18:23.02Z</time></trkpt><trkpt lat="43.0546217" lon="12.3344005"><ele>288.2</ele><time>2026-04-12T06:18:24.997Z</time></trkpt><trkpt lat="43.0546899" lon="12.3344985"><ele>288.0</ele><time>2026-04-12T06:18:27.003Z</time></trkpt><trkpt lat="43.0547647" lon="12.3345904"><ele>288.0</ele><time>2026-04-12T06:18:29.023Z</time></trkpt><trkpt lat="43.0548369" lon="12.3346777"><ele>288.0</ele><time>2026-04-12T06:18:31.014Z</time></trkpt><trkpt lat="43.0549136" lon="12.3347662"><ele>288.0</ele><time>2026-04-12T06:18:33.03Z</time></trkpt><trkpt lat="43.054988" lon="12.3348546"><ele>288.0</ele><time>2026-04-12T06:18:35.012Z</time></trkpt><trkpt lat="43.0550729" lon="12.3349409"><ele>288.0</ele><time>2026-04-12T06:18:37.019Z</time></trkpt><trkpt lat="43.0551575" lon="12.3350292"><ele>287.4</ele><time>2026-04-12T06:18:39.01Z</time></trkpt><trkpt lat="43.05524" lon="12.3351091"><ele>286.8</ele><time>2026-04-12T06:18:41.137Z</time></trkpt><trkpt lat="43.0553227" lon="12.3352041"><ele>286.2</ele><time>2026-04-12T06:18:43.007Z</time></trkpt><trkpt lat="43.0554132" lon="12.3352949"><ele>285.6</ele><time>2026-04-12T06:18:45.019Z</time></trkpt><trkpt lat="43.0554986" lon="12.3353987"><ele>285.0</ele><time>2026-04-12T06:18:47.112Z</time></trkpt><trkpt lat="43.0555908" lon="12.3355104"><ele>285.4</ele><time>2026-04-12T06:18:49.03Z</time></trkpt><trkpt lat="43.0556392" lon="12.335575"><ele>285.8</ele><time>2026-04-12T06:18:50.01Z</time></trkpt><trkpt lat="43.0557014" lon="12.3357161"><ele>286.2</ele><time>2026-04-12T06:18:52.019Z</time></trkpt><trkpt lat="43.0557241" lon="12.3357986"><ele>286.6</ele><time>2026-04-12T06:18:53.126Z</time></trkpt><trkpt lat="43.0557858" lon="12.33593"><ele>287.0</ele><time>2026-04-12T06:18:55.017Z</time></trkpt><trkpt lat="43.0558946" lon="12.3359846"><ele>286.2</ele><time>2026-04-12T06:18:57.014Z</time></trkpt><trkpt lat="43.0560041" lon="12.3360248"><ele>285.4</ele><time>2026-04-12T06:18:59.021Z</time></trkpt><trkpt lat="43.0561151" lon="12.3360907"><ele>284.6</ele><time>2026-04-12T06:19:01.022Z</time></trkpt><trkpt lat="43.0562162" lon="12.3361729"><ele>283.8</ele><time>2026-04-12T06:19:03.012Z</time></trkpt><trkpt lat="43.056269" lon="12.3362221"><ele>283.0</ele><time>2026-04-12T06:19:04Z</time></trkpt><trkpt lat="43.0564189" lon="12.3363732"><ele>282.25</ele><time>2026-04-12T06:19:07.012Z</time></trkpt><trkpt lat="43.056521" lon="12.3364704"><ele>281.5</ele><time>2026-04-12T06:19:09.018Z</time></trkpt><trkpt lat="43.0566225" lon="12.3365719"><ele>280.75</ele><time>2026-04-12T06:19:11.011Z</time></trkpt><trkpt lat="43.0567192" lon="12.3366746"><ele>280.0</ele><time>2026-04-12T06:19:13.011Z</time></trkpt><trkpt lat="43.0568131" lon="12.3367748"><ele>280.0</ele><time>2026-04-12T06:19:15.009Z</time></trkpt><trkpt lat="43.0569062" lon="12.3368763"><ele>280.0</ele><time>2026-04-12T06:19:17.015Z</time></trkpt><trkpt lat="43.0569923" lon="12.3369806"><ele>280.0</ele><time>2026-04-12T06:19:19.02Z</time></trkpt><trkpt lat="43.057081" lon="12.3370822"><ele>280.0</ele><time>2026-04-12T06:19:21.017Z</time></trkpt><trkpt lat="43.0571626" lon="12.3371777"><ele>279.4</ele><time>2026-04-12T06:19:23.012Z</time></trkpt><trkpt lat="43.0572462" lon="12.3372766"><ele>278.8</ele><time>2026-04-12T06:19:25.017Z</time></trkpt><trkpt lat="43.0573269" lon="12.3373793"><ele>278.2</ele><time>2026-04-12T06:19:27.015Z</time></trkpt><trkpt lat="43.0574011" lon="12.3374744"><ele>277.6</ele><time>2026-04-12T06:19:29.011Z</time></trkpt><trkpt lat="43.0574728" lon="12.3375742"><ele>277.0</ele><time>2026-04-12T06:19:31.019Z</time></trkpt><trkpt lat="43.0575468" lon="12.3376776"><ele>277.0</ele><time>2026-04-12T06:19:33.012Z</time></trkpt><trkpt lat="43.0576616" lon="12.3378333"><ele>277.0</ele><time>2026-04-12T06:19:36Z</time></trkpt><trkpt lat="43.0577413" lon="12.3379365"><ele>277.0</ele><time>2026-04-12T06:19:38.036Z</time></trkpt><trkpt lat="43.0578214" lon="12.3380398"><ele>277.0</ele><time>2026-04-12T06:19:40.012Z</time></trkpt><trkpt lat="43.0578991" lon="12.3381468"><ele>276.2</ele><time>2026-04-12T06:19:42.002Z</time></trkpt><trkpt lat="43.0579712" lon="12.3382528"><ele>275.4</ele><time>2026-04-12T06:19:44.012Z</time></trkpt><trkpt lat="43.0580458" lon="12.3383624"><ele>274.6</ele><time>2026-04-12T06:19:46.018Z</time></trkpt><trkpt lat="43.0581215" lon="12.3384682"><ele>273.8</ele><time>2026-04-12T06:19:48.02Z</time></trkpt><trkpt lat="43.0581928" lon="12.3385777"><ele>273.0</ele><time>2026-04-12T06:19:50.002Z</time></trkpt><trkpt lat="43.0582642" lon="12.3386848"><ele>273.4</ele><time>2026-04-12T06:19:52.003Z</time></trkpt><trkpt lat="43.0583303" lon="12.3387976"><ele>273.8</ele><time>2026-04-12T06:19:54.013Z</time></trkpt><trkpt lat="43.0583952" lon="12.338908"><ele>274.2</ele><time>2026-04-12T06:19:56.003Z</time></trkpt><trkpt lat="43.0584648" lon="12.3390202"><ele>274.6</ele><time>2026-04-12T06:19:58.011Z</time></trkpt><trkpt lat="43.0585255" lon="12.3391312"><ele>275.0</ele><time>2026-04-12T06:20:00.021Z</time></trkpt><trkpt lat="43.0585972" lon="12.3392398"><ele>275.0</ele><time>2026-04-12T06:20:02.028Z</time></trkpt><trkpt lat="43.0586671" lon="12.3393453"><ele>275.0</ele><time>2026-04-12T06:20:04.034Z</time></trkpt><trkpt lat="43.0587565" lon="12.3395181"><ele>275.0</ele><time>2026-04-12T06:20:07.011Z</time></trkpt><trkpt lat="43.0588228" lon="12.3396237"><ele>275.0</ele><time>2026-04-12T06:20:09.015Z</time></trkpt><trkpt lat="43.0588769" lon="12.3397311"><ele>274.6</ele><time>2026-04-12T06:20:11.033Z</time></trkpt><trkpt lat="43.0589417" lon="12.3398315"><ele>274.2</ele><time>2026-04-12T06:20:13.013Z</time></trkpt><trkpt lat="43.0590099" lon="12.3399417"><ele>273.8</ele><time>2026-04-12T06:20:15.022Z</time></trkpt><trkpt lat="43.059074" lon="12.3400499"><ele>273.4</ele><time>2026-04-12T06:20:17.014Z</time></trkpt><trkpt lat="43.0591375" lon="12.340156"><ele>273.0</ele><time>2026-04-12T06:20:19.011Z</time></trkpt><trkpt lat="43.0591988" lon="12.3402621"><ele>274.25</ele><time>2026-04-12T06:20:21.015Z</time></trkpt><trkpt lat="43.0592906" lon="12.3404234"><ele>275.5</ele><time>2026-04-12T06:20:24.023Z</time></trkpt><trkpt lat="43.059354" lon="12.340528"><ele>276.75</ele><time>2026-04-12T06:20:26.018Z</time></trkpt><trkpt lat="43.0594209" lon="12.3406334"><ele>278.0</ele><time>2026-04-12T06:20:28.017Z</time></trkpt><trkpt lat="43.0594893" lon="12.340737"><ele>278.0</ele><time>2026-04-12T06:20:30.031Z</time></trkpt><trkpt lat="43.0595494" lon="12.3408453"><ele>278.0</ele><time>2026-04-12T06:20:32.017Z</time></trkpt><trkpt lat="43.0596123" lon="12.3409478"><ele>278.0</ele><time>2026-04-12T06:20:34.016Z</time></trkpt><trkpt lat="43.0596718" lon="12.3410547"><ele>278.0</ele><time>2026-04-12T06:20:36.034Z</time></trkpt><trkpt lat="43.0597383" lon="12.3411659"><ele>278.0</ele><time>2026-04-12T06:20:38.024Z</time></trkpt><trkpt lat="43.0598008" lon="12.3412704"><ele>278.0</ele><time>2026-04-12T06:20:40.128Z</time></trkpt><trkpt lat="43.0598698" lon="12.3413759"><ele>278.0</ele><time>2026-04-12T06:20:42.012Z</time></trkpt><trkpt lat="43.0599244" lon="12.3414664"><ele>278.0</ele><time>2026-04-12T06:20:44.021Z</time></trkpt><trkpt lat="43.0599922" lon="12.3415662"><ele>278.0</ele><time>2026-04-12T06:20:46.01Z</time></trkpt><trkpt lat="43.0600532" lon="12.3416562"><ele>278.0</ele><time>2026-04-12T06:20:48.021Z</time></trkpt><trkpt lat="43.0601211" lon="12.3417638"><ele>278.8</ele><time>2026-04-12T06:20:50.003Z</time></trkpt><trkpt lat="43.060191" lon="12.3418641"><ele>279.6</ele><time>2026-04-12T06:20:52.123Z</time></trkpt><trkpt lat="43.0602534" lon="12.3419694"><ele>280.4</ele><time>2026-04-12T06:20:54.014Z</time></trkpt><trkpt lat="43.0603143" lon="12.3420462"><ele>281.2</ele><time>2026-04-12T06:20:56.018Z</time></trkpt><trkpt lat="43.0603828" lon="12.3421701"><ele>282.0</ele><time>2026-04-12T06:20:58.018Z</time></trkpt><trkpt lat="43.0604522" lon="12.3422698"><ele>282.2</ele><time>2026-04-12T06:21:00.02Z</time></trkpt><trkpt lat="43.0605227" lon="12.3423728"><ele>282.4</ele><time>2026-04-12T06:21:02.02Z</time></trkpt><trkpt lat="43.0605958" lon="12.3424732"><ele>282.6</ele><time>2026-04-12T06:21:04.016Z</time></trkpt><trkpt lat="43.060671" lon="12.342578"><ele>282.8</ele><time>2026-04-12T06:21:06.029Z</time></trkpt><trkpt lat="43.0607478" lon="12.3426855"><ele>283.0</ele><time>2026-04-12T06:21:08.013Z</time></trkpt><trkpt lat="43.0608147" lon="12.3427909"><ele>282.4</ele><time>2026-04-12T06:21:10Z</time></trkpt><trkpt lat="43.0608938" lon="12.3428933"><ele>281.8</ele><time>2026-04-12T06:21:12.021Z</time></trkpt><trkpt lat="43.0609644" lon="12.3429974"><ele>281.2</ele><time>2026-04-12T06:21:14.012Z</time></trkpt><trkpt lat="43.0610467" lon="12.3430943"><ele>280.6</ele><time>2026-04-12T06:21:16.016Z</time></trkpt><trkpt lat="43.06112" lon="12.3431972"><ele>280.0</ele><time>2026-04-12T06:21:18.022Z</time></trkpt><trkpt lat="43.0611921" lon="12.3433045"><ele>280.0</ele><time>2026-04-12T06:21:20.014Z</time></trkpt><trkpt lat="43.0612574" lon="12.3434131"><ele>280.0</ele><time>2026-04-12T06:21:22.125Z</time></trkpt><trkpt lat="43.0613278" lon="12.3435207"><ele>280.0</ele><time>2026-04-12T06:21:24.012Z</time></trkpt><trkpt lat="43.0613961" lon="12.3436195"><ele>280.0</ele><time>2026-04-12T06:21:26.014Z</time></trkpt><trkpt lat="43.0614659" lon="12.3437242"><ele>280.0</ele><time>2026-04-12T06:21:28.127Z</time></trkpt><trkpt lat="43.061534" lon="12.3438184"><ele>280.0</ele><time>2026-04-12T06:21:30.022Z</time></trkpt><trkpt lat="43.0616016" lon="12.3439187"><ele>280.0</ele><time>2026-04-12T06:21:32.021Z</time></trkpt><trkpt lat="43.0616704" lon="12.3440175"><ele>280.0</ele><time>2026-04-12T06:21:34.011Z</time></trkpt><trkpt lat="43.0617429" lon="12.3441098"><ele>280.0</ele><time>2026-04-12T06:21:36.021Z</time></trkpt><trkpt lat="43.0618143" lon="12.3442025"><ele>280.0</ele><time>2026-04-12T06:21:38.013Z</time></trkpt><trkpt lat="43.0618783" lon="12.3442968"><ele>280.0</ele><time>2026-04-12T06:21:40.13Z</time></trkpt><trkpt lat="43.0619425" lon="12.3443947"><ele>280.0</ele><time>2026-04-12T06:21:42.013Z</time></trkpt><trkpt lat="43.0620151" lon="12.344481"><ele>280.0</ele><time>2026-04-12T06:21:44.015Z</time></trkpt><trkpt lat="43.0620863" lon="12.3445732"><ele>280.0</ele><time>2026-04-12T06:21:46.006Z</time></trkpt><trkpt lat="43.062154" lon="12.3446686"><ele>280.0</ele><time>2026-04-12T06:21:48.005Z</time></trkpt><trkpt lat="43.0622205" lon="12.344768"><ele>280.0</ele><time>2026-04-12T06:21:50.002Z</time></trkpt><trkpt lat="43.0622888" lon="12.3448596"><ele>280.0</ele><time>2026-04-12T06:21:52.012Z</time></trkpt><trkpt lat="43.0623571" lon="12.3449493"><ele>280.0</ele><time>2026-04-12T06:21:54.017Z</time></trkpt><trkpt lat="43.0624253" lon="12.3450428"><ele>280.0</ele><time>2026-04-12T06:21:56.016Z</time></trkpt><trkpt lat="43.0624946" lon="12.3451404"><ele>280.0</ele><time>2026-04-12T06:21:58.004Z</time></trkpt><trkpt lat="43.0625594" lon="12.3452321"><ele>280.0</ele><time>2026-04-12T06:22:00.016Z</time></trkpt><trkpt lat="43.0626253" lon="12.3453245"><ele>280.0</ele><time>2026-04-12T06:22:02.009Z</time></trkpt><trkpt lat="43.0626958" lon="12.3454157"><ele>280.0</ele><time>2026-04-12T06:22:04.024Z</time></trkpt><trkpt lat="43.0627601" lon="12.3455013"><ele>280.0</ele><time>2026-04-12T06:22:06Z</time></trkpt><trkpt lat="43.0628309" lon="12.3455879"><ele>280.0</ele><time>2026-04-12T06:22:08.005Z</time></trkpt><trkpt lat="43.0628964" lon="12.3456873"><ele>280.0</ele><time>2026-04-12T06:22:10.009Z</time></trkpt><trkpt lat="43.0629671" lon="12.345785"><ele>280.0</ele><time>2026-04-12T06:22:12.002Z</time></trkpt><trkpt lat="43.0630361" lon="12.3458771"><ele>280.0</ele><time>2026-04-12T06:22:14.002Z</time></trkpt><trkpt lat="43.0630995" lon="12.345966"><ele>280.0</ele><time>2026-04-12T06:22:16.006Z</time></trkpt><trkpt lat="43.0631671" lon="12.3460646"><ele>280.0</ele><time>2026-04-12T06:22:18.002Z</time></trkpt><trkpt lat="43.0632383" lon="12.3461637"><ele>280.0</ele><time>2026-04-12T06:22:20.004Z</time></trkpt><trkpt lat="43.0633054" lon="12.3462572"><ele>280.0</ele><time>2026-04-12T06:22:22.002Z</time></trkpt><trkpt lat="43.0633735" lon="12.3463531"><ele>280.0</ele><time>2026-04-12T06:22:24.003Z</time></trkpt><trkpt lat="43.0634434" lon="12.3464517"><ele>280.0</ele><time>2026-04-12T06:22:26.083Z</time></trkpt><trkpt lat="43.0635149" lon="12.3465445"><ele>280.0</ele><time>2026-04-12T06:22:28.013Z</time></trkpt><trkpt lat="43.0635866" lon="12.3466415"><ele>279.6</ele><time>2026-04-12T06:22:30.008Z</time></trkpt><trkpt lat="43.063655" lon="12.3467405"><ele>279.2</ele><time>2026-04-12T06:22:32.098Z</time></trkpt><trkpt lat="43.063723" lon="12.34684"><ele>278.8</ele><time>2026-04-12T06:22:34.02Z</time></trkpt><trkpt lat="43.0637906" lon="12.3469349"><ele>278.4</ele><time>2026-04-12T06:22:36.014Z</time></trkpt><trkpt lat="43.0638678" lon="12.347029"><ele>278.0</ele><time>2026-04-12T06:22:38.015Z</time></trkpt><trkpt lat="43.063933" lon="12.3471269"><ele>278.0</ele><time>2026-04-12T06:22:40.025Z</time></trkpt><trkpt lat="43.0640025" lon="12.3472231"><ele>278.0</ele><time>2026-04-12T06:22:42.016Z</time></trkpt><trkpt lat="43.0640696" lon="12.3473204"><ele>278.0</ele><time>2026-04-12T06:22:44.119Z</time></trkpt><trkpt lat="43.0641447" lon="12.3474186"><ele>278.0</ele><time>2026-04-12T06:22:46.03Z</time></trkpt><trkpt lat="43.064209" lon="12.3475173"><ele>278.0</ele><time>2026-04-12T06:22:48.034Z</time></trkpt><trkpt lat="43.0642789" lon="12.3476158"><ele>278.4</ele><time>2026-04-12T06:22:50.017Z</time></trkpt><trkpt lat="43.0643483" lon="12.3477105"><ele>278.8</ele><time>2026-04-12T06:22:52.03Z</time></trkpt><trkpt lat="43.0644137" lon="12.3478121"><ele>279.2</ele><time>2026-04-12T06:22:54.019Z</time></trkpt><trkpt lat="43.0644858" lon="12.3479111"><ele>279.6</ele><time>2026-04-12T06:22:56.012Z</time></trkpt><trkpt lat="43.064557" lon="12.348004"><ele>280.0</ele><time>2026-04-12T06:22:58.029Z</time></trkpt><trkpt lat="43.0646305" lon="12.3481025"><ele>280.0</ele><time>2026-04-12T06:23:00.031Z</time></trkpt><trkpt lat="43.0647014" lon="12.348197"><ele>280.0</ele><time>2026-04-12T06:23:02.01Z</time></trkpt><trkpt lat="43.0647665" lon="12.3482921"><ele>280.0</ele><time>2026-04-12T06:23:04.013Z</time></trkpt><trkpt lat="43.0648313" lon="12.3483762"><ele>280.0</ele><time>2026-04-12T06:23:06.001Z</time></trkpt><trkpt lat="43.0649038" lon="12.3484744"><ele>280.0</ele><time>2026-04-12T06:23:08.014Z</time></trkpt><trkpt lat="43.0649709" lon="12.3485647"><ele>280.0</ele><time>2026-04-12T06:23:10.013Z</time></trkpt><trkpt lat="43.0650438" lon="12.348658"><ele>280.0</ele><time>2026-04-12T06:23:12.017Z</time></trkpt><trkpt lat="43.0651115" lon="12.3487523"><ele>280.0</ele><time>2026-04-12T06:23:14.009Z</time></trkpt><trkpt lat="43.0651774" lon="12.3488464"><ele>280.0</ele><time>2026-04-12T06:23:16.02Z</time></trkpt><trkpt lat="43.065246" lon="12.3489391"><ele>280.0</ele><time>2026-04-12T06:23:18.012Z</time></trkpt><trkpt lat="43.0653202" lon="12.3490322"><ele>280.0</ele><time>2026-04-12T06:23:20.017Z</time></trkpt><trkpt lat="43.0653892" lon="12.3491237"><ele>280.0</ele><time>2026-04-12T06:23:22.015Z</time></trkpt><trkpt lat="43.0654556" lon="12.3492149"><ele>280.0</ele><time>2026-04-12T06:23:24.02Z</time></trkpt><trkpt lat="43.0655192" lon="12.3493084"><ele>280.0</ele><time>2026-04-12T06:23:25.997Z</time></trkpt><trkpt lat="43.065592" lon="12.3494003"><ele>280.0</ele><time>2026-04-12T06:23:28.015Z</time></trkpt><trkpt lat="43.0656586" lon="12.3494973"><ele>280.0</ele><time>2026-04-12T06:23:30.019Z</time></trkpt><trkpt lat="43.0657253" lon="12.3495949"><ele>280.0</ele><time>2026-04-12T06:23:32.003Z</time></trkpt><trkpt lat="43.065785" lon="12.3496939"><ele>280.0</ele><time>2026-04-12T06:23:34.017Z</time></trkpt><trkpt lat="43.0658529" lon="12.3497873"><ele>280.0</ele><time>2026-04-12T06:23:36.028Z</time></trkpt><trkpt lat="43.0659194" lon="12.349879"><ele>280.0</ele><time>2026-04-12T06:23:38.021Z</time></trkpt><trkpt lat="43.0659855" lon="12.3499733"><ele>280.2</ele><time>2026-04-12T06:23:40.02Z</time></trkpt><trkpt lat="43.0660502" lon="12.3500647"><ele>280.4</ele><time>2026-04-12T06:23:42.017Z</time></trkpt><trkpt lat="43.0661187" lon="12.3501572"><ele>280.6</ele><time>2026-04-12T06:23:44.013Z</time></trkpt><trkpt lat="43.0661918" lon="12.3502483"><ele>280.8</ele><time>2026-04-12T06:23:46.023Z</time></trkpt><trkpt lat="43.0662598" lon="12.3503328"><ele>281.0</ele><time>2026-04-12T06:23:48.136Z</time></trkpt><trkpt lat="43.0663238" lon="12.3504215"><ele>281.0</ele><time>2026-04-12T06:23:50.017Z</time></trkpt><trkpt lat="43.0663967" lon="12.3505168"><ele>281.0</ele><time>2026-04-12T06:23:52.022Z</time></trkpt><trkpt lat="43.0664633" lon="12.350611"><ele>281.0</ele><time>2026-04-12T06:23:54.125Z</time></trkpt><trkpt lat="43.0665328" lon="12.3507003"><ele>281.0</ele><time>2026-04-12T06:23:56.016Z</time></trkpt><trkpt lat="43.0665939" lon="12.350792"><ele>281.0</ele><time>2026-04-12T06:23:58.015Z</time></trkpt><trkpt lat="43.0666588" lon="12.3508859"><ele>281.2</ele><time>2026-04-12T06:24:00.127Z</time></trkpt><trkpt lat="43.0667236" lon="12.3509736"><ele>281.40000000000003</ele><time>2026-04-12T06:24:02.024Z</time></trkpt><trkpt lat="43.0667919" lon="12.3510674"><ele>281.6</ele><time>2026-04-12T06:24:03.998Z</time></trkpt><trkpt lat="43.0668648" lon="12.3511655"><ele>281.8</ele><time>2026-04-12T06:24:06.011Z</time></trkpt><trkpt lat="43.0669347" lon="12.3512593"><ele>282.0</ele><time>2026-04-12T06:24:08.012Z</time></trkpt><trkpt lat="43.0669994" lon="12.3513525"><ele>282.2</ele><time>2026-04-12T06:24:10.021Z</time></trkpt><trkpt lat="43.0670691" lon="12.3514375"><ele>282.4</ele><time>2026-04-12T06:24:12.013Z</time></trkpt><trkpt lat="43.0671386" lon="12.3515306"><ele>282.6</ele><time>2026-04-12T06:24:14.01Z</time></trkpt><trkpt lat="43.0672161" lon="12.3516156"><ele>282.8</ele><time>2026-04-12T06:24:16.013Z</time></trkpt><trkpt lat="43.0672862" lon="12.3517125"><ele>283.0</ele><time>2026-04-12T06:24:18.01Z</time></trkpt><trkpt lat="43.0673581" lon="12.3518186"><ele>283.0</ele><time>2026-04-12T06:24:20.015Z</time></trkpt><trkpt lat="43.0674229" lon="12.3519157"><ele>283.0</ele><time>2026-04-12T06:24:22.017Z</time></trkpt><trkpt lat="43.0674899" lon="12.3520133"><ele>283.0</ele><time>2026-04-12T06:24:24.012Z</time></trkpt><trkpt lat="43.0675623" lon="12.3521074"><ele>283.0</ele><time>2026-04-12T06:24:26.027Z</time></trkpt><trkpt lat="43.0676293" lon="12.3522049"><ele>283.0</ele><time>2026-04-12T06:24:28.014Z</time></trkpt><trkpt lat="43.0677247" lon="12.3523377"><ele>283.4</ele><time>2026-04-12T06:24:31.016Z</time></trkpt><trkpt lat="43.0677917" lon="12.3524301"><ele>283.8</ele><time>2026-04-12T06:24:33.022Z</time></trkpt><trkpt lat="43.0678591" lon="12.3525118"><ele>284.2</ele><time>2026-04-12T06:24:35.013Z</time></trkpt><trkpt lat="43.0679305" lon="12.3526062"><ele>284.6</ele><time>2026-04-12T06:24:37.01Z</time></trkpt><trkpt lat="43.0679959" lon="12.3527006"><ele>285.0</ele><time>2026-04-12T06:24:39.021Z</time></trkpt><trkpt lat="43.0680681" lon="12.3527949"><ele>285.0</ele><time>2026-04-12T06:24:41.017Z</time></trkpt><trkpt lat="43.0681472" lon="12.3528942"><ele>285.0</ele><time>2026-04-12T06:24:43.016Z</time></trkpt><trkpt lat="43.0682182" lon="12.3529883"><ele>285.0</ele><time>2026-04-12T06:24:45.017Z</time></trkpt><trkpt lat="43.0682852" lon="12.353088"><ele>285.0</ele><time>2026-04-12T06:24:47.106Z</time></trkpt><trkpt lat="43.0683504" lon="12.3531812"><ele>285.0</ele><time>2026-04-12T06:24:49.011Z</time></trkpt><trkpt lat="43.0684206" lon="12.3532819"><ele>285.0</ele><time>2026-04-12T06:24:51.015Z</time></trkpt><trkpt lat="43.0684942" lon="12.3533784"><ele>285.0</ele><time>2026-04-12T06:24:53.012Z</time></trkpt><trkpt lat="43.0685656" lon="12.3534707"><ele>285.0</ele><time>2026-04-12T06:24:55.013Z</time></trkpt><trkpt lat="43.0686403" lon="12.353576"><ele>285.0</ele><time>2026-04-12T06:24:57.013Z</time></trkpt><trkpt lat="43.0687063" lon="12.3536753"><ele>285.0</ele><time>2026-04-12T06:24:59.016Z</time></trkpt><trkpt lat="43.0687788" lon="12.3537755"><ele>284.6</ele><time>2026-04-12T06:25:01.024Z</time></trkpt><trkpt lat="43.0688611" lon="12.3538751"><ele>284.2</ele><time>2026-04-12T06:25:03.015Z</time></trkpt><trkpt lat="43.0689332" lon="12.3539724"><ele>283.8</ele><time>2026-04-12T06:25:05.013Z</time></trkpt><trkpt lat="43.0690093" lon="12.3540635"><ele>283.4</ele><time>2026-04-12T06:25:07.019Z</time></trkpt><trkpt lat="43.0690883" lon="12.3541658"><ele>283.0</ele><time>2026-04-12T06:25:09.016Z</time></trkpt><trkpt lat="43.0691687" lon="12.3542718"><ele>282.8</ele><time>2026-04-12T06:25:11.012Z</time></trkpt><trkpt lat="43.0692384" lon="12.3543583"><ele>282.6</ele><time>2026-04-12T06:25:13.017Z</time></trkpt><trkpt lat="43.0693122" lon="12.3544501"><ele>282.4</ele><time>2026-04-12T06:25:15.022Z</time></trkpt><trkpt lat="43.0693913" lon="12.3545496"><ele>282.2</ele><time>2026-04-12T06:25:17.013Z</time></trkpt><trkpt lat="43.0694693" lon="12.354642"><ele>282.0</ele><time>2026-04-12T06:25:19.016Z</time></trkpt><trkpt lat="43.069543" lon="12.3547423"><ele>281.8</ele><time>2026-04-12T06:25:21.014Z</time></trkpt><trkpt lat="43.0696092" lon="12.3548486"><ele>281.6</ele><time>2026-04-12T06:25:23.134Z</time></trkpt><trkpt lat="43.0696923" lon="12.3549426"><ele>281.40000000000003</ele><time>2026-04-12T06:25:25.015Z</time></trkpt><trkpt lat="43.0697651" lon="12.3550459"><ele>281.2</ele><time>2026-04-12T06:25:27.013Z</time></trkpt><trkpt lat="43.0698417" lon="12.3551385"><ele>281.0</ele><time>2026-04-12T06:25:29.013Z</time></trkpt><trkpt lat="43.0699137" lon="12.3552365"><ele>281.2</ele><time>2026-04-12T06:25:31.024Z</time></trkpt><trkpt lat="43.0699903" lon="12.3553384"><ele>281.40000000000003</ele><time>2026-04-12T06:25:33.016Z</time></trkpt><trkpt lat="43.0700754" lon="12.3554441"><ele>281.6</ele><time>2026-04-12T06:25:35.014Z</time></trkpt><trkpt lat="43.0701508" lon="12.3555492"><ele>281.8</ele><time>2026-04-12T06:25:37.01Z</time></trkpt><trkpt lat="43.0702258" lon="12.3556621"><ele>282.0</ele><time>2026-04-12T06:25:39.009Z</time></trkpt><trkpt lat="43.0703032" lon="12.3557693"><ele>281.6</ele><time>2026-04-12T06:25:41.01Z</time></trkpt><trkpt lat="43.0703818" lon="12.3558645"><ele>281.2</ele><time>2026-04-12T06:25:43.02Z</time></trkpt><trkpt lat="43.0704626" lon="12.3559574"><ele>280.8</ele><time>2026-04-12T06:25:45.03Z</time></trkpt><trkpt lat="43.0705552" lon="12.3560364"><ele>280.4</ele><time>2026-04-12T06:25:47.012Z</time></trkpt><trkpt lat="43.0706414" lon="12.3561176"><ele>280.0</ele><time>2026-04-12T06:25:49.017Z</time></trkpt><trkpt lat="43.070716" lon="12.3561762"><ele>280.0</ele><time>2026-04-12T06:25:51.022Z</time></trkpt><trkpt lat="43.0707696" lon="12.3562384"><ele>280.0</ele><time>2026-04-12T06:25:53.014Z</time></trkpt><trkpt lat="43.0708102" lon="12.3563378"><ele>280.0</ele><time>2026-04-12T06:25:55.013Z</time></trkpt><trkpt lat="43.0708651" lon="12.3564483"><ele>280.0</ele><time>2026-04-12T06:25:57.011Z</time></trkpt><trkpt lat="43.070942" lon="12.3565725"><ele>280.0</ele><time>2026-04-12T06:25:59.013Z</time></trkpt><trkpt lat="43.0710265" lon="12.3566928"><ele>279.6</ele><time>2026-04-12T06:26:01.018Z</time></trkpt><trkpt lat="43.0711061" lon="12.3567892"><ele>279.2</ele><time>2026-04-12T06:26:03.02Z</time></trkpt><trkpt lat="43.0711951" lon="12.3568334"><ele>278.8</ele><time>2026-04-12T06:26:05.011Z</time></trkpt><trkpt lat="43.0712892" lon="12.3568282"><ele>278.4</ele><time>2026-04-12T06:26:07.013Z</time></trkpt><trkpt lat="43.0713764" lon="12.3567752"><ele>278.0</ele><time>2026-04-12T06:26:09.028Z</time></trkpt><trkpt lat="43.0714498" lon="12.3566867"><ele>278.0</ele><time>2026-04-12T06:26:11.018Z</time></trkpt><trkpt lat="43.0715087" lon="12.3565887"><ele>278.0</ele><time>2026-04-12T06:26:13.009Z</time></trkpt><trkpt lat="43.0715735" lon="12.3565038"><ele>278.0</ele><time>2026-04-12T06:26:15.024Z</time></trkpt><trkpt lat="43.071622" lon="12.3564099"><ele>278.0</ele><time>2026-04-12T06:26:17.012Z</time></trkpt><trkpt lat="43.0716853" lon="12.3563212"><ele>278.0</ele><time>2026-04-12T06:26:19.016Z</time></trkpt><trkpt lat="43.0717348" lon="12.3562358"><ele>278.0</ele><time>2026-04-12T06:26:21.012Z</time></trkpt><trkpt lat="43.0717853" lon="12.3561448"><ele>279.0</ele><time>2026-04-12T06:26:23.125Z</time></trkpt><trkpt lat="43.0718479" lon="12.3560593"><ele>280.0</ele><time>2026-04-12T06:26:25.017Z</time></trkpt><trkpt lat="43.0719045" lon="12.3559738"><ele>281.0</ele><time>2026-04-12T06:26:27.014Z</time></trkpt><trkpt lat="43.0719506" lon="12.3558756"><ele>282.0</ele><time>2026-04-12T06:26:29.01Z</time></trkpt><trkpt lat="43.072015" lon="12.3557679"><ele>283.0</ele><time>2026-04-12T06:26:31.006Z</time></trkpt><trkpt lat="43.0720725" lon="12.3556573"><ele>283.0</ele><time>2026-04-12T06:26:33.02Z</time></trkpt><trkpt lat="43.0721451" lon="12.3555679"><ele>283.0</ele><time>2026-04-12T06:26:35.002Z</time></trkpt><trkpt lat="43.0722095" lon="12.3554771"><ele>283.0</ele><time>2026-04-12T06:26:37.001Z</time></trkpt><trkpt lat="43.0722691" lon="12.3553818"><ele>283.0</ele><time>2026-04-12T06:26:39.004Z</time></trkpt><trkpt lat="43.0723262" lon="12.3552837"><ele>283.0</ele><time>2026-04-12T06:26:41.002Z</time></trkpt><trkpt lat="43.0723807" lon="12.3551902"><ele>282.2</ele><time>2026-04-12T06:26:43.006Z</time></trkpt><trkpt lat="43.0724554" lon="12.3550892"><ele>281.4</ele><time>2026-04-12T06:26:44.998Z</time></trkpt><trkpt lat="43.0725263" lon="12.3549853"><ele>280.59999999999997</ele><time>2026-04-12T06:26:47.002Z</time></trkpt><trkpt lat="43.072607" lon="12.3548789"><ele>279.8</ele><time>2026-04-12T06:26:49.001Z</time></trkpt><trkpt lat="43.0726905" lon="12.354765"><ele>279.0</ele><time>2026-04-12T06:26:51.006Z</time></trkpt><trkpt lat="43.0727735" lon="12.3546466"><ele>278.6666666666667</ele><time>2026-04-12T06:26:53.004Z</time></trkpt><trkpt lat="43.0728601" lon="12.3545206"><ele>278.3333333333333</ele><time>2026-04-12T06:26:55.004Z</time></trkpt><trkpt lat="43.0729056" lon="12.3544582"><ele>278.0</ele><time>2026-04-12T06:26:56.001Z</time></trkpt><trkpt lat="43.0729506" lon="12.3543917"><ele>277.66666666666663</ele><time>2026-04-12T06:26:57.004Z</time></trkpt><trkpt lat="43.0729951" lon="12.3543266"><ele>277.3333333333333</ele><time>2026-04-12T06:26:58.01Z</time></trkpt><trkpt lat="43.0730394" lon="12.3542623"><ele>277.0</ele><time>2026-04-12T06:26:59.001Z</time></trkpt><trkpt lat="43.0730848" lon="12.3541989"><ele>277.0</ele><time>2026-04-12T06:27:00.007Z</time></trkpt><trkpt lat="43.0731307" lon="12.3541354"><ele>277.0</ele><time>2026-04-12T06:27:01Z</time></trkpt><trkpt lat="43.0731758" lon="12.3540698"><ele>277.0</ele><time>2026-04-12T06:27:02.001Z</time></trkpt><trkpt lat="43.0732192" lon="12.3540046"><ele>277.0</ele><time>2026-04-12T06:27:02.999Z</time></trkpt><trkpt lat="43.0732623" lon="12.3539385"><ele>277.0</ele><time>2026-04-12T06:27:04.001Z</time></trkpt><trkpt lat="43.0733466" lon="12.3538165"><ele>277.0</ele><time>2026-04-12T06:27:05.997Z</time></trkpt><trkpt lat="43.0734288" lon="12.353703"><ele>276.0</ele><time>2026-04-12T06:27:08Z</time></trkpt><trkpt lat="43.0735092" lon="12.3535996"><ele>275.0</ele><time>2026-04-12T06:27:09.998Z</time></trkpt><trkpt lat="43.0735918" lon="12.3534859"><ele>274.0</ele><time>2026-04-12T06:27:12.008Z</time></trkpt><trkpt lat="43.0736624" lon="12.3533837"><ele>273.0</ele><time>2026-04-12T06:27:14Z</time></trkpt><trkpt lat="43.0737375" lon="12.3532791"><ele>272.0</ele><time>2026-04-12T06:27:16.001Z</time></trkpt><trkpt lat="43.073819" lon="12.353157"><ele>271.6</ele><time>2026-04-12T06:27:18.005Z</time></trkpt><trkpt lat="43.0738996" lon="12.3530303"><ele>271.2</ele><time>2026-04-12T06:27:20.007Z</time></trkpt><trkpt lat="43.0739841" lon="12.3529036"><ele>270.8</ele><time>2026-04-12T06:27:22.002Z</time></trkpt><trkpt lat="43.0740267" lon="12.3528386"><ele>270.4</ele><time>2026-04-12T06:27:23.003Z</time></trkpt><trkpt lat="43.0741016" lon="12.3526849"><ele>270.0</ele><time>2026-04-12T06:27:25.006Z</time></trkpt><trkpt lat="43.0741188" lon="12.3525902"><ele>270.0</ele><time>2026-04-12T06:27:26.003Z</time></trkpt><trkpt lat="43.0741238" lon="12.3525031"><ele>270.0</ele><time>2026-04-12T06:27:27.008Z</time></trkpt><trkpt lat="43.0741023" lon="12.3523486"><ele>270.0</ele><time>2026-04-12T06:27:29.014Z</time></trkpt><trkpt lat="43.0740995" lon="12.3521998"><ele>270.0</ele><time>2026-04-12T06:27:31.017Z</time></trkpt><trkpt lat="43.0741295" lon="12.3520513"><ele>270.0</ele><time>2026-04-12T06:27:33.018Z</time></trkpt><trkpt lat="43.0741795" lon="12.351925"><ele>268.8</ele><time>2026-04-12T06:27:35Z</time></trkpt><trkpt lat="43.0742572" lon="12.3518315"><ele>267.6</ele><time>2026-04-12T06:27:37.009Z</time></trkpt><trkpt lat="43.0743515" lon="12.3517662"><ele>266.4</ele><time>2026-04-12T06:27:39.002Z</time></trkpt><trkpt lat="43.0744613" lon="12.3517407"><ele>265.2</ele><time>2026-04-12T06:27:41.018Z</time></trkpt><trkpt lat="43.0745626" lon="12.3517327"><ele>264.0</ele><time>2026-04-12T06:27:43.048Z</time></trkpt><trkpt lat="43.074651" lon="12.3517037"><ele>264.0</ele><time>2026-04-12T06:27:45.019Z</time></trkpt><trkpt lat="43.0747124" lon="12.3516087"><ele>264.0</ele><time>2026-04-12T06:27:47.013Z</time></trkpt><trkpt lat="43.0747562" lon="12.3514881"><ele>264.0</ele><time>2026-04-12T06:27:49.022Z</time></trkpt><trkpt lat="43.0748238" lon="12.3514354"><ele>264.0</ele><time>2026-04-12T06:27:51.037Z</time></trkpt><trkpt lat="43.0749086" lon="12.3514972"><ele>264.0</ele><time>2026-04-12T06:27:53.035Z</time></trkpt><trkpt lat="43.0749828" lon="12.3515738"><ele>263.8333333333333</ele><time>2026-04-12T06:27:54.993Z</time></trkpt><trkpt lat="43.0750706" lon="12.351659"><ele>263.6666666666667</ele><time>2026-04-12T06:27:57.022Z</time></trkpt><trkpt lat="43.0751343" lon="12.3516381"><ele>263.5</ele><time>2026-04-12T06:27:59.01Z</time></trkpt><trkpt lat="43.0751785" lon="12.3515587"><ele>263.33333333333337</ele><time>2026-04-12T06:28:02.02Z</time></trkpt><trkpt lat="43.0752279" lon="12.3514849"><ele>263.1666666666667</ele><time>2026-04-12T06:28:04.015Z</time></trkpt><trkpt lat="43.0752895" lon="12.3513942"><ele>263.0</ele><time>2026-04-12T06:28:06.012Z</time></trkpt><trkpt lat="43.0753498" lon="12.3512973"><ele>263.0</ele><time>2026-04-12T06:28:08.023Z</time></trkpt><trkpt lat="43.0754435" lon="12.3511406"><ele>263.0</ele><time>2026-04-12T06:28:11.017Z</time></trkpt><trkpt lat="43.0755046" lon="12.3510262"><ele>263.0</ele><time>2026-04-12T06:28:13.031Z</time></trkpt><trkpt lat="43.0755609" lon="12.3509362"><ele>263.0</ele><time>2026-04-12T06:28:15.012Z</time></trkpt><trkpt lat="43.0756144" lon="12.3508321"><ele>263.0</ele><time>2026-04-12T06:28:17.013Z</time></trkpt><trkpt lat="43.0756758" lon="12.3507286"><ele>263.0</ele><time>2026-04-12T06:28:19.019Z</time></trkpt><trkpt lat="43.0757452" lon="12.350625"><ele>263.0</ele><time>2026-04-12T06:28:21.004Z</time></trkpt><trkpt lat="43.0758072" lon="12.3505398"><ele>263.0</ele><time>2026-04-12T06:28:23.024Z</time></trkpt><trkpt lat="43.0758706" lon="12.3504435"><ele>263.0</ele><time>2026-04-12T06:28:25.004Z</time></trkpt><trkpt lat="43.0759288" lon="12.3503584"><ele>263.0</ele><time>2026-04-12T06:28:27.013Z</time></trkpt><trkpt lat="43.0759791" lon="12.3502442"><ele>262.6</ele><time>2026-04-12T06:28:29.002Z</time></trkpt><trkpt lat="43.076037" lon="12.35017"><ele>262.20000000000005</ele><time>2026-04-12T06:28:31.022Z</time></trkpt><trkpt lat="43.0761197" lon="12.3500461"><ele>261.8</ele><time>2026-04-12T06:28:33.003Z</time></trkpt><trkpt lat="43.0761745" lon="12.3499419"><ele>261.40000000000003</ele><time>2026-04-12T06:28:35.012Z</time></trkpt><trkpt lat="43.0762207" lon="12.3498736"><ele>261.0</ele><time>2026-04-12T06:28:36.021Z</time></trkpt><trkpt lat="43.0762801" lon="12.3497646"><ele>260.6</ele><time>2026-04-12T06:28:38.008Z</time></trkpt><trkpt lat="43.0763308" lon="12.3496535"><ele>260.20000000000005</ele><time>2026-04-12T06:28:40.021Z</time></trkpt><trkpt lat="43.0763884" lon="12.3495444"><ele>259.79999999999995</ele><time>2026-04-12T06:28:42.002Z</time></trkpt><trkpt lat="43.0764432" lon="12.3494466"><ele>259.4</ele><time>2026-04-12T06:28:44.025Z</time></trkpt><trkpt lat="43.0764991" lon="12.3493492"><ele>259.0</ele><time>2026-04-12T06:28:46.015Z</time></trkpt><trkpt lat="43.0765662" lon="12.3492458"><ele>259.0</ele><time>2026-04-12T06:28:48.024Z</time></trkpt><trkpt lat="43.0766294" lon="12.3491465"><ele>259.0</ele><time>2026-04-12T06:28:50.016Z</time></trkpt><trkpt lat="43.0766938" lon="12.3490566"><ele>259.0</ele><time>2026-04-12T06:28:52.032Z</time></trkpt><trkpt lat="43.0767597" lon="12.3489633"><ele>259.0</ele><time>2026-04-12T06:28:54.017Z</time></trkpt><trkpt lat="43.0768305" lon="12.348864"><ele>259.0</ele><time>2026-04-12T06:28:56.011Z</time></trkpt><trkpt lat="43.0768907" lon="12.3487664"><ele>259.0</ele><time>2026-04-12T06:28:58.014Z</time></trkpt><trkpt lat="43.0769637" lon="12.3486689"><ele>259.0</ele><time>2026-04-12T06:29:00.007Z</time></trkpt><trkpt lat="43.077031" lon="12.3485665"><ele>259.0</ele><time>2026-04-12T06:29:02.022Z</time></trkpt><trkpt lat="43.0770959" lon="12.3484633"><ele>259.0</ele><time>2026-04-12T06:29:04.002Z</time></trkpt><trkpt lat="43.0771684" lon="12.3483624"><ele>259.0</ele><time>2026-04-12T06:29:06.013Z</time></trkpt><trkpt lat="43.0772337" lon="12.3482724"><ele>259.0</ele><time>2026-04-12T06:29:08.01Z</time></trkpt><trkpt lat="43.0773085" lon="12.348164"><ele>259.0</ele><time>2026-04-12T06:29:10.016Z</time></trkpt><trkpt lat="43.0773914" lon="12.3480635"><ele>259.0</ele><time>2026-04-12T06:29:12.005Z</time></trkpt><trkpt lat="43.0774694" lon="12.3479731"><ele>259.0</ele><time>2026-04-12T06:29:14Z</time></trkpt><trkpt lat="43.0775364" lon="12.3478852"><ele>259.0</ele><time>2026-04-12T06:29:16.031Z</time></trkpt><trkpt lat="43.0776278" lon="12.3477892"><ele>259.4</ele><time>2026-04-12T06:29:18.018Z</time></trkpt><trkpt lat="43.0777066" lon="12.3477058"><ele>259.79999999999995</ele><time>2026-04-12T06:29:20.015Z</time></trkpt><trkpt lat="43.0777773" lon="12.3476254"><ele>260.20000000000005</ele><time>2026-04-12T06:29:22.032Z</time></trkpt><trkpt lat="43.0778463" lon="12.3475605"><ele>260.6</ele><time>2026-04-12T06:29:24.025Z</time></trkpt><trkpt lat="43.0779422" lon="12.3475007"><ele>261.0</ele><time>2026-04-12T06:29:26.013Z</time></trkpt><trkpt lat="43.0780152" lon="12.3475719"><ele>261.0</ele><time>2026-04-12T06:29:28.017Z</time></trkpt><trkpt lat="43.0780777" lon="12.3476599"><ele>261.0</ele><time>2026-04-12T06:29:30.005Z</time></trkpt><trkpt lat="43.078146" lon="12.3477472"><ele>261.0</ele><time>2026-04-12T06:29:32.02Z</time></trkpt><trkpt lat="43.0782086" lon="12.3478316"><ele>261.0</ele><time>2026-04-12T06:29:34.012Z</time></trkpt><trkpt lat="43.0782724" lon="12.3479214"><ele>261.0</ele><time>2026-04-12T06:29:36.021Z</time></trkpt><trkpt lat="43.0783355" lon="12.3480136"><ele>261.6</ele><time>2026-04-12T06:29:38.028Z</time></trkpt><trkpt lat="43.0784004" lon="12.3481037"><ele>262.20000000000005</ele><time>2026-04-12T06:29:40.013Z</time></trkpt><trkpt lat="43.0784667" lon="12.3481892"><ele>262.79999999999995</ele><time>2026-04-12T06:29:42.001Z</time></trkpt><trkpt lat="43.0785388" lon="12.3482674"><ele>263.4</ele><time>2026-04-12T06:29:44.005Z</time></trkpt><trkpt lat="43.0786092" lon="12.3483453"><ele>264.0</ele><time>2026-04-12T06:29:46.018Z</time></trkpt><trkpt lat="43.0786777" lon="12.3484297"><ele>264.0</ele><time>2026-04-12T06:29:48.021Z</time></trkpt><trkpt lat="43.0787463" lon="12.3485149"><ele>264.0</ele><time>2026-04-12T06:29:50.016Z</time></trkpt><trkpt lat="43.0788118" lon="12.3485933"><ele>264.0</ele><time>2026-04-12T06:29:52.016Z</time></trkpt><trkpt lat="43.0788743" lon="12.3486725"><ele>264.0</ele><time>2026-04-12T06:29:54.013Z</time></trkpt><trkpt lat="43.0789369" lon="12.348752"><ele>264.0</ele><time>2026-04-12T06:29:56.013Z</time></trkpt><trkpt lat="43.0789964" lon="12.3488312"><ele>264.0</ele><time>2026-04-12T06:29:58.013Z</time></trkpt><trkpt lat="43.0790526" lon="12.3489073"><ele>264.1666666666667</ele><time>2026-04-12T06:30:00.112Z</time></trkpt><trkpt lat="43.0790745" lon="12.3490205"><ele>264.3333333333333</ele><time>2026-04-12T06:30:02.013Z</time></trkpt><trkpt lat="43.0790848" lon="12.3491401"><ele>264.5</ele><time>2026-04-12T06:30:04.019Z</time></trkpt><trkpt lat="43.079121" lon="12.3492484"><ele>264.66666666666663</ele><time>2026-04-12T06:30:06.021Z</time></trkpt><trkpt lat="43.0791678" lon="12.3493484"><ele>264.8333333333333</ele><time>2026-04-12T06:30:08.015Z</time></trkpt><trkpt lat="43.0792197" lon="12.3494422"><ele>265.0</ele><time>2026-04-12T06:30:10.015Z</time></trkpt><trkpt lat="43.0792769" lon="12.3495397"><ele>265.16666666666663</ele><time>2026-04-12T06:30:12.021Z</time></trkpt><trkpt lat="43.0793336" lon="12.3496363"><ele>265.3333333333333</ele><time>2026-04-12T06:30:14.019Z</time></trkpt><trkpt lat="43.0793898" lon="12.3497282"><ele>265.5</ele><time>2026-04-12T06:30:16.014Z</time></trkpt><trkpt lat="43.0794459" lon="12.3498133"><ele>265.6666666666667</ele><time>2026-04-12T06:30:18.015Z</time></trkpt><trkpt lat="43.0795118" lon="12.3498942"><ele>265.83333333333337</ele><time>2026-04-12T06:30:20.014Z</time></trkpt><trkpt lat="43.0795651" lon="12.3499677"><ele>266.0</ele><time>2026-04-12T06:30:22.012Z</time></trkpt><trkpt lat="43.0796225" lon="12.3500506"><ele>266.33333333333337</ele><time>2026-04-12T06:30:25.013Z</time></trkpt><trkpt lat="43.0796752" lon="12.3501061"><ele>266.6666666666667</ele><time>2026-04-12T06:30:27.013Z</time></trkpt><trkpt lat="43.0797471" lon="12.3501713"><ele>267.0</ele><time>2026-04-12T06:30:29.014Z</time></trkpt><trkpt lat="43.0798136" lon="12.3502388"><ele>267.3333333333333</ele><time>2026-04-12T06:30:31.015Z</time></trkpt><trkpt lat="43.0798789" lon="12.3503172"><ele>267.66666666666663</ele><time>2026-04-12T06:30:33.015Z</time></trkpt><trkpt lat="43.0799274" lon="12.3504114"><ele>268.0</ele><time>2026-04-12T06:30:35.034Z</time></trkpt><trkpt lat="43.0799675" lon="12.3505151"><ele>268.5</ele><time>2026-04-12T06:30:37.029Z</time></trkpt><trkpt lat="43.0800055" lon="12.3506207"><ele>269.0</ele><time>2026-04-12T06:30:39.013Z</time></trkpt><trkpt lat="43.0800436" lon="12.350727"><ele>269.5</ele><time>2026-04-12T06:30:41.012Z</time></trkpt><trkpt lat="43.0800818" lon="12.3508276"><ele>270.0</ele><time>2026-04-12T06:30:43.015Z</time></trkpt><trkpt lat="43.0801181" lon="12.3509117"><ele>270.5</ele><time>2026-04-12T06:30:45.016Z</time></trkpt><trkpt lat="43.0801607" lon="12.3509877"><ele>271.0</ele><time>2026-04-12T06:30:47.011Z</time></trkpt><trkpt lat="43.0802103" lon="12.3510723"><ele>271.0</ele><time>2026-04-12T06:30:49.014Z</time></trkpt><trkpt lat="43.0802593" lon="12.3511683"><ele>271.0</ele><time>2026-04-12T06:30:51.015Z</time></trkpt><trkpt lat="43.0803068" lon="12.3512715"><ele>271.0</ele><time>2026-04-12T06:30:53.023Z</time></trkpt><trkpt lat="43.0803529" lon="12.3513657"><ele>271.0</ele><time>2026-04-12T06:30:55.011Z</time></trkpt><trkpt lat="43.0803994" lon="12.3514568"><ele>271.0</ele><time>2026-04-12T06:30:57.011Z</time></trkpt><trkpt lat="43.0804423" lon="12.3515467"><ele>271.0</ele><time>2026-04-12T06:30:59.03Z</time></trkpt><trkpt lat="43.0804864" lon="12.3516345"><ele>272.16666666666663</ele><time>2026-04-12T06:31:01.012Z</time></trkpt><trkpt lat="43.0805276" lon="12.3517123"><ele>273.3333333333333</ele><time>2026-04-12T06:31:03.012Z</time></trkpt><trkpt lat="43.0805324" lon="12.3518244"><ele>274.5</ele><time>2026-04-12T06:31:06.026Z</time></trkpt><trkpt lat="43.0805692" lon="12.3519381"><ele>275.6666666666667</ele><time>2026-04-12T06:31:09.014Z</time></trkpt><trkpt lat="43.0805959" lon="12.3520374"><ele>276.83333333333337</ele><time>2026-04-12T06:31:11.019Z</time></trkpt><trkpt lat="43.0806185" lon="12.3521533"><ele>278.0</ele><time>2026-04-12T06:31:13.015Z</time></trkpt><trkpt lat="43.0806636" lon="12.352254"><ele>278.0</ele><time>2026-04-12T06:31:15.02Z</time></trkpt><trkpt lat="43.0807458" lon="12.3522537"><ele>278.0</ele><time>2026-04-12T06:31:17.015Z</time></trkpt><trkpt lat="43.0808297" lon="12.3522088"><ele>278.0</ele><time>2026-04-12T06:31:18.995Z</time></trkpt><trkpt lat="43.0808916" lon="12.352112"><ele>278.0</ele><time>2026-04-12T06:31:21.013Z</time></trkpt><trkpt lat="43.0809647" lon="12.35202"><ele>278.0</ele><time>2026-04-12T06:31:23.02Z</time></trkpt><trkpt lat="43.0810236" lon="12.351932"><ele>277.33333333333337</ele><time>2026-04-12T06:31:24.999Z</time></trkpt><trkpt lat="43.0810896" lon="12.3518494"><ele>276.6666666666667</ele><time>2026-04-12T06:31:27.004Z</time></trkpt><trkpt lat="43.081173" lon="12.3517634"><ele>276.0</ele><time>2026-04-12T06:31:29.015Z</time></trkpt><trkpt lat="43.0812662" lon="12.3517253"><ele>275.3333333333333</ele><time>2026-04-12T06:31:31.016Z</time></trkpt><trkpt lat="43.0813229" lon="12.3516669"><ele>274.66666666666663</ele><time>2026-04-12T06:31:32.027Z</time></trkpt><trkpt lat="43.0813977" lon="12.3517123"><ele>274.0</ele><time>2026-04-12T06:31:36.014Z</time></trkpt><trkpt lat="43.0813603" lon="12.3518248"><ele>274.0</ele><time>2026-04-12T06:31:39.013Z</time></trkpt><trkpt lat="43.0813295" lon="12.3519297"><ele>274.0</ele><time>2026-04-12T06:31:42.014Z</time></trkpt><trkpt lat="43.0813975" lon="12.3519707"><ele>274.0</ele><time>2026-04-12T06:31:45.015Z</time></trkpt><trkpt lat="43.0814551" lon="12.3519152"><ele>274.0</ele><time>2026-04-12T06:31:47.013Z</time></trkpt><trkpt lat="43.0815104" lon="12.3518474"><ele>274.0</ele><time>2026-04-12T06:31:49.01Z</time></trkpt><trkpt lat="43.0815601" lon="12.3517865"><ele>274.0</ele><time>2026-04-12T06:31:51.019Z</time></trkpt><trkpt lat="43.0816384" lon="12.3517114"><ele>274.2</ele><time>2026-04-12T06:31:54.033Z</time></trkpt><trkpt lat="43.0817035" lon="12.3516118"><ele>274.4</ele><time>2026-04-12T06:31:58.02Z</time></trkpt><trkpt lat="43.0817731" lon="12.3515157"><ele>274.6</ele><time>2026-04-12T06:32:00.004Z</time></trkpt><trkpt lat="43.0818667" lon="12.3514211"><ele>274.8</ele><time>2026-04-12T06:32:02.003Z</time></trkpt><trkpt lat="43.0819366" lon="12.3513383"><ele>275.0</ele><time>2026-04-12T06:32:04.027Z</time></trkpt><trkpt lat="43.0820173" lon="12.3512536"><ele>274.6666666666667</ele><time>2026-04-12T06:32:05.998Z</time></trkpt><trkpt lat="43.0820832" lon="12.3511806"><ele>274.33333333333337</ele><time>2026-04-12T06:32:08.012Z</time></trkpt><trkpt lat="43.0821561" lon="12.3511"><ele>274.0</ele><time>2026-04-12T06:32:09.998Z</time></trkpt><trkpt lat="43.0822302" lon="12.3510374"><ele>273.6666666666667</ele><time>2026-04-12T06:32:12Z</time></trkpt><trkpt lat="43.0822885" lon="12.3509636"><ele>273.3333333333333</ele><time>2026-04-12T06:32:14.001Z</time></trkpt><trkpt lat="43.0823434" lon="12.3508987"><ele>273.0</ele><time>2026-04-12T06:32:16.003Z</time></trkpt><trkpt lat="43.0823957" lon="12.3508364"><ele>274.14285714285717</ele><time>2026-04-12T06:32:18.003Z</time></trkpt><trkpt lat="43.0824429" lon="12.3507728"><ele>275.2857142857143</ele><time>2026-04-12T06:32:20.002Z</time></trkpt><trkpt lat="43.0824857" lon="12.3506904"><ele>276.42857142857144</ele><time>2026-04-12T06:32:22.001Z</time></trkpt><trkpt lat="43.0825268" lon="12.3506249"><ele>277.57142857142856</ele><time>2026-04-12T06:32:24.011Z</time></trkpt><trkpt lat="43.0826013" lon="12.3506144"><ele>278.7142857142857</ele><time>2026-04-12T06:32:27.998Z</time></trkpt><trkpt lat="43.0826683" lon="12.3506274"><ele>279.8571428571429</ele><time>2026-04-12T06:32:30.001Z</time></trkpt><trkpt lat="43.0827332" lon="12.3505882"><ele>281.0</ele><time>2026-04-12T06:32:32.008Z</time></trkpt><trkpt lat="43.0827907" lon="12.3505417"><ele>280.6666666666667</ele><time>2026-04-12T06:32:34.001Z</time></trkpt><trkpt lat="43.0828474" lon="12.3504712"><ele>280.33333333333337</ele><time>2026-04-12T06:32:36.002Z</time></trkpt><trkpt lat="43.0829043" lon="12.350397"><ele>280.0</ele><time>2026-04-12T06:32:37.999Z</time></trkpt><trkpt lat="43.0829558" lon="12.3503271"><ele>279.6666666666667</ele><time>2026-04-12T06:32:40.005Z</time></trkpt><trkpt lat="43.0830136" lon="12.3502562"><ele>279.3333333333333</ele><time>2026-04-12T06:32:42.013Z</time></trkpt><trkpt lat="43.0830649" lon="12.3501879"><ele>279.0</ele><time>2026-04-12T06:32:44.016Z</time></trkpt><trkpt lat="43.0831274" lon="12.3501173"><ele>279.0</ele><time>2026-04-12T06:32:46.003Z</time></trkpt><trkpt lat="43.0831824" lon="12.3500441"><ele>279.0</ele><time>2026-04-12T06:32:48.001Z</time></trkpt><trkpt lat="43.0832432" lon="12.349963"><ele>279.0</ele><time>2026-04-12T06:32:50.014Z</time></trkpt><trkpt lat="43.0832878" lon="12.3498865"><ele>279.0</ele><time>2026-04-12T06:32:52.013Z</time></trkpt><trkpt lat="43.0833361" lon="12.3498085"><ele>279.0</ele><time>2026-04-12T06:32:54.083Z</time></trkpt><trkpt lat="43.0833771" lon="12.3497277"><ele>279.0</ele><time>2026-04-12T06:32:56.004Z</time></trkpt><trkpt lat="43.0834123" lon="12.3496449"><ele>281.0</ele><time>2026-04-12T06:32:58.006Z</time></trkpt><trkpt lat="43.0834455" lon="12.3495344"><ele>283.0</ele><time>2026-04-12T06:33:01.001Z</time></trkpt><trkpt lat="43.0834814" lon="12.349422"><ele>285.0</ele><time>2026-04-12T06:33:03.011Z</time></trkpt><trkpt lat="43.0835084" lon="12.3492948"><ele>287.0</ele><time>2026-04-12T06:33:05.001Z</time></trkpt><trkpt lat="43.0835333" lon="12.3491708"><ele>289.0</ele><time>2026-04-12T06:33:06.998Z</time></trkpt><trkpt lat="43.0835532" lon="12.3490474"><ele>289.0</ele><time>2026-04-12T06:33:09Z</time></trkpt><trkpt lat="43.083565" lon="12.3489341"><ele>289.0</ele><time>2026-04-12T06:33:11.004Z</time></trkpt><trkpt lat="43.0835729" lon="12.3488201"><ele>289.0</ele><time>2026-04-12T06:33:13.002Z</time></trkpt><trkpt lat="43.0835828" lon="12.3487095"><ele>289.0</ele><time>2026-04-12T06:33:15.007Z</time></trkpt><trkpt lat="43.0836161" lon="12.348597"><ele>289.0</ele><time>2026-04-12T06:33:16.997Z</time></trkpt><trkpt lat="43.0836522" lon="12.3484965"><ele>289.0</ele><time>2026-04-12T06:33:18.999Z</time></trkpt><trkpt lat="43.0836771" lon="12.348385"><ele>289.0</ele><time>2026-04-12T06:33:21.106Z</time></trkpt><trkpt lat="43.083712" lon="12.3482715"><ele>289.0</ele><time>2026-04-12T06:33:23.002Z</time></trkpt><trkpt lat="43.0837651" lon="12.3481783"><ele>289.0</ele><time>2026-04-12T06:33:25.01Z</time></trkpt><trkpt lat="43.0838261" lon="12.3481113"><ele>289.0</ele><time>2026-04-12T06:33:26.999Z</time></trkpt><trkpt lat="43.0838883" lon="12.3480465"><ele>289.0</ele><time>2026-04-12T06:33:29.002Z</time></trkpt><trkpt lat="43.0839518" lon="12.3479752"><ele>289.0</ele><time>2026-04-12T06:33:31.005Z</time></trkpt><trkpt lat="43.0840273" lon="12.3478985"><ele>290.2</ele><time>2026-04-12T06:33:33.011Z</time></trkpt><trkpt lat="43.0840978" lon="12.3478108"><ele>291.4</ele><time>2026-04-12T06:33:35.023Z</time></trkpt><trkpt lat="43.084179" lon="12.3477168"><ele>292.6</ele><time>2026-04-12T06:33:37.004Z</time></trkpt><trkpt lat="43.084249" lon="12.3476208"><ele>293.8</ele><time>2026-04-12T06:33:39.002Z</time></trkpt><trkpt lat="43.0843465" lon="12.3475211"><ele>295.0</ele><time>2026-04-12T06:33:41.008Z</time></trkpt><trkpt lat="43.084398" lon="12.3474659"><ele>295.0</ele><time>2026-04-12T06:33:42.014Z</time></trkpt><trkpt lat="43.0844914" lon="12.3473738"><ele>295.0</ele><time>2026-04-12T06:33:44.13Z</time></trkpt><trkpt lat="43.0846001" lon="12.3472599"><ele>295.0</ele><time>2026-04-12T06:33:46.016Z</time></trkpt><trkpt lat="43.0846932" lon="12.3471622"><ele>295.0</ele><time>2026-04-12T06:33:48.014Z</time></trkpt><trkpt lat="43.084742" lon="12.3471022"><ele>295.0</ele><time>2026-04-12T06:33:49.014Z</time></trkpt><trkpt lat="43.0848294" lon="12.3470106"><ele>294.16666666666663</ele><time>2026-04-12T06:33:51.028Z</time></trkpt><trkpt lat="43.0848965" lon="12.3469246"><ele>293.3333333333333</ele><time>2026-04-12T06:33:53.015Z</time></trkpt><trkpt lat="43.0849575" lon="12.3468798"><ele>292.5</ele><time>2026-04-12T06:33:55.011Z</time></trkpt><trkpt lat="43.0850155" lon="12.3468322"><ele>291.6666666666667</ele><time>2026-04-12T06:33:57.013Z</time></trkpt><trkpt lat="43.0850825" lon="12.3467897"><ele>290.83333333333337</ele><time>2026-04-12T06:34:00.037Z</time></trkpt><trkpt lat="43.085153" lon="12.3467133"><ele>290.0</ele><time>2026-04-12T06:34:03.013Z</time></trkpt><trkpt lat="43.0852293" lon="12.3466469"><ele>290.0</ele><time>2026-04-12T06:34:06.012Z</time></trkpt><trkpt lat="43.0852779" lon="12.3465894"><ele>290.0</ele><time>2026-04-12T06:34:08.021Z</time></trkpt><trkpt lat="43.0853474" lon="12.3465383"><ele>290.0</ele><time>2026-04-12T06:34:11.017Z</time></trkpt><trkpt lat="43.0854215" lon="12.3465502"><ele>290.0</ele><time>2026-04-12T06:34:18.015Z</time></trkpt><trkpt lat="43.0855075" lon="12.346513"><ele>290.0</ele><time>2026-04-12T06:34:20.013Z</time></trkpt><trkpt lat="43.0855711" lon="12.3464696"><ele>290.0</ele><time>2026-04-12T06:34:22.013Z</time></trkpt><trkpt lat="43.085655" lon="12.3464217"><ele>290.0</ele><time>2026-04-12T06:34:24.994Z</time></trkpt><trkpt lat="43.0857322" lon="12.3463813"><ele>290.0</ele><time>2026-04-12T06:34:27.013Z</time></trkpt><trkpt lat="43.0858111" lon="12.3463425"><ele>290.0</ele><time>2026-04-12T06:34:29.017Z</time></trkpt><trkpt lat="43.0858924" lon="12.3462912"><ele>290.0</ele><time>2026-04-12T06:34:32.015Z</time></trkpt><trkpt lat="43.0859595" lon="12.3462554"><ele>290.0</ele><time>2026-04-12T06:34:36Z</time></trkpt><trkpt lat="43.0860277" lon="12.3461644"><ele>290.0</ele><time>2026-04-12T06:34:40.017Z</time></trkpt><trkpt lat="43.086065" lon="12.3460867"><ele>289.83333333333337</ele><time>2026-04-12T06:34:42.021Z</time></trkpt><trkpt lat="43.0861056" lon="12.3459817"><ele>289.6666666666667</ele><time>2026-04-12T06:34:45.015Z</time></trkpt><trkpt lat="43.0861238" lon="12.3458825"><ele>289.5</ele><time>2026-04-12T06:34:48.013Z</time></trkpt><trkpt lat="43.0861524" lon="12.3457667"><ele>289.3333333333333</ele><time>2026-04-12T06:34:51.022Z</time></trkpt><trkpt lat="43.0861841" lon="12.3456643"><ele>289.16666666666663</ele><time>2026-04-12T06:34:54.01Z</time></trkpt><trkpt lat="43.0862112" lon="12.3455571"><ele>289.0</ele><time>2026-04-12T06:34:57.011Z</time></trkpt><trkpt lat="43.0862453" lon="12.3454791"><ele>289.0</ele><time>2026-04-12T06:35:00.015Z</time></trkpt><trkpt lat="43.0862776" lon="12.3453897"><ele>289.0</ele><time>2026-04-12T06:35:03.013Z</time></trkpt><trkpt lat="43.0863139" lon="12.3452996"><ele>289.0</ele><time>2026-04-12T06:35:06.012Z</time></trkpt><trkpt lat="43.086346" lon="12.3451918"><ele>289.0</ele><time>2026-04-12T06:35:09.015Z</time></trkpt><trkpt lat="43.0863821" lon="12.3450817"><ele>289.0</ele><time>2026-04-12T06:35:12.018Z</time></trkpt><trkpt lat="43.0863902" lon="12.3449556"><ele>289.0</ele><time>2026-04-12T06:35:15.023Z</time></trkpt><trkpt lat="43.0864049" lon="12.3448629"><ele>289.0</ele><time>2026-04-12T06:35:17.011Z</time></trkpt><trkpt lat="43.0863899" lon="12.3447722"><ele>289.0</ele><time>2026-04-12T06:35:19.014Z</time></trkpt><trkpt lat="43.0863832" lon="12.3446446"><ele>289.0</ele><time>2026-04-12T06:35:22.012Z</time></trkpt><trkpt lat="43.0863739" lon="12.3445239"><ele>289.0</ele><time>2026-04-12T06:35:25.011Z</time></trkpt><trkpt lat="43.086369" lon="12.3444082"><ele>289.0</ele><time>2026-04-12T06:35:28.015Z</time></trkpt><trkpt lat="43.0863759" lon="12.3443002"><ele>289.0</ele><time>2026-04-12T06:35:31.135Z</time></trkpt><trkpt lat="43.0864127" lon="12.3441985"><ele>289.0</ele><time>2026-04-12T06:35:34.011Z</time></trkpt><trkpt lat="43.0864468" lon="12.3440934"><ele>289.0</ele><time>2026-04-12T06:35:37.014Z</time></trkpt><trkpt lat="43.0864819" lon="12.344001"><ele>289.0</ele><time>2026-04-12T06:35:40.018Z</time></trkpt><trkpt lat="43.0865094" lon="12.3439125"><ele>289.0</ele><time>2026-04-12T06:35:43.012Z</time></trkpt><trkpt lat="43.0865395" lon="12.3438127"><ele>289.0</ele><time>2026-04-12T06:35:46.014Z</time></trkpt><trkpt lat="43.0865763" lon="12.3437222"><ele>289.0</ele><time>2026-04-12T06:35:49.012Z</time></trkpt><trkpt lat="43.0866185" lon="12.3436225"><ele>290.3333333333333</ele><time>2026-04-12T06:35:52.014Z</time></trkpt><trkpt lat="43.086653" lon="12.3435483"><ele>291.66666666666663</ele><time>2026-04-12T06:35:54.01Z</time></trkpt><trkpt lat="43.0866818" lon="12.3434686"><ele>293.0</ele><time>2026-04-12T06:35:56.013Z</time></trkpt><trkpt lat="43.086737" lon="12.3433938"><ele>294.3333333333333</ele><time>2026-04-12T06:35:58.011Z</time></trkpt><trkpt lat="43.0867757" lon="12.3432879"><ele>295.6666666666667</ele><time>2026-04-12T06:36:01.006Z</time></trkpt><trkpt lat="43.0868124" lon="12.3431799"><ele>297.0</ele><time>2026-04-12T06:36:04.013Z</time></trkpt><trkpt lat="43.0868516" lon="12.3430631"><ele>297.3333333333333</ele><time>2026-04-12T06:36:07.015Z</time></trkpt><trkpt lat="43.0868816" lon="12.342987"><ele>297.6666666666667</ele><time>2026-04-12T06:36:09.022Z</time></trkpt><trkpt lat="43.0869211" lon="12.3428733"><ele>298.0</ele><time>2026-04-12T06:36:12.022Z</time></trkpt><trkpt lat="43.086952" lon="12.3427591"><ele>298.33333333333337</ele><time>2026-04-12T06:36:15.013Z</time></trkpt><trkpt lat="43.0869882" lon="12.3426495"><ele>298.6666666666667</ele><time>2026-04-12T06:36:18.014Z</time></trkpt><trkpt lat="43.0870212" lon="12.3425412"><ele>299.0</ele><time>2026-04-12T06:36:21.003Z</time></trkpt><trkpt lat="43.0870653" lon="12.3424522"><ele>299.0</ele><time>2026-04-12T06:36:24.01Z</time></trkpt><trkpt lat="43.0871157" lon="12.342366"><ele>299.0</ele><time>2026-04-12T06:36:27.012Z</time></trkpt><trkpt lat="43.0871592" lon="12.3422731"><ele>299.0</ele><time>2026-04-12T06:36:30.013Z</time></trkpt><trkpt lat="43.0872061" lon="12.3421909"><ele>299.0</ele><time>2026-04-12T06:36:33.015Z</time></trkpt><trkpt lat="43.0872548" lon="12.3421285"><ele>299.0</ele><time>2026-04-12T06:36:36.013Z</time></trkpt><trkpt lat="43.0872988" lon="12.3420647"><ele>299.0</ele><time>2026-04-12T06:36:39.021Z</time></trkpt><trkpt lat="43.0873503" lon="12.3419967"><ele>299.0</ele><time>2026-04-12T06:36:42.013Z</time></trkpt><trkpt lat="43.0874031" lon="12.3419274"><ele>301.0</ele><time>2026-04-12T06:36:45.013Z</time></trkpt><trkpt lat="43.087458" lon="12.341847"><ele>303.0</ele><time>2026-04-12T06:36:48.013Z</time></trkpt><trkpt lat="43.0875072" lon="12.3417495"><ele>305.0</ele><time>2026-04-12T06:36:51.013Z</time></trkpt><trkpt lat="43.0875529" lon="12.3416657"><ele>307.0</ele><time>2026-04-12T06:36:55.022Z</time></trkpt><trkpt lat="43.0875933" lon="12.3415841"><ele>309.0</ele><time>2026-04-12T06:36:58.01Z</time></trkpt><trkpt lat="43.0876359" lon="12.3415058"><ele>311.0</ele><time>2026-04-12T06:37:01.028Z</time></trkpt><trkpt lat="43.0876849" lon="12.3414188"><ele>310.0</ele><time>2026-04-12T06:37:05.012Z</time></trkpt><trkpt lat="43.0877286" lon="12.3413455"><ele>309.0</ele><time>2026-04-12T06:37:08.013Z</time></trkpt><trkpt lat="43.0877777" lon="12.3412694"><ele>308.0</ele><time>2026-04-12T06:37:11.029Z</time></trkpt><trkpt lat="43.0878293" lon="12.3412035"><ele>307.0</ele><time>2026-04-12T06:37:14.012Z</time></trkpt><trkpt lat="43.0878927" lon="12.3410784"><ele>306.0</ele><time>2026-04-12T06:37:18.01Z</time></trkpt><trkpt lat="43.0879274" lon="12.340968"><ele>305.0</ele><time>2026-04-12T06:37:20.03Z</time></trkpt><trkpt lat="43.0879559" lon="12.3408611"><ele>305.0</ele><time>2026-04-12T06:37:22.003Z</time></trkpt><trkpt lat="43.0879993" lon="12.340754"><ele>305.0</ele><time>2026-04-12T06:37:24.003Z</time></trkpt><trkpt lat="43.0880446" lon="12.340651"><ele>305.0</ele><time>2026-04-12T06:37:26.001Z</time></trkpt><trkpt lat="43.0880792" lon="12.3405543"><ele>305.0</ele><time>2026-04-12T06:37:27.998Z</time></trkpt><trkpt lat="43.0881192" lon="12.340456"><ele>305.0</ele><time>2026-04-12T06:37:30.005Z</time></trkpt><trkpt lat="43.0881727" lon="12.3403289"><ele>305.0</ele><time>2026-04-12T06:37:31.998Z</time></trkpt><trkpt lat="43.0882396" lon="12.3401919"><ele>304.6</ele><time>2026-04-12T06:37:33.998Z</time></trkpt><trkpt lat="43.0882956" lon="12.3400431"><ele>304.2</ele><time>2026-04-12T06:37:36.003Z</time></trkpt><trkpt lat="43.0883651" lon="12.3399045"><ele>303.8</ele><time>2026-04-12T06:37:38.002Z</time></trkpt><trkpt lat="43.0884283" lon="12.3397528"><ele>303.4</ele><time>2026-04-12T06:37:39.999Z</time></trkpt><trkpt lat="43.0884616" lon="12.3396663"><ele>303.0</ele><time>2026-04-12T06:37:40.999Z</time></trkpt><trkpt lat="43.0885163" lon="12.3395124"><ele>303.0</ele><time>2026-04-12T06:37:42.999Z</time></trkpt><trkpt lat="43.0885789" lon="12.3393485"><ele>303.0</ele><time>2026-04-12T06:37:45.098Z</time></trkpt><trkpt lat="43.0886259" lon="12.3392609"><ele>303.0</ele><time>2026-04-12T06:37:46.011Z</time></trkpt><trkpt lat="43.0886755" lon="12.3391799"><ele>303.0</ele><time>2026-04-12T06:37:47.011Z</time></trkpt><trkpt lat="43.0887153" lon="12.3391089"><ele>303.0</ele><time>2026-04-12T06:37:48.012Z</time></trkpt><trkpt lat="43.0888012" lon="12.3389937"><ele>303.0</ele><time>2026-04-12T06:37:50.012Z</time></trkpt><trkpt lat="43.0888752" lon="12.3388881"><ele>303.0</ele><time>2026-04-12T06:37:52.033Z</time></trkpt><trkpt lat="43.0889581" lon="12.3387831"><ele>303.0</ele><time>2026-04-12T06:37:54.013Z</time></trkpt><trkpt lat="43.089027" lon="12.3386846"><ele>303.0</ele><time>2026-04-12T06:37:56.016Z</time></trkpt><trkpt lat="43.0890907" lon="12.3386194"><ele>303.0</ele><time>2026-04-12T06:37:58.027Z</time></trkpt><trkpt lat="43.0891556" lon="12.3385451"><ele>303.3333333333333</ele><time>2026-04-12T06:38:00.015Z</time></trkpt><trkpt lat="43.0892206" lon="12.3384793"><ele>303.6666666666667</ele><time>2026-04-12T06:38:02.016Z</time></trkpt><trkpt lat="43.0892691" lon="12.3384128"><ele>304.0</ele><time>2026-04-12T06:38:04.021Z</time></trkpt><trkpt lat="43.0893225" lon="12.3383496"><ele>304.33333333333337</ele><time>2026-04-12T06:38:06.012Z</time></trkpt><trkpt lat="43.0893781" lon="12.3382872"><ele>304.6666666666667</ele><time>2026-04-12T06:38:08.01Z</time></trkpt><trkpt lat="43.0894371" lon="12.3382237"><ele>305.0</ele><time>2026-04-12T06:38:10.023Z</time></trkpt><trkpt lat="43.0895017" lon="12.3381513"><ele>305.0</ele><time>2026-04-12T06:38:12.012Z</time></trkpt><trkpt lat="43.0895626" lon="12.3380802"><ele>305.0</ele><time>2026-04-12T06:38:14.112Z</time></trkpt><trkpt lat="43.0896193" lon="12.3380136"><ele>305.0</ele><time>2026-04-12T06:38:16.018Z</time></trkpt><trkpt lat="43.0896981" lon="12.3379658"><ele>305.0</ele><time>2026-04-12T06:38:19.013Z</time></trkpt><trkpt lat="43.0897414" lon="12.337874"><ele>305.0</ele><time>2026-04-12T06:38:22.018Z</time></trkpt><trkpt lat="43.0897851" lon="12.3378072"><ele>305.0</ele><time>2026-04-12T06:38:24.015Z</time></trkpt><trkpt lat="43.0898341" lon="12.3377399"><ele>305.33333333333337</ele><time>2026-04-12T06:38:26.009Z</time></trkpt><trkpt lat="43.0898886" lon="12.3376845"><ele>305.6666666666667</ele><time>2026-04-12T06:38:28.014Z</time></trkpt><trkpt lat="43.0899396" lon="12.3376248"><ele>306.0</ele><time>2026-04-12T06:38:30.008Z</time></trkpt><trkpt lat="43.090028" lon="12.3375176"><ele>306.3333333333333</ele><time>2026-04-12T06:38:33.012Z</time></trkpt><trkpt lat="43.0900819" lon="12.3374427"><ele>306.66666666666663</ele><time>2026-04-12T06:38:35.012Z</time></trkpt><trkpt lat="43.0901421" lon="12.3373635"><ele>307.0</ele><time>2026-04-12T06:38:37.129Z</time></trkpt><trkpt lat="43.0901998" lon="12.3372798"><ele>306.5</ele><time>2026-04-12T06:38:39.006Z</time></trkpt><trkpt lat="43.0902543" lon="12.3371967"><ele>306.0</ele><time>2026-04-12T06:38:41.014Z</time></trkpt><trkpt lat="43.0903086" lon="12.3371105"><ele>305.5</ele><time>2026-04-12T06:38:43.003Z</time></trkpt><trkpt lat="43.090362" lon="12.3370143"><ele>305.0</ele><time>2026-04-12T06:38:45.012Z</time></trkpt><trkpt lat="43.090416" lon="12.3369233"><ele>304.5</ele><time>2026-04-12T06:38:47.001Z</time></trkpt><trkpt lat="43.0904633" lon="12.3368374"><ele>304.0</ele><time>2026-04-12T06:38:49.008Z</time></trkpt><trkpt lat="43.0905137" lon="12.336747"><ele>304.0</ele><time>2026-04-12T06:38:51.002Z</time></trkpt><trkpt lat="43.0905599" lon="12.3366668"><ele>304.0</ele><time>2026-04-12T06:38:53.001Z</time></trkpt><trkpt lat="43.0906035" lon="12.3366023"><ele>304.0</ele><time>2026-04-12T06:38:55.007Z</time></trkpt><trkpt lat="43.0906501" lon="12.3365045"><ele>304.0</ele><time>2026-04-12T06:38:57.013Z</time></trkpt><trkpt lat="43.0907036" lon="12.3364008"><ele>304.0</ele><time>2026-04-12T06:38:59.003Z</time></trkpt><trkpt lat="43.0907575" lon="12.3362981"><ele>304.0</ele><time>2026-04-12T06:39:01.007Z</time></trkpt><trkpt lat="43.0908081" lon="12.3361978"><ele>304.0</ele><time>2026-04-12T06:39:03.007Z</time></trkpt><trkpt lat="43.0908635" lon="12.3361129"><ele>304.0</ele><time>2026-04-12T06:39:05.003Z</time></trkpt><trkpt lat="43.090911" lon="12.3360233"><ele>304.0</ele><time>2026-04-12T06:39:07Z</time></trkpt><trkpt lat="43.0909707" lon="12.3359036"><ele>304.0</ele><time>2026-04-12T06:39:08.999Z</time></trkpt><trkpt lat="43.0910402" lon="12.3357835"><ele>304.0</ele><time>2026-04-12T06:39:11.002Z</time></trkpt><trkpt lat="43.0910989" lon="12.3356684"><ele>301.8</ele><time>2026-04-12T06:39:13.007Z</time></trkpt><trkpt lat="43.0911655" lon="12.3355454"><ele>299.59999999999997</ele><time>2026-04-12T06:39:15.006Z</time></trkpt><trkpt lat="43.0912074" lon="12.3354796"><ele>297.4</ele><time>2026-04-12T06:39:16.007Z</time></trkpt><trkpt lat="43.0912855" lon="12.335348"><ele>295.2</ele><time>2026-04-12T06:39:18.002Z</time></trkpt><trkpt lat="43.0913676" lon="12.3352524"><ele>293.0</ele><time>2026-04-12T06:39:20.002Z</time></trkpt><trkpt lat="43.0914419" lon="12.3351666"><ele>293.0</ele><time>2026-04-12T06:39:21.999Z</time></trkpt><trkpt lat="43.091498" lon="12.3350128"><ele>293.0</ele><time>2026-04-12T06:39:24.101Z</time></trkpt><trkpt lat="43.0914914" lon="12.3348667"><ele>293.0</ele><time>2026-04-12T06:39:26.016Z</time></trkpt><trkpt lat="43.0914523" lon="12.3347148"><ele>293.0</ele><time>2026-04-12T06:39:28.014Z</time></trkpt><trkpt lat="43.0914347" lon="12.3346292"><ele>293.0</ele><time>2026-04-12T06:39:29.021Z</time></trkpt><trkpt lat="43.0914237" lon="12.3345393"><ele>292.85714285714283</ele><time>2026-04-12T06:39:30.012Z</time></trkpt><trkpt lat="43.0914284" lon="12.3344457"><ele>292.7142857142857</ele><time>2026-04-12T06:39:31.011Z</time></trkpt><trkpt lat="43.0914492" lon="12.334359"><ele>292.57142857142856</ele><time>2026-04-12T06:39:32.021Z</time></trkpt><trkpt lat="43.0914737" lon="12.3342716"><ele>292.42857142857144</ele><time>2026-04-12T06:39:33.014Z</time></trkpt><trkpt lat="43.0915012" lon="12.3341729"><ele>292.2857142857143</ele><time>2026-04-12T06:39:34.012Z</time></trkpt><trkpt lat="43.0915272" lon="12.3340775"><ele>292.1428571428571</ele><time>2026-04-12T06:39:35.001Z</time></trkpt><trkpt lat="43.0915591" lon="12.3339852"><ele>292.0</ele><time>2026-04-12T06:39:36.026Z</time></trkpt><trkpt lat="43.0915929" lon="12.3338841"><ele>292.0</ele><time>2026-04-12T06:39:37.006Z</time></trkpt><trkpt lat="43.0916216" lon="12.3337853"><ele>292.0</ele><time>2026-04-12T06:39:38.002Z</time></trkpt><trkpt lat="43.0916611" lon="12.3336809"><ele>292.0</ele><time>2026-04-12T06:39:39.013Z</time></trkpt><trkpt lat="43.0916948" lon="12.3335809"><ele>292.0</ele><time>2026-04-12T06:39:40.03Z</time></trkpt><trkpt lat="43.0917273" lon="12.3334759"><ele>292.0</ele><time>2026-04-12T06:39:41.023Z</time></trkpt><trkpt lat="43.091759" lon="12.3333795"><ele>292.0</ele><time>2026-04-12T06:39:42Z</time></trkpt><trkpt lat="43.0917879" lon="12.3332772"><ele>292.0</ele><time>2026-04-12T06:39:43.011Z</time></trkpt><trkpt lat="43.0918175" lon="12.3331752"><ele>292.0</ele><time>2026-04-12T06:39:44.012Z</time></trkpt><trkpt lat="43.0918552" lon="12.3330724"><ele>292.0</ele><time>2026-04-12T06:39:45.013Z</time></trkpt><trkpt lat="43.0918901" lon="12.3329726"><ele>292.0</ele><time>2026-04-12T06:39:46.022Z</time></trkpt><trkpt lat="43.0919198" lon="12.332869"><ele>292.0</ele><time>2026-04-12T06:39:47.012Z</time></trkpt><trkpt lat="43.0919585" lon="12.3327634"><ele>292.0</ele><time>2026-04-12T06:39:48.011Z</time></trkpt><trkpt lat="43.0919948" lon="12.3326548"><ele>290.66666666666663</ele><time>2026-04-12T06:39:49.01Z</time></trkpt><trkpt lat="43.0920275" lon="12.3325331"><ele>289.3333333333333</ele><time>2026-04-12T06:39:50.014Z</time></trkpt><trkpt lat="43.0920635" lon="12.3324279"><ele>288.0</ele><time>2026-04-12T06:39:51.032Z</time></trkpt><trkpt lat="43.0921011" lon="12.3323185"><ele>286.6666666666667</ele><time>2026-04-12T06:39:52.023Z</time></trkpt><trkpt lat="43.0921447" lon="12.3322046"><ele>285.33333333333337</ele><time>2026-04-12T06:39:53Z</time></trkpt><trkpt lat="43.0921839" lon="12.3320977"><ele>284.0</ele><time>2026-04-12T06:39:54.018Z</time></trkpt><trkpt lat="43.0922346" lon="12.3319815"><ele>284.6666666666667</ele><time>2026-04-12T06:39:55.017Z</time></trkpt><trkpt lat="43.0922826" lon="12.3318785"><ele>285.33333333333337</ele><time>2026-04-12T06:39:56.012Z</time></trkpt><trkpt lat="43.0923305" lon="12.3317824"><ele>286.0</ele><time>2026-04-12T06:39:57.01Z</time></trkpt><trkpt lat="43.0923885" lon="12.3316984"><ele>286.6666666666667</ele><time>2026-04-12T06:39:58.012Z</time></trkpt><trkpt lat="43.0924472" lon="12.3316068"><ele>287.3333333333333</ele><time>2026-04-12T06:39:58.995Z</time></trkpt><trkpt lat="43.0924992" lon="12.3315134"><ele>288.0</ele><time>2026-04-12T06:40:00.012Z</time></trkpt><trkpt lat="43.0925576" lon="12.3314323"><ele>287.0</ele><time>2026-04-12T06:40:01.012Z</time></trkpt><trkpt lat="43.0926162" lon="12.3313481"><ele>286.0</ele><time>2026-04-12T06:40:02.018Z</time></trkpt><trkpt lat="43.0926732" lon="12.3312715"><ele>285.0</ele><time>2026-04-12T06:40:03.008Z</time></trkpt><trkpt lat="43.0927246" lon="12.3312011"><ele>284.0</ele><time>2026-04-12T06:40:04.013Z</time></trkpt><trkpt lat="43.0927759" lon="12.3311295"><ele>283.0</ele><time>2026-04-12T06:40:05.019Z</time></trkpt><trkpt lat="43.0928723" lon="12.3310215"><ele>282.0</ele><time>2026-04-12T06:40:07.016Z</time></trkpt><trkpt lat="43.0929442" lon="12.3309459"><ele>282.0</ele><time>2026-04-12T06:40:09.031Z</time></trkpt><trkpt lat="43.0930118" lon="12.3308697"><ele>282.0</ele><time>2026-04-12T06:40:11.02Z</time></trkpt><trkpt lat="43.0930861" lon="12.3308143"><ele>282.0</ele><time>2026-04-12T06:40:13.022Z</time></trkpt><trkpt lat="43.0931618" lon="12.3307309"><ele>282.0</ele><time>2026-04-12T06:40:15.017Z</time></trkpt><trkpt lat="43.093243" lon="12.3306478"><ele>282.0</ele><time>2026-04-12T06:40:17.012Z</time></trkpt><trkpt lat="43.0933158" lon="12.3305767"><ele>281.6</ele><time>2026-04-12T06:40:19.006Z</time></trkpt><trkpt lat="43.0934045" lon="12.3305009"><ele>281.2</ele><time>2026-04-12T06:40:21.019Z</time></trkpt><trkpt lat="43.093481" lon="12.3304306"><ele>280.8</ele><time>2026-04-12T06:40:23.016Z</time></trkpt><trkpt lat="43.0935684" lon="12.3303513"><ele>280.4</ele><time>2026-04-12T06:40:25.11Z</time></trkpt><trkpt lat="43.0936486" lon="12.3302833"><ele>280.0</ele><time>2026-04-12T06:40:27.013Z</time></trkpt><trkpt lat="43.0937436" lon="12.3301818"><ele>280.0</ele><time>2026-04-12T06:40:29.013Z</time></trkpt><trkpt lat="43.093828" lon="12.3301042"><ele>280.0</ele><time>2026-04-12T06:40:31.015Z</time></trkpt><trkpt lat="43.0939175" lon="12.3300216"><ele>280.0</ele><time>2026-04-12T06:40:33.014Z</time></trkpt><trkpt lat="43.0940026" lon="12.3299427"><ele>280.0</ele><time>2026-04-12T06:40:35.016Z</time></trkpt><trkpt lat="43.0940838" lon="12.3298688"><ele>280.0</ele><time>2026-04-12T06:40:37.016Z</time></trkpt><trkpt lat="43.0941481" lon="12.3297975"><ele>280.5</ele><time>2026-04-12T06:40:39.016Z</time></trkpt><trkpt lat="43.0942261" lon="12.3297152"><ele>281.0</ele><time>2026-04-12T06:40:41.013Z</time></trkpt><trkpt lat="43.0943619" lon="12.3295926"><ele>281.5</ele><time>2026-04-12T06:40:44.014Z</time></trkpt><trkpt lat="43.0944393" lon="12.3295151"><ele>282.0</ele><time>2026-04-12T06:40:45.993Z</time></trkpt><trkpt lat="43.0945136" lon="12.3294328"><ele>282.0</ele><time>2026-04-12T06:40:48.021Z</time></trkpt><trkpt lat="43.0945875" lon="12.3293511"><ele>282.0</ele><time>2026-04-12T06:40:50.013Z</time></trkpt><trkpt lat="43.0946625" lon="12.3292601"><ele>282.0</ele><time>2026-04-12T06:40:52.031Z</time></trkpt><trkpt lat="43.09477" lon="12.3291179"><ele>282.0</ele><time>2026-04-12T06:40:55.017Z</time></trkpt><trkpt lat="43.09484" lon="12.3290195"><ele>282.0</ele><time>2026-04-12T06:40:57.023Z</time></trkpt><trkpt lat="43.0949114" lon="12.3289238"><ele>282.6</ele><time>2026-04-12T06:40:59.01Z</time></trkpt><trkpt lat="43.0949825" lon="12.3288216"><ele>283.2</ele><time>2026-04-12T06:41:01.024Z</time></trkpt><trkpt lat="43.0950553" lon="12.3287202"><ele>283.8</ele><time>2026-04-12T06:41:03.021Z</time></trkpt><trkpt lat="43.095126" lon="12.3286287"><ele>284.4</ele><time>2026-04-12T06:41:05.027Z</time></trkpt><trkpt lat="43.0951936" lon="12.3285366"><ele>285.0</ele><time>2026-04-12T06:41:07.013Z</time></trkpt><trkpt lat="43.0952617" lon="12.3284465"><ele>285.0</ele><time>2026-04-12T06:41:09.013Z</time></trkpt><trkpt lat="43.0953257" lon="12.3283631"><ele>285.0</ele><time>2026-04-12T06:41:11.015Z</time></trkpt><trkpt lat="43.095388" lon="12.3282817"><ele>285.0</ele><time>2026-04-12T06:41:13.011Z</time></trkpt><trkpt lat="43.0954538" lon="12.3282051"><ele>285.0</ele><time>2026-04-12T06:41:15.011Z</time></trkpt><trkpt lat="43.0955225" lon="12.3281341"><ele>285.0</ele><time>2026-04-12T06:41:17.013Z</time></trkpt><trkpt lat="43.0955863" lon="12.3280478"><ele>285.0</ele><time>2026-04-12T06:41:19.013Z</time></trkpt><trkpt lat="43.095646" lon="12.327956"><ele>285.0</ele><time>2026-04-12T06:41:21.013Z</time></trkpt><trkpt lat="43.0957096" lon="12.32788"><ele>285.0</ele><time>2026-04-12T06:41:23.014Z</time></trkpt><trkpt lat="43.0957804" lon="12.3277871"><ele>285.0</ele><time>2026-04-12T06:41:25.024Z</time></trkpt><trkpt lat="43.0958535" lon="12.3276965"><ele>285.0</ele><time>2026-04-12T06:41:27.01Z</time></trkpt><trkpt lat="43.0959264" lon="12.3276076"><ele>285.0</ele><time>2026-04-12T06:41:29.013Z</time></trkpt><trkpt lat="43.0959977" lon="12.3275273"><ele>285.0</ele><time>2026-04-12T06:41:31.016Z</time></trkpt><trkpt lat="43.0960589" lon="12.3274424"><ele>285.0</ele><time>2026-04-12T06:41:33.012Z</time></trkpt><trkpt lat="43.096123" lon="12.327372"><ele>285.0</ele><time>2026-04-12T06:41:34.023Z</time></trkpt><trkpt lat="43.0961905" lon="12.3272778"><ele>285.0</ele><time>2026-04-12T06:41:36.016Z</time></trkpt><trkpt lat="43.0962548" lon="12.3271999"><ele>285.0</ele><time>2026-04-12T06:41:38.017Z</time></trkpt><trkpt lat="43.0963211" lon="12.3271219"><ele>285.0</ele><time>2026-04-12T06:41:40.013Z</time></trkpt><trkpt lat="43.0963798" lon="12.3270443"><ele>285.0</ele><time>2026-04-12T06:41:42.021Z</time></trkpt><trkpt lat="43.096431" lon="12.3269614"><ele>285.0</ele><time>2026-04-12T06:41:44.009Z</time></trkpt><trkpt lat="43.0964872" lon="12.3268691"><ele>285.0</ele><time>2026-04-12T06:41:46.012Z</time></trkpt><trkpt lat="43.0965464" lon="12.3267713"><ele>285.0</ele><time>2026-04-12T06:41:48.016Z</time></trkpt><trkpt lat="43.0966083" lon="12.3266664"><ele>285.0</ele><time>2026-04-12T06:41:50.012Z</time></trkpt><trkpt lat="43.0966726" lon="12.3265508"><ele>285.0</ele><time>2026-04-12T06:41:52.011Z</time></trkpt><trkpt lat="43.0967197" lon="12.3264521"><ele>285.0</ele><time>2026-04-12T06:41:54.016Z</time></trkpt><trkpt lat="43.0967619" lon="12.326351"><ele>285.0</ele><time>2026-04-12T06:41:56.018Z</time></trkpt><trkpt lat="43.0968062" lon="12.3262479"><ele>285.0</ele><time>2026-04-12T06:41:58.012Z</time></trkpt><trkpt lat="43.0968371" lon="12.3261414"><ele>285.0</ele><time>2026-04-12T06:42:00.022Z</time></trkpt><trkpt lat="43.0968826" lon="12.326029"><ele>285.0</ele><time>2026-04-12T06:42:02.011Z</time></trkpt><trkpt lat="43.0969266" lon="12.3259089"><ele>284.4</ele><time>2026-04-12T06:42:04.027Z</time></trkpt><trkpt lat="43.0969769" lon="12.3257893"><ele>283.8</ele><time>2026-04-12T06:42:06.013Z</time></trkpt><trkpt lat="43.0970185" lon="12.3256732"><ele>283.2</ele><time>2026-04-12T06:42:08.011Z</time></trkpt><trkpt lat="43.0970731" lon="12.3255666"><ele>282.6</ele><time>2026-04-12T06:42:10.021Z</time></trkpt><trkpt lat="43.0971157" lon="12.3254607"><ele>282.0</ele><time>2026-04-12T06:42:12.022Z</time></trkpt><trkpt lat="43.0971702" lon="12.3253633"><ele>282.3333333333333</ele><time>2026-04-12T06:42:14.117Z</time></trkpt><trkpt lat="43.0972331" lon="12.3252686"><ele>282.6666666666667</ele><time>2026-04-12T06:42:16.015Z</time></trkpt><trkpt lat="43.0972895" lon="12.3251827"><ele>283.0</ele><time>2026-04-12T06:42:18.014Z</time></trkpt><trkpt lat="43.0973566" lon="12.3251107"><ele>283.33333333333337</ele><time>2026-04-12T06:42:20.01Z</time></trkpt><trkpt lat="43.0974178" lon="12.3250302"><ele>283.6666666666667</ele><time>2026-04-12T06:42:22.047Z</time></trkpt><trkpt lat="43.0974921" lon="12.3249791"><ele>284.0</ele><time>2026-04-12T06:42:24.003Z</time></trkpt><trkpt lat="43.0975651" lon="12.3249864"><ele>284.0</ele><time>2026-04-12T06:42:26.003Z</time></trkpt><trkpt lat="43.0976466" lon="12.3249787"><ele>284.0</ele><time>2026-04-12T06:42:29.016Z</time></trkpt><trkpt lat="43.0977011" lon="12.3249182"><ele>284.0</ele><time>2026-04-12T06:42:31Z</time></trkpt><trkpt lat="43.0977681" lon="12.3248197"><ele>284.0</ele><time>2026-04-12T06:42:33.002Z</time></trkpt><trkpt lat="43.0978264" lon="12.3247189"><ele>284.0</ele><time>2026-04-12T06:42:35.003Z</time></trkpt><trkpt lat="43.0978996" lon="12.324619"><ele>284.0</ele><time>2026-04-12T06:42:37.004Z</time></trkpt><trkpt lat="43.0979808" lon="12.3245319"><ele>283.5</ele><time>2026-04-12T06:42:39.001Z</time></trkpt><trkpt lat="43.0980706" lon="12.3244457"><ele>283.0</ele><time>2026-04-12T06:42:41.005Z</time></trkpt><trkpt lat="43.0981628" lon="12.3243345"><ele>282.5</ele><time>2026-04-12T06:42:43.001Z</time></trkpt><trkpt lat="43.0982508" lon="12.3242023"><ele>282.0</ele><time>2026-04-12T06:42:45.003Z</time></trkpt><trkpt lat="43.0983378" lon="12.3241202"><ele>282.0</ele><time>2026-04-12T06:42:47.001Z</time></trkpt><trkpt lat="43.0984347" lon="12.3240163"><ele>282.0</ele><time>2026-04-12T06:42:49.006Z</time></trkpt><trkpt lat="43.0984916" lon="12.3239749"><ele>282.0</ele><time>2026-04-12T06:42:50.097Z</time></trkpt><trkpt lat="43.0985992" lon="12.3238946"><ele>282.0</ele><time>2026-04-12T06:42:52.002Z</time></trkpt><trkpt lat="43.0986694" lon="12.3238542"><ele>282.0</ele><time>2026-04-12T06:42:52.999Z</time></trkpt><trkpt lat="43.0987329" lon="12.3238207"><ele>280.0</ele><time>2026-04-12T06:42:53.999Z</time></trkpt><trkpt lat="43.0987946" lon="12.3237873"><ele>278.0</ele><time>2026-04-12T06:42:55.012Z</time></trkpt><trkpt lat="43.0988545" lon="12.3237598"><ele>276.0</ele><time>2026-04-12T06:42:56.1Z</time></trkpt><trkpt lat="43.0989787" lon="12.3237292"><ele>274.0</ele><time>2026-04-12T06:42:58.013Z</time></trkpt><trkpt lat="43.0990958" lon="12.3237012"><ele>272.0</ele><time>2026-04-12T06:43:00.028Z</time></trkpt><trkpt lat="43.0992141" lon="12.3236733"><ele>271.8</ele><time>2026-04-12T06:43:02.012Z</time></trkpt><trkpt lat="43.0993274" lon="12.3236577"><ele>271.6</ele><time>2026-04-12T06:43:04.018Z</time></trkpt><trkpt lat="43.0993916" lon="12.32365"><ele>271.40000000000003</ele><time>2026-04-12T06:43:05.031Z</time></trkpt><trkpt lat="43.0994818" lon="12.3236581"><ele>271.2</ele><time>2026-04-12T06:43:07.005Z</time></trkpt><trkpt lat="43.0995817" lon="12.3236851"><ele>271.0</ele><time>2026-04-12T06:43:09.015Z</time></trkpt><trkpt lat="43.0996817" lon="12.3236873"><ele>271.0</ele><time>2026-04-12T06:43:11.028Z</time></trkpt><trkpt lat="43.0997661" lon="12.3237018"><ele>271.0</ele><time>2026-04-12T06:43:13.012Z</time></trkpt><trkpt lat="43.0998408" lon="12.3236997"><ele>271.0</ele><time>2026-04-12T06:43:15.015Z</time></trkpt><trkpt lat="43.0999238" lon="12.3237361"><ele>271.0</ele><time>2026-04-12T06:43:17Z</time></trkpt><trkpt lat="43.1000012" lon="12.3237522"><ele>271.0</ele><time>2026-04-12T06:43:19.012Z</time></trkpt><trkpt lat="43.1000753" lon="12.3237723"><ele>271.0</ele><time>2026-04-12T06:43:20.99Z</time></trkpt><trkpt lat="43.100129" lon="12.3238193"><ele>271.2857142857143</ele><time>2026-04-12T06:43:23.011Z</time></trkpt><trkpt lat="43.1001845" lon="12.3238754"><ele>271.57142857142856</ele><time>2026-04-12T06:43:25.025Z</time></trkpt><trkpt lat="43.1002476" lon="12.3239107"><ele>271.8571428571429</ele><time>2026-04-12T06:43:27.035Z</time></trkpt><trkpt lat="43.1003062" lon="12.3239452"><ele>272.1428571428571</ele><time>2026-04-12T06:43:28.999Z</time></trkpt><trkpt lat="43.1003642" lon="12.3239815"><ele>272.42857142857144</ele><time>2026-04-12T06:43:31.014Z</time></trkpt><trkpt lat="43.1004234" lon="12.3240155"><ele>272.7142857142857</ele><time>2026-04-12T06:43:33.011Z</time></trkpt><trkpt lat="43.1004871" lon="12.3240587"><ele>273.0</ele><time>2026-04-12T06:43:35.017Z</time></trkpt><trkpt lat="43.1005569" lon="12.3240936"><ele>274.2857142857143</ele><time>2026-04-12T06:43:37.019Z</time></trkpt><trkpt lat="43.1006241" lon="12.3241279"><ele>275.57142857142856</ele><time>2026-04-12T06:43:39.013Z</time></trkpt><trkpt lat="43.1006873" lon="12.3241563"><ele>276.8571428571429</ele><time>2026-04-12T06:43:41.017Z</time></trkpt><trkpt lat="43.100751" lon="12.3241959"><ele>278.1428571428571</ele><time>2026-04-12T06:43:43.128Z</time></trkpt><trkpt lat="43.1008172" lon="12.3242375"><ele>279.42857142857144</ele><time>2026-04-12T06:43:45.017Z</time></trkpt><trkpt lat="43.1008673" lon="12.3242899"><ele>280.7142857142857</ele><time>2026-04-12T06:43:47.008Z</time></trkpt><trkpt lat="43.1009294" lon="12.3243243"><ele>282.0</ele><time>2026-04-12T06:43:49.023Z</time></trkpt><trkpt lat="43.1009855" lon="12.324372"><ele>282.0</ele><time>2026-04-12T06:43:51.011Z</time></trkpt><trkpt lat="43.1010606" lon="12.3244287"><ele>282.0</ele><time>2026-04-12T06:43:54.012Z</time></trkpt><trkpt lat="43.1011056" lon="12.3245053"><ele>282.0</ele><time>2026-04-12T06:43:57.008Z</time></trkpt><trkpt lat="43.1011685" lon="12.3245714"><ele>282.0</ele><time>2026-04-12T06:44:00.113Z</time></trkpt><trkpt lat="43.1012617" lon="12.3246273"><ele>282.0</ele><time>2026-04-12T06:44:03.012Z</time></trkpt><trkpt lat="43.1013435" lon="12.3246515"><ele>282.0</ele><time>2026-04-12T06:44:05.014Z</time></trkpt><trkpt lat="43.10141" lon="12.3246805"><ele>282.0</ele><time>2026-04-12T06:44:07.014Z</time></trkpt><trkpt lat="43.1014896" lon="12.3247032"><ele>282.0</ele><time>2026-04-12T06:44:09.008Z</time></trkpt><trkpt lat="43.1015719" lon="12.3247237"><ele>282.0</ele><time>2026-04-12T06:44:10.999Z</time></trkpt><trkpt lat="43.1016467" lon="12.3247466"><ele>282.0</ele><time>2026-04-12T06:44:13.006Z</time></trkpt><trkpt lat="43.1017224" lon="12.3247556"><ele>282.0</ele><time>2026-04-12T06:44:14.998Z</time></trkpt><trkpt lat="43.1017956" lon="12.3247671"><ele>282.0</ele><time>2026-04-12T06:44:16.998Z</time></trkpt><trkpt lat="43.1018781" lon="12.3247813"><ele>285.0</ele><time>2026-04-12T06:44:19.012Z</time></trkpt><trkpt lat="43.1019723" lon="12.324793"><ele>288.0</ele><time>2026-04-12T06:44:21.003Z</time></trkpt><trkpt lat="43.1020645" lon="12.3248019"><ele>291.0</ele><time>2026-04-12T06:44:23.004Z</time></trkpt><trkpt lat="43.1021508" lon="12.3248261"><ele>294.0</ele><time>2026-04-12T06:44:25.001Z</time></trkpt><trkpt lat="43.1022547" lon="12.3248417"><ele>297.0</ele><time>2026-04-12T06:44:26.996Z</time></trkpt><trkpt lat="43.1023923" lon="12.3248494"><ele>296.3333333333333</ele><time>2026-04-12T06:44:29.999Z</time></trkpt><trkpt lat="43.1024822" lon="12.3248697"><ele>295.6666666666667</ele><time>2026-04-12T06:44:32.003Z</time></trkpt><trkpt lat="43.102565" lon="12.3248928"><ele>295.0</ele><time>2026-04-12T06:44:34.004Z</time></trkpt><trkpt lat="43.1026491" lon="12.3249285"><ele>294.33333333333337</ele><time>2026-04-12T06:44:36.006Z</time></trkpt><trkpt lat="43.1027011" lon="12.3249812"><ele>293.6666666666667</ele><time>2026-04-12T06:44:38.003Z</time></trkpt><trkpt lat="43.1027698" lon="12.3250144"><ele>293.0</ele><time>2026-04-12T06:44:40.004Z</time></trkpt><trkpt lat="43.1028444" lon="12.3250675"><ele>293.0</ele><time>2026-04-12T06:44:42.007Z</time></trkpt><trkpt lat="43.102912" lon="12.3251225"><ele>293.0</ele><time>2026-04-12T06:44:44.005Z</time></trkpt><trkpt lat="43.1029766" lon="12.3251811"><ele>293.0</ele><time>2026-04-12T06:44:46.004Z</time></trkpt><trkpt lat="43.1030326" lon="12.3252287"><ele>293.0</ele><time>2026-04-12T06:44:48.018Z</time></trkpt><trkpt lat="43.1031285" lon="12.3252487"><ele>293.0</ele><time>2026-04-12T06:44:50.024Z</time></trkpt><trkpt lat="43.1031949" lon="12.3252967"><ele>293.0</ele><time>2026-04-12T06:44:52.013Z</time></trkpt><trkpt lat="43.1032531" lon="12.3253533"><ele>291.83333333333337</ele><time>2026-04-12T06:44:54.02Z</time></trkpt><trkpt lat="43.1033371" lon="12.3253867"><ele>290.6666666666667</ele><time>2026-04-12T06:44:56.017Z</time></trkpt><trkpt lat="43.1034269" lon="12.325424"><ele>289.5</ele><time>2026-04-12T06:44:58.012Z</time></trkpt><trkpt lat="43.1034808" lon="12.3254773"><ele>288.3333333333333</ele><time>2026-04-12T06:45:00.013Z</time></trkpt><trkpt lat="43.1035799" lon="12.3255112"><ele>287.16666666666663</ele><time>2026-04-12T06:45:02.104Z</time></trkpt><trkpt lat="43.103659" lon="12.3255861"><ele>286.0</ele><time>2026-04-12T06:45:04.018Z</time></trkpt><trkpt lat="43.1037386" lon="12.3256463"><ele>287.0</ele><time>2026-04-12T06:45:06.012Z</time></trkpt><trkpt lat="43.1038202" lon="12.3257347"><ele>288.0</ele><time>2026-04-12T06:45:08.115Z</time></trkpt><trkpt lat="43.1039615" lon="12.3258163"><ele>289.0</ele><time>2026-04-12T06:45:10.011Z</time></trkpt><trkpt lat="43.1040237" lon="12.3258351"><ele>290.0</ele><time>2026-04-12T06:45:11.021Z</time></trkpt><trkpt lat="43.1041195" lon="12.3258886"><ele>291.0</ele><time>2026-04-12T06:45:13.015Z</time></trkpt><trkpt lat="43.1042081" lon="12.3259546"><ele>291.0</ele><time>2026-04-12T06:45:15.02Z</time></trkpt><trkpt lat="43.1043212" lon="12.3259839"><ele>291.0</ele><time>2026-04-12T06:45:17.024Z</time></trkpt><trkpt lat="43.1043959" lon="12.3260496"><ele>291.0</ele><time>2026-04-12T06:45:19.124Z</time></trkpt><trkpt lat="43.1044751" lon="12.326056"><ele>291.0</ele><time>2026-04-12T06:45:20.017Z</time></trkpt><trkpt lat="43.1045703" lon="12.3261017"><ele>291.0</ele><time>2026-04-12T06:45:22.019Z</time></trkpt><trkpt lat="43.104676" lon="12.3261348"><ele>291.0</ele><time>2026-04-12T06:45:24.006Z</time></trkpt><trkpt lat="43.1047936" lon="12.3261751"><ele>291.0</ele><time>2026-04-12T06:45:26.021Z</time></trkpt><trkpt lat="43.1048667" lon="12.3262446"><ele>291.0</ele><time>2026-04-12T06:45:28.017Z</time></trkpt><trkpt lat="43.1049212" lon="12.3263039"><ele>291.0</ele><time>2026-04-12T06:45:30.107Z</time></trkpt><trkpt lat="43.1050274" lon="12.326295"><ele>291.0</ele><time>2026-04-12T06:45:32.013Z</time></trkpt><trkpt lat="43.1054428" lon="12.3263395"><ele>290.8</ele><time>2026-04-12T06:45:41.012Z</time></trkpt><trkpt lat="43.1055367" lon="12.3263404"><ele>290.6</ele><time>2026-04-12T06:45:42.014Z</time></trkpt><trkpt lat="43.1056297" lon="12.3264267"><ele>290.4</ele><time>2026-04-12T06:45:44.019Z</time></trkpt><trkpt lat="43.1056485" lon="12.3265466"><ele>290.2</ele><time>2026-04-12T06:45:46.021Z</time></trkpt><trkpt lat="43.1056684" lon="12.3266597"><ele>290.0</ele><time>2026-04-12T06:45:48.013Z</time></trkpt><trkpt lat="43.1057055" lon="12.3267661"><ele>290.6666666666667</ele><time>2026-04-12T06:45:50.016Z</time></trkpt><trkpt lat="43.1057365" lon="12.3268769"><ele>291.33333333333337</ele><time>2026-04-12T06:45:52.114Z</time></trkpt><trkpt lat="43.1057654" lon="12.3269874"><ele>292.0</ele><time>2026-04-12T06:45:54.014Z</time></trkpt><trkpt lat="43.1057983" lon="12.3271024"><ele>292.6666666666667</ele><time>2026-04-12T06:45:56.034Z</time></trkpt><trkpt lat="43.1058291" lon="12.327216"><ele>293.3333333333333</ele><time>2026-04-12T06:45:58.012Z</time></trkpt><trkpt lat="43.1058602" lon="12.3273323"><ele>294.0</ele><time>2026-04-12T06:46:00.004Z</time></trkpt><trkpt lat="43.1058902" lon="12.3274496"><ele>294.59999999999997</ele><time>2026-04-12T06:46:02.013Z</time></trkpt><trkpt lat="43.1059193" lon="12.3275675"><ele>295.2</ele><time>2026-04-12T06:46:04.012Z</time></trkpt><trkpt lat="43.1059489" lon="12.3276801"><ele>295.79999999999995</ele><time>2026-04-12T06:46:06.015Z</time></trkpt><trkpt lat="43.1059748" lon="12.3277911"><ele>296.4</ele><time>2026-04-12T06:46:08.003Z</time></trkpt><trkpt lat="43.106003" lon="12.3279088"><ele>297.0</ele><time>2026-04-12T06:46:10Z</time></trkpt><trkpt lat="43.1060593" lon="12.3280319"><ele>297.3333333333333</ele><time>2026-04-12T06:46:12.017Z</time></trkpt><trkpt lat="43.1060892" lon="12.3281235"><ele>297.6666666666667</ele><time>2026-04-12T06:46:14.011Z</time></trkpt><trkpt lat="43.1061341" lon="12.3282338"><ele>298.0</ele><time>2026-04-12T06:46:16.014Z</time></trkpt><trkpt lat="43.1061614" lon="12.3283432"><ele>298.33333333333337</ele><time>2026-04-12T06:46:18.013Z</time></trkpt><trkpt lat="43.1061936" lon="12.3284506"><ele>298.6666666666667</ele><time>2026-04-12T06:46:20.015Z</time></trkpt><trkpt lat="43.1062189" lon="12.3285576"><ele>299.0</ele><time>2026-04-12T06:46:22.009Z</time></trkpt><trkpt lat="43.1062495" lon="12.328666"><ele>299.0</ele><time>2026-04-12T06:46:24.019Z</time></trkpt><trkpt lat="43.1062913" lon="12.3288251"><ele>299.0</ele><time>2026-04-12T06:46:27.012Z</time></trkpt><trkpt lat="43.1063275" lon="12.3289285"><ele>299.0</ele><time>2026-04-12T06:46:29.018Z</time></trkpt><trkpt lat="43.1063713" lon="12.3290232"><ele>299.0</ele><time>2026-04-12T06:46:31.005Z</time></trkpt><trkpt lat="43.1064141" lon="12.3291233"><ele>299.0</ele><time>2026-04-12T06:46:33.016Z</time></trkpt><trkpt lat="43.1064662" lon="12.3292169"><ele>298.83333333333337</ele><time>2026-04-12T06:46:35.011Z</time></trkpt><trkpt lat="43.106527" lon="12.3293049"><ele>298.6666666666667</ele><time>2026-04-12T06:46:37.016Z</time></trkpt><trkpt lat="43.1065813" lon="12.3293797"><ele>298.5</ele><time>2026-04-12T06:46:39.013Z</time></trkpt><trkpt lat="43.1066398" lon="12.3294435"><ele>298.3333333333333</ele><time>2026-04-12T06:46:41.023Z</time></trkpt><trkpt lat="43.1067058" lon="12.3294815"><ele>298.16666666666663</ele><time>2026-04-12T06:46:43.013Z</time></trkpt><trkpt lat="43.106775" lon="12.329514"><ele>298.0</ele><time>2026-04-12T06:46:45.014Z</time></trkpt><trkpt lat="43.1068378" lon="12.3295364"><ele>298.0</ele><time>2026-04-12T06:46:47.103Z</time></trkpt><trkpt lat="43.1069079" lon="12.3295484"><ele>298.0</ele><time>2026-04-12T06:46:49.011Z</time></trkpt><trkpt lat="43.1069885" lon="12.3295362"><ele>298.0</ele><time>2026-04-12T06:46:51.001Z</time></trkpt><trkpt lat="43.1070809" lon="12.3295252"><ele>298.0</ele><time>2026-04-12T06:46:54.011Z</time></trkpt><trkpt lat="43.1071594" lon="12.3295537"><ele>298.0</ele><time>2026-04-12T06:46:57.015Z</time></trkpt><trkpt lat="43.1072321" lon="12.3296041"><ele>298.0</ele><time>2026-04-12T06:47:00.001Z</time></trkpt><trkpt lat="43.1073232" lon="12.3296429"><ele>298.0</ele><time>2026-04-12T06:47:03.017Z</time></trkpt><trkpt lat="43.1073874" lon="12.3296698"><ele>298.0</ele><time>2026-04-12T06:47:04.999Z</time></trkpt><trkpt lat="43.1074524" lon="12.3296955"><ele>298.0</ele><time>2026-04-12T06:47:07.013Z</time></trkpt><trkpt lat="43.1075141" lon="12.3297191"><ele>298.0</ele><time>2026-04-12T06:47:08.999Z</time></trkpt><trkpt lat="43.107576" lon="12.3297482"><ele>298.0</ele><time>2026-04-12T06:47:11Z</time></trkpt><trkpt lat="43.1076364" lon="12.3297775"><ele>298.0</ele><time>2026-04-12T06:47:13Z</time></trkpt><trkpt lat="43.1076962" lon="12.3298079"><ele>298.0</ele><time>2026-04-12T06:47:15.096Z</time></trkpt><trkpt lat="43.1077575" lon="12.3298354"><ele>299.0</ele><time>2026-04-12T06:47:17.003Z</time></trkpt><trkpt lat="43.1078375" lon="12.3298752"><ele>300.0</ele><time>2026-04-12T06:47:20.004Z</time></trkpt><trkpt lat="43.1079088" lon="12.3299313"><ele>301.0</ele><time>2026-04-12T06:47:22.998Z</time></trkpt><trkpt lat="43.1079866" lon="12.3299632"><ele>302.0</ele><time>2026-04-12T06:47:25.998Z</time></trkpt><trkpt lat="43.1080593" lon="12.3299909"><ele>303.0</ele><time>2026-04-12T06:47:29.02Z</time></trkpt><trkpt lat="43.1081248" lon="12.3300241"><ele>304.0</ele><time>2026-04-12T06:47:32.091Z</time></trkpt><trkpt lat="43.108206" lon="12.3300493"><ele>304.57142857142856</ele><time>2026-04-12T06:47:35.012Z</time></trkpt><trkpt lat="43.1082683" lon="12.3300686"><ele>305.14285714285717</ele><time>2026-04-12T06:47:38.016Z</time></trkpt><trkpt lat="43.1083313" lon="12.3300733"><ele>305.7142857142857</ele><time>2026-04-12T06:47:40.024Z</time></trkpt><trkpt lat="43.1083983" lon="12.3300776"><ele>306.2857142857143</ele><time>2026-04-12T06:47:42.016Z</time></trkpt><trkpt lat="43.1084788" lon="12.3300868"><ele>306.8571428571429</ele><time>2026-04-12T06:47:45.02Z</time></trkpt><trkpt lat="43.1085502" lon="12.3300876"><ele>307.42857142857144</ele><time>2026-04-12T06:47:48.025Z</time></trkpt><trkpt lat="43.108625" lon="12.3300831"><ele>308.0</ele><time>2026-04-12T06:47:51.017Z</time></trkpt><trkpt lat="43.108697" lon="12.3300809"><ele>308.0</ele><time>2026-04-12T06:47:54.006Z</time></trkpt><trkpt lat="43.1087695" lon="12.3300684"><ele>308.0</ele><time>2026-04-12T06:47:57.013Z</time></trkpt><trkpt lat="43.1088408" lon="12.3300365"><ele>308.0</ele><time>2026-04-12T06:48:00.01Z</time></trkpt><trkpt lat="43.1089061" lon="12.3299901"><ele>308.0</ele><time>2026-04-12T06:48:03.015Z</time></trkpt><trkpt lat="43.1089658" lon="12.3299419"><ele>308.0</ele><time>2026-04-12T06:48:06.022Z</time></trkpt><trkpt lat="43.1090239" lon="12.3298924"><ele>308.0</ele><time>2026-04-12T06:48:09.012Z</time></trkpt><trkpt lat="43.1090856" lon="12.32984"><ele>308.0</ele><time>2026-04-12T06:48:12.012Z</time></trkpt><trkpt lat="43.109149" lon="12.3298009"><ele>309.0</ele><time>2026-04-12T06:48:15.012Z</time></trkpt><trkpt lat="43.1092173" lon="12.3297505"><ele>310.0</ele><time>2026-04-12T06:48:18.016Z</time></trkpt><trkpt lat="43.1092851" lon="12.3297141"><ele>311.0</ele><time>2026-04-12T06:48:21.013Z</time></trkpt><trkpt lat="43.1093426" lon="12.3296766"><ele>312.0</ele><time>2026-04-12T06:48:24.02Z</time></trkpt><trkpt lat="43.1093929" lon="12.3296013"><ele>313.0</ele><time>2026-04-12T06:48:28.01Z</time></trkpt><trkpt lat="43.1094458" lon="12.3295447"><ele>314.0</ele><time>2026-04-12T06:48:31.014Z</time></trkpt><trkpt lat="43.1094973" lon="12.3294799"><ele>315.0</ele><time>2026-04-12T06:48:34.013Z</time></trkpt><trkpt lat="43.1095455" lon="12.3294181"><ele>316.57142857142856</ele><time>2026-04-12T06:48:37.013Z</time></trkpt><trkpt lat="43.1095928" lon="12.3293427"><ele>318.1428571428571</ele><time>2026-04-12T06:48:40.013Z</time></trkpt><trkpt lat="43.1096373" lon="12.329268"><ele>319.7142857142857</ele><time>2026-04-12T06:48:43.018Z</time></trkpt><trkpt lat="43.1096937" lon="12.3291851"><ele>321.2857142857143</ele><time>2026-04-12T06:48:47.012Z</time></trkpt><trkpt lat="43.1097334" lon="12.3290857"><ele>322.85714285714283</ele><time>2026-04-12T06:48:50.012Z</time></trkpt><trkpt lat="43.1097559" lon="12.3289923"><ele>324.42857142857144</ele><time>2026-04-12T06:48:56.013Z</time></trkpt><trkpt lat="43.1097737" lon="12.3289007"><ele>326.0</ele><time>2026-04-12T06:48:58.012Z</time></trkpt><trkpt lat="43.1097936" lon="12.328775"><ele>326.2857142857143</ele><time>2026-04-12T06:49:01.011Z</time></trkpt><trkpt lat="43.1098034" lon="12.3286634"><ele>326.57142857142856</ele><time>2026-04-12T06:49:03.999Z</time></trkpt><trkpt lat="43.1098098" lon="12.3285617"><ele>326.85714285714283</ele><time>2026-04-12T06:49:06.99Z</time></trkpt><trkpt lat="43.1098193" lon="12.3284683"><ele>327.1428571428571</ele><time>2026-04-12T06:49:10.052Z</time></trkpt><trkpt lat="43.1098334" lon="12.3283751"><ele>327.42857142857144</ele><time>2026-04-12T06:49:13.017Z</time></trkpt><trkpt lat="43.1098336" lon="12.3282854"><ele>327.71428571428567</ele><time>2026-04-12T06:49:16.01Z</time></trkpt><trkpt lat="43.1098383" lon="12.3281928"><ele>328.0</ele><time>2026-04-12T06:49:19.014Z</time></trkpt><trkpt lat="43.1098463" lon="12.3280853"><ele>329.4285714285714</ele><time>2026-04-12T06:49:22.126Z</time></trkpt><trkpt lat="43.109855" lon="12.3279869"><ele>330.85714285714283</ele><time>2026-04-12T06:49:25.009Z</time></trkpt><trkpt lat="43.1098543" lon="12.3278852"><ele>332.2857142857143</ele><time>2026-04-12T06:49:28.003Z</time></trkpt><trkpt lat="43.1098337" lon="12.327802"><ele>333.71428571428567</ele><time>2026-04-12T06:49:30.018Z</time></trkpt><trkpt lat="43.109829" lon="12.3276935"><ele>335.1428571428571</ele><time>2026-04-12T06:49:33.019Z</time></trkpt><trkpt lat="43.1098152" lon="12.3276035"><ele>336.57142857142856</ele><time>2026-04-12T06:49:36.012Z</time></trkpt><trkpt lat="43.1098139" lon="12.3274882"><ele>338.0</ele><time>2026-04-12T06:49:40.013Z</time></trkpt><trkpt lat="43.1097958" lon="12.3273977"><ele>338.0</ele><time>2026-04-12T06:49:43.014Z</time></trkpt><trkpt lat="43.1097721" lon="12.3272854"><ele>338.0</ele><time>2026-04-12T06:49:46.011Z</time></trkpt><trkpt lat="43.1097504" lon="12.3271752"><ele>338.0</ele><time>2026-04-12T06:49:49.013Z</time></trkpt><trkpt lat="43.1097481" lon="12.327067"><ele>338.0</ele><time>2026-04-12T06:49:52.006Z</time></trkpt><trkpt lat="43.1097646" lon="12.3269747"><ele>338.0</ele><time>2026-04-12T06:49:55.012Z</time></trkpt><trkpt lat="43.1098151" lon="12.326902"><ele>338.0</ele><time>2026-04-12T06:49:58.001Z</time></trkpt><trkpt lat="43.1098793" lon="12.3268524"><ele>341.1666666666667</ele><time>2026-04-12T06:50:00.995Z</time></trkpt><trkpt lat="43.1099658" lon="12.3268296"><ele>344.33333333333337</ele><time>2026-04-12T06:50:03.994Z</time></trkpt><trkpt lat="43.1100354" lon="12.3268271"><ele>347.5</ele><time>2026-04-12T06:50:08.003Z</time></trkpt><trkpt lat="43.1100974" lon="12.3268103"><ele>350.6666666666667</ele><time>2026-04-12T06:50:14.012Z</time></trkpt><trkpt lat="43.1101655" lon="12.326758"><ele>353.8333333333333</ele><time>2026-04-12T06:50:18.012Z</time></trkpt><trkpt lat="43.110224" lon="12.3266928"><ele>357.0</ele><time>2026-04-12T06:50:22.013Z</time></trkpt><trkpt lat="43.110315" lon="12.3266243"><ele>357.0</ele><time>2026-04-12T06:50:26.016Z</time></trkpt><trkpt lat="43.1103857" lon="12.3265715"><ele>357.0</ele><time>2026-04-12T06:50:30.009Z</time></trkpt><trkpt lat="43.1104461" lon="12.3265252"><ele>357.0</ele><time>2026-04-12T06:50:33.017Z</time></trkpt><trkpt lat="43.1105231" lon="12.3264446"><ele>357.0</ele><time>2026-04-12T06:50:36.999Z</time></trkpt><trkpt lat="43.1105945" lon="12.3263891"><ele>357.0</ele><time>2026-04-12T06:50:41.083Z</time></trkpt><trkpt lat="43.1106543" lon="12.3263376"><ele>357.0</ele><time>2026-04-12T06:50:44.003Z</time></trkpt><trkpt lat="43.1107214" lon="12.3262831"><ele>359.0</ele><time>2026-04-12T06:50:47.009Z</time></trkpt><trkpt lat="43.1107936" lon="12.326231"><ele>361.0</ele><time>2026-04-12T06:50:51.108Z</time></trkpt><trkpt lat="43.1108598" lon="12.3261946"><ele>363.0</ele><time>2026-04-12T06:50:53.997Z</time></trkpt><trkpt lat="43.1109332" lon="12.3261459"><ele>365.0</ele><time>2026-04-12T06:50:57.101Z</time></trkpt><trkpt lat="43.1109868" lon="12.3260876"><ele>367.0</ele><time>2026-04-12T06:50:59.999Z</time></trkpt><trkpt lat="43.1110433" lon="12.326016"><ele>369.0</ele><time>2026-04-12T06:51:04Z</time></trkpt><trkpt lat="43.11108" lon="12.3259408"><ele>371.0</ele><time>2026-04-12T06:51:07.017Z</time></trkpt><trkpt lat="43.1111071" lon="12.3258416"><ele>371.0</ele><time>2026-04-12T06:51:10.004Z</time></trkpt><trkpt lat="43.111131" lon="12.3257525"><ele>371.0</ele><time>2026-04-12T06:51:13Z</time></trkpt><trkpt lat="43.1111551" lon="12.3256668"><ele>371.0</ele><time>2026-04-12T06:51:16.015Z</time></trkpt><trkpt lat="43.1111678" lon="12.3255757"><ele>371.0</ele><time>2026-04-12T06:51:20.998Z</time></trkpt><trkpt lat="43.1111859" lon="12.3254819"><ele>371.0</ele><time>2026-04-12T06:51:26.001Z</time></trkpt><trkpt lat="43.1112079" lon="12.3253847"><ele>371.0</ele><time>2026-04-12T06:51:29Z</time></trkpt><trkpt lat="43.1112325" lon="12.3253025"><ele>371.0</ele><time>2026-04-12T06:51:32.003Z</time></trkpt><trkpt lat="43.1112694" lon="12.3252187"><ele>370.7142857142857</ele><time>2026-04-12T06:51:35Z</time></trkpt><trkpt lat="43.1112941" lon="12.3251346"><ele>370.42857142857144</ele><time>2026-04-12T06:51:38.1Z</time></trkpt><trkpt lat="43.1113212" lon="12.3250416"><ele>370.1428571428571</ele><time>2026-04-12T06:51:41.995Z</time></trkpt><trkpt lat="43.1113742" lon="12.3249688"><ele>369.8571428571429</ele><time>2026-04-12T06:51:48.002Z</time></trkpt><trkpt lat="43.1114188" lon="12.3248867"><ele>369.57142857142856</ele><time>2026-04-12T06:51:52.003Z</time></trkpt><trkpt lat="43.111464" lon="12.3247922"><ele>369.2857142857143</ele><time>2026-04-12T06:51:56.011Z</time></trkpt><trkpt lat="43.1114921" lon="12.3246969"><ele>369.0</ele><time>2026-04-12T06:51:59.009Z</time></trkpt><trkpt lat="43.1115301" lon="12.3246251"><ele>368.2857142857143</ele><time>2026-04-12T06:52:02.104Z</time></trkpt><trkpt lat="43.1115608" lon="12.324548"><ele>367.57142857142856</ele><time>2026-04-12T06:52:05.012Z</time></trkpt><trkpt lat="43.1115824" lon="12.3244588"><ele>366.8571428571429</ele><time>2026-04-12T06:52:10.012Z</time></trkpt><trkpt lat="43.1116193" lon="12.3243623"><ele>366.1428571428571</ele><time>2026-04-12T06:52:14.013Z</time></trkpt><trkpt lat="43.111653" lon="12.3242695"><ele>365.42857142857144</ele><time>2026-04-12T06:52:17.023Z</time></trkpt><trkpt lat="43.1116847" lon="12.324191"><ele>364.7142857142857</ele><time>2026-04-12T06:52:20.115Z</time></trkpt><trkpt lat="43.1117358" lon="12.3241243"><ele>364.0</ele><time>2026-04-12T06:52:24.018Z</time></trkpt><trkpt lat="43.1117788" lon="12.3240526"><ele>367.7142857142857</ele><time>2026-04-12T06:52:29.995Z</time></trkpt><trkpt lat="43.1118176" lon="12.3239669"><ele>371.42857142857144</ele><time>2026-04-12T06:52:33.016Z</time></trkpt><trkpt lat="43.1118523" lon="12.3238704"><ele>375.1428571428571</ele><time>2026-04-12T06:52:37.013Z</time></trkpt><trkpt lat="43.1118782" lon="12.323782"><ele>378.8571428571429</ele><time>2026-04-12T06:52:40.014Z</time></trkpt><trkpt lat="43.1118964" lon="12.3236882"><ele>382.57142857142856</ele><time>2026-04-12T06:52:44.019Z</time></trkpt><trkpt lat="43.1119298" lon="12.323594"><ele>386.2857142857143</ele><time>2026-04-12T06:52:48.042Z</time></trkpt><trkpt lat="43.1119604" lon="12.3235004"><ele>390.0</ele><time>2026-04-12T06:52:52.011Z</time></trkpt><trkpt lat="43.1120091" lon="12.3234441"><ele>390.0</ele><time>2026-04-12T06:52:55.02Z</time></trkpt><trkpt lat="43.1120645" lon="12.3233781"><ele>390.0</ele><time>2026-04-12T06:52:59.017Z</time></trkpt><trkpt lat="43.1121361" lon="12.3233267"><ele>390.0</ele><time>2026-04-12T06:53:04.012Z</time></trkpt><trkpt lat="43.1121996" lon="12.3232796"><ele>390.0</ele><time>2026-04-12T06:53:09.016Z</time></trkpt><trkpt lat="43.1122607" lon="12.3233063"><ele>390.0</ele><time>2026-04-12T06:53:13.02Z</time></trkpt><trkpt lat="43.1123026" lon="12.3234011"><ele>390.0</ele><time>2026-04-12T06:53:18.013Z</time></trkpt><trkpt lat="43.1123399" lon="12.3234886"><ele>390.0</ele><time>2026-04-12T06:53:22.012Z</time></trkpt><trkpt lat="43.1123847" lon="12.323556"><ele>392.2857142857143</ele><time>2026-04-12T06:53:26.015Z</time></trkpt><trkpt lat="43.1124261" lon="12.323631"><ele>394.57142857142856</ele><time>2026-04-12T06:53:30.014Z</time></trkpt><trkpt lat="43.1124727" lon="12.3237038"><ele>396.8571428571429</ele><time>2026-04-12T06:53:34.005Z</time></trkpt><trkpt lat="43.1125326" lon="12.3237734"><ele>399.1428571428571</ele><time>2026-04-12T06:53:38.015Z</time></trkpt><trkpt lat="43.1126132" lon="12.3238526"><ele>401.42857142857144</ele><time>2026-04-12T06:53:43.02Z</time></trkpt><trkpt lat="43.1126729" lon="12.3238885"><ele>403.7142857142857</ele><time>2026-04-12T06:53:46.016Z</time></trkpt><trkpt lat="43.112731" lon="12.3239268"><ele>406.0</ele><time>2026-04-12T06:53:49.012Z</time></trkpt><trkpt lat="43.1127856" lon="12.3239716"><ele>406.00000000000006</ele><time>2026-04-12T06:53:51.991Z</time></trkpt><trkpt lat="43.112859" lon="12.3240179"><ele>406.0</ele><time>2026-04-12T06:53:56.012Z</time></trkpt><trkpt lat="43.112931" lon="12.3240449"><ele>406.0</ele><time>2026-04-12T06:54:00.023Z</time></trkpt><trkpt lat="43.1129995" lon="12.3240658"><ele>406.0</ele><time>2026-04-12T06:54:04.004Z</time></trkpt><trkpt lat="43.1130665" lon="12.3240967"><ele>406.00000000000006</ele><time>2026-04-12T06:54:08.019Z</time></trkpt><trkpt lat="43.1131336" lon="12.3241781"><ele>406.0</ele><time>2026-04-12T06:54:13.018Z</time></trkpt><trkpt lat="43.1131981" lon="12.3242498"><ele>408.33333333333337</ele><time>2026-04-12T06:54:17.015Z</time></trkpt><trkpt lat="43.1132562" lon="12.3242977"><ele>410.6666666666667</ele><time>2026-04-12T06:54:20.016Z</time></trkpt><trkpt lat="43.1133263" lon="12.3243328"><ele>413.0</ele><time>2026-04-12T06:54:23.022Z</time></trkpt><trkpt lat="43.113396" lon="12.3243557"><ele>415.33333333333337</ele><time>2026-04-12T06:54:26.021Z</time></trkpt><trkpt lat="43.1134621" lon="12.3244219"><ele>417.6666666666667</ele><time>2026-04-12T06:54:29.018Z</time></trkpt><trkpt lat="43.1135456" lon="12.3244705"><ele>420.0</ele><time>2026-04-12T06:54:32.019Z</time></trkpt><trkpt lat="43.113636" lon="12.3245044"><ele>420.0</ele><time>2026-04-12T06:54:35.016Z</time></trkpt><trkpt lat="43.1137247" lon="12.3245298"><ele>420.0</ele><time>2026-04-12T06:54:38.014Z</time></trkpt><trkpt lat="43.1138" lon="12.3245405"><ele>420.0</ele><time>2026-04-12T06:54:41.013Z</time></trkpt><trkpt lat="43.1138673" lon="12.3245517"><ele>420.0</ele><time>2026-04-12T06:54:44.014Z</time></trkpt><trkpt lat="43.1139314" lon="12.3245652"><ele>420.0</ele><time>2026-04-12T06:54:47.014Z</time></trkpt><trkpt lat="43.1139966" lon="12.3245839"><ele>420.0</ele><time>2026-04-12T06:54:51.014Z</time></trkpt><trkpt lat="43.1140607" lon="12.3246084"><ele>420.0</ele><time>2026-04-12T06:54:59.011Z</time></trkpt><trkpt lat="43.1141199" lon="12.324566"><ele>420.7142857142857</ele><time>2026-04-12T06:59:20.026Z</time></trkpt><trkpt lat="43.1141855" lon="12.3245752"><ele>421.42857142857144</ele><time>2026-04-12T06:59:25.013Z</time></trkpt><trkpt lat="43.1142521" lon="12.3245492"><ele>422.1428571428571</ele><time>2026-04-12T06:59:29.014Z</time></trkpt><trkpt lat="43.1143167" lon="12.3245323"><ele>422.8571428571429</ele><time>2026-04-12T06:59:32.013Z</time></trkpt><trkpt lat="43.1143795" lon="12.3245111"><ele>423.57142857142856</ele><time>2026-04-12T06:59:35.016Z</time></trkpt><trkpt lat="43.1144644" lon="12.3244996"><ele>424.2857142857143</ele><time>2026-04-12T06:59:38.013Z</time></trkpt><trkpt lat="43.1145393" lon="12.324488"><ele>425.0</ele><time>2026-04-12T06:59:41.012Z</time></trkpt><trkpt lat="43.1146041" lon="12.3244542"><ele>424.99999999999994</ele><time>2026-04-12T06:59:44.012Z</time></trkpt><trkpt lat="43.1146625" lon="12.3243833"><ele>425.0</ele><time>2026-04-12T06:59:47.013Z</time></trkpt><trkpt lat="43.1147083" lon="12.3242944"><ele>425.0</ele><time>2026-04-12T06:59:50.012Z</time></trkpt><trkpt lat="43.1147388" lon="12.3241945"><ele>425.0</ele><time>2026-04-12T06:59:52.997Z</time></trkpt><trkpt lat="43.1147518" lon="12.32409"><ele>424.99999999999994</ele><time>2026-04-12T06:59:56.013Z</time></trkpt><trkpt lat="43.1147523" lon="12.3239934"><ele>425.0</ele><time>2026-04-12T06:59:59.004Z</time></trkpt><trkpt lat="43.1147484" lon="12.323869"><ele>426.0</ele><time>2026-04-12T07:00:03.004Z</time></trkpt><trkpt lat="43.1147642" lon="12.3237631"><ele>427.0</ele><time>2026-04-12T07:00:07.013Z</time></trkpt><trkpt lat="43.1147837" lon="12.3236809"><ele>428.0</ele><time>2026-04-12T07:00:10.011Z</time></trkpt><trkpt lat="43.1148413" lon="12.3235991"><ele>429.0</ele><time>2026-04-12T07:00:16.014Z</time></trkpt><trkpt lat="43.1149074" lon="12.3235435"><ele>430.0</ele><time>2026-04-12T07:00:20.013Z</time></trkpt><trkpt lat="43.1149707" lon="12.323488"><ele>431.0</ele><time>2026-04-12T07:00:24.011Z</time></trkpt><trkpt lat="43.1150182" lon="12.323416"><ele>432.0</ele><time>2026-04-12T07:00:27.002Z</time></trkpt><trkpt lat="43.1150811" lon="12.3233752"><ele>432.0</ele><time>2026-04-12T07:00:30.014Z</time></trkpt><trkpt lat="43.1151585" lon="12.3233505"><ele>432.0</ele><time>2026-04-12T07:00:34.017Z</time></trkpt><trkpt lat="43.115216" lon="12.3233142"><ele>432.0</ele><time>2026-04-12T07:00:37.013Z</time></trkpt><trkpt lat="43.115284" lon="12.323293"><ele>432.0</ele><time>2026-04-12T07:00:41.012Z</time></trkpt><trkpt lat="43.1153549" lon="12.3232704"><ele>432.0</ele><time>2026-04-12T07:00:45.012Z</time></trkpt><trkpt lat="43.1154306" lon="12.3232607"><ele>432.0</ele><time>2026-04-12T07:00:49.012Z</time></trkpt><trkpt lat="43.1154981" lon="12.3232487"><ele>432.0</ele><time>2026-04-12T07:00:52.003Z</time></trkpt><trkpt lat="43.1155708" lon="12.3231897"><ele>432.0</ele><time>2026-04-12T07:00:56.014Z</time></trkpt><trkpt lat="43.1156433" lon="12.3231463"><ele>432.0</ele><time>2026-04-12T07:00:59.004Z</time></trkpt><trkpt lat="43.1157061" lon="12.3230806"><ele>432.0</ele><time>2026-04-12T07:01:02.014Z</time></trkpt><trkpt lat="43.1157372" lon="12.3229898"><ele>432.0</ele><time>2026-04-12T07:01:05.02Z</time></trkpt><trkpt lat="43.1157517" lon="12.322897"><ele>432.0</ele><time>2026-04-12T07:01:08.003Z</time></trkpt><trkpt lat="43.1157917" lon="12.3228109"><ele>432.0</ele><time>2026-04-12T07:01:12.003Z</time></trkpt><trkpt lat="43.1158475" lon="12.3227415"><ele>433.85714285714283</ele><time>2026-04-12T07:01:16.005Z</time></trkpt><trkpt lat="43.1158984" lon="12.3226685"><ele>435.71428571428567</ele><time>2026-04-12T07:01:20.018Z</time></trkpt><trkpt lat="43.1159501" lon="12.3226042"><ele>437.57142857142856</ele><time>2026-04-12T07:01:24.016Z</time></trkpt><trkpt lat="43.1160024" lon="12.3225426"><ele>439.42857142857144</ele><time>2026-04-12T07:01:28.015Z</time></trkpt><trkpt lat="43.1160536" lon="12.3224874"><ele>441.2857142857143</ele><time>2026-04-12T07:01:32.011Z</time></trkpt><trkpt lat="43.1161078" lon="12.3224337"><ele>443.14285714285717</ele><time>2026-04-12T07:01:36.02Z</time></trkpt><trkpt lat="43.1161544" lon="12.3223598"><ele>445.0</ele><time>2026-04-12T07:01:40.017Z</time></trkpt><trkpt lat="43.1162066" lon="12.322293"><ele>445.00000000000006</ele><time>2026-04-12T07:01:45.005Z</time></trkpt><trkpt lat="43.1162735" lon="12.3222445"><ele>445.0</ele><time>2026-04-12T07:01:50.012Z</time></trkpt><trkpt lat="43.116334" lon="12.3221832"><ele>445.0</ele><time>2026-04-12T07:01:56.012Z</time></trkpt><trkpt lat="43.1164084" lon="12.3221579"><ele>445.0</ele><time>2026-04-12T07:02:01.01Z</time></trkpt><trkpt lat="43.1164972" lon="12.3221769"><ele>445.00000000000006</ele><time>2026-04-12T07:02:04.011Z</time></trkpt><trkpt lat="43.116569" lon="12.3221701"><ele>445.0</ele><time>2026-04-12T07:02:06.996Z</time></trkpt><trkpt lat="43.1166366" lon="12.3221598"><ele>444.83333333333337</ele><time>2026-04-12T07:02:11.997Z</time></trkpt><trkpt lat="43.1167092" lon="12.3221742"><ele>444.6666666666667</ele><time>2026-04-12T07:02:17.999Z</time></trkpt><trkpt lat="43.1167815" lon="12.3221821"><ele>444.5</ele><time>2026-04-12T07:02:21.994Z</time></trkpt><trkpt lat="43.1168633" lon="12.322184"><ele>444.33333333333337</ele><time>2026-04-12T07:02:25.996Z</time></trkpt><trkpt lat="43.1169848" lon="12.3221594"><ele>444.1666666666667</ele><time>2026-04-12T07:02:36.014Z</time></trkpt><trkpt lat="43.1170616" lon="12.3220988"><ele>444.0</ele><time>2026-04-12T07:02:39.013Z</time></trkpt><trkpt lat="43.1171229" lon="12.3220439"><ele>444.0</ele><time>2026-04-12T07:02:41.012Z</time></trkpt><trkpt lat="43.1171915" lon="12.3219941"><ele>444.0</ele><time>2026-04-12T07:02:43.037Z</time></trkpt><trkpt lat="43.1172504" lon="12.3219607"><ele>444.0</ele><time>2026-04-12T07:02:45.011Z</time></trkpt><trkpt lat="43.1173224" lon="12.3218911"><ele>444.0</ele><time>2026-04-12T07:02:48.011Z</time></trkpt><trkpt lat="43.1173873" lon="12.3218338"><ele>444.0</ele><time>2026-04-12T07:02:51.016Z</time></trkpt><trkpt lat="43.1174576" lon="12.3217619"><ele>444.0</ele><time>2026-04-12T07:02:54.013Z</time></trkpt><trkpt lat="43.1175075" lon="12.3217002"><ele>444.2857142857143</ele><time>2026-04-12T07:02:57.014Z</time></trkpt><trkpt lat="43.1175434" lon="12.3216292"><ele>444.5714285714286</ele><time>2026-04-12T07:03:01.011Z</time></trkpt><trkpt lat="43.1175925" lon="12.3215623"><ele>444.8571428571429</ele><time>2026-04-12T07:03:06.013Z</time></trkpt><trkpt lat="43.1176535" lon="12.3214978"><ele>445.1428571428571</ele><time>2026-04-12T07:03:09.016Z</time></trkpt><trkpt lat="43.1176952" lon="12.3214292"><ele>445.42857142857144</ele><time>2026-04-12T07:03:12.012Z</time></trkpt><trkpt lat="43.1177348" lon="12.3213594"><ele>445.7142857142857</ele><time>2026-04-12T07:03:15.013Z</time></trkpt><trkpt lat="43.1177787" lon="12.3212729"><ele>446.0</ele><time>2026-04-12T07:03:19.012Z</time></trkpt><trkpt lat="43.1178408" lon="12.3211885"><ele>449.49999999999994</ele><time>2026-04-12T07:03:23.012Z</time></trkpt><trkpt lat="43.1178951" lon="12.3210988"><ele>453.0</ele><time>2026-04-12T07:03:26.012Z</time></trkpt><trkpt lat="43.117954" lon="12.3210131"><ele>456.5</ele><time>2026-04-12T07:03:30.015Z</time></trkpt><trkpt lat="43.1180174" lon="12.3209366"><ele>460.0</ele><time>2026-04-12T07:03:33.005Z</time></trkpt><trkpt lat="43.1180699" lon="12.3208736"><ele>463.49999999999994</ele><time>2026-04-12T07:03:36.012Z</time></trkpt><trkpt lat="43.1181365" lon="12.32082"><ele>467.0</ele><time>2026-04-12T07:03:39.02Z</time></trkpt><trkpt lat="43.1181971" lon="12.320747"><ele>468.2857142857142</ele><time>2026-04-12T07:03:43.011Z</time></trkpt><trkpt lat="43.1182489" lon="12.3206625"><ele>469.57142857142856</ele><time>2026-04-12T07:03:46.017Z</time></trkpt><trkpt lat="43.1182971" lon="12.3205853"><ele>470.85714285714283</ele><time>2026-04-12T07:03:49.013Z</time></trkpt><trkpt lat="43.1183526" lon="12.3205401"><ele>472.1428571428571</ele><time>2026-04-12T07:03:52.015Z</time></trkpt><trkpt lat="43.1184161" lon="12.3205043"><ele>473.42857142857144</ele><time>2026-04-12T07:03:54.126Z</time></trkpt><trkpt lat="43.1184701" lon="12.3204596"><ele>474.7142857142857</ele><time>2026-04-12T07:03:56.015Z</time></trkpt><trkpt lat="43.1185351" lon="12.3204143"><ele>476.0</ele><time>2026-04-12T07:03:59.014Z</time></trkpt><trkpt lat="43.1185906" lon="12.3203511"><ele>476.0</ele><time>2026-04-12T07:04:02.005Z</time></trkpt><trkpt lat="43.1186363" lon="12.3202897"><ele>476.0</ele><time>2026-04-12T07:04:05.016Z</time></trkpt><trkpt lat="43.1186927" lon="12.3202377"><ele>476.0</ele><time>2026-04-12T07:04:08.013Z</time></trkpt><trkpt lat="43.1187596" lon="12.3201722"><ele>476.0</ele><time>2026-04-12T07:04:13.016Z</time></trkpt><trkpt lat="43.1188089" lon="12.3201006"><ele>476.0</ele><time>2026-04-12T07:04:17.003Z</time></trkpt><trkpt lat="43.1188676" lon="12.3200493"><ele>476.0</ele><time>2026-04-12T07:04:22.013Z</time></trkpt><trkpt lat="43.1189274" lon="12.3199805"><ele>476.0</ele><time>2026-04-12T07:04:26.008Z</time></trkpt><trkpt lat="43.1189837" lon="12.3199165"><ele>475.99999999999994</ele><time>2026-04-12T07:04:30Z</time></trkpt><trkpt lat="43.119048" lon="12.3198506"><ele>476.0</ele><time>2026-04-12T07:04:35.082Z</time></trkpt><trkpt lat="43.1191015" lon="12.3197723"><ele>476.0</ele><time>2026-04-12T07:04:39.001Z</time></trkpt><trkpt lat="43.1191699" lon="12.3197128"><ele>476.0</ele><time>2026-04-12T07:04:44.001Z</time></trkpt><trkpt lat="43.1192067" lon="12.3196288"><ele>475.99999999999994</ele><time>2026-04-12T07:04:48.003Z</time></trkpt><trkpt lat="43.119271" lon="12.3196"><ele>476.0</ele><time>2026-04-12T07:04:52.009Z</time></trkpt><trkpt lat="43.1193304" lon="12.3195473"><ele>478.8571428571429</ele><time>2026-04-12T07:04:57.008Z</time></trkpt><trkpt lat="43.119397" lon="12.3195037"><ele>481.7142857142857</ele><time>2026-04-12T07:05:01.018Z</time></trkpt><trkpt lat="43.1194501" lon="12.3194316"><ele>484.57142857142856</ele><time>2026-04-12T07:05:07.017Z</time></trkpt><trkpt lat="43.1194841" lon="12.3193532"><ele>487.42857142857144</ele><time>2026-04-12T07:05:11.016Z</time></trkpt><trkpt lat="43.1195399" lon="12.3193096"><ele>490.28571428571433</ele><time>2026-04-12T07:05:14.018Z</time></trkpt><trkpt lat="43.1196035" lon="12.3192565"><ele>493.14285714285717</ele><time>2026-04-12T07:05:18.011Z</time></trkpt><trkpt lat="43.1196611" lon="12.3191811"><ele>496.0</ele><time>2026-04-12T07:05:23.021Z</time></trkpt><trkpt lat="43.1197204" lon="12.3191145"><ele>496.0</ele><time>2026-04-12T07:05:27.014Z</time></trkpt><trkpt lat="43.1197401" lon="12.3190267"><ele>496.00000000000006</ele><time>2026-04-12T07:05:32.01Z</time></trkpt><trkpt lat="43.1197812" lon="12.3189466"><ele>496.0</ele><time>2026-04-12T07:05:36.015Z</time></trkpt><trkpt lat="43.1198202" lon="12.318871"><ele>496.0</ele><time>2026-04-12T07:05:41.011Z</time></trkpt><trkpt lat="43.1198642" lon="12.3187769"><ele>496.00000000000006</ele><time>2026-04-12T07:05:45.012Z</time></trkpt><trkpt lat="43.1198799" lon="12.3186925"><ele>496.0</ele><time>2026-04-12T07:05:49.015Z</time></trkpt><trkpt lat="43.1199245" lon="12.3186262"><ele>496.0</ele><time>2026-04-12T07:05:54.013Z</time></trkpt><trkpt lat="43.1199838" lon="12.318559"><ele>496.6666666666667</ele><time>2026-04-12T07:06:00.018Z</time></trkpt><trkpt lat="43.1200329" lon="12.3184791"><ele>497.33333333333337</ele><time>2026-04-12T07:06:05.014Z</time></trkpt><trkpt lat="43.1200853" lon="12.318389"><ele>498.0</ele><time>2026-04-12T07:06:09.012Z</time></trkpt><trkpt lat="43.1201493" lon="12.3183254"><ele>498.66666666666663</ele><time>2026-04-12T07:06:13.013Z</time></trkpt><trkpt lat="43.1202144" lon="12.3182828"><ele>499.3333333333333</ele><time>2026-04-12T07:06:17.013Z</time></trkpt><trkpt lat="43.120269" lon="12.3182119"><ele>500.0</ele><time>2026-04-12T07:06:21.019Z</time></trkpt><trkpt lat="43.1202975" lon="12.3181201"><ele>503.42857142857144</ele><time>2026-04-12T07:06:25.012Z</time></trkpt><trkpt lat="43.1203451" lon="12.3180629"><ele>506.8571428571429</ele><time>2026-04-12T07:06:29.013Z</time></trkpt><trkpt lat="43.1203806" lon="12.317976"><ele>510.28571428571433</ele><time>2026-04-12T07:06:33.011Z</time></trkpt><trkpt lat="43.1204447" lon="12.3179298"><ele>513.7142857142858</ele><time>2026-04-12T07:06:38.099Z</time></trkpt><trkpt lat="43.1205006" lon="12.3178556"><ele>517.1428571428572</ele><time>2026-04-12T07:06:43.014Z</time></trkpt><trkpt lat="43.1205557" lon="12.3177842"><ele>520.5714285714286</ele><time>2026-04-12T07:06:48.021Z</time></trkpt><trkpt lat="43.1206113" lon="12.3177257"><ele>524.0</ele><time>2026-04-12T07:06:52.022Z</time></trkpt><trkpt lat="43.1206426" lon="12.3176396"><ele>524.0</ele><time>2026-04-12T07:06:56.022Z</time></trkpt><trkpt lat="43.1206914" lon="12.3175745"><ele>524.0</ele><time>2026-04-12T07:07:01.005Z</time></trkpt><trkpt lat="43.1207327" lon="12.3174952"><ele>524.0</ele><time>2026-04-12T07:07:05.004Z</time></trkpt><trkpt lat="43.1207767" lon="12.3174209"><ele>524.0</ele><time>2026-04-12T07:07:09.003Z</time></trkpt><trkpt lat="43.1208177" lon="12.3173486"><ele>524.0</ele><time>2026-04-12T07:07:12.998Z</time></trkpt><trkpt lat="43.1208571" lon="12.3172809"><ele>524.0</ele><time>2026-04-12T07:07:15.998Z</time></trkpt><trkpt lat="43.1209107" lon="12.3172199"><ele>524.0</ele><time>2026-04-12T07:07:19.111Z</time></trkpt><trkpt lat="43.1209469" lon="12.3171305"><ele>525.4285714285714</ele><time>2026-04-12T07:07:23.015Z</time></trkpt><trkpt lat="43.1209598" lon="12.3170455"><ele>526.8571428571429</ele><time>2026-04-12T07:07:27.016Z</time></trkpt><trkpt lat="43.1210038" lon="12.3169617"><ele>528.2857142857143</ele><time>2026-04-12T07:07:33.012Z</time></trkpt><trkpt lat="43.1210269" lon="12.3168753"><ele>529.7142857142858</ele><time>2026-04-12T07:07:38.015Z</time></trkpt><trkpt lat="43.1210705" lon="12.3167914"><ele>531.1428571428571</ele><time>2026-04-12T07:07:43.099Z</time></trkpt><trkpt lat="43.1211173" lon="12.3167293"><ele>532.5714285714287</ele><time>2026-04-12T07:07:47.002Z</time></trkpt><trkpt lat="43.1211615" lon="12.3166578"><ele>534.0</ele><time>2026-04-12T07:07:53.013Z</time></trkpt><trkpt lat="43.1211996" lon="12.3165753"><ele>534.0000000000001</ele><time>2026-04-12T07:07:59.012Z</time></trkpt><trkpt lat="43.121243" lon="12.3164878"><ele>534.0</ele><time>2026-04-12T07:08:04.004Z</time></trkpt><trkpt lat="43.1212873" lon="12.3164157"><ele>534.0</ele><time>2026-04-12T07:08:09.006Z</time></trkpt><trkpt lat="43.1213395" lon="12.3163442"><ele>534.0</ele><time>2026-04-12T07:08:15.014Z</time></trkpt><trkpt lat="43.1214052" lon="12.3162949"><ele>534.0</ele><time>2026-04-12T07:08:20.013Z</time></trkpt><trkpt lat="43.1214669" lon="12.3162567"><ele>534.0000000000001</ele><time>2026-04-12T07:08:24.013Z</time></trkpt><trkpt lat="43.121527" lon="12.316204"><ele>534.0</ele><time>2026-04-12T07:08:30.016Z</time></trkpt><trkpt lat="43.1215664" lon="12.3161173"><ele>535.4285714285714</ele><time>2026-04-12T07:08:34.015Z</time></trkpt><trkpt lat="43.1216189" lon="12.3160487"><ele>536.8571428571429</ele><time>2026-04-12T07:08:38.013Z</time></trkpt><trkpt lat="43.1217006" lon="12.3160118"><ele>538.2857142857142</ele><time>2026-04-12T07:08:43.013Z</time></trkpt><trkpt lat="43.1217586" lon="12.3159731"><ele>539.7142857142858</ele><time>2026-04-12T07:08:47.016Z</time></trkpt><trkpt lat="43.1218158" lon="12.3159277"><ele>541.1428571428571</ele><time>2026-04-12T07:08:51.015Z</time></trkpt><trkpt lat="43.121882" lon="12.3159084"><ele>542.5714285714286</ele><time>2026-04-12T07:08:56.013Z</time></trkpt><trkpt lat="43.1219409" lon="12.3158491"><ele>544.0</ele><time>2026-04-12T07:09:00.015Z</time></trkpt><trkpt lat="43.1220312" lon="12.315817"><ele>544.0</ele><time>2026-04-12T07:09:05Z</time></trkpt><trkpt lat="43.1220977" lon="12.3157675"><ele>544.0</ele><time>2026-04-12T07:09:09.031Z</time></trkpt><trkpt lat="43.1221541" lon="12.3157144"><ele>544.0</ele><time>2026-04-12T07:09:13.012Z</time></trkpt><trkpt lat="43.1222169" lon="12.3156676"><ele>544.0</ele><time>2026-04-12T07:09:17.015Z</time></trkpt><trkpt lat="43.1222806" lon="12.3156181"><ele>544.0</ele><time>2026-04-12T07:09:21.009Z</time></trkpt><trkpt lat="43.1223465" lon="12.3155942"><ele>544.0</ele><time>2026-04-12T07:09:25.006Z</time></trkpt><trkpt lat="43.1224549" lon="12.3155848"><ele>546.9999999999999</ele><time>2026-04-12T07:09:31.024Z</time></trkpt><trkpt lat="43.1225161" lon="12.3155289"><ele>550.0</ele><time>2026-04-12T07:09:35.013Z</time></trkpt><trkpt lat="43.1225816" lon="12.3154793"><ele>553.0</ele><time>2026-04-12T07:09:39.014Z</time></trkpt><trkpt lat="43.1226543" lon="12.3154353"><ele>556.0</ele><time>2026-04-12T07:09:44.012Z</time></trkpt><trkpt lat="43.122728" lon="12.3153986"><ele>559.0</ele><time>2026-04-12T07:09:48.012Z</time></trkpt><trkpt lat="43.1227941" lon="12.3153783"><ele>561.9999999999999</ele><time>2026-04-12T07:09:51.012Z</time></trkpt><trkpt lat="43.1228622" lon="12.3153798"><ele>565.0</ele><time>2026-04-12T07:09:58.013Z</time></trkpt><trkpt lat="43.1229362" lon="12.3153453"><ele>565.0</ele><time>2026-04-12T07:10:02.013Z</time></trkpt><trkpt lat="43.1230123" lon="12.3153036"><ele>565.0</ele><time>2026-04-12T07:10:06.012Z</time></trkpt><trkpt lat="43.123082" lon="12.315285"><ele>565.0</ele><time>2026-04-12T07:10:09.012Z</time></trkpt><trkpt lat="43.1231565" lon="12.3152519"><ele>565.0</ele><time>2026-04-12T07:10:14.013Z</time></trkpt><trkpt lat="43.1232121" lon="12.3151953"><ele>565.0</ele><time>2026-04-12T07:10:18.012Z</time></trkpt><trkpt lat="43.1232754" lon="12.3151302"><ele>565.0</ele><time>2026-04-12T07:10:22.014Z</time></trkpt><trkpt lat="43.1233406" lon="12.3150849"><ele>564.8333333333334</ele><time>2026-04-12T07:10:26.011Z</time></trkpt><trkpt lat="43.1234038" lon="12.3150509"><ele>564.6666666666667</ele><time>2026-04-12T07:10:30.014Z</time></trkpt><trkpt lat="43.1234691" lon="12.3150384"><ele>564.5</ele><time>2026-04-12T07:10:35.02Z</time></trkpt><trkpt lat="43.1235299" lon="12.3150731"><ele>564.3333333333334</ele><time>2026-04-12T07:10:41.021Z</time></trkpt><trkpt lat="43.1235876" lon="12.3151086"><ele>564.1666666666666</ele><time>2026-04-12T07:10:52.012Z</time></trkpt><trkpt lat="43.1237002" lon="12.3151507"><ele>564.0</ele><time>2026-04-12T07:14:29.988Z</time></trkpt><trkpt lat="43.1237727" lon="12.3151678"><ele>564.0</ele><time>2026-04-12T07:14:33.014Z</time></trkpt><trkpt lat="43.1238349" lon="12.3151358"><ele>564.0</ele><time>2026-04-12T07:14:37.011Z</time></trkpt><trkpt lat="43.1239001" lon="12.3151215"><ele>564.0</ele><time>2026-04-12T07:14:40.013Z</time></trkpt><trkpt lat="43.1239595" lon="12.3150598"><ele>564.0</ele><time>2026-04-12T07:14:44.013Z</time></trkpt><trkpt lat="43.1240301" lon="12.3150031"><ele>564.0</ele><time>2026-04-12T07:14:48.007Z</time></trkpt><trkpt lat="43.1240911" lon="12.3149695"><ele>564.0</ele><time>2026-04-12T07:14:51.013Z</time></trkpt><trkpt lat="43.1241546" lon="12.3149321"><ele>564.0</ele><time>2026-04-12T07:14:55.014Z</time></trkpt><trkpt lat="43.1242315" lon="12.3149378"><ele>564.8571428571429</ele><time>2026-04-12T07:14:59.011Z</time></trkpt><trkpt lat="43.1242942" lon="12.314899"><ele>565.7142857142857</ele><time>2026-04-12T07:15:03.027Z</time></trkpt><trkpt lat="43.1243619" lon="12.3148496"><ele>566.5714285714286</ele><time>2026-04-12T07:15:07.012Z</time></trkpt><trkpt lat="43.1244304" lon="12.314806"><ele>567.4285714285714</ele><time>2026-04-12T07:15:11.014Z</time></trkpt><trkpt lat="43.1244912" lon="12.3147655"><ele>568.2857142857143</ele><time>2026-04-12T07:15:14.012Z</time></trkpt><trkpt lat="43.1245495" lon="12.3147286"><ele>569.1428571428571</ele><time>2026-04-12T07:15:17.002Z</time></trkpt><trkpt lat="43.1246142" lon="12.3146667"><ele>570.0</ele><time>2026-04-12T07:15:21.01Z</time></trkpt><trkpt lat="43.1246694" lon="12.3145846"><ele>570.0</ele><time>2026-04-12T07:15:25.013Z</time></trkpt><trkpt lat="43.1247058" lon="12.3145071"><ele>570.0</ele><time>2026-04-12T07:15:29.004Z</time></trkpt><trkpt lat="43.1247764" lon="12.3144616"><ele>570.0</ele><time>2026-04-12T07:15:33.012Z</time></trkpt><trkpt lat="43.1248387" lon="12.3144355"><ele>570.0</ele><time>2026-04-12T07:15:37.003Z</time></trkpt><trkpt lat="43.1249054" lon="12.3144039"><ele>570.0</ele><time>2026-04-12T07:15:42.012Z</time></trkpt><trkpt lat="43.1249612" lon="12.3143582"><ele>570.0</ele><time>2026-04-12T07:15:46.012Z</time></trkpt><trkpt lat="43.1250186" lon="12.3143158"><ele>570.0</ele><time>2026-04-12T07:15:50.015Z</time></trkpt><trkpt lat="43.1250824" lon="12.314287"><ele>571.3333333333334</ele><time>2026-04-12T07:15:54.016Z</time></trkpt><trkpt lat="43.1251581" lon="12.3142859"><ele>572.6666666666666</ele><time>2026-04-12T07:15:58.013Z</time></trkpt><trkpt lat="43.1252189" lon="12.3142515"><ele>574.0</ele><time>2026-04-12T07:16:02.019Z</time></trkpt><trkpt lat="43.1252815" lon="12.3142122"><ele>575.3333333333333</ele><time>2026-04-12T07:16:06.003Z</time></trkpt><trkpt lat="43.1253606" lon="12.3141932"><ele>576.6666666666666</ele><time>2026-04-12T07:16:09.999Z</time></trkpt><trkpt lat="43.1254136" lon="12.314129"><ele>578.0</ele><time>2026-04-12T07:16:16.997Z</time></trkpt><trkpt lat="43.1255058" lon="12.3140871"><ele>578.0</ele><time>2026-04-12T07:16:24.018Z</time></trkpt><trkpt lat="43.1255707" lon="12.3140746"><ele>578.0</ele><time>2026-04-12T07:16:28.013Z</time></trkpt><trkpt lat="43.1256446" lon="12.3140956"><ele>578.0</ele><time>2026-04-12T07:16:30.997Z</time></trkpt><trkpt lat="43.1257135" lon="12.3141328"><ele>578.0</ele><time>2026-04-12T07:16:35.014Z</time></trkpt><trkpt lat="43.1257787" lon="12.3141699"><ele>578.0</ele><time>2026-04-12T07:16:43.011Z</time></trkpt><trkpt lat="43.1258302" lon="12.3142478"><ele>578.0</ele><time>2026-04-12T07:16:47.011Z</time></trkpt><trkpt lat="43.1258762" lon="12.3143171"><ele>578.0</ele><time>2026-04-12T07:16:49.013Z</time></trkpt><trkpt lat="43.1259471" lon="12.314373"><ele>581.1999999999999</ele><time>2026-04-12T07:16:51.018Z</time></trkpt><trkpt lat="43.1259984" lon="12.314467"><ele>584.4</ele><time>2026-04-12T07:16:53.012Z</time></trkpt><trkpt lat="43.1261055" lon="12.3145821"><ele>587.5999999999999</ele><time>2026-04-12T07:16:55.001Z</time></trkpt><trkpt lat="43.1261737" lon="12.3146458"><ele>590.8</ele><time>2026-04-12T07:16:56.025Z</time></trkpt><trkpt lat="43.1262339" lon="12.3147004"><ele>594.0</ele><time>2026-04-12T07:16:57Z</time></trkpt><trkpt lat="43.126336" lon="12.314787"><ele>595.8</ele><time>2026-04-12T07:16:59.014Z</time></trkpt><trkpt lat="43.1264112" lon="12.3148665"><ele>597.5999999999999</ele><time>2026-04-12T07:17:00.015Z</time></trkpt><trkpt lat="43.1264727" lon="12.3149186"><ele>599.4</ele><time>2026-04-12T07:17:01.019Z</time></trkpt><trkpt lat="43.1265307" lon="12.3149818"><ele>601.1999999999999</ele><time>2026-04-12T07:17:02.013Z</time></trkpt><trkpt lat="43.1265972" lon="12.3150435"><ele>603.0</ele><time>2026-04-12T07:17:03.107Z</time></trkpt><trkpt lat="43.1267423" lon="12.3151833"><ele>599.1666666666666</ele><time>2026-04-12T07:17:05.013Z</time></trkpt><trkpt lat="43.1268108" lon="12.3152474"><ele>595.3333333333334</ele><time>2026-04-12T07:17:06.029Z</time></trkpt><trkpt lat="43.1268851" lon="12.3152971"><ele>591.5</ele><time>2026-04-12T07:17:07.015Z</time></trkpt><trkpt lat="43.1269573" lon="12.3153526"><ele>587.6666666666667</ele><time>2026-04-12T07:17:08.018Z</time></trkpt><trkpt lat="43.127033" lon="12.3154004"><ele>583.8333333333334</ele><time>2026-04-12T07:17:09.012Z</time></trkpt><trkpt lat="43.12711" lon="12.3154419"><ele>580.0</ele><time>2026-04-12T07:17:10.012Z</time></trkpt><trkpt lat="43.1271935" lon="12.3154877"><ele>580.0</ele><time>2026-04-12T07:17:11.016Z</time></trkpt><trkpt lat="43.1272737" lon="12.315527"><ele>580.0</ele><time>2026-04-12T07:17:12.014Z</time></trkpt><trkpt lat="43.1273491" lon="12.3155688"><ele>580.0</ele><time>2026-04-12T07:17:13.012Z</time></trkpt><trkpt lat="43.1274116" lon="12.3156099"><ele>580.0</ele><time>2026-04-12T07:17:14.001Z</time></trkpt><trkpt lat="43.1274769" lon="12.3156486"><ele>580.0</ele><time>2026-04-12T07:17:15.004Z</time></trkpt><trkpt lat="43.1275365" lon="12.3156889"><ele>580.0</ele><time>2026-04-12T07:17:16.004Z</time></trkpt><trkpt lat="43.1275951" lon="12.3157258"><ele>580.0</ele><time>2026-04-12T07:17:17.01Z</time></trkpt><trkpt lat="43.1276922" lon="12.3157976"><ele>578.4</ele><time>2026-04-12T07:17:19Z</time></trkpt><trkpt lat="43.1277799" lon="12.315867"><ele>576.8</ele><time>2026-04-12T07:17:21.003Z</time></trkpt><trkpt lat="43.1278688" lon="12.3159213"><ele>575.2</ele><time>2026-04-12T07:17:23Z</time></trkpt><trkpt lat="43.1279504" lon="12.3159525"><ele>573.6</ele><time>2026-04-12T07:17:25.007Z</time></trkpt><trkpt lat="43.1280231" lon="12.3159688"><ele>572.0</ele><time>2026-04-12T07:17:27.016Z</time></trkpt><trkpt lat="43.1281172" lon="12.315978"><ele>571.9999999999999</ele><time>2026-04-12T07:17:29.999Z</time></trkpt><trkpt lat="43.1281887" lon="12.3159729"><ele>572.0</ele><time>2026-04-12T07:17:32.003Z</time></trkpt><trkpt lat="43.1282667" lon="12.3159656"><ele>572.0</ele><time>2026-04-12T07:17:34.001Z</time></trkpt><trkpt lat="43.1283415" lon="12.3159646"><ele>572.0</ele><time>2026-04-12T07:17:36.012Z</time></trkpt><trkpt lat="43.1284088" lon="12.3159591"><ele>572.0</ele><time>2026-04-12T07:17:38.011Z</time></trkpt><trkpt lat="43.1284793" lon="12.3159395"><ele>571.9999999999999</ele><time>2026-04-12T07:17:40.014Z</time></trkpt><trkpt lat="43.1285486" lon="12.3159238"><ele>572.0</ele><time>2026-04-12T07:17:42Z</time></trkpt><trkpt lat="43.128617" lon="12.3159115"><ele>572.1666666666666</ele><time>2026-04-12T07:17:44.016Z</time></trkpt><trkpt lat="43.1286809" lon="12.3158987"><ele>572.3333333333333</ele><time>2026-04-12T07:17:46.012Z</time></trkpt><trkpt lat="43.1287684" lon="12.3158808"><ele>572.5</ele><time>2026-04-12T07:17:49.013Z</time></trkpt><trkpt lat="43.1288535" lon="12.3158479"><ele>572.6666666666666</ele><time>2026-04-12T07:17:52.013Z</time></trkpt><trkpt lat="43.1289409" lon="12.3157957"><ele>572.8333333333334</ele><time>2026-04-12T07:17:55.013Z</time></trkpt><trkpt lat="43.1290012" lon="12.3157571"><ele>573.0</ele><time>2026-04-12T07:17:57.012Z</time></trkpt><trkpt lat="43.1290835" lon="12.3157011"><ele>574.5</ele><time>2026-04-12T07:18:00.019Z</time></trkpt><trkpt lat="43.1291518" lon="12.3156794"><ele>576.0</ele><time>2026-04-12T07:18:03.024Z</time></trkpt><trkpt lat="43.1292351" lon="12.3156504"><ele>577.5</ele><time>2026-04-12T07:18:06.998Z</time></trkpt><trkpt lat="43.1293116" lon="12.3156232"><ele>579.0</ele><time>2026-04-12T07:18:10.014Z</time></trkpt><trkpt lat="43.1293919" lon="12.3156089"><ele>580.5</ele><time>2026-04-12T07:18:13.011Z</time></trkpt><trkpt lat="43.1294767" lon="12.3156235"><ele>582.0</ele><time>2026-04-12T07:18:16.017Z</time></trkpt><trkpt lat="43.1295465" lon="12.3156673"><ele>582.0</ele><time>2026-04-12T07:18:19.013Z</time></trkpt><trkpt lat="43.1296114" lon="12.3157347"><ele>582.0</ele><time>2026-04-12T07:18:22.013Z</time></trkpt><trkpt lat="43.1296884" lon="12.3157754"><ele>582.0</ele><time>2026-04-12T07:18:25.011Z</time></trkpt><trkpt lat="43.1297536" lon="12.3157886"><ele>582.0</ele><time>2026-04-12T07:18:28.013Z</time></trkpt><trkpt lat="43.1298282" lon="12.3157607"><ele>582.0</ele><time>2026-04-12T07:18:31.013Z</time></trkpt><trkpt lat="43.1299036" lon="12.3157234"><ele>582.0</ele><time>2026-04-12T07:18:33.996Z</time></trkpt><trkpt lat="43.1299836" lon="12.3157066"><ele>582.8571428571429</ele><time>2026-04-12T07:18:37.011Z</time></trkpt><trkpt lat="43.1300655" lon="12.3157042"><ele>583.7142857142857</ele><time>2026-04-12T07:18:40.017Z</time></trkpt><trkpt lat="43.1301413" lon="12.315712"><ele>584.5714285714286</ele><time>2026-04-12T07:18:43.012Z</time></trkpt><trkpt lat="43.1302057" lon="12.3157134"><ele>585.4285714285714</ele><time>2026-04-12T07:18:46.011Z</time></trkpt><trkpt lat="43.1302687" lon="12.315736"><ele>586.2857142857142</ele><time>2026-04-12T07:18:49.013Z</time></trkpt><trkpt lat="43.13034" lon="12.3157436"><ele>587.1428571428571</ele><time>2026-04-12T07:18:52.002Z</time></trkpt><trkpt lat="43.1304279" lon="12.3157402"><ele>588.0</ele><time>2026-04-12T07:18:55.002Z</time></trkpt><trkpt lat="43.1305065" lon="12.3157388"><ele>588.0</ele><time>2026-04-12T07:18:58.102Z</time></trkpt><trkpt lat="43.130578" lon="12.3157552"><ele>588.0</ele><time>2026-04-12T07:19:00.997Z</time></trkpt><trkpt lat="43.1306492" lon="12.3157753"><ele>588.0</ele><time>2026-04-12T07:19:03.996Z</time></trkpt><trkpt lat="43.1307337" lon="12.3157893"><ele>588.0</ele><time>2026-04-12T07:19:07.001Z</time></trkpt><trkpt lat="43.1308107" lon="12.3157954"><ele>588.0</ele><time>2026-04-12T07:19:09.998Z</time></trkpt><trkpt lat="43.130887" lon="12.3157892"><ele>588.0</ele><time>2026-04-12T07:19:13.003Z</time></trkpt><trkpt lat="43.1309572" lon="12.3157675"><ele>589.0</ele><time>2026-04-12T07:19:16.006Z</time></trkpt><trkpt lat="43.1310295" lon="12.3157426"><ele>590.0</ele><time>2026-04-12T07:19:19.008Z</time></trkpt><trkpt lat="43.1311028" lon="12.3157099"><ele>591.0</ele><time>2026-04-12T07:19:22.006Z</time></trkpt><trkpt lat="43.1311788" lon="12.3156902"><ele>592.0</ele><time>2026-04-12T07:19:25.001Z</time></trkpt><trkpt lat="43.1312584" lon="12.3156872"><ele>593.0</ele><time>2026-04-12T07:19:28.016Z</time></trkpt><trkpt lat="43.1313308" lon="12.3157185"><ele>594.0</ele><time>2026-04-12T07:19:31.012Z</time></trkpt><trkpt lat="43.1313984" lon="12.3157718"><ele>594.0</ele><time>2026-04-12T07:19:34.012Z</time></trkpt><trkpt lat="43.1314558" lon="12.3158599"><ele>594.0</ele><time>2026-04-12T07:19:37.001Z</time></trkpt><trkpt lat="43.1315094" lon="12.3160208"><ele>594.0</ele><time>2026-04-12T07:19:41.016Z</time></trkpt><trkpt lat="43.1315914" lon="12.3161166"><ele>594.0</ele><time>2026-04-12T07:19:43.015Z</time></trkpt><trkpt lat="43.1316944" lon="12.3161921"><ele>594.0</ele><time>2026-04-12T07:19:44.014Z</time></trkpt><trkpt lat="43.1317421" lon="12.3162797"><ele>593.8571428571429</ele><time>2026-04-12T07:19:46.014Z</time></trkpt><trkpt lat="43.1317777" lon="12.3163659"><ele>593.7142857142858</ele><time>2026-04-12T07:19:48.014Z</time></trkpt><trkpt lat="43.1318176" lon="12.3164458"><ele>593.5714285714286</ele><time>2026-04-12T07:19:50.023Z</time></trkpt><trkpt lat="43.1318587" lon="12.3165258"><ele>593.4285714285714</ele><time>2026-04-12T07:19:52.013Z</time></trkpt><trkpt lat="43.131906" lon="12.3165989"><ele>593.2857142857142</ele><time>2026-04-12T07:19:54.031Z</time></trkpt><trkpt lat="43.1319556" lon="12.3166606"><ele>593.1428571428571</ele><time>2026-04-12T07:19:56.011Z</time></trkpt><trkpt lat="43.1320154" lon="12.3167055"><ele>593.0</ele><time>2026-04-12T07:19:58.013Z</time></trkpt><trkpt lat="43.1320696" lon="12.3167533"><ele>592.9999999999999</ele><time>2026-04-12T07:20:00.013Z</time></trkpt><trkpt lat="43.1321268" lon="12.3168005"><ele>593.0</ele><time>2026-04-12T07:20:02.015Z</time></trkpt><trkpt lat="43.1321818" lon="12.3168477"><ele>593.0</ele><time>2026-04-12T07:20:04.014Z</time></trkpt><trkpt lat="43.1322394" lon="12.3168887"><ele>593.0</ele><time>2026-04-12T07:20:05.999Z</time></trkpt><trkpt lat="43.1322979" lon="12.3169258"><ele>593.0</ele><time>2026-04-12T07:20:08.028Z</time></trkpt><trkpt lat="43.132354" lon="12.3169718"><ele>592.9999999999999</ele><time>2026-04-12T07:20:10.013Z</time></trkpt><trkpt lat="43.1324126" lon="12.3170188"><ele>593.0</ele><time>2026-04-12T07:20:12.012Z</time></trkpt><trkpt lat="43.1324776" lon="12.3170602"><ele>594.5714285714286</ele><time>2026-04-12T07:20:14.012Z</time></trkpt><trkpt lat="43.1325424" lon="12.3170994"><ele>596.1428571428571</ele><time>2026-04-12T07:20:16.014Z</time></trkpt><trkpt lat="43.1326052" lon="12.3171431"><ele>597.7142857142858</ele><time>2026-04-12T07:20:18.012Z</time></trkpt><trkpt lat="43.1326657" lon="12.3171881"><ele>599.2857142857142</ele><time>2026-04-12T07:20:20.011Z</time></trkpt><trkpt lat="43.1327224" lon="12.3172316"><ele>600.8571428571429</ele><time>2026-04-12T07:20:22.016Z</time></trkpt><trkpt lat="43.1327939" lon="12.317302"><ele>602.4285714285714</ele><time>2026-04-12T07:20:25.013Z</time></trkpt><trkpt lat="43.1328619" lon="12.3173712"><ele>604.0</ele><time>2026-04-12T07:20:28.014Z</time></trkpt><trkpt lat="43.1329149" lon="12.3174228"><ele>604.0</ele><time>2026-04-12T07:20:30.011Z</time></trkpt><trkpt lat="43.1329626" lon="12.3174837"><ele>604.0</ele><time>2026-04-12T07:20:32.012Z</time></trkpt><trkpt lat="43.133001" lon="12.3175945"><ele>604.0</ele><time>2026-04-12T07:20:35.012Z</time></trkpt><trkpt lat="43.1330135" lon="12.3177092"><ele>604.0</ele><time>2026-04-12T07:20:38.002Z</time></trkpt><trkpt lat="43.1330209" lon="12.3178278"><ele>604.0</ele><time>2026-04-12T07:20:41.013Z</time></trkpt><trkpt lat="43.1330235" lon="12.3179403"><ele>604.0</ele><time>2026-04-12T07:20:44.012Z</time></trkpt><trkpt lat="43.133022" lon="12.3180626"><ele>606.5</ele><time>2026-04-12T07:20:47.012Z</time></trkpt><trkpt lat="43.1330543" lon="12.3181772"><ele>609.0</ele><time>2026-04-12T07:20:50.018Z</time></trkpt><trkpt lat="43.1330596" lon="12.3182663"><ele>611.5</ele><time>2026-04-12T07:20:54.012Z</time></trkpt><trkpt lat="43.1330788" lon="12.3183613"><ele>614.0</ele><time>2026-04-12T07:20:58.012Z</time></trkpt><trkpt lat="43.1330958" lon="12.3184537"><ele>616.5</ele><time>2026-04-12T07:21:03.013Z</time></trkpt><trkpt lat="43.1331283" lon="12.3185461"><ele>619.0</ele><time>2026-04-12T07:21:07.015Z</time></trkpt><trkpt lat="43.1331437" lon="12.3186638"><ele>619.0</ele><time>2026-04-12T07:21:14.013Z</time></trkpt><trkpt lat="43.1331668" lon="12.3187521"><ele>619.0</ele><time>2026-04-12T07:21:17.013Z</time></trkpt><trkpt lat="43.1332068" lon="12.3188546"><ele>619.0</ele><time>2026-04-12T07:21:21.014Z</time></trkpt><trkpt lat="43.1332372" lon="12.3189336"><ele>619.0</ele><time>2026-04-12T07:21:24.108Z</time></trkpt><trkpt lat="43.1332705" lon="12.3190295"><ele>619.0</ele><time>2026-04-12T07:21:27.015Z</time></trkpt><trkpt lat="43.1333016" lon="12.3191162"><ele>619.0</ele><time>2026-04-12T07:21:30.014Z</time></trkpt><trkpt lat="43.1333264" lon="12.3191996"><ele>619.0</ele><time>2026-04-12T07:21:33.014Z</time></trkpt><trkpt lat="43.1333616" lon="12.3192846"><ele>619.1428571428571</ele><time>2026-04-12T07:21:36.014Z</time></trkpt><trkpt lat="43.1333981" lon="12.3193703"><ele>619.2857142857143</ele><time>2026-04-12T07:21:39.012Z</time></trkpt><trkpt lat="43.1334315" lon="12.3194685"><ele>619.4285714285714</ele><time>2026-04-12T07:21:42.014Z</time></trkpt><trkpt lat="43.1334618" lon="12.3195651"><ele>619.5714285714286</ele><time>2026-04-12T07:21:45.013Z</time></trkpt><trkpt lat="43.1334691" lon="12.3196667"><ele>619.7142857142857</ele><time>2026-04-12T07:21:48.017Z</time></trkpt><trkpt lat="43.1334629" lon="12.3197552"><ele>619.8571428571429</ele><time>2026-04-12T07:21:51.013Z</time></trkpt><trkpt lat="43.1334614" lon="12.3198608"><ele>620.0</ele><time>2026-04-12T07:21:55.015Z</time></trkpt><trkpt lat="43.1334572" lon="12.3199487"><ele>621.2</ele><time>2026-04-12T07:21:58.013Z</time></trkpt><trkpt lat="43.1333775" lon="12.3200313"><ele>622.4</ele><time>2026-04-12T07:22:01.012Z</time></trkpt><trkpt lat="43.1333036" lon="12.3201016"><ele>623.6</ele><time>2026-04-12T07:22:03.011Z</time></trkpt><trkpt lat="43.1332237" lon="12.3201894"><ele>624.8</ele><time>2026-04-12T07:22:05.013Z</time></trkpt><trkpt lat="43.1331411" lon="12.3202908"><ele>626.0</ele><time>2026-04-12T07:22:07.002Z</time></trkpt><trkpt lat="43.1330937" lon="12.3203562"><ele>627.8333333333333</ele><time>2026-04-12T07:22:08.013Z</time></trkpt><trkpt lat="43.1330589" lon="12.3204338"><ele>629.6666666666666</ele><time>2026-04-12T07:22:09.013Z</time></trkpt><trkpt lat="43.133037" lon="12.3205226"><ele>631.5</ele><time>2026-04-12T07:22:10.013Z</time></trkpt><trkpt lat="43.1330202" lon="12.320615"><ele>633.3333333333334</ele><time>2026-04-12T07:22:11.013Z</time></trkpt><trkpt lat="43.1330113" lon="12.3207193"><ele>635.1666666666667</ele><time>2026-04-12T07:22:12.014Z</time></trkpt><trkpt lat="43.1330245" lon="12.3208619"><ele>637.0</ele><time>2026-04-12T07:22:13.013Z</time></trkpt><trkpt lat="43.1330503" lon="12.3209642"><ele>637.1666666666667</ele><time>2026-04-12T07:22:14.012Z</time></trkpt><trkpt lat="43.1330728" lon="12.3210548"><ele>637.3333333333334</ele><time>2026-04-12T07:22:15.017Z</time></trkpt><trkpt lat="43.1330998" lon="12.3211434"><ele>637.5</ele><time>2026-04-12T07:22:16.012Z</time></trkpt><trkpt lat="43.1331368" lon="12.3212705"><ele>637.6666666666666</ele><time>2026-04-12T07:22:18.024Z</time></trkpt><trkpt lat="43.1331911" lon="12.3213714"><ele>637.8333333333333</ele><time>2026-04-12T07:22:19.999Z</time></trkpt><trkpt lat="43.1332705" lon="12.3214495"><ele>638.0</ele><time>2026-04-12T07:22:21.999Z</time></trkpt><trkpt lat="43.1333259" lon="12.3215389"><ele>634.0</ele><time>2026-04-12T07:22:23.998Z</time></trkpt><trkpt lat="43.1333767" lon="12.3216562"><ele>630.0</ele><time>2026-04-12T07:22:26.114Z</time></trkpt><trkpt lat="43.1334779" lon="12.3217856"><ele>626.0</ele><time>2026-04-12T07:22:28.002Z</time></trkpt><trkpt lat="43.1335109" lon="12.3219539"><ele>622.0</ele><time>2026-04-12T07:22:29.998Z</time></trkpt><trkpt lat="43.1335452" lon="12.3220397"><ele>618.0</ele><time>2026-04-12T07:22:31Z</time></trkpt><trkpt lat="43.1335782" lon="12.3221264"><ele>618.0</ele><time>2026-04-12T07:22:32.105Z</time></trkpt><trkpt lat="43.1336094" lon="12.3222198"><ele>618.0</ele><time>2026-04-12T07:22:33.015Z</time></trkpt><trkpt lat="43.13364" lon="12.3223014"><ele>618.0</ele><time>2026-04-12T07:22:34.001Z</time></trkpt><trkpt lat="43.1337195" lon="12.3224662"><ele>618.0</ele><time>2026-04-12T07:22:35.999Z</time></trkpt><trkpt lat="43.1337634" lon="12.3225373"><ele>618.0</ele><time>2026-04-12T07:22:36.995Z</time></trkpt><trkpt lat="43.1338811" lon="12.3227032"><ele>617.8</ele><time>2026-04-12T07:22:39.992Z</time></trkpt><trkpt lat="43.1339802" lon="12.3227783"><ele>617.5999999999999</ele><time>2026-04-12T07:22:41.995Z</time></trkpt><trkpt lat="43.1341065" lon="12.3228221"><ele>617.4000000000001</ele><time>2026-04-12T07:22:43.999Z</time></trkpt><trkpt lat="43.1342179" lon="12.3228657"><ele>617.2</ele><time>2026-04-12T07:22:45.994Z</time></trkpt><trkpt lat="43.1342808" lon="12.3228814"><ele>617.0</ele><time>2026-04-12T07:22:47.112Z</time></trkpt><trkpt lat="43.1343981" lon="12.3229517"><ele>613.4</ele><time>2026-04-12T07:22:48.999Z</time></trkpt><trkpt lat="43.134535" lon="12.3230267"><ele>609.8000000000001</ele><time>2026-04-12T07:22:50.996Z</time></trkpt><trkpt lat="43.1345968" lon="12.3230681"><ele>606.2</ele><time>2026-04-12T07:22:52.018Z</time></trkpt><trkpt lat="43.1347079" lon="12.3231507"><ele>602.6</ele><time>2026-04-12T07:22:53.997Z</time></trkpt><trkpt lat="43.134773" lon="12.3231908"><ele>599.0</ele><time>2026-04-12T07:22:55Z</time></trkpt><trkpt lat="43.1348366" lon="12.3232298"><ele>598.0</ele><time>2026-04-12T07:22:55.998Z</time></trkpt><trkpt lat="43.1349" lon="12.3232742"><ele>597.0</ele><time>2026-04-12T07:22:56.998Z</time></trkpt><trkpt lat="43.1349563" lon="12.3233133"><ele>596.0</ele><time>2026-04-12T07:22:58.001Z</time></trkpt><trkpt lat="43.1350725" lon="12.3233845"><ele>595.0</ele><time>2026-04-12T07:22:59.999Z</time></trkpt><trkpt lat="43.1351813" lon="12.323477"><ele>594.0</ele><time>2026-04-12T07:23:02.004Z</time></trkpt><trkpt lat="43.1352666" lon="12.323592"><ele>594.0</ele><time>2026-04-12T07:23:04.015Z</time></trkpt><trkpt lat="43.135346" lon="12.3237063"><ele>594.0</ele><time>2026-04-12T07:23:06.013Z</time></trkpt><trkpt lat="43.1354274" lon="12.3238329"><ele>594.0</ele><time>2026-04-12T07:23:07.994Z</time></trkpt><trkpt lat="43.1355021" lon="12.3239507"><ele>594.0</ele><time>2026-04-12T07:23:10.012Z</time></trkpt><trkpt lat="43.135551" lon="12.3240152"><ele>594.0</ele><time>2026-04-12T07:23:11.13Z</time></trkpt><trkpt lat="43.1356546" lon="12.324113"><ele>593.6</ele><time>2026-04-12T07:23:13.019Z</time></trkpt><trkpt lat="43.1357294" lon="12.3242455"><ele>593.2</ele><time>2026-04-12T07:23:15.004Z</time></trkpt><trkpt lat="43.1357779" lon="12.324359"><ele>592.8000000000001</ele><time>2026-04-12T07:23:16.996Z</time></trkpt><trkpt lat="43.1358266" lon="12.3245031"><ele>592.4</ele><time>2026-04-12T07:23:19.014Z</time></trkpt><trkpt lat="43.1358543" lon="12.3246275"><ele>592.0</ele><time>2026-04-12T07:23:20.998Z</time></trkpt><trkpt lat="43.1358731" lon="12.3247497"><ele>591.3333333333334</ele><time>2026-04-12T07:23:22.998Z</time></trkpt><trkpt lat="43.1358877" lon="12.3248645"><ele>590.6666666666667</ele><time>2026-04-12T07:23:25.015Z</time></trkpt><trkpt lat="43.1358949" lon="12.3249546"><ele>590.0</ele><time>2026-04-12T07:23:25.996Z</time></trkpt><trkpt lat="43.1359003" lon="12.3251006"><ele>589.3333333333334</ele><time>2026-04-12T07:23:27.99Z</time></trkpt><trkpt lat="43.13591" lon="12.3252"><ele>588.6666666666666</ele><time>2026-04-12T07:23:29.019Z</time></trkpt><trkpt lat="43.13592" lon="12.3252875"><ele>588.0</ele><time>2026-04-12T07:23:30Z</time></trkpt><trkpt lat="43.135935" lon="12.3254587"><ele>588.0</ele><time>2026-04-12T07:23:32.015Z</time></trkpt><trkpt lat="43.135949" lon="12.3255548"><ele>588.0</ele><time>2026-04-12T07:23:33.002Z</time></trkpt><trkpt lat="43.1359569" lon="12.3256602"><ele>588.0</ele><time>2026-04-12T07:23:34.016Z</time></trkpt><trkpt lat="43.1359705" lon="12.3257547"><ele>588.0</ele><time>2026-04-12T07:23:35.008Z</time></trkpt><trkpt lat="43.135989" lon="12.3258492"><ele>588.0</ele><time>2026-04-12T07:23:36.018Z</time></trkpt><trkpt lat="43.1360122" lon="12.3259514"><ele>588.0</ele><time>2026-04-12T07:23:37.027Z</time></trkpt><trkpt lat="43.1360423" lon="12.3260461"><ele>588.0</ele><time>2026-04-12T07:23:38.011Z</time></trkpt><trkpt lat="43.1360584" lon="12.3261304"><ele>586.6</ele><time>2026-04-12T07:23:39.014Z</time></trkpt><trkpt lat="43.136081" lon="12.3262355"><ele>585.1999999999999</ele><time>2026-04-12T07:23:40.008Z</time></trkpt><trkpt lat="43.1361069" lon="12.3263261"><ele>583.8</ele><time>2026-04-12T07:23:41.011Z</time></trkpt><trkpt lat="43.136139" lon="12.3264855"><ele>582.4</ele><time>2026-04-12T07:23:43.015Z</time></trkpt><trkpt lat="43.1361663" lon="12.3265709"><ele>581.0</ele><time>2026-04-12T07:23:44.011Z</time></trkpt><trkpt lat="43.136229" lon="12.3267031"><ele>578.6</ele><time>2026-04-12T07:23:46.011Z</time></trkpt><trkpt lat="43.1363065" lon="12.3268359"><ele>576.2</ele><time>2026-04-12T07:23:47.998Z</time></trkpt><trkpt lat="43.1363923" lon="12.326965"><ele>573.8</ele><time>2026-04-12T07:23:50.012Z</time></trkpt><trkpt lat="43.1364365" lon="12.327048"><ele>571.4</ele><time>2026-04-12T07:23:51.014Z</time></trkpt><trkpt lat="43.1364838" lon="12.3271414"><ele>569.0</ele><time>2026-04-12T07:23:52.013Z</time></trkpt><trkpt lat="43.1365428" lon="12.3272315"><ele>569.0</ele><time>2026-04-12T07:23:53.015Z</time></trkpt><trkpt lat="43.136629" lon="12.3273068"><ele>569.0</ele><time>2026-04-12T07:23:54.017Z</time></trkpt><trkpt lat="43.1367205" lon="12.32738"><ele>569.0</ele><time>2026-04-12T07:23:55.012Z</time></trkpt><trkpt lat="43.1367685" lon="12.3274376"><ele>569.0</ele><time>2026-04-12T07:23:56.009Z</time></trkpt><trkpt lat="43.1368244" lon="12.3275018"><ele>569.0</ele><time>2026-04-12T07:23:56.996Z</time></trkpt><trkpt lat="43.1368773" lon="12.3275613"><ele>569.0</ele><time>2026-04-12T07:23:58.012Z</time></trkpt><trkpt lat="43.1369273" lon="12.3276341"><ele>569.0</ele><time>2026-04-12T07:23:59.01Z</time></trkpt><trkpt lat="43.1369715" lon="12.3277237"><ele>569.0</ele><time>2026-04-12T07:24:00.013Z</time></trkpt><trkpt lat="43.1369856" lon="12.3278086"><ele>569.0</ele><time>2026-04-12T07:24:01.011Z</time></trkpt><trkpt lat="43.1369994" lon="12.3278967"><ele>569.0</ele><time>2026-04-12T07:24:02.014Z</time></trkpt><trkpt lat="43.1370125" lon="12.3279844"><ele>569.0</ele><time>2026-04-12T07:24:03.116Z</time></trkpt><trkpt lat="43.1370086" lon="12.3281195"><ele>569.0</ele><time>2026-04-12T07:24:05.007Z</time></trkpt><trkpt lat="43.1370045" lon="12.328232"><ele>567.6</ele><time>2026-04-12T07:24:06.995Z</time></trkpt><trkpt lat="43.1370277" lon="12.3283601"><ele>566.2</ele><time>2026-04-12T07:24:10.013Z</time></trkpt><trkpt lat="43.1370289" lon="12.3285038"><ele>564.8000000000001</ele><time>2026-04-12T07:24:12.011Z</time></trkpt><trkpt lat="43.1370317" lon="12.3285935"><ele>563.4</ele><time>2026-04-12T07:24:13.018Z</time></trkpt><trkpt lat="43.1370343" lon="12.3287541"><ele>562.0</ele><time>2026-04-12T07:24:15.012Z</time></trkpt><trkpt lat="43.1370431" lon="12.3288506"><ele>561.2</ele><time>2026-04-12T07:24:16.014Z</time></trkpt><trkpt lat="43.1370477" lon="12.3290141"><ele>560.4000000000001</ele><time>2026-04-12T07:24:18.02Z</time></trkpt><trkpt lat="43.1370639" lon="12.329101"><ele>559.5999999999999</ele><time>2026-04-12T07:24:19.02Z</time></trkpt><trkpt lat="43.1371356" lon="12.3292188"><ele>558.8</ele><time>2026-04-12T07:24:21.006Z</time></trkpt><trkpt lat="43.1371675" lon="12.3293169"><ele>558.0</ele><time>2026-04-12T07:24:23.012Z</time></trkpt><trkpt lat="43.1372063" lon="12.3294061"><ele>558.0</ele><time>2026-04-12T07:24:25.011Z</time></trkpt><trkpt lat="43.1372611" lon="12.3294878"><ele>558.0</ele><time>2026-04-12T07:24:27.004Z</time></trkpt><trkpt lat="43.1372924" lon="12.3295628"><ele>558.0</ele><time>2026-04-12T07:24:29.011Z</time></trkpt><trkpt lat="43.1373333" lon="12.3296356"><ele>558.0</ele><time>2026-04-12T07:24:31.016Z</time></trkpt><trkpt lat="43.1374296" lon="12.329716"><ele>558.0</ele><time>2026-04-12T07:24:34.012Z</time></trkpt><trkpt lat="43.1374993" lon="12.3297458"><ele>558.0</ele><time>2026-04-12T07:24:36.024Z</time></trkpt><trkpt lat="43.1375677" lon="12.3297801"><ele>558.4</ele><time>2026-04-12T07:24:38.008Z</time></trkpt><trkpt lat="43.1376477" lon="12.3298278"><ele>558.8</ele><time>2026-04-12T07:24:40.014Z</time></trkpt><trkpt lat="43.1377295" lon="12.329845"><ele>559.2</ele><time>2026-04-12T07:24:42.008Z</time></trkpt><trkpt lat="43.137835" lon="12.3298545"><ele>559.6</ele><time>2026-04-12T07:24:44.012Z</time></trkpt><trkpt lat="43.1379355" lon="12.329875"><ele>560.0</ele><time>2026-04-12T07:24:46.016Z</time></trkpt><trkpt lat="43.1380215" lon="12.3299078"><ele>560.0</ele><time>2026-04-12T07:24:48.012Z</time></trkpt><trkpt lat="43.138096" lon="12.3299326"><ele>560.0</ele><time>2026-04-12T07:24:49.996Z</time></trkpt><trkpt lat="43.1381718" lon="12.3299744"><ele>560.0</ele><time>2026-04-12T07:24:52.012Z</time></trkpt><trkpt lat="43.1382321" lon="12.3300138"><ele>560.0</ele><time>2026-04-12T07:24:54.011Z</time></trkpt><trkpt lat="43.1383212" lon="12.3300623"><ele>560.0</ele><time>2026-04-12T07:24:56.002Z</time></trkpt><trkpt lat="43.1384164" lon="12.3301365"><ele>560.0</ele><time>2026-04-12T07:24:58.014Z</time></trkpt><trkpt lat="43.1385066" lon="12.3302416"><ele>559.6666666666666</ele><time>2026-04-12T07:25:00.018Z</time></trkpt><trkpt lat="43.1385485" lon="12.3303064"><ele>559.3333333333333</ele><time>2026-04-12T07:25:00.998Z</time></trkpt><trkpt lat="43.1385911" lon="12.3303839"><ele>559.0</ele><time>2026-04-12T07:25:02.006Z</time></trkpt><trkpt lat="43.1386375" lon="12.330466"><ele>558.6666666666666</ele><time>2026-04-12T07:25:03.014Z</time></trkpt><trkpt lat="43.1386885" lon="12.3305482"><ele>558.3333333333334</ele><time>2026-04-12T07:25:04.013Z</time></trkpt><trkpt lat="43.1387445" lon="12.3306284"><ele>558.0</ele><time>2026-04-12T07:25:05.002Z</time></trkpt><trkpt lat="43.1388311" lon="12.3306912"><ele>558.5</ele><time>2026-04-12T07:25:05.998Z</time></trkpt><trkpt lat="43.1389017" lon="12.3307208"><ele>559.0</ele><time>2026-04-12T07:25:06.995Z</time></trkpt><trkpt lat="43.1389697" lon="12.3307396"><ele>559.5</ele><time>2026-04-12T07:25:08.023Z</time></trkpt><trkpt lat="43.1390364" lon="12.3307679"><ele>560.0</ele><time>2026-04-12T07:25:09.012Z</time></trkpt><trkpt lat="43.1391087" lon="12.3307616"><ele>560.5</ele><time>2026-04-12T07:25:10.019Z</time></trkpt><trkpt lat="43.1391718" lon="12.3307488"><ele>561.0</ele><time>2026-04-12T07:25:11.011Z</time></trkpt><trkpt lat="43.1392807" lon="12.3306951"><ele>561.0</ele><time>2026-04-12T07:25:13.002Z</time></trkpt><trkpt lat="43.1393261" lon="12.3306245"><ele>561.0</ele><time>2026-04-12T07:25:14.999Z</time></trkpt><trkpt lat="43.1393929" lon="12.330543"><ele>561.0</ele><time>2026-04-12T07:25:17Z</time></trkpt><trkpt lat="43.1394698" lon="12.3304517"><ele>561.0</ele><time>2026-04-12T07:25:19.112Z</time></trkpt><trkpt lat="43.1395319" lon="12.3303919"><ele>561.0</ele><time>2026-04-12T07:25:21.011Z</time></trkpt><trkpt lat="43.1396105" lon="12.3303332"><ele>561.0</ele><time>2026-04-12T07:25:23.01Z</time></trkpt><trkpt lat="43.1396934" lon="12.3302851"><ele>560.8</ele><time>2026-04-12T07:25:25.011Z</time></trkpt><trkpt lat="43.139775" lon="12.3302355"><ele>560.6</ele><time>2026-04-12T07:25:27.004Z</time></trkpt><trkpt lat="43.1398505" lon="12.3301858"><ele>560.4</ele><time>2026-04-12T07:25:29.013Z</time></trkpt><trkpt lat="43.1399832" lon="12.330095"><ele>560.2</ele><time>2026-04-12T07:25:33.014Z</time></trkpt><trkpt lat="43.1400588" lon="12.3300388"><ele>560.0</ele><time>2026-04-12T07:25:35.011Z</time></trkpt><trkpt lat="43.140127" lon="12.3299482"><ele>560.0</ele><time>2026-04-12T07:25:37.011Z</time></trkpt><trkpt lat="43.1401949" lon="12.3298652"><ele>560.0</ele><time>2026-04-12T07:25:39.011Z</time></trkpt><trkpt lat="43.1402802" lon="12.3298187"><ele>560.0</ele><time>2026-04-12T07:25:41.002Z</time></trkpt><trkpt lat="43.1403546" lon="12.3297798"><ele>560.0</ele><time>2026-04-12T07:25:43.103Z</time></trkpt><trkpt lat="43.1404193" lon="12.3297408"><ele>560.0</ele><time>2026-04-12T07:25:45Z</time></trkpt><trkpt lat="43.1404902" lon="12.3297415"><ele>560.0</ele><time>2026-04-12T07:25:46.999Z</time></trkpt><trkpt lat="43.140561" lon="12.3297793"><ele>560.0</ele><time>2026-04-12T07:25:48.997Z</time></trkpt><trkpt lat="43.1406242" lon="12.3298189"><ele>560.0</ele><time>2026-04-12T07:25:51.002Z</time></trkpt><trkpt lat="43.1406844" lon="12.3298547"><ele>560.0</ele><time>2026-04-12T07:25:52.997Z</time></trkpt><trkpt lat="43.1407786" lon="12.329883"><ele>560.0</ele><time>2026-04-12T07:25:54.999Z</time></trkpt><trkpt lat="43.1408689" lon="12.329898"><ele>560.0</ele><time>2026-04-12T07:25:57.005Z</time></trkpt><trkpt lat="43.1409325" lon="12.329942"><ele>560.0</ele><time>2026-04-12T07:25:59Z</time></trkpt><trkpt lat="43.1410077" lon="12.3300161"><ele>560.6</ele><time>2026-04-12T07:26:02.001Z</time></trkpt><trkpt lat="43.1410743" lon="12.3300846"><ele>561.2</ele><time>2026-04-12T07:26:03.998Z</time></trkpt><trkpt lat="43.1411825" lon="12.3301568"><ele>561.8</ele><time>2026-04-12T07:26:05.999Z</time></trkpt><trkpt lat="43.1412887" lon="12.3302317"><ele>562.4</ele><time>2026-04-12T07:26:07.998Z</time></trkpt><trkpt lat="43.1413504" lon="12.330267"><ele>563.0</ele><time>2026-04-12T07:26:09.002Z</time></trkpt><trkpt lat="43.1414054" lon="12.3303216"><ele>563.0</ele><time>2026-04-12T07:26:10.001Z</time></trkpt><trkpt lat="43.1415224" lon="12.3303712"><ele>563.0</ele><time>2026-04-12T07:26:11.999Z</time></trkpt><trkpt lat="43.1416079" lon="12.3304087"><ele>563.0</ele><time>2026-04-12T07:26:14Z</time></trkpt><trkpt lat="43.141643" lon="12.3304951"><ele>563.0</ele><time>2026-04-12T07:26:15.996Z</time></trkpt><trkpt lat="43.1416918" lon="12.3305924"><ele>563.0</ele><time>2026-04-12T07:26:18.001Z</time></trkpt><trkpt lat="43.1416681" lon="12.3306783"><ele>563.0</ele><time>2026-04-12T07:26:21.001Z</time></trkpt><trkpt lat="43.1416369" lon="12.3307573"><ele>563.1999999999999</ele><time>2026-04-12T07:26:23.007Z</time></trkpt><trkpt lat="43.1415845" lon="12.330857"><ele>563.4</ele><time>2026-04-12T07:26:24.999Z</time></trkpt><trkpt lat="43.1415615" lon="12.3309521"><ele>563.5999999999999</ele><time>2026-04-12T07:26:26.01Z</time></trkpt><trkpt lat="43.1415001" lon="12.3311035"><ele>563.8</ele><time>2026-04-12T07:26:28.011Z</time></trkpt><trkpt lat="43.1414547" lon="12.3312385"><ele>564.0</ele><time>2026-04-12T07:26:30.113Z</time></trkpt><trkpt lat="43.1413986" lon="12.3313586"><ele>563.3333333333334</ele><time>2026-04-12T07:26:32.021Z</time></trkpt><trkpt lat="43.1413907" lon="12.3314461"><ele>562.6666666666666</ele><time>2026-04-12T07:26:33.017Z</time></trkpt><trkpt lat="43.1413689" lon="12.3315381"><ele>562.0</ele><time>2026-04-12T07:26:34.024Z</time></trkpt><trkpt lat="43.1413447" lon="12.3316448"><ele>561.3333333333333</ele><time>2026-04-12T07:26:35.021Z</time></trkpt><trkpt lat="43.1413381" lon="12.3317543"><ele>560.6666666666666</ele><time>2026-04-12T07:26:36.01Z</time></trkpt><trkpt lat="43.1413195" lon="12.3318498"><ele>560.0</ele><time>2026-04-12T07:26:37.012Z</time></trkpt><trkpt lat="43.1413484" lon="12.3319722"><ele>560.0</ele><time>2026-04-12T07:26:38Z</time></trkpt><trkpt lat="43.1413797" lon="12.332081"><ele>560.0</ele><time>2026-04-12T07:26:39.012Z</time></trkpt><trkpt lat="43.1414115" lon="12.3321562"><ele>560.0</ele><time>2026-04-12T07:26:40.01Z</time></trkpt><trkpt lat="43.1414602" lon="12.3322837"><ele>560.0</ele><time>2026-04-12T07:26:42.119Z</time></trkpt><trkpt lat="43.141495" lon="12.3323981"><ele>560.0</ele><time>2026-04-12T07:26:44.997Z</time></trkpt><trkpt lat="43.1415358" lon="12.3324897"><ele>560.0</ele><time>2026-04-12T07:26:47.003Z</time></trkpt><trkpt lat="43.1415644" lon="12.3325894"><ele>557.3333333333333</ele><time>2026-04-12T07:26:49.999Z</time></trkpt><trkpt lat="43.1416137" lon="12.3326544"><ele>554.6666666666666</ele><time>2026-04-12T07:26:51.999Z</time></trkpt><trkpt lat="43.1416594" lon="12.3327587"><ele>552.0</ele><time>2026-04-12T07:26:54.998Z</time></trkpt><trkpt lat="43.1417054" lon="12.3328742"><ele>549.3333333333334</ele><time>2026-04-12T07:26:58.003Z</time></trkpt><trkpt lat="43.1417379" lon="12.3329747"><ele>546.6666666666667</ele><time>2026-04-12T07:27:00.08Z</time></trkpt><trkpt lat="43.1417666" lon="12.3330614"><ele>544.0</ele><time>2026-04-12T07:27:02.001Z</time></trkpt><trkpt lat="43.1417612" lon="12.3331736"><ele>543.2857142857142</ele><time>2026-04-12T07:27:05.019Z</time></trkpt><trkpt lat="43.1417352" lon="12.3332548"><ele>542.5714285714286</ele><time>2026-04-12T07:27:09.016Z</time></trkpt><trkpt lat="43.1417215" lon="12.3333394"><ele>541.8571428571429</ele><time>2026-04-12T07:27:12.098Z</time></trkpt><trkpt lat="43.1416936" lon="12.3334292"><ele>541.1428571428571</ele><time>2026-04-12T07:27:15.022Z</time></trkpt><trkpt lat="43.141717" lon="12.3335258"><ele>540.4285714285714</ele><time>2026-04-12T07:27:18.014Z</time></trkpt><trkpt lat="43.1417839" lon="12.3335553"><ele>539.7142857142857</ele><time>2026-04-12T07:27:20.013Z</time></trkpt><trkpt lat="43.1418462" lon="12.333568"><ele>539.0</ele><time>2026-04-12T07:27:23.102Z</time></trkpt><trkpt lat="43.1419161" lon="12.3335743"><ele>539.0</ele><time>2026-04-12T07:27:27.001Z</time></trkpt><trkpt lat="43.1420029" lon="12.3335507"><ele>539.0</ele><time>2026-04-12T07:27:30.006Z</time></trkpt><trkpt lat="43.1420676" lon="12.3335415"><ele>539.0</ele><time>2026-04-12T07:27:31.996Z</time></trkpt><trkpt lat="43.1421537" lon="12.3335164"><ele>539.0</ele><time>2026-04-12T07:27:34.012Z</time></trkpt><trkpt lat="43.1422319" lon="12.3334415"><ele>539.0</ele><time>2026-04-12T07:27:37.015Z</time></trkpt><trkpt lat="43.1422901" lon="12.3333761"><ele>539.0</ele><time>2026-04-12T07:27:39.013Z</time></trkpt><trkpt lat="43.1423524" lon="12.3333016"><ele>537.2</ele><time>2026-04-12T07:27:41.009Z</time></trkpt><trkpt lat="43.1424137" lon="12.3332226"><ele>535.4</ele><time>2026-04-12T07:27:43.012Z</time></trkpt><trkpt lat="43.1424767" lon="12.3331311"><ele>533.6</ele><time>2026-04-12T07:27:45.01Z</time></trkpt><trkpt lat="43.1425466" lon="12.3330308"><ele>531.8</ele><time>2026-04-12T07:27:47.107Z</time></trkpt><trkpt lat="43.1426203" lon="12.3329358"><ele>530.0</ele><time>2026-04-12T07:27:49.01Z</time></trkpt><trkpt lat="43.1426891" lon="12.3328514"><ele>530.0</ele><time>2026-04-12T07:27:51.011Z</time></trkpt><trkpt lat="43.1427583" lon="12.3327526"><ele>530.0</ele><time>2026-04-12T07:27:54.026Z</time></trkpt><trkpt lat="43.1428388" lon="12.3327174"><ele>530.0</ele><time>2026-04-12T07:27:56.012Z</time></trkpt><trkpt lat="43.1429136" lon="12.3327151"><ele>530.0</ele><time>2026-04-12T07:27:57.003Z</time></trkpt><trkpt lat="43.1429985" lon="12.3327909"><ele>530.0</ele><time>2026-04-12T07:27:59.011Z</time></trkpt><trkpt lat="43.1430237" lon="12.3329478"><ele>529.9999999999999</ele><time>2026-04-12T07:28:01.016Z</time></trkpt><trkpt lat="43.1430183" lon="12.3330392"><ele>530.0</ele><time>2026-04-12T07:28:02.012Z</time></trkpt><trkpt lat="43.1430226" lon="12.3331369"><ele>530.0</ele><time>2026-04-12T07:28:03.021Z</time></trkpt><trkpt lat="43.1430033" lon="12.3332317"><ele>530.0</ele><time>2026-04-12T07:28:04.01Z</time></trkpt><trkpt lat="43.1429821" lon="12.3333295"><ele>530.0</ele><time>2026-04-12T07:28:04.989Z</time></trkpt><trkpt lat="43.1429632" lon="12.3334235"><ele>529.9999999999999</ele><time>2026-04-12T07:28:05.998Z</time></trkpt><trkpt lat="43.1429228" lon="12.3335004"><ele>530.0</ele><time>2026-04-12T07:28:07.013Z</time></trkpt><trkpt lat="43.1428817" lon="12.3335699"><ele>529.8333333333333</ele><time>2026-04-12T07:28:08.011Z</time></trkpt><trkpt lat="43.1428138" lon="12.3336124"><ele>529.6666666666666</ele><time>2026-04-12T07:28:09.011Z</time></trkpt><trkpt lat="43.1427269" lon="12.33372"><ele>529.5</ele><time>2026-04-12T07:28:11.114Z</time></trkpt><trkpt lat="43.1426691" lon="12.3338088"><ele>529.3333333333334</ele><time>2026-04-12T07:28:13.001Z</time></trkpt><trkpt lat="43.1427344" lon="12.3338148"><ele>529.1666666666667</ele><time>2026-04-12T07:28:19.011Z</time></trkpt><trkpt lat="43.1428149" lon="12.3337652"><ele>529.0</ele><time>2026-04-12T07:28:21.011Z</time></trkpt><trkpt lat="43.1428956" lon="12.3336863"><ele>529.0</ele><time>2026-04-12T07:28:23.002Z</time></trkpt><trkpt lat="43.1429828" lon="12.3336301"><ele>529.0</ele><time>2026-04-12T07:28:25.01Z</time></trkpt><trkpt lat="43.1430818" lon="12.3335933"><ele>529.0</ele><time>2026-04-12T07:28:27.012Z</time></trkpt><trkpt lat="43.1431816" lon="12.3335301"><ele>529.0</ele><time>2026-04-12T07:28:29.018Z</time></trkpt><trkpt lat="43.1432803" lon="12.3334581"><ele>529.0</ele><time>2026-04-12T07:28:31.012Z</time></trkpt><trkpt lat="43.1433302" lon="12.3334019"><ele>527.4</ele><time>2026-04-12T07:28:32.014Z</time></trkpt><trkpt lat="43.1434139" lon="12.3332959"><ele>525.8</ele><time>2026-04-12T07:28:34.013Z</time></trkpt><trkpt lat="43.1434914" lon="12.3331901"><ele>524.2</ele><time>2026-04-12T07:28:36.005Z</time></trkpt><trkpt lat="43.1435517" lon="12.3330864"><ele>522.6</ele><time>2026-04-12T07:28:38.013Z</time></trkpt><trkpt lat="43.1436194" lon="12.3329716"><ele>521.0</ele><time>2026-04-12T07:28:39.996Z</time></trkpt><trkpt lat="43.1436797" lon="12.3328593"><ele>521.0</ele><time>2026-04-12T07:28:41.997Z</time></trkpt><trkpt lat="43.1437301" lon="12.3327518"><ele>521.0</ele><time>2026-04-12T07:28:44.012Z</time></trkpt><trkpt lat="43.1437797" lon="12.3326157"><ele>521.0</ele><time>2026-04-12T07:28:46.011Z</time></trkpt><trkpt lat="43.1438429" lon="12.3324881"><ele>521.0</ele><time>2026-04-12T07:28:47.999Z</time></trkpt><trkpt lat="43.1438838" lon="12.3323645"><ele>521.0</ele><time>2026-04-12T07:28:50.11Z</time></trkpt><trkpt lat="43.1438766" lon="12.3322227"><ele>518.6</ele><time>2026-04-12T07:28:52.01Z</time></trkpt><trkpt lat="43.1438584" lon="12.3321066"><ele>516.2</ele><time>2026-04-12T07:28:54.008Z</time></trkpt><trkpt lat="43.1438791" lon="12.3319612"><ele>513.8</ele><time>2026-04-12T07:28:56.085Z</time></trkpt><trkpt lat="43.14394" lon="12.3318605"><ele>511.4</ele><time>2026-04-12T07:28:58.013Z</time></trkpt><trkpt lat="43.1440037" lon="12.3317391"><ele>509.0</ele><time>2026-04-12T07:29:00.001Z</time></trkpt><trkpt lat="43.1440717" lon="12.3315928"><ele>508.0</ele><time>2026-04-12T07:29:01.998Z</time></trkpt><trkpt lat="43.144113" lon="12.3315146"><ele>507.0</ele><time>2026-04-12T07:29:02.994Z</time></trkpt><trkpt lat="43.1441836" lon="12.3313832"><ele>506.0</ele><time>2026-04-12T07:29:04.995Z</time></trkpt><trkpt lat="43.1442181" lon="12.3313006"><ele>505.0</ele><time>2026-04-12T07:29:06.015Z</time></trkpt><trkpt lat="43.1442507" lon="12.3312178"><ele>504.0</ele><time>2026-04-12T07:29:07.101Z</time></trkpt><trkpt lat="43.1443096" lon="12.3310651"><ele>502.42857142857144</ele><time>2026-04-12T07:29:09.009Z</time></trkpt><trkpt lat="43.1443568" lon="12.3309904"><ele>500.8571428571429</ele><time>2026-04-12T07:29:10.007Z</time></trkpt><trkpt lat="43.1444198" lon="12.3309355"><ele>499.2857142857143</ele><time>2026-04-12T07:29:11.013Z</time></trkpt><trkpt lat="43.1444728" lon="12.330878"><ele>497.7142857142857</ele><time>2026-04-12T07:29:12.01Z</time></trkpt><trkpt lat="43.1445483" lon="12.3308194"><ele>496.14285714285717</ele><time>2026-04-12T07:29:13.011Z</time></trkpt><trkpt lat="43.1446029" lon="12.3307655"><ele>494.57142857142856</ele><time>2026-04-12T07:29:14.015Z</time></trkpt><trkpt lat="43.1446707" lon="12.3307216"><ele>493.0</ele><time>2026-04-12T07:29:15.014Z</time></trkpt><trkpt lat="43.1447345" lon="12.3306852"><ele>493.00000000000006</ele><time>2026-04-12T07:29:16.013Z</time></trkpt><trkpt lat="43.1447985" lon="12.33069"><ele>493.0</ele><time>2026-04-12T07:29:17.015Z</time></trkpt><trkpt lat="43.1448796" lon="12.3306848"><ele>493.0</ele><time>2026-04-12T07:29:18.011Z</time></trkpt><trkpt lat="43.1449789" lon="12.3306814"><ele>493.0</ele><time>2026-04-12T07:29:19.998Z</time></trkpt><trkpt lat="43.1450346" lon="12.3305846"><ele>493.00000000000006</ele><time>2026-04-12T07:29:22.013Z</time></trkpt><trkpt lat="43.1449968" lon="12.3305031"><ele>493.0</ele><time>2026-04-12T07:29:23.013Z</time></trkpt><trkpt lat="43.14491" lon="12.3304384"><ele>493.50000000000006</ele><time>2026-04-12T07:29:25.01Z</time></trkpt><trkpt lat="43.144797" lon="12.330365"><ele>494.0</ele><time>2026-04-12T07:29:27.013Z</time></trkpt><trkpt lat="43.1447409" lon="12.3303147"><ele>494.5</ele><time>2026-04-12T07:29:28.017Z</time></trkpt><trkpt lat="43.1446865" lon="12.3302592"><ele>495.0</ele><time>2026-04-12T07:29:29.017Z</time></trkpt><trkpt lat="43.1446458" lon="12.3301771"><ele>495.50000000000006</ele><time>2026-04-12T07:29:30.015Z</time></trkpt><trkpt lat="43.1446217" lon="12.3300936"><ele>496.0</ele><time>2026-04-12T07:29:31.015Z</time></trkpt><trkpt lat="43.1446286" lon="12.3300032"><ele>496.0</ele><time>2026-04-12T07:29:31.999Z</time></trkpt><trkpt lat="43.1447018" lon="12.3298779"><ele>496.0</ele><time>2026-04-12T07:29:34.011Z</time></trkpt><trkpt lat="43.1447935" lon="12.3298038"><ele>496.0</ele><time>2026-04-12T07:29:36.013Z</time></trkpt><trkpt lat="43.1448832" lon="12.3297191"><ele>496.0</ele><time>2026-04-12T07:29:38.011Z</time></trkpt><trkpt lat="43.1449589" lon="12.3296557"><ele>496.0</ele><time>2026-04-12T07:29:40.028Z</time></trkpt><trkpt lat="43.1450203" lon="12.3295652"><ele>493.6666666666667</ele><time>2026-04-12T07:29:42.013Z</time></trkpt><trkpt lat="43.1450699" lon="12.3294765"><ele>491.33333333333337</ele><time>2026-04-12T07:29:44.012Z</time></trkpt><trkpt lat="43.1451063" lon="12.3293688"><ele>489.0</ele><time>2026-04-12T07:29:46.013Z</time></trkpt><trkpt lat="43.1451418" lon="12.3292519"><ele>486.66666666666663</ele><time>2026-04-12T07:29:48.014Z</time></trkpt><trkpt lat="43.1451632" lon="12.3291413"><ele>484.3333333333333</ele><time>2026-04-12T07:29:50.001Z</time></trkpt><trkpt lat="43.1451738" lon="12.3290267"><ele>482.0</ele><time>2026-04-12T07:29:52.015Z</time></trkpt><trkpt lat="43.1451918" lon="12.3288246"><ele>481.3333333333333</ele><time>2026-04-12T07:29:55.014Z</time></trkpt><trkpt lat="43.1451864" lon="12.3286654"><ele>480.66666666666663</ele><time>2026-04-12T07:29:57.004Z</time></trkpt><trkpt lat="43.1451658" lon="12.3285674"><ele>480.0</ele><time>2026-04-12T07:29:58.014Z</time></trkpt><trkpt lat="43.1451448" lon="12.3284768"><ele>479.33333333333337</ele><time>2026-04-12T07:29:59.011Z</time></trkpt><trkpt lat="43.1451153" lon="12.3283198"><ele>478.6666666666667</ele><time>2026-04-12T07:30:01.016Z</time></trkpt><trkpt lat="43.1450949" lon="12.3282343"><ele>478.0</ele><time>2026-04-12T07:30:02.012Z</time></trkpt><trkpt lat="43.1450544" lon="12.3281625"><ele>479.4</ele><time>2026-04-12T07:30:03.021Z</time></trkpt><trkpt lat="43.1450041" lon="12.3280289"><ele>480.79999999999995</ele><time>2026-04-12T07:30:05.014Z</time></trkpt><trkpt lat="43.1449634" lon="12.32792"><ele>482.2</ele><time>2026-04-12T07:30:07.012Z</time></trkpt><trkpt lat="43.144916" lon="12.3277913"><ele>483.6</ele><time>2026-04-12T07:30:09.013Z</time></trkpt><trkpt lat="43.1448654" lon="12.3276629"><ele>485.0</ele><time>2026-04-12T07:30:11.025Z</time></trkpt><trkpt lat="43.1448282" lon="12.3275148"><ele>485.0</ele><time>2026-04-12T07:30:13.015Z</time></trkpt><trkpt lat="43.1447934" lon="12.3273649"><ele>485.0</ele><time>2026-04-12T07:30:15.011Z</time></trkpt><trkpt lat="43.1447202" lon="12.3272283"><ele>485.0</ele><time>2026-04-12T07:30:17.014Z</time></trkpt><trkpt lat="43.1446225" lon="12.3271373"><ele>485.0</ele><time>2026-04-12T07:30:19.021Z</time></trkpt><trkpt lat="43.1445619" lon="12.3270933"><ele>485.0</ele><time>2026-04-12T07:30:20.011Z</time></trkpt><trkpt lat="43.1444981" lon="12.3270534"><ele>483.28571428571433</ele><time>2026-04-12T07:30:21.108Z</time></trkpt><trkpt lat="43.1444332" lon="12.3270187"><ele>481.57142857142856</ele><time>2026-04-12T07:30:22.012Z</time></trkpt><trkpt lat="43.1443647" lon="12.3269933"><ele>479.8571428571429</ele><time>2026-04-12T07:30:23.031Z</time></trkpt><trkpt lat="43.144305" lon="12.3269639"><ele>478.14285714285717</ele><time>2026-04-12T07:30:24.022Z</time></trkpt><trkpt lat="43.1442432" lon="12.3269346"><ele>476.42857142857144</ele><time>2026-04-12T07:30:25.005Z</time></trkpt><trkpt lat="43.1441803" lon="12.3269166"><ele>474.7142857142857</ele><time>2026-04-12T07:30:26.008Z</time></trkpt><trkpt lat="43.1441074" lon="12.3268374"><ele>473.0</ele><time>2026-04-12T07:30:28.012Z</time></trkpt><trkpt lat="43.1441292" lon="12.3267228"><ele>472.99999999999994</ele><time>2026-04-12T07:30:30.005Z</time></trkpt><trkpt lat="43.144191" lon="12.3266232"><ele>473.0</ele><time>2026-04-12T07:30:32.022Z</time></trkpt><trkpt lat="43.1442633" lon="12.3265397"><ele>473.0</ele><time>2026-04-12T07:30:34.007Z</time></trkpt><trkpt lat="43.1443436" lon="12.3264625"><ele>473.0</ele><time>2026-04-12T07:30:36.014Z</time></trkpt><trkpt lat="43.1444007" lon="12.3264024"><ele>472.99999999999994</ele><time>2026-04-12T07:30:38.011Z</time></trkpt><trkpt lat="43.1444641" lon="12.3263445"><ele>473.0</ele><time>2026-04-12T07:30:40.014Z</time></trkpt><trkpt lat="43.1445268" lon="12.326258"><ele>474.49999999999994</ele><time>2026-04-12T07:30:42.011Z</time></trkpt><trkpt lat="43.1445759" lon="12.3261678"><ele>476.0</ele><time>2026-04-12T07:30:44.009Z</time></trkpt><trkpt lat="43.1446119" lon="12.3260746"><ele>477.5</ele><time>2026-04-12T07:30:46.011Z</time></trkpt><trkpt lat="43.1446099" lon="12.3259808"><ele>479.0</ele><time>2026-04-12T07:30:49.011Z</time></trkpt><trkpt lat="43.1446465" lon="12.3258953"><ele>480.49999999999994</ele><time>2026-04-12T07:32:28.013Z</time></trkpt><trkpt lat="43.1447247" lon="12.3258712"><ele>482.0</ele><time>2026-04-12T07:32:30.012Z</time></trkpt><trkpt lat="43.1448028" lon="12.3258486"><ele>478.99999999999994</ele><time>2026-04-12T07:32:31.017Z</time></trkpt><trkpt lat="43.1449142" lon="12.3258172"><ele>476.0</ele><time>2026-04-12T07:32:32.013Z</time></trkpt><trkpt lat="43.1449969" lon="12.3257786"><ele>473.0</ele><time>2026-04-12T07:32:33.011Z</time></trkpt><trkpt lat="43.1450849" lon="12.3257463"><ele>470.0</ele><time>2026-04-12T07:32:34.013Z</time></trkpt><trkpt lat="43.1451578" lon="12.3257136"><ele>466.99999999999994</ele><time>2026-04-12T07:32:35.012Z</time></trkpt><trkpt lat="43.1452268" lon="12.3256934"><ele>464.0</ele><time>2026-04-12T07:32:36.013Z</time></trkpt><trkpt lat="43.1453263" lon="12.3257033"><ele>463.99999999999994</ele><time>2026-04-12T07:32:38.011Z</time></trkpt><trkpt lat="43.1453965" lon="12.3257666"><ele>464.0</ele><time>2026-04-12T07:32:41.012Z</time></trkpt><trkpt lat="43.1454387" lon="12.325856"><ele>464.0</ele><time>2026-04-12T07:32:44.012Z</time></trkpt><trkpt lat="43.145507" lon="12.3259477"><ele>464.0</ele><time>2026-04-12T07:32:47.013Z</time></trkpt><trkpt lat="43.145569" lon="12.326012"><ele>463.99999999999994</ele><time>2026-04-12T07:32:49.021Z</time></trkpt><trkpt lat="43.1456232" lon="12.3260674"><ele>464.0</ele><time>2026-04-12T07:32:51.017Z</time></trkpt><trkpt lat="43.145675" lon="12.326121"><ele>465.16666666666663</ele><time>2026-04-12T07:32:53.013Z</time></trkpt><trkpt lat="43.1457369" lon="12.3261823"><ele>466.3333333333333</ele><time>2026-04-12T07:32:55.012Z</time></trkpt><trkpt lat="43.1458012" lon="12.3262379"><ele>467.5</ele><time>2026-04-12T07:32:57.008Z</time></trkpt><trkpt lat="43.1458719" lon="12.3262657"><ele>468.66666666666663</ele><time>2026-04-12T07:33:00.019Z</time></trkpt><trkpt lat="43.145952" lon="12.3262971"><ele>469.8333333333333</ele><time>2026-04-12T07:33:04.015Z</time></trkpt><trkpt lat="43.146032" lon="12.326341"><ele>471.0</ele><time>2026-04-12T07:33:07.016Z</time></trkpt><trkpt lat="43.1461047" lon="12.3263527"><ele>471.00000000000006</ele><time>2026-04-12T07:33:09.012Z</time></trkpt><trkpt lat="43.1461803" lon="12.3263785"><ele>471.0</ele><time>2026-04-12T07:33:12.019Z</time></trkpt><trkpt lat="43.1462745" lon="12.3263942"><ele>471.00000000000006</ele><time>2026-04-12T07:33:47.003Z</time></trkpt><trkpt lat="43.1463351" lon="12.3263691"><ele>471.00000000000006</ele><time>2026-04-12T07:33:51.008Z</time></trkpt><trkpt lat="43.1464001" lon="12.3263398"><ele>471.0</ele><time>2026-04-12T07:33:55.014Z</time></trkpt><trkpt lat="43.1464665" lon="12.326322"><ele>471.00000000000006</ele><time>2026-04-12T07:33:59.013Z</time></trkpt><trkpt lat="43.1465336" lon="12.3263034"><ele>471.00000000000006</ele><time>2026-04-12T07:34:05.019Z</time></trkpt><trkpt lat="43.1465999" lon="12.3263036"><ele>471.8333333333333</ele><time>2026-04-12T07:34:08.011Z</time></trkpt><trkpt lat="43.1466816" lon="12.3262882"><ele>472.66666666666663</ele><time>2026-04-12T07:34:10.02Z</time></trkpt><trkpt lat="43.1467694" lon="12.3262374"><ele>473.5</ele><time>2026-04-12T07:34:13.015Z</time></trkpt><trkpt lat="43.146831" lon="12.3261871"><ele>474.3333333333333</ele><time>2026-04-12T07:34:15.011Z</time></trkpt><trkpt lat="43.1468998" lon="12.3261284"><ele>475.16666666666663</ele><time>2026-04-12T07:34:17.006Z</time></trkpt><trkpt lat="43.1469701" lon="12.3260647"><ele>476.0</ele><time>2026-04-12T07:34:19.016Z</time></trkpt><trkpt lat="43.147045" lon="12.3259742"><ele>475.99999999999994</ele><time>2026-04-12T07:34:21.012Z</time></trkpt><trkpt lat="43.1471241" lon="12.3259061"><ele>476.0</ele><time>2026-04-12T07:34:23.013Z</time></trkpt><trkpt lat="43.1471914" lon="12.3259484"><ele>476.0</ele><time>2026-04-12T07:34:24.011Z</time></trkpt><trkpt lat="43.147272" lon="12.3260216"><ele>476.0</ele><time>2026-04-12T07:34:26.025Z</time></trkpt><trkpt lat="43.1473389" lon="12.3260901"><ele>475.99999999999994</ele><time>2026-04-12T07:34:26.996Z</time></trkpt><trkpt lat="43.1474225" lon="12.3261476"><ele>476.0</ele><time>2026-04-12T07:34:29.002Z</time></trkpt><trkpt lat="43.1475116" lon="12.3262159"><ele>474.0</ele><time>2026-04-12T07:34:31.005Z</time></trkpt><trkpt lat="43.1475886" lon="12.3263195"><ele>472.0</ele><time>2026-04-12T07:34:33.009Z</time></trkpt><trkpt lat="43.1476479" lon="12.3264744"><ele>470.0</ele><time>2026-04-12T07:34:35.004Z</time></trkpt><trkpt lat="43.1476799" lon="12.3266235"><ele>468.0</ele><time>2026-04-12T07:34:36.997Z</time></trkpt><trkpt lat="43.1477091" lon="12.3267401"><ele>466.0</ele><time>2026-04-12T07:34:38.999Z</time></trkpt><trkpt lat="43.1477351" lon="12.3268311"><ele>465.7142857142857</ele><time>2026-04-12T07:34:40.996Z</time></trkpt><trkpt lat="43.1477726" lon="12.3269275"><ele>465.42857142857144</ele><time>2026-04-12T07:34:43.014Z</time></trkpt><trkpt lat="43.1478274" lon="12.3269797"><ele>465.14285714285717</ele><time>2026-04-12T07:34:44.995Z</time></trkpt><trkpt lat="43.1478864" lon="12.3270232"><ele>464.8571428571429</ele><time>2026-04-12T07:34:46.995Z</time></trkpt><trkpt lat="43.1479703" lon="12.3270377"><ele>464.57142857142856</ele><time>2026-04-12T07:34:49.004Z</time></trkpt><trkpt lat="43.148022" lon="12.3271029"><ele>464.28571428571433</ele><time>2026-04-12T07:34:51.003Z</time></trkpt><trkpt lat="43.148072" lon="12.3271666"><ele>464.00000000000006</ele><time>2026-04-12T07:34:53.103Z</time></trkpt><trkpt lat="43.1481003" lon="12.3272895"><ele>463.66666666666663</ele><time>2026-04-12T07:34:55.005Z</time></trkpt><trkpt lat="43.1481452" lon="12.3274234"><ele>463.3333333333333</ele><time>2026-04-12T07:34:57.003Z</time></trkpt><trkpt lat="43.1481951" lon="12.3275165"><ele>463.0</ele><time>2026-04-12T07:34:59.01Z</time></trkpt><trkpt lat="43.1482504" lon="12.3275899"><ele>462.66666666666663</ele><time>2026-04-12T07:35:00.995Z</time></trkpt><trkpt lat="43.1483024" lon="12.3276836"><ele>462.3333333333333</ele><time>2026-04-12T07:35:03.024Z</time></trkpt><trkpt lat="43.1483117" lon="12.3277917"><ele>462.0</ele><time>2026-04-12T07:35:40.01Z</time></trkpt><trkpt lat="43.148352" lon="12.3278684"><ele>462.0</ele><time>2026-04-12T07:35:42.009Z</time></trkpt><trkpt lat="43.1483994" lon="12.3279378"><ele>462.00000000000006</ele><time>2026-04-12T07:35:44.01Z</time></trkpt><trkpt lat="43.1484525" lon="12.3280102"><ele>462.00000000000006</ele><time>2026-04-12T07:35:46.021Z</time></trkpt><trkpt lat="43.1485178" lon="12.3281018"><ele>462.0</ele><time>2026-04-12T07:35:48.014Z</time></trkpt><trkpt lat="43.1486294" lon="12.3282397"><ele>462.0</ele><time>2026-04-12T07:35:50.014Z</time></trkpt><trkpt lat="43.1486827" lon="12.328352"><ele>459.40000000000003</ele><time>2026-04-12T07:35:52.013Z</time></trkpt><trkpt lat="43.1487122" lon="12.3284495"><ele>456.80000000000007</ele><time>2026-04-12T07:35:54.013Z</time></trkpt><trkpt lat="43.1487677" lon="12.3285194"><ele>454.2</ele><time>2026-04-12T07:35:56.014Z</time></trkpt><trkpt lat="43.1488229" lon="12.3286328"><ele>451.6</ele><time>2026-04-12T07:35:58.012Z</time></trkpt><trkpt lat="43.1488841" lon="12.32875"><ele>449.0</ele><time>2026-04-12T07:36:00.014Z</time></trkpt><trkpt lat="43.1489216" lon="12.3288728"><ele>448.85714285714283</ele><time>2026-04-12T07:36:02.016Z</time></trkpt><trkpt lat="43.1489474" lon="12.3289667"><ele>448.71428571428567</ele><time>2026-04-12T07:36:04.01Z</time></trkpt><trkpt lat="43.1489614" lon="12.3290519"><ele>448.57142857142856</ele><time>2026-04-12T07:36:05.993Z</time></trkpt><trkpt lat="43.1489701" lon="12.3291591"><ele>448.42857142857144</ele><time>2026-04-12T07:36:07.987Z</time></trkpt><trkpt lat="43.1489972" lon="12.3292502"><ele>448.2857142857143</ele><time>2026-04-12T07:36:09.994Z</time></trkpt><trkpt lat="43.1490033" lon="12.3293564"><ele>448.1428571428571</ele><time>2026-04-12T07:36:11.984Z</time></trkpt><trkpt lat="43.1490724" lon="12.3293452"><ele>448.0</ele><time>2026-04-12T07:36:16.013Z</time></trkpt><trkpt lat="43.1491322" lon="12.3293798"><ele>448.59999999999997</ele><time>2026-04-12T07:36:19.01Z</time></trkpt><trkpt lat="43.1491968" lon="12.3294531"><ele>449.19999999999993</ele><time>2026-04-12T07:36:21.011Z</time></trkpt><trkpt lat="43.1492644" lon="12.3295156"><ele>449.8</ele><time>2026-04-12T07:36:22.014Z</time></trkpt><trkpt lat="43.1493438" lon="12.3296393"><ele>450.4</ele><time>2026-04-12T07:36:24Z</time></trkpt><trkpt lat="43.1494223" lon="12.3297837"><ele>451.0</ele><time>2026-04-12T07:36:26.013Z</time></trkpt><trkpt lat="43.14949" lon="12.3299052"><ele>451.00000000000006</ele><time>2026-04-12T07:36:28.011Z</time></trkpt><trkpt lat="43.14955" lon="12.3299583"><ele>451.0</ele><time>2026-04-12T07:36:29.008Z</time></trkpt><trkpt lat="43.1496384" lon="12.3300098"><ele>451.0</ele><time>2026-04-12T07:36:31.995Z</time></trkpt><trkpt lat="43.1496607" lon="12.3300937"><ele>451.0</ele><time>2026-04-12T07:36:34.018Z</time></trkpt><trkpt lat="43.149681" lon="12.3302009"><ele>451.00000000000006</ele><time>2026-04-12T07:36:36.016Z</time></trkpt><trkpt lat="43.149684" lon="12.330321"><ele>451.0</ele><time>2026-04-12T07:36:38.01Z</time></trkpt><trkpt lat="43.1496587" lon="12.3304387"><ele>451.0</ele><time>2026-04-12T07:36:40.018Z</time></trkpt><trkpt lat="43.1496193" lon="12.330553"><ele>451.0</ele><time>2026-04-12T07:36:42.024Z</time></trkpt><trkpt lat="43.1495872" lon="12.3306711"><ele>451.0</ele><time>2026-04-12T07:36:44.007Z</time></trkpt><trkpt lat="43.1495511" lon="12.3307603"><ele>451.0</ele><time>2026-04-12T07:36:46.007Z</time></trkpt><trkpt lat="43.1495374" lon="12.3308534"><ele>451.0</ele><time>2026-04-12T07:36:48.013Z</time></trkpt><trkpt lat="43.149576" lon="12.3310341"><ele>450.4</ele><time>2026-04-12T07:36:50.012Z</time></trkpt><trkpt lat="43.1495904" lon="12.3311725"><ele>449.8</ele><time>2026-04-12T07:36:52.001Z</time></trkpt><trkpt lat="43.1495955" lon="12.3312737"><ele>449.19999999999993</ele><time>2026-04-12T07:36:54.008Z</time></trkpt><trkpt lat="43.1496187" lon="12.3313762"><ele>448.59999999999997</ele><time>2026-04-12T07:36:56.011Z</time></trkpt><trkpt lat="43.149705" lon="12.3314209"><ele>448.0</ele><time>2026-04-12T07:36:58.01Z</time></trkpt><trkpt lat="43.1498088" lon="12.3314667"><ele>444.57142857142856</ele><time>2026-04-12T07:37:00.015Z</time></trkpt><trkpt lat="43.1498863" lon="12.3315202"><ele>441.1428571428571</ele><time>2026-04-12T07:37:02.01Z</time></trkpt><trkpt lat="43.1498996" lon="12.331626"><ele>437.7142857142857</ele><time>2026-04-12T07:37:05.013Z</time></trkpt><trkpt lat="43.1499279" lon="12.3317264"><ele>434.2857142857143</ele><time>2026-04-12T07:37:07.002Z</time></trkpt><trkpt lat="43.1499373" lon="12.3318148"><ele>430.85714285714283</ele><time>2026-04-12T07:37:08.994Z</time></trkpt><trkpt lat="43.1498971" lon="12.3318835"><ele>427.42857142857144</ele><time>2026-04-12T07:37:56.006Z</time></trkpt><trkpt lat="43.1498978" lon="12.3319799"><ele>424.0</ele><time>2026-04-12T07:38:01.011Z</time></trkpt><trkpt lat="43.1499489" lon="12.3320406"><ele>424.00000000000006</ele><time>2026-04-12T07:38:05.006Z</time></trkpt><trkpt lat="43.1500084" lon="12.3320832"><ele>424.0</ele><time>2026-04-12T07:38:08.016Z</time></trkpt><trkpt lat="43.1500056" lon="12.3321715"><ele>424.0</ele><time>2026-04-12T07:38:11.011Z</time></trkpt><trkpt lat="43.1500605" lon="12.3322183"><ele>424.0</ele><time>2026-04-12T07:38:14.017Z</time></trkpt><trkpt lat="43.1501507" lon="12.3322442"><ele>424.00000000000006</ele><time>2026-04-12T07:38:17.017Z</time></trkpt><trkpt lat="43.1502511" lon="12.3322958"><ele>424.0</ele><time>2026-04-12T07:38:20.013Z</time></trkpt><trkpt lat="43.1503916" lon="12.3322741"><ele>422.83333333333337</ele><time>2026-04-12T07:38:22.012Z</time></trkpt><trkpt lat="43.1504582" lon="12.3322839"><ele>421.6666666666667</ele><time>2026-04-12T07:38:23.014Z</time></trkpt><trkpt lat="43.1505232" lon="12.3323743"><ele>420.5</ele><time>2026-04-12T07:38:26.006Z</time></trkpt><trkpt lat="43.1504954" lon="12.33248"><ele>419.33333333333337</ele><time>2026-04-12T07:38:30.013Z</time></trkpt><trkpt lat="43.1505258" lon="12.3325582"><ele>418.1666666666667</ele><time>2026-04-12T07:38:33.011Z</time></trkpt><trkpt lat="43.1505955" lon="12.3326"><ele>417.0</ele><time>2026-04-12T07:38:35.108Z</time></trkpt><trkpt lat="43.1506293" lon="12.3327011"><ele>417.0</ele><time>2026-04-12T07:38:38.01Z</time></trkpt><trkpt lat="43.1505919" lon="12.3328557"><ele>417.0</ele><time>2026-04-12T07:38:40.003Z</time></trkpt><trkpt lat="43.1505737" lon="12.3329491"><ele>417.0</ele><time>2026-04-12T07:38:43.013Z</time></trkpt><trkpt lat="43.1505283" lon="12.3330464"><ele>417.0</ele><time>2026-04-12T07:38:45.011Z</time></trkpt><trkpt lat="43.1504812" lon="12.3331318"><ele>417.0</ele><time>2026-04-12T07:38:47.005Z</time></trkpt><trkpt lat="43.1504557" lon="12.3332138"><ele>417.0</ele><time>2026-04-12T07:38:49.009Z</time></trkpt><trkpt lat="43.1504393" lon="12.3333445"><ele>414.40000000000003</ele><time>2026-04-12T07:38:51.996Z</time></trkpt><trkpt lat="43.150446" lon="12.3335045"><ele>411.8</ele><time>2026-04-12T07:38:55.008Z</time></trkpt><trkpt lat="43.150478" lon="12.3336687"><ele>409.2</ele><time>2026-04-12T07:39:09.032Z</time></trkpt><trkpt lat="43.1504903" lon="12.3337574"><ele>406.6</ele><time>2026-04-12T07:39:20.997Z</time></trkpt><trkpt lat="43.1504965" lon="12.3338779"><ele>404.0</ele><time>2026-04-12T07:39:36.008Z</time></trkpt><trkpt lat="43.1504948" lon="12.333984"><ele>401.1428571428571</ele><time>2026-04-12T07:39:38.997Z</time></trkpt><trkpt lat="43.1505617" lon="12.3340579"><ele>398.2857142857143</ele><time>2026-04-12T07:39:44.008Z</time></trkpt><trkpt lat="43.1506256" lon="12.3340811"><ele>395.42857142857144</ele><time>2026-04-12T07:39:47.001Z</time></trkpt><trkpt lat="43.1506924" lon="12.3341245"><ele>392.57142857142856</ele><time>2026-04-12T07:39:50.002Z</time></trkpt><trkpt lat="43.1507716" lon="12.3341033"><ele>389.7142857142857</ele><time>2026-04-12T07:39:53.012Z</time></trkpt><trkpt lat="43.1508414" lon="12.3341118"><ele>386.85714285714283</ele><time>2026-04-12T07:39:56.014Z</time></trkpt><trkpt lat="43.1509026" lon="12.3341377"><ele>384.0</ele><time>2026-04-12T07:39:58.008Z</time></trkpt><trkpt lat="43.1509553" lon="12.3342046"><ele>382.57142857142856</ele><time>2026-04-12T07:40:00.011Z</time></trkpt><trkpt lat="43.1509873" lon="12.3342793"><ele>381.1428571428571</ele><time>2026-04-12T07:40:02.012Z</time></trkpt><trkpt lat="43.1510155" lon="12.3343663"><ele>379.71428571428567</ele><time>2026-04-12T07:40:05.011Z</time></trkpt><trkpt lat="43.1510676" lon="12.3344643"><ele>378.2857142857143</ele><time>2026-04-12T07:40:08.011Z</time></trkpt><trkpt lat="43.1510872" lon="12.3345539"><ele>376.8571428571429</ele><time>2026-04-12T07:40:10.003Z</time></trkpt><trkpt lat="43.1510913" lon="12.3346431"><ele>375.4285714285714</ele><time>2026-04-12T07:40:12.01Z</time></trkpt><trkpt lat="43.1510396" lon="12.3347376"><ele>374.0</ele><time>2026-04-12T07:40:15.011Z</time></trkpt><trkpt lat="43.1510043" lon="12.3348496"><ele>370.33333333333337</ele><time>2026-04-12T07:40:18.009Z</time></trkpt><trkpt lat="43.1509845" lon="12.3349764"><ele>366.6666666666667</ele><time>2026-04-12T07:40:21.01Z</time></trkpt><trkpt lat="43.1509846" lon="12.335071"><ele>363.0</ele><time>2026-04-12T07:40:24.008Z</time></trkpt><trkpt lat="43.1510547" lon="12.335141"><ele>359.3333333333333</ele><time>2026-04-12T07:40:26.019Z</time></trkpt><trkpt lat="43.1510566" lon="12.335231"><ele>355.66666666666663</ele><time>2026-04-12T07:40:28.011Z</time></trkpt><trkpt lat="43.1510405" lon="12.3353399"><ele>352.0</ele><time>2026-04-12T07:40:31.008Z</time></trkpt><trkpt lat="43.1510491" lon="12.3354577"><ele>348.5</ele><time>2026-04-12T07:40:34.01Z</time></trkpt><trkpt lat="43.1510322" lon="12.3355612"><ele>345.0</ele><time>2026-04-12T07:40:37.111Z</time></trkpt><trkpt lat="43.1509956" lon="12.3356533"><ele>341.5</ele><time>2026-04-12T07:40:40.012Z</time></trkpt><trkpt lat="43.1509301" lon="12.3357423"><ele>338.0</ele><time>2026-04-12T07:40:43.112Z</time></trkpt><trkpt lat="43.1509024" lon="12.3358251"><ele>334.5</ele><time>2026-04-12T07:40:44.989Z</time></trkpt><trkpt lat="43.1509332" lon="12.3359128"><ele>331.0</ele><time>2026-04-12T07:40:48.01Z</time></trkpt><trkpt lat="43.1509184" lon="12.336013"><ele>331.0</ele><time>2026-04-12T07:40:51.011Z</time></trkpt><trkpt lat="43.1508688" lon="12.3360959"><ele>331.0</ele><time>2026-04-12T07:40:54.011Z</time></trkpt><trkpt lat="43.1508106" lon="12.33617"><ele>331.0</ele><time>2026-04-12T07:40:56.016Z</time></trkpt><trkpt lat="43.1507317" lon="12.3362149"><ele>331.0</ele><time>2026-04-12T07:40:58.01Z</time></trkpt><trkpt lat="43.1507748" lon="12.3362894"><ele>331.0</ele><time>2026-04-12T07:41:52.016Z</time></trkpt><trkpt lat="43.1508426" lon="12.3363373"><ele>331.0</ele><time>2026-04-12T07:41:53.017Z</time></trkpt><trkpt lat="43.1509039" lon="12.336413"><ele>329.57142857142856</ele><time>2026-04-12T07:41:56.016Z</time></trkpt><trkpt lat="43.1509564" lon="12.3365131"><ele>328.1428571428571</ele><time>2026-04-12T07:41:58.999Z</time></trkpt><trkpt lat="43.1510117" lon="12.3365618"><ele>326.71428571428567</ele><time>2026-04-12T07:42:01.024Z</time></trkpt><trkpt lat="43.1510747" lon="12.3366094"><ele>325.2857142857143</ele><time>2026-04-12T07:42:03.016Z</time></trkpt><trkpt lat="43.1511278" lon="12.3366631"><ele>323.85714285714283</ele><time>2026-04-12T07:42:05.012Z</time></trkpt><trkpt lat="43.1511861" lon="12.3367387"><ele>322.4285714285714</ele><time>2026-04-12T07:42:07.013Z</time></trkpt><trkpt lat="43.1512389" lon="12.3367872"><ele>321.0</ele><time>2026-04-12T07:42:08.016Z</time></trkpt><trkpt lat="43.1513058" lon="12.3368621"><ele>321.0</ele><time>2026-04-12T07:42:10.013Z</time></trkpt><trkpt lat="43.1513909" lon="12.3369317"><ele>321.0</ele><time>2026-04-12T07:42:12.012Z</time></trkpt><trkpt lat="43.1514781" lon="12.3369896"><ele>321.0</ele><time>2026-04-12T07:42:14.012Z</time></trkpt><trkpt lat="43.1515727" lon="12.3370591"><ele>321.0</ele><time>2026-04-12T07:42:16.013Z</time></trkpt><trkpt lat="43.1516636" lon="12.3371323"><ele>321.0</ele><time>2026-04-12T07:42:18.012Z</time></trkpt><trkpt lat="43.1517506" lon="12.3371928"><ele>319.5</ele><time>2026-04-12T07:42:20.017Z</time></trkpt><trkpt lat="43.1518436" lon="12.337291"><ele>318.0</ele><time>2026-04-12T07:42:22.013Z</time></trkpt><trkpt lat="43.1518849" lon="12.3373562"><ele>316.5</ele><time>2026-04-12T07:42:23.001Z</time></trkpt><trkpt lat="43.1519638" lon="12.3374391"><ele>315.0</ele><time>2026-04-12T07:42:25.012Z</time></trkpt><trkpt lat="43.1520203" lon="12.3375197"><ele>313.5</ele><time>2026-04-12T07:42:27.998Z</time></trkpt><trkpt lat="43.1520786" lon="12.3375838"><ele>312.0</ele><time>2026-04-12T07:42:30.011Z</time></trkpt><trkpt lat="43.1521427" lon="12.3376188"><ele>312.0</ele><time>2026-04-12T07:42:31.012Z</time></trkpt><trkpt lat="43.1522323" lon="12.337645"><ele>312.0</ele><time>2026-04-12T07:42:32.012Z</time></trkpt><trkpt lat="43.1523382" lon="12.3376602"><ele>312.0</ele><time>2026-04-12T07:42:32.996Z</time></trkpt><trkpt lat="43.1524181" lon="12.3376602"><ele>312.0</ele><time>2026-04-12T07:42:34.009Z</time></trkpt><trkpt lat="43.1525573" lon="12.3376727"><ele>312.0</ele><time>2026-04-12T07:42:36.008Z</time></trkpt><trkpt lat="43.1526797" lon="12.3376757"><ele>309.8333333333333</ele><time>2026-04-12T07:42:38.011Z</time></trkpt><trkpt lat="43.1527837" lon="12.3376762"><ele>307.6666666666667</ele><time>2026-04-12T07:42:40.012Z</time></trkpt><trkpt lat="43.1528567" lon="12.3376866"><ele>305.5</ele><time>2026-04-12T07:42:42.112Z</time></trkpt><trkpt lat="43.1529314" lon="12.337726"><ele>303.33333333333337</ele><time>2026-04-12T07:42:45.012Z</time></trkpt><trkpt lat="43.1529791" lon="12.3377907"><ele>301.1666666666667</ele><time>2026-04-12T07:42:48.012Z</time></trkpt><trkpt lat="43.1530482" lon="12.337879"><ele>299.0</ele><time>2026-04-12T07:42:52.016Z</time></trkpt><trkpt lat="43.153081" lon="12.3379527"><ele>299.0</ele><time>2026-04-12T07:42:53.113Z</time></trkpt><trkpt lat="43.1531586" lon="12.3380413"><ele>299.0</ele><time>2026-04-12T07:42:55Z</time></trkpt><trkpt lat="43.1532486" lon="12.3380969"><ele>299.0</ele><time>2026-04-12T07:42:57.015Z</time></trkpt><trkpt lat="43.1533164" lon="12.338119"><ele>299.0</ele><time>2026-04-12T07:42:58.017Z</time></trkpt><trkpt lat="43.1534125" lon="12.3381312"><ele>299.0</ele><time>2026-04-12T07:43:00.014Z</time></trkpt><trkpt lat="43.1535009" lon="12.3381461"><ele>296.2</ele><time>2026-04-12T07:43:02.011Z</time></trkpt><trkpt lat="43.1535881" lon="12.3381644"><ele>293.4</ele><time>2026-04-12T07:43:04.01Z</time></trkpt><trkpt lat="43.1536675" lon="12.3381931"><ele>290.6</ele><time>2026-04-12T07:43:05.998Z</time></trkpt><trkpt lat="43.1537523" lon="12.338217"><ele>287.8</ele><time>2026-04-12T07:43:08.002Z</time></trkpt><trkpt lat="43.1538593" lon="12.3382432"><ele>285.0</ele><time>2026-04-12T07:43:09.992Z</time></trkpt><trkpt lat="43.1539616" lon="12.3382755"><ele>284.6666666666667</ele><time>2026-04-12T07:43:11.984Z</time></trkpt><trkpt lat="43.154047" lon="12.3383178"><ele>284.3333333333333</ele><time>2026-04-12T07:43:13.994Z</time></trkpt><trkpt lat="43.1541329" lon="12.3383283"><ele>284.0</ele><time>2026-04-12T07:43:16.009Z</time></trkpt><trkpt lat="43.1541953" lon="12.3383466"><ele>283.66666666666663</ele><time>2026-04-12T07:43:18.008Z</time></trkpt><trkpt lat="43.1542632" lon="12.3383747"><ele>283.3333333333333</ele><time>2026-04-12T07:43:20.011Z</time></trkpt><trkpt lat="43.1543453" lon="12.338387"><ele>283.0</ele><time>2026-04-12T07:43:22.008Z</time></trkpt><trkpt lat="43.1544243" lon="12.3383683"><ele>283.0</ele><time>2026-04-12T07:43:24.013Z</time></trkpt><trkpt lat="43.1545051" lon="12.3383607"><ele>283.0</ele><time>2026-04-12T07:43:26.01Z</time></trkpt><trkpt lat="43.154585" lon="12.3383464"><ele>283.0</ele><time>2026-04-12T07:43:28.012Z</time></trkpt><trkpt lat="43.1546748" lon="12.338309"><ele>283.0</ele><time>2026-04-12T07:43:29.999Z</time></trkpt><trkpt lat="43.154763" lon="12.3382651"><ele>283.0</ele><time>2026-04-12T07:43:31.996Z</time></trkpt><trkpt lat="43.1548459" lon="12.338231"><ele>283.0</ele><time>2026-04-12T07:43:34.013Z</time></trkpt><trkpt lat="43.1549191" lon="12.3382126"><ele>283.0</ele><time>2026-04-12T07:43:36.011Z</time></trkpt><trkpt lat="43.154986" lon="12.3382084"><ele>283.0</ele><time>2026-04-12T07:43:37.998Z</time></trkpt><trkpt lat="43.155096" lon="12.3382207"><ele>283.0</ele><time>2026-04-12T07:43:41.02Z</time></trkpt><trkpt lat="43.1551647" lon="12.3382366"><ele>283.0</ele><time>2026-04-12T07:43:43.011Z</time></trkpt><trkpt lat="43.1552299" lon="12.3382439"><ele>283.0</ele><time>2026-04-12T07:43:45.016Z</time></trkpt><trkpt lat="43.1553019" lon="12.3382634"><ele>283.0</ele><time>2026-04-12T07:43:47.005Z</time></trkpt><trkpt lat="43.1553923" lon="12.3382581"><ele>283.0</ele><time>2026-04-12T07:43:50.012Z</time></trkpt><trkpt lat="43.155478" lon="12.3382497"><ele>283.0</ele><time>2026-04-12T07:43:52.014Z</time></trkpt><trkpt lat="43.1555403" lon="12.3382812"><ele>283.0</ele><time>2026-04-12T07:43:54.012Z</time></trkpt><trkpt lat="43.1555964" lon="12.3383329"><ele>283.0</ele><time>2026-04-12T07:43:56.011Z</time></trkpt><trkpt lat="43.1556437" lon="12.33839"><ele>283.0</ele><time>2026-04-12T07:43:58.011Z</time></trkpt><trkpt lat="43.1556948" lon="12.3384614"><ele>283.0</ele><time>2026-04-12T07:44:00.021Z</time></trkpt><trkpt lat="43.1557667" lon="12.3385372"><ele>283.0</ele><time>2026-04-12T07:44:02.016Z</time></trkpt><trkpt lat="43.1558214" lon="12.3386134"><ele>283.0</ele><time>2026-04-12T07:44:04.002Z</time></trkpt><trkpt lat="43.1558745" lon="12.338676"><ele>283.0</ele><time>2026-04-12T07:44:05.993Z</time></trkpt><trkpt lat="43.1559286" lon="12.3387538"><ele>283.0</ele><time>2026-04-12T07:44:10.004Z</time></trkpt><trkpt lat="43.1559161" lon="12.3388424"><ele>283.0</ele><time>2026-04-12T07:44:13.996Z</time></trkpt><trkpt lat="43.1558681" lon="12.338947"><ele>283.0</ele><time>2026-04-12T07:44:17.015Z</time></trkpt><trkpt lat="43.15582" lon="12.3390578"><ele>283.0</ele><time>2026-04-12T07:44:19.995Z</time></trkpt><trkpt lat="43.1557839" lon="12.3391344"><ele>283.14285714285717</ele><time>2026-04-12T07:44:22.006Z</time></trkpt><trkpt lat="43.1557488" lon="12.3392158"><ele>283.28571428571433</ele><time>2026-04-12T07:44:24.007Z</time></trkpt><trkpt lat="43.1557178" lon="12.3392941"><ele>283.42857142857144</ele><time>2026-04-12T07:44:25.997Z</time></trkpt><trkpt lat="43.1556804" lon="12.3393677"><ele>283.57142857142856</ele><time>2026-04-12T07:44:27.996Z</time></trkpt><trkpt lat="43.1556494" lon="12.3394466"><ele>283.71428571428567</ele><time>2026-04-12T07:44:29.998Z</time></trkpt><trkpt lat="43.1556185" lon="12.3395261"><ele>283.85714285714283</ele><time>2026-04-12T07:44:32.093Z</time></trkpt><trkpt lat="43.1555818" lon="12.3396104"><ele>284.0</ele><time>2026-04-12T07:44:34.014Z</time></trkpt><trkpt lat="43.1555409" lon="12.3396909"><ele>284.2857142857143</ele><time>2026-04-12T07:44:36.013Z</time></trkpt><trkpt lat="43.1555007" lon="12.3397687"><ele>284.57142857142856</ele><time>2026-04-12T07:44:38.002Z</time></trkpt><trkpt lat="43.1554599" lon="12.3398491"><ele>284.85714285714283</ele><time>2026-04-12T07:44:40.011Z</time></trkpt><trkpt lat="43.1554194" lon="12.3399324"><ele>285.1428571428571</ele><time>2026-04-12T07:44:42.014Z</time></trkpt><trkpt lat="43.1553782" lon="12.3400145"><ele>285.42857142857144</ele><time>2026-04-12T07:44:44.011Z</time></trkpt><trkpt lat="43.1553304" lon="12.3400908"><ele>285.71428571428567</ele><time>2026-04-12T07:44:46.013Z</time></trkpt><trkpt lat="43.15528" lon="12.3401658"><ele>286.0</ele><time>2026-04-12T07:44:48.019Z</time></trkpt><trkpt lat="43.1552289" lon="12.3402417"><ele>286.0</ele><time>2026-04-12T07:44:50.009Z</time></trkpt><trkpt lat="43.155177" lon="12.3403183"><ele>286.0</ele><time>2026-04-12T07:44:52.012Z</time></trkpt><trkpt lat="43.1551243" lon="12.34039"><ele>286.0</ele><time>2026-04-12T07:44:54.007Z</time></trkpt><trkpt lat="43.1550669" lon="12.3404682"><ele>286.0</ele><time>2026-04-12T07:44:56.012Z</time></trkpt><trkpt lat="43.1550141" lon="12.3405584"><ele>286.0</ele><time>2026-04-12T07:44:58.012Z</time></trkpt><trkpt lat="43.1549588" lon="12.34064"><ele>286.0</ele><time>2026-04-12T07:45:00.014Z</time></trkpt><trkpt lat="43.1549008" lon="12.3407082"><ele>286.1428571428571</ele><time>2026-04-12T07:45:02.011Z</time></trkpt><trkpt lat="43.1548519" lon="12.3407692"><ele>286.2857142857143</ele><time>2026-04-12T07:45:04.007Z</time></trkpt><trkpt lat="43.1547989" lon="12.3408374"><ele>286.42857142857144</ele><time>2026-04-12T07:45:06.008Z</time></trkpt><trkpt lat="43.154742" lon="12.3409062"><ele>286.57142857142856</ele><time>2026-04-12T07:45:08.013Z</time></trkpt><trkpt lat="43.1546869" lon="12.34098"><ele>286.7142857142857</ele><time>2026-04-12T07:45:10.014Z</time></trkpt><trkpt lat="43.1546318" lon="12.3410555"><ele>286.85714285714283</ele><time>2026-04-12T07:45:12.013Z</time></trkpt><trkpt lat="43.1545763" lon="12.3411318"><ele>287.0</ele><time>2026-04-12T07:45:14.017Z</time></trkpt><trkpt lat="43.1545224" lon="12.3412063"><ele>287.0</ele><time>2026-04-12T07:45:16.01Z</time></trkpt><trkpt lat="43.1544666" lon="12.3412791"><ele>287.0</ele><time>2026-04-12T07:45:18.012Z</time></trkpt><trkpt lat="43.1544126" lon="12.3413508"><ele>287.0</ele><time>2026-04-12T07:45:20.016Z</time></trkpt><trkpt lat="43.1543637" lon="12.3414175"><ele>287.0</ele><time>2026-04-12T07:45:22.013Z</time></trkpt><trkpt lat="43.1543135" lon="12.3414867"><ele>287.0</ele><time>2026-04-12T07:45:24.011Z</time></trkpt><trkpt lat="43.1542516" lon="12.3415624"><ele>287.0</ele><time>2026-04-12T07:45:26.012Z</time></trkpt><trkpt lat="43.1541952" lon="12.3416442"><ele>287.1666666666667</ele><time>2026-04-12T07:45:28.01Z</time></trkpt><trkpt lat="43.1541354" lon="12.3417405"><ele>287.33333333333337</ele><time>2026-04-12T07:45:30.022Z</time></trkpt><trkpt lat="43.1540761" lon="12.3418342"><ele>287.5</ele><time>2026-04-12T07:45:32.031Z</time></trkpt><trkpt lat="43.1540186" lon="12.3419182"><ele>287.6666666666667</ele><time>2026-04-12T07:45:34.011Z</time></trkpt><trkpt lat="43.1539611" lon="12.3420065"><ele>287.8333333333333</ele><time>2026-04-12T07:45:36.013Z</time></trkpt><trkpt lat="43.1539061" lon="12.3420912"><ele>288.0</ele><time>2026-04-12T07:45:38.012Z</time></trkpt><trkpt lat="43.1538555" lon="12.3421702"><ele>288.14285714285717</ele><time>2026-04-12T07:45:40.012Z</time></trkpt><trkpt lat="43.1538072" lon="12.3422494"><ele>288.2857142857143</ele><time>2026-04-12T07:45:42.012Z</time></trkpt><trkpt lat="43.1537479" lon="12.3423099"><ele>288.42857142857144</ele><time>2026-04-12T07:45:44.011Z</time></trkpt><trkpt lat="43.1537068" lon="12.342386"><ele>288.57142857142856</ele><time>2026-04-12T07:45:46.021Z</time></trkpt><trkpt lat="43.1536633" lon="12.3424582"><ele>288.7142857142857</ele><time>2026-04-12T07:45:48.013Z</time></trkpt><trkpt lat="43.1536155" lon="12.3425394"><ele>288.8571428571429</ele><time>2026-04-12T07:45:50.013Z</time></trkpt><trkpt lat="43.1535618" lon="12.3426114"><ele>289.0</ele><time>2026-04-12T07:45:52.011Z</time></trkpt><trkpt lat="43.1535072" lon="12.3426851"><ele>289.0</ele><time>2026-04-12T07:45:54.108Z</time></trkpt><trkpt lat="43.1534576" lon="12.3427601"><ele>289.0</ele><time>2026-04-12T07:45:56.016Z</time></trkpt><trkpt lat="43.1534067" lon="12.3428409"><ele>289.0</ele><time>2026-04-12T07:45:58.008Z</time></trkpt><trkpt lat="43.153352" lon="12.3429248"><ele>289.0</ele><time>2026-04-12T07:46:00.01Z</time></trkpt><trkpt lat="43.1532948" lon="12.343005"><ele>289.0</ele><time>2026-04-12T07:46:02.013Z</time></trkpt><trkpt lat="43.1532365" lon="12.3430868"><ele>289.0</ele><time>2026-04-12T07:46:04.013Z</time></trkpt><trkpt lat="43.153195" lon="12.3431774"><ele>289.16666666666663</ele><time>2026-04-12T07:46:06.005Z</time></trkpt><trkpt lat="43.1531554" lon="12.3432736"><ele>289.3333333333333</ele><time>2026-04-12T07:46:08.013Z</time></trkpt><trkpt lat="43.1531111" lon="12.3433609"><ele>289.5</ele><time>2026-04-12T07:46:10.014Z</time></trkpt><trkpt lat="43.1530642" lon="12.3434378"><ele>289.6666666666667</ele><time>2026-04-12T07:46:12.01Z</time></trkpt><trkpt lat="43.153023" lon="12.3435216"><ele>289.83333333333337</ele><time>2026-04-12T07:46:14Z</time></trkpt><trkpt lat="43.1530041" lon="12.3436297"><ele>290.0</ele><time>2026-04-12T07:46:16.014Z</time></trkpt><trkpt lat="43.1529945" lon="12.3437379"><ele>290.0</ele><time>2026-04-12T07:46:18.011Z</time></trkpt><trkpt lat="43.1529841" lon="12.3438521"><ele>290.0</ele><time>2026-04-12T07:46:20.016Z</time></trkpt><trkpt lat="43.1529662" lon="12.3439793"><ele>290.0</ele><time>2026-04-12T07:46:22.011Z</time></trkpt><trkpt lat="43.1529413" lon="12.3441067"><ele>290.0</ele><time>2026-04-12T07:46:24.005Z</time></trkpt><trkpt lat="43.1529238" lon="12.3442287"><ele>290.0</ele><time>2026-04-12T07:46:26.014Z</time></trkpt><trkpt lat="43.1529083" lon="12.3443431"><ele>290.33333333333337</ele><time>2026-04-12T07:46:28.016Z</time></trkpt><trkpt lat="43.1529146" lon="12.3444573"><ele>290.6666666666667</ele><time>2026-04-12T07:46:30.113Z</time></trkpt><trkpt lat="43.152911" lon="12.3445727"><ele>291.0</ele><time>2026-04-12T07:46:31.996Z</time></trkpt><trkpt lat="43.1529178" lon="12.344695"><ele>291.3333333333333</ele><time>2026-04-12T07:46:34.016Z</time></trkpt><trkpt lat="43.1529219" lon="12.3448073"><ele>291.66666666666663</ele><time>2026-04-12T07:46:36.013Z</time></trkpt><trkpt lat="43.1529305" lon="12.3449224"><ele>292.0</ele><time>2026-04-12T07:46:38.01Z</time></trkpt><trkpt lat="43.1529334" lon="12.3450412"><ele>292.0</ele><time>2026-04-12T07:46:40.009Z</time></trkpt><trkpt lat="43.1529413" lon="12.3451502"><ele>292.0</ele><time>2026-04-12T07:46:42.01Z</time></trkpt><trkpt lat="43.1529477" lon="12.3452582"><ele>292.0</ele><time>2026-04-12T07:46:44.013Z</time></trkpt><trkpt lat="43.1529579" lon="12.3453644"><ele>292.0</ele><time>2026-04-12T07:46:46.005Z</time></trkpt><trkpt lat="43.1529765" lon="12.3454625"><ele>292.0</ele><time>2026-04-12T07:46:48.01Z</time></trkpt><trkpt lat="43.1530062" lon="12.3455508"><ele>292.0</ele><time>2026-04-12T07:46:50.016Z</time></trkpt><trkpt lat="43.1530497" lon="12.345639"><ele>292.2857142857143</ele><time>2026-04-12T07:46:52.011Z</time></trkpt><trkpt lat="43.1530909" lon="12.3457235"><ele>292.57142857142856</ele><time>2026-04-12T07:46:54.009Z</time></trkpt><trkpt lat="43.1531339" lon="12.3457976"><ele>292.8571428571429</ele><time>2026-04-12T07:46:56.009Z</time></trkpt><trkpt lat="43.1531765" lon="12.3458778"><ele>293.1428571428571</ele><time>2026-04-12T07:46:58.03Z</time></trkpt><trkpt lat="43.1532183" lon="12.3459665"><ele>293.42857142857144</ele><time>2026-04-12T07:47:00.011Z</time></trkpt><trkpt lat="43.1532544" lon="12.3460588"><ele>293.7142857142857</ele><time>2026-04-12T07:47:02.017Z</time></trkpt><trkpt lat="43.1532868" lon="12.346154"><ele>294.0</ele><time>2026-04-12T07:47:04.014Z</time></trkpt><trkpt lat="43.1533332" lon="12.3462985"><ele>294.0</ele><time>2026-04-12T07:47:07.011Z</time></trkpt><trkpt lat="43.153368" lon="12.3463918"><ele>294.0</ele><time>2026-04-12T07:47:09.014Z</time></trkpt><trkpt lat="43.1534026" lon="12.34648"><ele>294.0</ele><time>2026-04-12T07:47:11.015Z</time></trkpt><trkpt lat="43.1534365" lon="12.3465731"><ele>294.0</ele><time>2026-04-12T07:47:13.017Z</time></trkpt><trkpt lat="43.1534734" lon="12.3466684"><ele>294.0</ele><time>2026-04-12T07:47:15.016Z</time></trkpt><trkpt lat="43.153506" lon="12.3467629"><ele>294.0</ele><time>2026-04-12T07:47:17.012Z</time></trkpt><trkpt lat="43.1535444" lon="12.3468555"><ele>294.0</ele><time>2026-04-12T07:47:19.011Z</time></trkpt><trkpt lat="43.1535869" lon="12.3469447"><ele>294.0</ele><time>2026-04-12T07:47:21.014Z</time></trkpt><trkpt lat="43.1536342" lon="12.3470303"><ele>294.0</ele><time>2026-04-12T07:47:23.013Z</time></trkpt><trkpt lat="43.1536668" lon="12.3471277"><ele>294.0</ele><time>2026-04-12T07:47:25.009Z</time></trkpt><trkpt lat="43.1536811" lon="12.347233"><ele>294.0</ele><time>2026-04-12T07:47:27.011Z</time></trkpt><trkpt lat="43.1536792" lon="12.3473435"><ele>294.0</ele><time>2026-04-12T07:47:29.01Z</time></trkpt><trkpt lat="43.1536579" lon="12.3474563"><ele>294.2857142857143</ele><time>2026-04-12T07:47:31.008Z</time></trkpt><trkpt lat="43.1536482" lon="12.3475681"><ele>294.57142857142856</ele><time>2026-04-12T07:47:33.013Z</time></trkpt><trkpt lat="43.1536606" lon="12.3476675"><ele>294.8571428571429</ele><time>2026-04-12T07:47:35.011Z</time></trkpt><trkpt lat="43.1536755" lon="12.3477558"><ele>295.1428571428571</ele><time>2026-04-12T07:47:37.01Z</time></trkpt><trkpt lat="43.1536867" lon="12.3478516"><ele>295.42857142857144</ele><time>2026-04-12T07:47:39.014Z</time></trkpt><trkpt lat="43.1537026" lon="12.3479516"><ele>295.7142857142857</ele><time>2026-04-12T07:47:41.013Z</time></trkpt><trkpt lat="43.1537162" lon="12.348057"><ele>296.0</ele><time>2026-04-12T07:47:42.999Z</time></trkpt><trkpt lat="43.1537129" lon="12.3481631"><ele>296.0</ele><time>2026-04-12T07:47:45.015Z</time></trkpt><trkpt lat="43.1536967" lon="12.348267"><ele>296.0</ele><time>2026-04-12T07:47:47.108Z</time></trkpt><trkpt lat="43.1536771" lon="12.3483661"><ele>296.0</ele><time>2026-04-12T07:47:49.011Z</time></trkpt><trkpt lat="43.1536719" lon="12.3484666"><ele>296.0</ele><time>2026-04-12T07:47:51.012Z</time></trkpt><trkpt lat="43.1536711" lon="12.3485688"><ele>296.0</ele><time>2026-04-12T07:47:53.012Z</time></trkpt><trkpt lat="43.153676" lon="12.3486671"><ele>296.0</ele><time>2026-04-12T07:47:55.017Z</time></trkpt><trkpt lat="43.1536954" lon="12.3487664"><ele>296.0</ele><time>2026-04-12T07:47:57Z</time></trkpt><trkpt lat="43.1537267" lon="12.3488545"><ele>296.1666666666667</ele><time>2026-04-12T07:47:59.108Z</time></trkpt><trkpt lat="43.1537555" lon="12.3489413"><ele>296.33333333333337</ele><time>2026-04-12T07:48:01.014Z</time></trkpt><trkpt lat="43.1537927" lon="12.3490403"><ele>296.5</ele><time>2026-04-12T07:48:03.015Z</time></trkpt><trkpt lat="43.1538291" lon="12.3491365"><ele>296.6666666666667</ele><time>2026-04-12T07:48:05.106Z</time></trkpt><trkpt lat="43.1538608" lon="12.3492378"><ele>296.8333333333333</ele><time>2026-04-12T07:48:07.015Z</time></trkpt><trkpt lat="43.153889" lon="12.3493388"><ele>297.0</ele><time>2026-04-12T07:48:09.009Z</time></trkpt><trkpt lat="43.1539089" lon="12.3494422"><ele>297.0</ele><time>2026-04-12T07:48:11.103Z</time></trkpt><trkpt lat="43.1539188" lon="12.3495478"><ele>297.0</ele><time>2026-04-12T07:48:13.012Z</time></trkpt><trkpt lat="43.1539249" lon="12.3496539"><ele>297.0</ele><time>2026-04-12T07:48:15.006Z</time></trkpt><trkpt lat="43.1539266" lon="12.3497599"><ele>297.0</ele><time>2026-04-12T07:48:16.997Z</time></trkpt><trkpt lat="43.1539232" lon="12.3498618"><ele>297.0</ele><time>2026-04-12T07:48:19.009Z</time></trkpt><trkpt lat="43.1539289" lon="12.3499604"><ele>297.0</ele><time>2026-04-12T07:48:21.007Z</time></trkpt><trkpt lat="43.1539285" lon="12.3500503"><ele>297.0</ele><time>2026-04-12T07:48:23.008Z</time></trkpt><trkpt lat="43.1539447" lon="12.350173"><ele>297.1666666666667</ele><time>2026-04-12T07:48:26.012Z</time></trkpt><trkpt lat="43.1539611" lon="12.3502737"><ele>297.3333333333333</ele><time>2026-04-12T07:48:29.013Z</time></trkpt><trkpt lat="43.1539612" lon="12.3503624"><ele>297.5</ele><time>2026-04-12T07:48:35.01Z</time></trkpt><trkpt lat="43.1540379" lon="12.3504153"><ele>297.66666666666663</ele><time>2026-04-12T07:48:40.01Z</time></trkpt><trkpt lat="43.1540841" lon="12.3505162"><ele>297.8333333333333</ele><time>2026-04-12T07:48:42.999Z</time></trkpt><trkpt lat="43.1541291" lon="12.3506203"><ele>298.0</ele><time>2026-04-12T07:48:45.994Z</time></trkpt><trkpt lat="43.1541676" lon="12.3506907"><ele>298.5</ele><time>2026-04-12T07:48:47.998Z</time></trkpt><trkpt lat="43.1542229" lon="12.3507931"><ele>299.0</ele><time>2026-04-12T07:48:51.006Z</time></trkpt><trkpt lat="43.1542809" lon="12.3508735"><ele>299.5</ele><time>2026-04-12T07:48:54.012Z</time></trkpt><trkpt lat="43.1543325" lon="12.3509465"><ele>300.0</ele><time>2026-04-12T07:48:57.015Z</time></trkpt><trkpt lat="43.1543616" lon="12.3510612"><ele>300.5</ele><time>2026-04-12T07:49:00.03Z</time></trkpt><trkpt lat="43.1543719" lon="12.3511508"><ele>301.0</ele><time>2026-04-12T07:49:02.012Z</time></trkpt><trkpt lat="43.1543763" lon="12.3512403"><ele>301.0</ele><time>2026-04-12T07:49:03.995Z</time></trkpt><trkpt lat="43.1543758" lon="12.3513325"><ele>301.0</ele><time>2026-04-12T07:49:06.011Z</time></trkpt><trkpt lat="43.1543773" lon="12.3514264"><ele>301.0</ele><time>2026-04-12T07:49:08.011Z</time></trkpt><trkpt lat="43.1543818" lon="12.351519"><ele>301.0</ele><time>2026-04-12T07:49:10Z</time></trkpt><trkpt lat="43.1543838" lon="12.3516124"><ele>301.0</ele><time>2026-04-12T07:49:12.008Z</time></trkpt><trkpt lat="43.1543875" lon="12.3517016"><ele>301.0</ele><time>2026-04-12T07:49:14.011Z</time></trkpt><trkpt lat="43.1543965" lon="12.3517955"><ele>301.0</ele><time>2026-04-12T07:49:16.011Z</time></trkpt><trkpt lat="43.1544065" lon="12.3518863"><ele>301.14285714285717</ele><time>2026-04-12T07:49:18.014Z</time></trkpt><trkpt lat="43.1544171" lon="12.3519827"><ele>301.2857142857143</ele><time>2026-04-12T07:49:20.011Z</time></trkpt><trkpt lat="43.154428" lon="12.3520791"><ele>301.42857142857144</ele><time>2026-04-12T07:49:22.012Z</time></trkpt><trkpt lat="43.1544416" lon="12.3521761"><ele>301.57142857142856</ele><time>2026-04-12T07:49:24.011Z</time></trkpt><trkpt lat="43.1544529" lon="12.3522669"><ele>301.7142857142857</ele><time>2026-04-12T07:49:26.019Z</time></trkpt><trkpt lat="43.1544731" lon="12.3523552"><ele>301.8571428571429</ele><time>2026-04-12T07:49:28.01Z</time></trkpt><trkpt lat="43.154495" lon="12.3524414"><ele>302.0</ele><time>2026-04-12T07:49:30.014Z</time></trkpt><trkpt lat="43.1545153" lon="12.3525283"><ele>302.8571428571429</ele><time>2026-04-12T07:49:32.023Z</time></trkpt><trkpt lat="43.1545515" lon="12.352657"><ele>303.7142857142857</ele><time>2026-04-12T07:49:35.017Z</time></trkpt><trkpt lat="43.1545691" lon="12.3527446"><ele>304.57142857142856</ele><time>2026-04-12T07:49:37Z</time></trkpt><trkpt lat="43.1545872" lon="12.3528373"><ele>305.42857142857144</ele><time>2026-04-12T07:49:39.014Z</time></trkpt><trkpt lat="43.1546028" lon="12.352923"><ele>306.2857142857143</ele><time>2026-04-12T07:49:41.012Z</time></trkpt><trkpt lat="43.1546192" lon="12.353012"><ele>307.14285714285717</ele><time>2026-04-12T07:49:43.012Z</time></trkpt><trkpt lat="43.1546322" lon="12.3530999"><ele>308.0</ele><time>2026-04-12T07:49:45.011Z</time></trkpt><trkpt lat="43.1546475" lon="12.3531883"><ele>308.33333333333337</ele><time>2026-04-12T07:49:47.012Z</time></trkpt><trkpt lat="43.1546589" lon="12.353274"><ele>308.6666666666667</ele><time>2026-04-12T07:49:49.012Z</time></trkpt><trkpt lat="43.1546698" lon="12.353362"><ele>309.0</ele><time>2026-04-12T07:49:51.014Z</time></trkpt><trkpt lat="43.1546847" lon="12.3534491"><ele>309.3333333333333</ele><time>2026-04-12T07:49:52.999Z</time></trkpt><trkpt lat="43.1547365" lon="12.3535593"><ele>309.66666666666663</ele><time>2026-04-12T07:49:55.997Z</time></trkpt><trkpt lat="43.1548237" lon="12.3536359"><ele>310.0</ele><time>2026-04-12T07:49:59.002Z</time></trkpt><trkpt lat="43.154901" lon="12.3536729"><ele>310.0</ele><time>2026-04-12T07:50:01.013Z</time></trkpt><trkpt lat="43.1549795" lon="12.3537086"><ele>310.0</ele><time>2026-04-12T07:50:03Z</time></trkpt><trkpt lat="43.1550566" lon="12.3537432"><ele>310.0</ele><time>2026-04-12T07:50:05.011Z</time></trkpt><trkpt lat="43.1551302" lon="12.3537718"><ele>310.0</ele><time>2026-04-12T07:50:07.011Z</time></trkpt><trkpt lat="43.1552063" lon="12.3537949"><ele>310.0</ele><time>2026-04-12T07:50:09.005Z</time></trkpt><trkpt lat="43.1552814" lon="12.3538335"><ele>310.0</ele><time>2026-04-12T07:50:10.997Z</time></trkpt><trkpt lat="43.1553589" lon="12.3538641"><ele>310.5</ele><time>2026-04-12T07:50:13.011Z</time></trkpt><trkpt lat="43.1554421" lon="12.3538839"><ele>311.0</ele><time>2026-04-12T07:50:15.01Z</time></trkpt><trkpt lat="43.1555207" lon="12.3539124"><ele>311.5</ele><time>2026-04-12T07:50:17.002Z</time></trkpt><trkpt lat="43.1555971" lon="12.3539381"><ele>312.0</ele><time>2026-04-12T07:50:19.011Z</time></trkpt><trkpt lat="43.1556723" lon="12.3539642"><ele>312.5</ele><time>2026-04-12T07:50:21.006Z</time></trkpt><trkpt lat="43.1557453" lon="12.3539998"><ele>313.0</ele><time>2026-04-12T07:50:23.012Z</time></trkpt><trkpt lat="43.1558323" lon="12.3540419"><ele>313.0</ele><time>2026-04-12T07:50:26.012Z</time></trkpt><trkpt lat="43.1558975" lon="12.3540576"><ele>313.0</ele><time>2026-04-12T07:50:28.014Z</time></trkpt><trkpt lat="43.1559604" lon="12.3540685"><ele>313.0</ele><time>2026-04-12T07:50:30.013Z</time></trkpt><trkpt lat="43.156023" lon="12.3540937"><ele>313.0</ele><time>2026-04-12T07:50:32.015Z</time></trkpt><trkpt lat="43.1560955" lon="12.3541215"><ele>313.0</ele><time>2026-04-12T07:50:34.012Z</time></trkpt><trkpt lat="43.1561617" lon="12.3541393"><ele>313.0</ele><time>2026-04-12T07:50:36.013Z</time></trkpt><trkpt lat="43.1562489" lon="12.3541762"><ele>313.0</ele><time>2026-04-12T07:50:39.011Z</time></trkpt><trkpt lat="43.1563118" lon="12.3541894"><ele>313.0</ele><time>2026-04-12T07:50:41.01Z</time></trkpt><trkpt lat="43.1563759" lon="12.3542057"><ele>313.0</ele><time>2026-04-12T07:50:43.012Z</time></trkpt><trkpt lat="43.1564497" lon="12.3542363"><ele>313.0</ele><time>2026-04-12T07:50:45.009Z</time></trkpt><trkpt lat="43.1565242" lon="12.3542589"><ele>313.0</ele><time>2026-04-12T07:50:47.01Z</time></trkpt><trkpt lat="43.1566117" lon="12.3542936"><ele>313.0</ele><time>2026-04-12T07:50:49.012Z</time></trkpt><trkpt lat="43.1567054" lon="12.3543291"><ele>313.0</ele><time>2026-04-12T07:50:51.012Z</time></trkpt><trkpt lat="43.1567937" lon="12.3543615"><ele>313.16666666666663</ele><time>2026-04-12T07:50:53.11Z</time></trkpt><trkpt lat="43.1568598" lon="12.3543906"><ele>313.3333333333333</ele><time>2026-04-12T07:50:55.016Z</time></trkpt><trkpt lat="43.1569289" lon="12.3544221"><ele>313.5</ele><time>2026-04-12T07:50:57.016Z</time></trkpt><trkpt lat="43.1570017" lon="12.3544417"><ele>313.6666666666667</ele><time>2026-04-12T07:50:58.992Z</time></trkpt><trkpt lat="43.1570771" lon="12.3544576"><ele>313.83333333333337</ele><time>2026-04-12T07:51:01.019Z</time></trkpt><trkpt lat="43.1571558" lon="12.3544836"><ele>314.0</ele><time>2026-04-12T07:51:03.019Z</time></trkpt><trkpt lat="43.157238" lon="12.3545064"><ele>313.99999999999994</ele><time>2026-04-12T07:51:06.014Z</time></trkpt><trkpt lat="43.1573048" lon="12.3545298"><ele>314.0</ele><time>2026-04-12T07:51:08.003Z</time></trkpt><trkpt lat="43.1573787" lon="12.3545512"><ele>314.0</ele><time>2026-04-12T07:51:10.011Z</time></trkpt><trkpt lat="43.1574477" lon="12.3545771"><ele>314.0</ele><time>2026-04-12T07:51:12.012Z</time></trkpt><trkpt lat="43.1575161" lon="12.3546107"><ele>314.0</ele><time>2026-04-12T07:51:14.012Z</time></trkpt><trkpt lat="43.1575787" lon="12.3546456"><ele>313.99999999999994</ele><time>2026-04-12T07:51:16.011Z</time></trkpt><trkpt lat="43.15765" lon="12.3547111"><ele>314.0</ele><time>2026-04-12T07:51:19Z</time></trkpt><trkpt lat="43.1577285" lon="12.3547799"><ele>314.4285714285714</ele><time>2026-04-12T07:51:22.013Z</time></trkpt><trkpt lat="43.1577885" lon="12.3548254"><ele>314.85714285714283</ele><time>2026-04-12T07:51:24.012Z</time></trkpt><trkpt lat="43.1578441" lon="12.354874"><ele>315.2857142857143</ele><time>2026-04-12T07:51:26.013Z</time></trkpt><trkpt lat="43.1579067" lon="12.3549154"><ele>315.71428571428567</ele><time>2026-04-12T07:51:28.01Z</time></trkpt><trkpt lat="43.1579644" lon="12.3549673"><ele>316.1428571428571</ele><time>2026-04-12T07:51:30.009Z</time></trkpt><trkpt lat="43.1580253" lon="12.3550235"><ele>316.57142857142856</ele><time>2026-04-12T07:51:32.011Z</time></trkpt><trkpt lat="43.1580845" lon="12.3550781"><ele>317.0</ele><time>2026-04-12T07:51:34.009Z</time></trkpt><trkpt lat="43.1581568" lon="12.3551628"><ele>317.5</ele><time>2026-04-12T07:51:37.014Z</time></trkpt><trkpt lat="43.158204" lon="12.3552282"><ele>318.0</ele><time>2026-04-12T07:51:39.011Z</time></trkpt><trkpt lat="43.1582678" lon="12.3553254"><ele>318.5</ele><time>2026-04-12T07:51:42.011Z</time></trkpt><trkpt lat="43.1583177" lon="12.3554363"><ele>319.0</ele><time>2026-04-12T07:51:45.011Z</time></trkpt><trkpt lat="43.1583515" lon="12.3555203"><ele>319.5</ele><time>2026-04-12T07:51:47.014Z</time></trkpt><trkpt lat="43.158383" lon="12.3556054"><ele>320.0</ele><time>2026-04-12T07:51:49.016Z</time></trkpt><trkpt lat="43.1584092" lon="12.3556873"><ele>320.0</ele><time>2026-04-12T07:51:51.021Z</time></trkpt><trkpt lat="43.1584595" lon="12.355818"><ele>320.0</ele><time>2026-04-12T07:51:54.01Z</time></trkpt><trkpt lat="43.158484" lon="12.3559012"><ele>320.0</ele><time>2026-04-12T07:51:56.011Z</time></trkpt><trkpt lat="43.1585102" lon="12.3559871"><ele>320.0</ele><time>2026-04-12T07:51:58.01Z</time></trkpt><trkpt lat="43.1585351" lon="12.3560776"><ele>320.0</ele><time>2026-04-12T07:52:00.011Z</time></trkpt><trkpt lat="43.1585875" lon="12.3561814"><ele>320.0</ele><time>2026-04-12T07:52:03.107Z</time></trkpt><trkpt lat="43.1586208" lon="12.3562658"><ele>320.0</ele><time>2026-04-12T07:52:05.016Z</time></trkpt><trkpt lat="43.1586522" lon="12.3563507"><ele>320.0</ele><time>2026-04-12T07:52:06.998Z</time></trkpt><trkpt lat="43.1586698" lon="12.3564404"><ele>320.0</ele><time>2026-04-12T07:52:09.011Z</time></trkpt><trkpt lat="43.1586946" lon="12.3565205"><ele>320.0</ele><time>2026-04-12T07:52:11.001Z</time></trkpt><trkpt lat="43.1587347" lon="12.3566348"><ele>320.0</ele><time>2026-04-12T07:52:14.008Z</time></trkpt><trkpt lat="43.1587619" lon="12.3567486"><ele>320.0</ele><time>2026-04-12T07:52:16.999Z</time></trkpt><trkpt lat="43.1587935" lon="12.3568703"><ele>320.6666666666667</ele><time>2026-04-12T07:52:20.01Z</time></trkpt><trkpt lat="43.1588348" lon="12.3569918"><ele>321.33333333333337</ele><time>2026-04-12T07:52:23.01Z</time></trkpt><trkpt lat="43.1588788" lon="12.357107"><ele>322.0</ele><time>2026-04-12T07:52:26.015Z</time></trkpt><trkpt lat="43.1589197" lon="12.3572251"><ele>322.6666666666667</ele><time>2026-04-12T07:52:29.009Z</time></trkpt><trkpt lat="43.1589497" lon="12.3573079"><ele>323.3333333333333</ele><time>2026-04-12T07:52:31.011Z</time></trkpt><trkpt lat="43.1589797" lon="12.357396"><ele>324.0</ele><time>2026-04-12T07:52:33.046Z</time></trkpt><trkpt lat="43.1590124" lon="12.3574777"><ele>326.6666666666667</ele><time>2026-04-12T07:52:35.01Z</time></trkpt><trkpt lat="43.159041" lon="12.3575565"><ele>329.3333333333333</ele><time>2026-04-12T07:52:37.011Z</time></trkpt><trkpt lat="43.1590944" lon="12.3576685"><ele>332.0</ele><time>2026-04-12T07:52:40.011Z</time></trkpt><trkpt lat="43.159137" lon="12.3577417"><ele>334.66666666666663</ele><time>2026-04-12T07:52:42Z</time></trkpt><trkpt lat="43.1591806" lon="12.3578469"><ele>337.3333333333333</ele><time>2026-04-12T07:52:45.01Z</time></trkpt><trkpt lat="43.1592283" lon="12.3579323"><ele>340.0</ele><time>2026-04-12T07:52:47.002Z</time></trkpt><trkpt lat="43.1592855" lon="12.3580104"><ele>339.5714285714286</ele><time>2026-04-12T07:52:49.092Z</time></trkpt><trkpt lat="43.1593409" lon="12.3580892"><ele>339.1428571428571</ele><time>2026-04-12T07:52:51.014Z</time></trkpt><trkpt lat="43.1593815" lon="12.3581688"><ele>338.7142857142857</ele><time>2026-04-12T07:52:53.01Z</time></trkpt><trkpt lat="43.1594178" lon="12.3582487"><ele>338.28571428571433</ele><time>2026-04-12T07:52:55.005Z</time></trkpt><trkpt lat="43.1594531" lon="12.3583361"><ele>337.8571428571429</ele><time>2026-04-12T07:52:57.012Z</time></trkpt><trkpt lat="43.1594899" lon="12.3584108"><ele>337.42857142857144</ele><time>2026-04-12T07:52:59.015Z</time></trkpt><trkpt lat="43.1595327" lon="12.3584958"><ele>337.0</ele><time>2026-04-12T07:53:00.986Z</time></trkpt><trkpt lat="43.1595752" lon="12.3585779"><ele>337.0</ele><time>2026-04-12T07:53:03.011Z</time></trkpt><trkpt lat="43.1596421" lon="12.3586478"><ele>337.0</ele><time>2026-04-12T07:53:05.011Z</time></trkpt><trkpt lat="43.1597098" lon="12.358703"><ele>337.0</ele><time>2026-04-12T07:53:07.113Z</time></trkpt><trkpt lat="43.1597626" lon="12.3587661"><ele>337.0</ele><time>2026-04-12T07:53:08.999Z</time></trkpt><trkpt lat="43.1598283" lon="12.3588308"><ele>337.0</ele><time>2026-04-12T07:53:13.005Z</time></trkpt><trkpt lat="43.1598954" lon="12.3588863"><ele>337.0</ele><time>2026-04-12T07:53:16.011Z</time></trkpt><trkpt lat="43.1599734" lon="12.3589388"><ele>337.0</ele><time>2026-04-12T07:53:18.995Z</time></trkpt><trkpt lat="43.1600521" lon="12.3589908"><ele>337.0</ele><time>2026-04-12T07:53:22.014Z</time></trkpt><trkpt lat="43.1601172" lon="12.3590356"><ele>337.0</ele><time>2026-04-12T07:53:26.015Z</time></trkpt><trkpt lat="43.1601827" lon="12.3590897"><ele>337.0</ele><time>2026-04-12T07:53:29.997Z</time></trkpt><trkpt lat="43.1602669" lon="12.359118"><ele>337.0</ele><time>2026-04-12T07:53:32.998Z</time></trkpt><trkpt lat="43.1603439" lon="12.3591401"><ele>337.0</ele><time>2026-04-12T07:53:34.997Z</time></trkpt><trkpt lat="43.1604331" lon="12.3591699"><ele>338.0</ele><time>2026-04-12T07:53:38.004Z</time></trkpt><trkpt lat="43.1607582" lon="12.3592532"><ele>339.0</ele><time>2026-04-12T07:53:38.995Z</time></trkpt><trkpt lat="43.1608217" lon="12.3592763"><ele>340.0</ele><time>2026-04-12T07:53:41.001Z</time></trkpt><trkpt lat="43.1608997" lon="12.3592825"><ele>340.0</ele><time>2026-04-12T07:53:44.004Z</time></trkpt><trkpt lat="43.1609915" lon="12.3592917"><ele>340.0</ele><time>2026-04-12T07:53:47.007Z</time></trkpt><trkpt lat="43.1610788" lon="12.3592847"><ele>340.0</ele><time>2026-04-12T07:53:50.016Z</time></trkpt><trkpt lat="43.1611423" lon="12.3592824"><ele>340.0</ele><time>2026-04-12T07:53:52.014Z</time></trkpt><trkpt lat="43.1612095" lon="12.3592829"><ele>340.0</ele><time>2026-04-12T07:53:54.106Z</time></trkpt><trkpt lat="43.1612772" lon="12.3592736"><ele>340.0</ele><time>2026-04-12T07:53:56.01Z</time></trkpt><trkpt lat="43.1613483" lon="12.3592647"><ele>340.0</ele><time>2026-04-12T07:53:58.013Z</time></trkpt><trkpt lat="43.1614118" lon="12.3592554"><ele>340.0</ele><time>2026-04-12T07:54:00.009Z</time></trkpt><trkpt lat="43.1614786" lon="12.3592466"><ele>340.0</ele><time>2026-04-12T07:54:02.012Z</time></trkpt><trkpt lat="43.1615417" lon="12.3592636"><ele>340.0</ele><time>2026-04-12T07:54:03.994Z</time></trkpt><trkpt lat="43.1616206" lon="12.3593185"><ele>340.0</ele><time>2026-04-12T07:54:07.008Z</time></trkpt><trkpt lat="43.161695" lon="12.3593845"><ele>340.0</ele><time>2026-04-12T07:54:10.01Z</time></trkpt><trkpt lat="43.1617638" lon="12.359459"><ele>339.0</ele><time>2026-04-12T07:54:13.01Z</time></trkpt><trkpt lat="43.1618302" lon="12.3595407"><ele>338.0</ele><time>2026-04-12T07:54:16.014Z</time></trkpt><trkpt lat="43.1619217" lon="12.3596534"><ele>337.0</ele><time>2026-04-12T07:54:20.012Z</time></trkpt><trkpt lat="43.1619903" lon="12.3597287"><ele>336.0</ele><time>2026-04-12T07:54:23.012Z</time></trkpt><trkpt lat="43.1620414" lon="12.3597816"><ele>335.0</ele><time>2026-04-12T07:54:26.015Z</time></trkpt><trkpt lat="43.1620434" lon="12.3596913"><ele>334.0</ele><time>2026-04-12T07:54:31.02Z</time></trkpt><trkpt lat="43.1619842" lon="12.3596142"><ele>336.66666666666663</ele><time>2026-04-12T07:54:34.013Z</time></trkpt><trkpt lat="43.161913" lon="12.3595184"><ele>339.3333333333333</ele><time>2026-04-12T07:54:38.011Z</time></trkpt><trkpt lat="43.1618659" lon="12.359459"><ele>342.0</ele><time>2026-04-12T07:54:41.016Z</time></trkpt><trkpt lat="43.1619128" lon="12.3593982"><ele>344.6666666666667</ele><time>2026-04-12T07:54:46.011Z</time></trkpt><trkpt lat="43.1619785" lon="12.3594219"><ele>347.33333333333337</ele><time>2026-04-12T07:54:49.017Z</time></trkpt><trkpt lat="43.1620531" lon="12.3594539"><ele>350.0</ele><time>2026-04-12T07:54:52.013Z</time></trkpt><trkpt lat="43.162135" lon="12.3594961"><ele>350.0</ele><time>2026-04-12T07:54:55.012Z</time></trkpt><trkpt lat="43.1622116" lon="12.3595307"><ele>350.0</ele><time>2026-04-12T07:54:58.011Z</time></trkpt><trkpt lat="43.1622868" lon="12.3595796"><ele>350.0</ele><time>2026-04-12T07:55:01.012Z</time></trkpt><trkpt lat="43.1623536" lon="12.3596287"><ele>350.0</ele><time>2026-04-12T07:55:04.014Z</time></trkpt><trkpt lat="43.1624431" lon="12.3596637"><ele>350.0</ele><time>2026-04-12T07:55:07.019Z</time></trkpt><trkpt lat="43.1625235" lon="12.3596949"><ele>350.0</ele><time>2026-04-12T07:55:10.01Z</time></trkpt><trkpt lat="43.1626055" lon="12.3597236"><ele>349.0</ele><time>2026-04-12T07:55:13.011Z</time></trkpt><trkpt lat="43.1626737" lon="12.3597567"><ele>348.0</ele><time>2026-04-12T07:55:16.009Z</time></trkpt><trkpt lat="43.1627445" lon="12.3597793"><ele>347.0</ele><time>2026-04-12T07:55:19.014Z</time></trkpt><trkpt lat="43.1628122" lon="12.3598193"><ele>346.0</ele><time>2026-04-12T07:55:22.009Z</time></trkpt><trkpt lat="43.1628718" lon="12.3598603"><ele>345.0</ele><time>2026-04-12T07:55:25.015Z</time></trkpt><trkpt lat="43.1629351" lon="12.3598961"><ele>344.0</ele><time>2026-04-12T07:55:28.991Z</time></trkpt><trkpt lat="43.1629714" lon="12.3599834"><ele>343.0</ele><time>2026-04-12T07:55:33.011Z</time></trkpt><trkpt lat="43.1629671" lon="12.3600711"><ele>343.0</ele><time>2026-04-12T07:55:36.009Z</time></trkpt><trkpt lat="43.1629564" lon="12.3601597"><ele>343.0</ele><time>2026-04-12T07:55:39.012Z</time></trkpt><trkpt lat="43.1629623" lon="12.3602585"><ele>343.0</ele><time>2026-04-12T07:55:42.012Z</time></trkpt><trkpt lat="43.1629887" lon="12.3603484"><ele>343.0</ele><time>2026-04-12T07:55:45.011Z</time></trkpt><trkpt lat="43.1630232" lon="12.3604303"><ele>343.0</ele><time>2026-04-12T07:55:48.106Z</time></trkpt><trkpt lat="43.163064" lon="12.3604998"><ele>343.0</ele><time>2026-04-12T07:55:51.009Z</time></trkpt><trkpt lat="43.1631072" lon="12.3605741"><ele>343.0</ele><time>2026-04-12T07:55:54.013Z</time></trkpt><trkpt lat="43.1631464" lon="12.3606523"><ele>341.7142857142857</ele><time>2026-04-12T07:55:57.013Z</time></trkpt><trkpt lat="43.1631832" lon="12.3607305"><ele>340.42857142857144</ele><time>2026-04-12T07:56:00.013Z</time></trkpt><trkpt lat="43.1632175" lon="12.3608074"><ele>339.1428571428571</ele><time>2026-04-12T07:56:03.015Z</time></trkpt><trkpt lat="43.1632691" lon="12.3608795"><ele>337.8571428571429</ele><time>2026-04-12T07:56:06.012Z</time></trkpt><trkpt lat="43.1633217" lon="12.3609318"><ele>336.57142857142856</ele><time>2026-04-12T07:56:09.014Z</time></trkpt><trkpt lat="43.1634166" lon="12.3609907"><ele>335.2857142857143</ele><time>2026-04-12T07:56:13.015Z</time></trkpt><trkpt lat="43.1634786" lon="12.3610263"><ele>334.0</ele><time>2026-04-12T07:56:16.014Z</time></trkpt><trkpt lat="43.1635406" lon="12.3610539"><ele>337.0</ele><time>2026-04-12T07:56:19.028Z</time></trkpt><trkpt lat="43.1635986" lon="12.3610918"><ele>340.0</ele><time>2026-04-12T07:56:22.017Z</time></trkpt><trkpt lat="43.1636665" lon="12.3611063"><ele>343.0</ele><time>2026-04-12T07:56:24.996Z</time></trkpt><trkpt lat="43.1637349" lon="12.361104"><ele>346.0</ele><time>2026-04-12T07:56:28.011Z</time></trkpt><trkpt lat="43.1638067" lon="12.3611085"><ele>349.0</ele><time>2026-04-12T07:56:31.011Z</time></trkpt><trkpt lat="43.1638783" lon="12.3611156"><ele>352.0</ele><time>2026-04-12T07:56:34.015Z</time></trkpt><trkpt lat="43.1639543" lon="12.3611272"><ele>355.0</ele><time>2026-04-12T07:56:37.011Z</time></trkpt><trkpt lat="43.164026" lon="12.3611437"><ele>355.42857142857144</ele><time>2026-04-12T07:56:40.011Z</time></trkpt><trkpt lat="43.1640953" lon="12.3611594"><ele>355.8571428571429</ele><time>2026-04-12T07:56:42.999Z</time></trkpt><trkpt lat="43.1641718" lon="12.3611624"><ele>356.28571428571433</ele><time>2026-04-12T07:56:46.011Z</time></trkpt><trkpt lat="43.1642418" lon="12.3611851"><ele>356.7142857142857</ele><time>2026-04-12T07:56:49.012Z</time></trkpt><trkpt lat="43.1643039" lon="12.3612305"><ele>357.14285714285717</ele><time>2026-04-12T07:56:52.012Z</time></trkpt><trkpt lat="43.1643586" lon="12.3612911"><ele>357.5714285714286</ele><time>2026-04-12T07:56:54.998Z</time></trkpt><trkpt lat="43.164419" lon="12.3613632"><ele>358.0</ele><time>2026-04-12T07:56:58.012Z</time></trkpt><trkpt lat="43.1644633" lon="12.3614364"><ele>358.00000000000006</ele><time>2026-04-12T07:57:01.012Z</time></trkpt><trkpt lat="43.1645079" lon="12.3615032"><ele>358.0</ele><time>2026-04-12T07:57:04.012Z</time></trkpt><trkpt lat="43.164555" lon="12.3615704"><ele>358.0</ele><time>2026-04-12T07:57:07.013Z</time></trkpt><trkpt lat="43.1646027" lon="12.361637"><ele>358.0</ele><time>2026-04-12T07:57:10.012Z</time></trkpt><trkpt lat="43.1646486" lon="12.3617167"><ele>358.0</ele><time>2026-04-12T07:57:13.013Z</time></trkpt><trkpt lat="43.1647002" lon="12.3617941"><ele>358.00000000000006</ele><time>2026-04-12T07:57:15.999Z</time></trkpt><trkpt lat="43.1647569" lon="12.3618566"><ele>358.0</ele><time>2026-04-12T07:57:18.998Z</time></trkpt><trkpt lat="43.1648193" lon="12.3619127"><ele>358.42857142857144</ele><time>2026-04-12T07:57:22.013Z</time></trkpt><trkpt lat="43.1648753" lon="12.3619788"><ele>358.8571428571429</ele><time>2026-04-12T07:57:25.015Z</time></trkpt><trkpt lat="43.1649244" lon="12.3620491"><ele>359.28571428571433</ele><time>2026-04-12T07:57:28.013Z</time></trkpt><trkpt lat="43.1649773" lon="12.3621114"><ele>359.7142857142857</ele><time>2026-04-12T07:57:31.013Z</time></trkpt><trkpt lat="43.1650318" lon="12.3621742"><ele>360.1428571428571</ele><time>2026-04-12T07:57:34.011Z</time></trkpt><trkpt lat="43.1650935" lon="12.3622286"><ele>360.5714285714286</ele><time>2026-04-12T07:57:37.001Z</time></trkpt><trkpt lat="43.1651537" lon="12.3622792"><ele>361.0</ele><time>2026-04-12T07:57:40.012Z</time></trkpt><trkpt lat="43.1652211" lon="12.3623146"><ele>361.0</ele><time>2026-04-12T07:57:43.016Z</time></trkpt><trkpt lat="43.1652915" lon="12.362341"><ele>361.0</ele><time>2026-04-12T07:57:46.012Z</time></trkpt><trkpt lat="43.1653581" lon="12.3623796"><ele>361.0</ele><time>2026-04-12T07:57:49.012Z</time></trkpt><trkpt lat="43.1654225" lon="12.3624161"><ele>361.0</ele><time>2026-04-12T07:57:52.007Z</time></trkpt><trkpt lat="43.1654874" lon="12.3624472"><ele>361.0</ele><time>2026-04-12T07:57:56.012Z</time></trkpt><trkpt lat="43.165539" lon="12.3625052"><ele>361.0</ele><time>2026-04-12T07:58:00.013Z</time></trkpt><trkpt lat="43.1655961" lon="12.3625602"><ele>361.0</ele><time>2026-04-12T07:58:03.013Z</time></trkpt><trkpt lat="43.1656545" lon="12.3626041"><ele>365.3333333333333</ele><time>2026-04-12T07:58:06.994Z</time></trkpt><trkpt lat="43.1657263" lon="12.3626488"><ele>369.66666666666663</ele><time>2026-04-12T07:58:12Z</time></trkpt><trkpt lat="43.165803" lon="12.3626862"><ele>374.0</ele><time>2026-04-12T07:58:14.996Z</time></trkpt><trkpt lat="43.1658609" lon="12.362721"><ele>378.3333333333333</ele><time>2026-04-12T07:58:16.998Z</time></trkpt><trkpt lat="43.1659361" lon="12.3627703"><ele>382.6666666666667</ele><time>2026-04-12T07:58:19.995Z</time></trkpt><trkpt lat="43.1660272" lon="12.362794"><ele>387.0</ele><time>2026-04-12T07:58:23.003Z</time></trkpt><trkpt lat="43.1661071" lon="12.3628431"><ele>387.0</ele><time>2026-04-12T07:58:26.014Z</time></trkpt><trkpt lat="43.1661878" lon="12.3628595"><ele>387.0</ele><time>2026-04-12T07:58:29.014Z</time></trkpt><trkpt lat="43.1662648" lon="12.3628476"><ele>387.0</ele><time>2026-04-12T07:58:32.013Z</time></trkpt><trkpt lat="43.1663483" lon="12.3628491"><ele>387.0</ele><time>2026-04-12T07:58:35.013Z</time></trkpt><trkpt lat="43.1664302" lon="12.3628296"><ele>387.0</ele><time>2026-04-12T07:58:38.013Z</time></trkpt><trkpt lat="43.1665029" lon="12.3627878"><ele>387.0</ele><time>2026-04-12T07:58:41.012Z</time></trkpt><trkpt lat="43.1665659" lon="12.3627481"><ele>387.57142857142856</ele><time>2026-04-12T07:58:44.014Z</time></trkpt><trkpt lat="43.1666327" lon="12.3627295"><ele>388.14285714285717</ele><time>2026-04-12T07:58:47.013Z</time></trkpt><trkpt lat="43.1667063" lon="12.3627053"><ele>388.71428571428567</ele><time>2026-04-12T07:58:51.011Z</time></trkpt><trkpt lat="43.1667714" lon="12.3627038"><ele>389.2857142857143</ele><time>2026-04-12T07:58:54.009Z</time></trkpt><trkpt lat="43.1668457" lon="12.3626927"><ele>389.85714285714283</ele><time>2026-04-12T07:58:58.011Z</time></trkpt><trkpt lat="43.1669097" lon="12.3626706"><ele>390.4285714285714</ele><time>2026-04-12T07:59:01.013Z</time></trkpt><trkpt lat="43.1669721" lon="12.3626265"><ele>391.0</ele><time>2026-04-12T07:59:03.995Z</time></trkpt><trkpt lat="43.1670349" lon="12.3626051"><ele>390.99999999999994</ele><time>2026-04-12T07:59:06.998Z</time></trkpt><trkpt lat="43.1671022" lon="12.3625652"><ele>391.0</ele><time>2026-04-12T07:59:10.013Z</time></trkpt><trkpt lat="43.1671601" lon="12.3625293"><ele>391.0</ele><time>2026-04-12T07:59:13.014Z</time></trkpt><trkpt lat="43.1672208" lon="12.3624921"><ele>391.0</ele><time>2026-04-12T07:59:16.013Z</time></trkpt><trkpt lat="43.1672902" lon="12.3624419"><ele>391.0</ele><time>2026-04-12T07:59:19.015Z</time></trkpt><trkpt lat="43.167363" lon="12.3623825"><ele>390.99999999999994</ele><time>2026-04-12T07:59:22.013Z</time></trkpt><trkpt lat="43.1674389" lon="12.3623478"><ele>391.0</ele><time>2026-04-12T07:59:25.011Z</time></trkpt><trkpt lat="43.1675129" lon="12.3623257"><ele>391.1666666666667</ele><time>2026-04-12T07:59:29.016Z</time></trkpt><trkpt lat="43.1675926" lon="12.3623061"><ele>391.33333333333337</ele><time>2026-04-12T07:59:33.012Z</time></trkpt><trkpt lat="43.1676762" lon="12.3622934"><ele>391.5</ele><time>2026-04-12T07:59:37.012Z</time></trkpt><trkpt lat="43.1677553" lon="12.3623018"><ele>391.66666666666663</ele><time>2026-04-12T07:59:41.011Z</time></trkpt><trkpt lat="43.1678313" lon="12.3623145"><ele>391.8333333333333</ele><time>2026-04-12T07:59:43.999Z</time></trkpt><trkpt lat="43.1678945" lon="12.3623079"><ele>392.0</ele><time>2026-04-12T07:59:45.996Z</time></trkpt><trkpt lat="43.1679593" lon="12.3622937"><ele>391.99999999999994</ele><time>2026-04-12T07:59:48.014Z</time></trkpt><trkpt lat="43.1680441" lon="12.3622729"><ele>392.0</ele><time>2026-04-12T07:59:51.012Z</time></trkpt><trkpt lat="43.1681219" lon="12.3622615"><ele>392.0</ele><time>2026-04-12T07:59:54.012Z</time></trkpt><trkpt lat="43.1682037" lon="12.3622555"><ele>392.0</ele><time>2026-04-12T07:59:57.002Z</time></trkpt><trkpt lat="43.1682867" lon="12.362244"><ele>391.99999999999994</ele><time>2026-04-12T08:00:00.015Z</time></trkpt><trkpt lat="43.168368" lon="12.3622347"><ele>392.0</ele><time>2026-04-12T08:00:03.012Z</time></trkpt><trkpt lat="43.1684497" lon="12.3622192"><ele>392.2857142857143</ele><time>2026-04-12T08:00:06.001Z</time></trkpt><trkpt lat="43.1685291" lon="12.3622012"><ele>392.57142857142856</ele><time>2026-04-12T08:00:09.009Z</time></trkpt><trkpt lat="43.1686067" lon="12.3621885"><ele>392.8571428571429</ele><time>2026-04-12T08:00:12.015Z</time></trkpt><trkpt lat="43.1686849" lon="12.3621732"><ele>393.1428571428571</ele><time>2026-04-12T08:00:15.012Z</time></trkpt><trkpt lat="43.1687576" lon="12.362165"><ele>393.42857142857144</ele><time>2026-04-12T08:00:18Z</time></trkpt><trkpt lat="43.1688274" lon="12.3621588"><ele>393.7142857142857</ele><time>2026-04-12T08:00:21Z</time></trkpt><trkpt lat="43.1688953" lon="12.3621508"><ele>394.0</ele><time>2026-04-12T08:00:24.016Z</time></trkpt><trkpt lat="43.1689659" lon="12.3621315"><ele>397.7142857142857</ele><time>2026-04-12T08:00:27.012Z</time></trkpt><trkpt lat="43.169034" lon="12.3621163"><ele>401.42857142857144</ele><time>2026-04-12T08:00:30.014Z</time></trkpt><trkpt lat="43.1691012" lon="12.362092"><ele>405.1428571428571</ele><time>2026-04-12T08:00:33.018Z</time></trkpt><trkpt lat="43.1691649" lon="12.3620511"><ele>408.8571428571429</ele><time>2026-04-12T08:00:36.012Z</time></trkpt><trkpt lat="43.1692279" lon="12.362013"><ele>412.57142857142856</ele><time>2026-04-12T08:00:39.011Z</time></trkpt><trkpt lat="43.1692869" lon="12.3619645"><ele>416.2857142857143</ele><time>2026-04-12T08:00:42.011Z</time></trkpt><trkpt lat="43.1693488" lon="12.3619284"><ele>420.0</ele><time>2026-04-12T08:00:45.011Z</time></trkpt><trkpt lat="43.1694111" lon="12.3618933"><ele>420.0</ele><time>2026-04-12T08:00:48.014Z</time></trkpt><trkpt lat="43.1694709" lon="12.3618553"><ele>420.0</ele><time>2026-04-12T08:00:51.013Z</time></trkpt><trkpt lat="43.1695345" lon="12.3618259"><ele>420.0</ele><time>2026-04-12T08:00:54.012Z</time></trkpt><trkpt lat="43.1695958" lon="12.3617809"><ele>420.0</ele><time>2026-04-12T08:00:57.002Z</time></trkpt><trkpt lat="43.1696626" lon="12.3617436"><ele>420.0</ele><time>2026-04-12T08:01:00.013Z</time></trkpt><trkpt lat="43.1697268" lon="12.3617031"><ele>420.0</ele><time>2026-04-12T08:01:03.01Z</time></trkpt><trkpt lat="43.169789" lon="12.3616753"><ele>420.0</ele><time>2026-04-12T08:01:06.013Z</time></trkpt><trkpt lat="43.1698569" lon="12.3616419"><ele>418.85714285714283</ele><time>2026-04-12T08:01:09.011Z</time></trkpt><trkpt lat="43.1699248" lon="12.3616136"><ele>417.7142857142857</ele><time>2026-04-12T08:01:11.995Z</time></trkpt><trkpt lat="43.1699918" lon="12.361578"><ele>416.57142857142856</ele><time>2026-04-12T08:01:15.013Z</time></trkpt><trkpt lat="43.1700592" lon="12.36156"><ele>415.42857142857144</ele><time>2026-04-12T08:01:18.009Z</time></trkpt><trkpt lat="43.1701272" lon="12.3615487"><ele>414.2857142857143</ele><time>2026-04-12T08:01:21.014Z</time></trkpt><trkpt lat="43.1701978" lon="12.3615196"><ele>413.1428571428571</ele><time>2026-04-12T08:01:24.011Z</time></trkpt><trkpt lat="43.1702688" lon="12.3614922"><ele>412.0</ele><time>2026-04-12T08:01:27.013Z</time></trkpt><trkpt lat="43.1703397" lon="12.3614507"><ele>411.99999999999994</ele><time>2026-04-12T08:01:30.012Z</time></trkpt><trkpt lat="43.1704163" lon="12.3614001"><ele>412.0</ele><time>2026-04-12T08:01:33.011Z</time></trkpt><trkpt lat="43.1704895" lon="12.3613774"><ele>412.0</ele><time>2026-04-12T08:01:36.009Z</time></trkpt><trkpt lat="43.1705601" lon="12.3613484"><ele>412.0</ele><time>2026-04-12T08:01:39.011Z</time></trkpt><trkpt lat="43.1706246" lon="12.3613107"><ele>412.0</ele><time>2026-04-12T08:01:42.011Z</time></trkpt><trkpt lat="43.170689" lon="12.3612681"><ele>411.99999999999994</ele><time>2026-04-12T08:01:45.011Z</time></trkpt><trkpt lat="43.1707446" lon="12.3612085"><ele>412.0</ele><time>2026-04-12T08:01:48.011Z</time></trkpt><trkpt lat="43.1707974" lon="12.3611468"><ele>413.99999999999994</ele><time>2026-04-12T08:01:51.009Z</time></trkpt><trkpt lat="43.1708475" lon="12.3610794"><ele>416.0</ele><time>2026-04-12T08:01:54.012Z</time></trkpt><trkpt lat="43.1708924" lon="12.3609991"><ele>418.0</ele><time>2026-04-12T08:01:57.001Z</time></trkpt><trkpt lat="43.1709408" lon="12.3609166"><ele>420.0</ele><time>2026-04-12T08:02:00Z</time></trkpt><trkpt lat="43.1709901" lon="12.360834"><ele>422.0</ele><time>2026-04-12T08:02:02.999Z</time></trkpt><trkpt lat="43.1710378" lon="12.3607576"><ele>423.99999999999994</ele><time>2026-04-12T08:02:06.022Z</time></trkpt><trkpt lat="43.171083" lon="12.3606844"><ele>426.0</ele><time>2026-04-12T08:02:09.011Z</time></trkpt><trkpt lat="43.1711311" lon="12.3606186"><ele>425.99999999999994</ele><time>2026-04-12T08:02:12.012Z</time></trkpt><trkpt lat="43.1711822" lon="12.3605557"><ele>426.0</ele><time>2026-04-12T08:02:15.007Z</time></trkpt><trkpt lat="43.1712283" lon="12.3604926"><ele>426.0</ele><time>2026-04-12T08:02:18.013Z</time></trkpt><trkpt lat="43.171276" lon="12.3604266"><ele>426.0</ele><time>2026-04-12T08:02:21.014Z</time></trkpt><trkpt lat="43.1713246" lon="12.3603649"><ele>426.0</ele><time>2026-04-12T08:02:24.013Z</time></trkpt><trkpt lat="43.1713754" lon="12.3603082"><ele>425.99999999999994</ele><time>2026-04-12T08:02:27.013Z</time></trkpt><trkpt lat="43.1714223" lon="12.3602489"><ele>426.0</ele><time>2026-04-12T08:02:30.012Z</time></trkpt><trkpt lat="43.1714744" lon="12.3601838"><ele>427.57142857142856</ele><time>2026-04-12T08:02:33.012Z</time></trkpt><trkpt lat="43.1715263" lon="12.3601148"><ele>429.1428571428571</ele><time>2026-04-12T08:02:36.012Z</time></trkpt><trkpt lat="43.1715873" lon="12.3600589"><ele>430.71428571428567</ele><time>2026-04-12T08:02:38.998Z</time></trkpt><trkpt lat="43.1716533" lon="12.3600451"><ele>432.2857142857143</ele><time>2026-04-12T08:02:41.998Z</time></trkpt><trkpt lat="43.171724" lon="12.3600411"><ele>433.8571428571429</ele><time>2026-04-12T08:02:45.013Z</time></trkpt><trkpt lat="43.1717931" lon="12.3600336"><ele>435.4285714285714</ele><time>2026-04-12T08:02:48.012Z</time></trkpt><trkpt lat="43.1718629" lon="12.3600227"><ele>437.0</ele><time>2026-04-12T08:02:51.011Z</time></trkpt><trkpt lat="43.1719321" lon="12.3599974"><ele>436.99999999999994</ele><time>2026-04-12T08:02:53.997Z</time></trkpt><trkpt lat="43.1720008" lon="12.3599558"><ele>437.0</ele><time>2026-04-12T08:02:57.004Z</time></trkpt><trkpt lat="43.1720633" lon="12.359911"><ele>437.0</ele><time>2026-04-12T08:02:59.995Z</time></trkpt><trkpt lat="43.1721228" lon="12.3598512"><ele>437.0</ele><time>2026-04-12T08:03:03.022Z</time></trkpt><trkpt lat="43.1721856" lon="12.3597959"><ele>436.99999999999994</ele><time>2026-04-12T08:03:06.003Z</time></trkpt><trkpt lat="43.1722503" lon="12.3597347"><ele>437.0</ele><time>2026-04-12T08:03:09Z</time></trkpt><trkpt lat="43.1723182" lon="12.3596805"><ele>439.0</ele><time>2026-04-12T08:03:12Z</time></trkpt><trkpt lat="43.1723781" lon="12.3596265"><ele>441.0</ele><time>2026-04-12T08:03:14.999Z</time></trkpt><trkpt lat="43.1724427" lon="12.3595885"><ele>443.0</ele><time>2026-04-12T08:03:18.001Z</time></trkpt><trkpt lat="43.1725004" lon="12.3595384"><ele>445.0</ele><time>2026-04-12T08:03:21.01Z</time></trkpt><trkpt lat="43.1725538" lon="12.35949"><ele>447.0</ele><time>2026-04-12T08:03:24.005Z</time></trkpt><trkpt lat="43.1726091" lon="12.3594469"><ele>449.0</ele><time>2026-04-12T08:03:27.015Z</time></trkpt><trkpt lat="43.1726803" lon="12.3594015"><ele>451.0</ele><time>2026-04-12T08:03:31.012Z</time></trkpt><trkpt lat="43.1727409" lon="12.359324"><ele>451.00000000000006</ele><time>2026-04-12T08:03:35.016Z</time></trkpt><trkpt lat="43.1727776" lon="12.3592133"><ele>451.0</ele><time>2026-04-12T08:03:38.012Z</time></trkpt><trkpt lat="43.1727955" lon="12.3591059"><ele>451.0</ele><time>2026-04-12T08:03:41.013Z</time></trkpt><trkpt lat="43.1727954" lon="12.3589919"><ele>451.0</ele><time>2026-04-12T08:03:44.008Z</time></trkpt><trkpt lat="43.1727937" lon="12.3588833"><ele>451.00000000000006</ele><time>2026-04-12T08:03:47.002Z</time></trkpt><trkpt lat="43.1727913" lon="12.3587751"><ele>451.0</ele><time>2026-04-12T08:03:50.013Z</time></trkpt><trkpt lat="43.1727912" lon="12.3586454"><ele>451.6666666666667</ele><time>2026-04-12T08:03:53.013Z</time></trkpt><trkpt lat="43.172795" lon="12.3585219"><ele>452.33333333333337</ele><time>2026-04-12T08:03:56.008Z</time></trkpt><trkpt lat="43.1728041" lon="12.3584066"><ele>453.0</ele><time>2026-04-12T08:03:59.015Z</time></trkpt><trkpt lat="43.1728137" lon="12.3582996"><ele>453.66666666666663</ele><time>2026-04-12T08:04:02.015Z</time></trkpt><trkpt lat="43.1728196" lon="12.3581911"><ele>454.3333333333333</ele><time>2026-04-12T08:04:05.015Z</time></trkpt><trkpt lat="43.1728249" lon="12.3580896"><ele>455.0</ele><time>2026-04-12T08:04:08.011Z</time></trkpt><trkpt lat="43.1728252" lon="12.3579883"><ele>454.99999999999994</ele><time>2026-04-12T08:04:11.02Z</time></trkpt><trkpt lat="43.172811" lon="12.3578907"><ele>455.0</ele><time>2026-04-12T08:04:14.011Z</time></trkpt><trkpt lat="43.1727982" lon="12.3577945"><ele>455.0</ele><time>2026-04-12T08:04:17.013Z</time></trkpt><trkpt lat="43.1727865" lon="12.3576873"><ele>455.0</ele><time>2026-04-12T08:04:20.013Z</time></trkpt><trkpt lat="43.172761" lon="12.3575804"><ele>454.99999999999994</ele><time>2026-04-12T08:04:23.011Z</time></trkpt><trkpt lat="43.1727398" lon="12.3574727"><ele>455.0</ele><time>2026-04-12T08:04:26.114Z</time></trkpt><trkpt lat="43.1727218" lon="12.3573675"><ele>454.99999999999994</ele><time>2026-04-12T08:04:29.016Z</time></trkpt><trkpt lat="43.1727257" lon="12.3572651"><ele>455.0</ele><time>2026-04-12T08:04:32.001Z</time></trkpt><trkpt lat="43.1727517" lon="12.357162"><ele>455.0</ele><time>2026-04-12T08:04:34.997Z</time></trkpt><trkpt lat="43.1727977" lon="12.3570705"><ele>455.0</ele><time>2026-04-12T08:04:38.121Z</time></trkpt><trkpt lat="43.1728595" lon="12.3570079"><ele>454.99999999999994</ele><time>2026-04-12T08:04:41.01Z</time></trkpt><trkpt lat="43.1729217" lon="12.3569793"><ele>455.0</ele><time>2026-04-12T08:04:43.996Z</time></trkpt><trkpt lat="43.1729917" lon="12.3569149"><ele>456.1428571428571</ele><time>2026-04-12T08:04:47.015Z</time></trkpt><trkpt lat="43.1730522" lon="12.3568408"><ele>457.2857142857143</ele><time>2026-04-12T08:04:50.015Z</time></trkpt><trkpt lat="43.1731012" lon="12.3567345"><ele>458.42857142857144</ele><time>2026-04-12T08:04:53.007Z</time></trkpt><trkpt lat="43.1731217" lon="12.3566511"><ele>459.57142857142856</ele><time>2026-04-12T08:04:54.998Z</time></trkpt><trkpt lat="43.1731272" lon="12.3565616"><ele>460.71428571428567</ele><time>2026-04-12T08:04:57.001Z</time></trkpt><trkpt lat="43.1731143" lon="12.3564744"><ele>461.85714285714283</ele><time>2026-04-12T08:04:58.992Z</time></trkpt><trkpt lat="43.1730989" lon="12.3563844"><ele>463.0</ele><time>2026-04-12T08:05:00.994Z</time></trkpt><trkpt lat="43.173081" lon="12.3562872"><ele>463.33333333333337</ele><time>2026-04-12T08:05:03.01Z</time></trkpt><trkpt lat="43.1730645" lon="12.3561918"><ele>463.6666666666667</ele><time>2026-04-12T08:05:05.014Z</time></trkpt><trkpt lat="43.1730413" lon="12.3560609"><ele>464.0</ele><time>2026-04-12T08:05:08.016Z</time></trkpt><trkpt lat="43.1730268" lon="12.3559664"><ele>464.33333333333337</ele><time>2026-04-12T08:05:10.003Z</time></trkpt><trkpt lat="43.1730107" lon="12.3558728"><ele>464.6666666666667</ele><time>2026-04-12T08:05:12.011Z</time></trkpt><trkpt lat="43.1729943" lon="12.3557792"><ele>465.0</ele><time>2026-04-12T08:05:14.012Z</time></trkpt><trkpt lat="43.1729745" lon="12.3556849"><ele>465.0</ele><time>2026-04-12T08:05:16.013Z</time></trkpt><trkpt lat="43.172958" lon="12.3555947"><ele>465.0</ele><time>2026-04-12T08:05:18.012Z</time></trkpt><trkpt lat="43.172946" lon="12.3555054"><ele>465.0</ele><time>2026-04-12T08:05:20.014Z</time></trkpt><trkpt lat="43.1729458" lon="12.3554182"><ele>465.0</ele><time>2026-04-12T08:05:22.011Z</time></trkpt><trkpt lat="43.1729632" lon="12.3552995"><ele>465.0</ele><time>2026-04-12T08:05:25.017Z</time></trkpt><trkpt lat="43.1730138" lon="12.3552079"><ele>465.0</ele><time>2026-04-12T08:05:28.009Z</time></trkpt><trkpt lat="43.1731036" lon="12.3551407"><ele>465.2857142857143</ele><time>2026-04-12T08:05:31.017Z</time></trkpt><trkpt lat="43.173163" lon="12.3551044"><ele>465.57142857142856</ele><time>2026-04-12T08:05:33.012Z</time></trkpt><trkpt lat="43.1732272" lon="12.3550638"><ele>465.85714285714283</ele><time>2026-04-12T08:05:35.01Z</time></trkpt><trkpt lat="43.1732919" lon="12.3550172"><ele>466.1428571428571</ele><time>2026-04-12T08:05:37.001Z</time></trkpt><trkpt lat="43.1733557" lon="12.3549618"><ele>466.42857142857144</ele><time>2026-04-12T08:05:39.011Z</time></trkpt><trkpt lat="43.1734154" lon="12.3549109"><ele>466.71428571428567</ele><time>2026-04-12T08:05:41.009Z</time></trkpt><trkpt lat="43.1734701" lon="12.3548575"><ele>466.99999999999994</ele><time>2026-04-12T08:05:43.011Z</time></trkpt><trkpt lat="43.1735213" lon="12.3548035"><ele>467.6</ele><time>2026-04-12T08:05:45.011Z</time></trkpt><trkpt lat="43.1735813" lon="12.3547665"><ele>468.20000000000005</ele><time>2026-04-12T08:05:47.012Z</time></trkpt><trkpt lat="43.1736653" lon="12.3547725"><ele>468.8</ele><time>2026-04-12T08:05:50.015Z</time></trkpt><trkpt lat="43.1737431" lon="12.3547571"><ele>469.4</ele><time>2026-04-12T08:05:52.012Z</time></trkpt><trkpt lat="43.1738996" lon="12.3546437"><ele>470.0</ele><time>2026-04-12T08:05:54.012Z</time></trkpt><trkpt lat="43.1739812" lon="12.3546181"><ele>468.0</ele><time>2026-04-12T08:05:56.013Z</time></trkpt><trkpt lat="43.1740576" lon="12.3545885"><ele>466.0</ele><time>2026-04-12T08:05:58.012Z</time></trkpt><trkpt lat="43.1741462" lon="12.3545321"><ele>464.0</ele><time>2026-04-12T08:06:00.018Z</time></trkpt><trkpt lat="43.1742405" lon="12.3544583"><ele>462.0</ele><time>2026-04-12T08:06:01.996Z</time></trkpt><trkpt lat="43.1743212" lon="12.3543947"><ele>460.0</ele><time>2026-04-12T08:06:03.996Z</time></trkpt><trkpt lat="43.174444" lon="12.3543048"><ele>460.00000000000006</ele><time>2026-04-12T08:06:07.009Z</time></trkpt><trkpt lat="43.1745157" lon="12.3542384"><ele>460.0</ele><time>2026-04-12T08:06:08.995Z</time></trkpt><trkpt lat="43.1745893" lon="12.3541684"><ele>460.0</ele><time>2026-04-12T08:06:11.112Z</time></trkpt><trkpt lat="43.1746545" lon="12.3541076"><ele>460.0</ele><time>2026-04-12T08:06:13.01Z</time></trkpt><trkpt lat="43.1747349" lon="12.3540605"><ele>460.00000000000006</ele><time>2026-04-12T08:06:15.009Z</time></trkpt><trkpt lat="43.1748089" lon="12.3539963"><ele>460.0</ele><time>2026-04-12T08:06:17.012Z</time></trkpt><trkpt lat="43.1748913" lon="12.3539341"><ele>459.1666666666667</ele><time>2026-04-12T08:06:20.008Z</time></trkpt><trkpt lat="43.1749483" lon="12.3538702"><ele>458.33333333333337</ele><time>2026-04-12T08:06:22.011Z</time></trkpt><trkpt lat="43.1750131" lon="12.3538176"><ele>457.5</ele><time>2026-04-12T08:06:25.012Z</time></trkpt><trkpt lat="43.1750919" lon="12.353781"><ele>456.66666666666663</ele><time>2026-04-12T08:06:28.011Z</time></trkpt><trkpt lat="43.175156" lon="12.3537155"><ele>455.8333333333333</ele><time>2026-04-12T08:06:30.011Z</time></trkpt><trkpt lat="43.1752295" lon="12.3536546"><ele>455.0</ele><time>2026-04-12T08:06:32.016Z</time></trkpt><trkpt lat="43.1752984" lon="12.3535948"><ele>454.99999999999994</ele><time>2026-04-12T08:06:34.012Z</time></trkpt><trkpt lat="43.175355" lon="12.3535387"><ele>455.0</ele><time>2026-04-12T08:06:36.012Z</time></trkpt><trkpt lat="43.1754394" lon="12.3534842"><ele>455.0</ele><time>2026-04-12T08:06:39.004Z</time></trkpt><trkpt lat="43.1755029" lon="12.3534488"><ele>455.0</ele><time>2026-04-12T08:06:41.011Z</time></trkpt><trkpt lat="43.1755785" lon="12.3533953"><ele>454.99999999999994</ele><time>2026-04-12T08:06:43.01Z</time></trkpt><trkpt lat="43.1756493" lon="12.3533385"><ele>455.0</ele><time>2026-04-12T08:06:45.014Z</time></trkpt><trkpt lat="43.1757159" lon="12.3532879"><ele>455.0</ele><time>2026-04-12T08:06:47.017Z</time></trkpt><trkpt lat="43.1757845" lon="12.3532372"><ele>455.0</ele><time>2026-04-12T08:06:49.012Z</time></trkpt><trkpt lat="43.1758517" lon="12.353186"><ele>455.0</ele><time>2026-04-12T08:06:51.011Z</time></trkpt><trkpt lat="43.1759141" lon="12.3531332"><ele>455.0</ele><time>2026-04-12T08:06:52.998Z</time></trkpt><trkpt lat="43.1759721" lon="12.3530801"><ele>455.0</ele><time>2026-04-12T08:06:55.017Z</time></trkpt><trkpt lat="43.1760328" lon="12.3530339"><ele>455.0</ele><time>2026-04-12T08:06:57.012Z</time></trkpt><trkpt lat="43.1761005" lon="12.3529915"><ele>455.0</ele><time>2026-04-12T08:06:59.012Z</time></trkpt><trkpt lat="43.1761672" lon="12.3529729"><ele>455.0</ele><time>2026-04-12T08:07:01.012Z</time></trkpt><trkpt lat="43.1762313" lon="12.3529727"><ele>455.0</ele><time>2026-04-12T08:07:03.014Z</time></trkpt><trkpt lat="43.1762958" lon="12.352987"><ele>455.0</ele><time>2026-04-12T08:07:05.011Z</time></trkpt><trkpt lat="43.1763607" lon="12.3530095"><ele>455.0</ele><time>2026-04-12T08:07:07.012Z</time></trkpt><trkpt lat="43.1764261" lon="12.3530384"><ele>455.0</ele><time>2026-04-12T08:07:09.009Z</time></trkpt><trkpt lat="43.1764883" lon="12.3530731"><ele>455.0</ele><time>2026-04-12T08:07:11.009Z</time></trkpt><trkpt lat="43.1765477" lon="12.3531031"><ele>455.0</ele><time>2026-04-12T08:07:13.008Z</time></trkpt><trkpt lat="43.1766088" lon="12.3531283"><ele>455.99999999999994</ele><time>2026-04-12T08:07:15.012Z</time></trkpt><trkpt lat="43.1766978" lon="12.3531677"><ele>457.0</ele><time>2026-04-12T08:07:18.013Z</time></trkpt><trkpt lat="43.1767877" lon="12.3531876"><ele>458.0</ele><time>2026-04-12T08:07:21.02Z</time></trkpt><trkpt lat="43.1768521" lon="12.3531943"><ele>459.0</ele><time>2026-04-12T08:07:23.016Z</time></trkpt><trkpt lat="43.1769317" lon="12.3531998"><ele>459.99999999999994</ele><time>2026-04-12T08:07:26.016Z</time></trkpt><trkpt lat="43.1770149" lon="12.3531867"><ele>461.0</ele><time>2026-04-12T08:07:29.017Z</time></trkpt><trkpt lat="43.1770898" lon="12.3531781"><ele>460.99999999999994</ele><time>2026-04-12T08:07:32.011Z</time></trkpt><trkpt lat="43.1771561" lon="12.3531398"><ele>461.0</ele><time>2026-04-12T08:07:35.007Z</time></trkpt><trkpt lat="43.1772219" lon="12.3530729"><ele>461.0</ele><time>2026-04-12T08:07:38.002Z</time></trkpt><trkpt lat="43.1772823" lon="12.3529946"><ele>461.0</ele><time>2026-04-12T08:07:40.993Z</time></trkpt><trkpt lat="43.1773409" lon="12.3529299"><ele>460.99999999999994</ele><time>2026-04-12T08:07:43.991Z</time></trkpt><trkpt lat="43.1774086" lon="12.3529115"><ele>461.0</ele><time>2026-04-12T08:07:46.996Z</time></trkpt><trkpt lat="43.1774819" lon="12.3529164"><ele>462.42857142857144</ele><time>2026-04-12T08:07:49.994Z</time></trkpt><trkpt lat="43.1775578" lon="12.3529367"><ele>463.8571428571429</ele><time>2026-04-12T08:07:52.997Z</time></trkpt><trkpt lat="43.1776187" lon="12.3529971"><ele>465.28571428571433</ele><time>2026-04-12T08:07:55.999Z</time></trkpt><trkpt lat="43.1776612" lon="12.3530786"><ele>466.7142857142858</ele><time>2026-04-12T08:07:58.996Z</time></trkpt><trkpt lat="43.1776989" lon="12.353159"><ele>468.14285714285717</ele><time>2026-04-12T08:08:02.019Z</time></trkpt><trkpt lat="43.1777469" lon="12.353222"><ele>469.57142857142867</ele><time>2026-04-12T08:08:04.994Z</time></trkpt><trkpt lat="43.1778131" lon="12.3532496"><ele>471.00000000000006</ele><time>2026-04-12T08:08:08.003Z</time></trkpt><trkpt lat="43.1778872" lon="12.3532563"><ele>471.00000000000006</ele><time>2026-04-12T08:08:11.011Z</time></trkpt><trkpt lat="43.1779578" lon="12.3532388"><ele>471.0</ele><time>2026-04-12T08:08:14.008Z</time></trkpt><trkpt lat="43.1780276" lon="12.3532163"><ele>471.00000000000006</ele><time>2026-04-12T08:08:17.014Z</time></trkpt><trkpt lat="43.1780941" lon="12.3532012"><ele>471.00000000000006</ele><time>2026-04-12T08:08:20.009Z</time></trkpt><trkpt lat="43.1781598" lon="12.3531821"><ele>471.0</ele><time>2026-04-12T08:08:23.007Z</time></trkpt><trkpt lat="43.1782279" lon="12.3531602"><ele>471.00000000000006</ele><time>2026-04-12T08:08:26.008Z</time></trkpt><trkpt lat="43.1783056" lon="12.3531282"><ele>471.00000000000006</ele><time>2026-04-12T08:08:29.998Z</time></trkpt><trkpt lat="43.1783664" lon="12.353073"><ele>473.4285714285715</ele><time>2026-04-12T08:09:56.999Z</time></trkpt><trkpt lat="43.1784411" lon="12.3530349"><ele>475.8571428571429</ele><time>2026-04-12T08:10:01.018Z</time></trkpt><trkpt lat="43.178506" lon="12.3530068"><ele>478.2857142857143</ele><time>2026-04-12T08:10:04.01Z</time></trkpt><trkpt lat="43.1785696" lon="12.3529812"><ele>480.7142857142857</ele><time>2026-04-12T08:10:07.015Z</time></trkpt><trkpt lat="43.1786483" lon="12.3529482"><ele>483.1428571428571</ele><time>2026-04-12T08:10:11.018Z</time></trkpt><trkpt lat="43.1787107" lon="12.3529262"><ele>485.5714285714285</ele><time>2026-04-12T08:10:14.01Z</time></trkpt><trkpt lat="43.1787747" lon="12.3528972"><ele>487.99999999999994</ele><time>2026-04-12T08:10:17Z</time></trkpt><trkpt lat="43.1788411" lon="12.3528701"><ele>487.99999999999994</ele><time>2026-04-12T08:10:20.011Z</time></trkpt><trkpt lat="43.1789117" lon="12.3528402"><ele>488.0</ele><time>2026-04-12T08:10:23.006Z</time></trkpt><trkpt lat="43.1789804" lon="12.3528095"><ele>487.99999999999994</ele><time>2026-04-12T08:10:26.014Z</time></trkpt><trkpt lat="43.1790441" lon="12.3527664"><ele>487.99999999999994</ele><time>2026-04-12T08:10:29.113Z</time></trkpt><trkpt lat="43.1791061" lon="12.3527247"><ele>488.0</ele><time>2026-04-12T08:10:32.014Z</time></trkpt><trkpt lat="43.1791709" lon="12.3526823"><ele>487.99999999999994</ele><time>2026-04-12T08:10:35.01Z</time></trkpt><trkpt lat="43.1792428" lon="12.3526555"><ele>487.99999999999994</ele><time>2026-04-12T08:10:38.012Z</time></trkpt><trkpt lat="43.1793119" lon="12.3526206"><ele>489.2857142857142</ele><time>2026-04-12T08:10:40.997Z</time></trkpt><trkpt lat="43.1793831" lon="12.3525969"><ele>490.57142857142856</ele><time>2026-04-12T08:10:44.014Z</time></trkpt><trkpt lat="43.1794663" lon="12.3525837"><ele>491.85714285714283</ele><time>2026-04-12T08:10:47.001Z</time></trkpt><trkpt lat="43.1795427" lon="12.352579"><ele>493.1428571428571</ele><time>2026-04-12T08:10:50.005Z</time></trkpt><trkpt lat="43.1796108" lon="12.3525821"><ele>494.42857142857144</ele><time>2026-04-12T08:10:53.01Z</time></trkpt><trkpt lat="43.1796815" lon="12.3525865"><ele>495.7142857142857</ele><time>2026-04-12T08:10:56.011Z</time></trkpt><trkpt lat="43.1797539" lon="12.3525883"><ele>497.0</ele><time>2026-04-12T08:10:59.014Z</time></trkpt><trkpt lat="43.1798244" lon="12.3526049"><ele>497.3333333333333</ele><time>2026-04-12T08:11:02.021Z</time></trkpt><trkpt lat="43.179903" lon="12.3526281"><ele>497.66666666666663</ele><time>2026-04-12T08:11:05.017Z</time></trkpt><trkpt lat="43.1799666" lon="12.3526654"><ele>498.0</ele><time>2026-04-12T08:11:08.011Z</time></trkpt><trkpt lat="43.1800417" lon="12.3527005"><ele>498.33333333333337</ele><time>2026-04-12T08:11:11.012Z</time></trkpt><trkpt lat="43.18012" lon="12.352723"><ele>498.6666666666667</ele><time>2026-04-12T08:11:14.011Z</time></trkpt><trkpt lat="43.1802027" lon="12.3527192"><ele>499.0</ele><time>2026-04-12T08:11:17.018Z</time></trkpt><trkpt lat="43.1802791" lon="12.3526956"><ele>499.00000000000006</ele><time>2026-04-12T08:11:20.011Z</time></trkpt><trkpt lat="43.1803531" lon="12.3526622"><ele>499.0</ele><time>2026-04-12T08:11:23.01Z</time></trkpt><trkpt lat="43.180416" lon="12.3525967"><ele>499.0</ele><time>2026-04-12T08:11:26.008Z</time></trkpt><trkpt lat="43.1804385" lon="12.3524908"><ele>499.0</ele><time>2026-04-12T08:11:29.018Z</time></trkpt><trkpt lat="43.1804055" lon="12.3523981"><ele>499.00000000000006</ele><time>2026-04-12T08:11:32.017Z</time></trkpt><trkpt lat="43.1803636" lon="12.3523175"><ele>499.0</ele><time>2026-04-12T08:11:35.023Z</time></trkpt><trkpt lat="43.1803474" lon="12.3522209"><ele>500.1428571428572</ele><time>2026-04-12T08:11:38.011Z</time></trkpt><trkpt lat="43.1803748" lon="12.3521371"><ele>501.28571428571433</ele><time>2026-04-12T08:11:41.008Z</time></trkpt><trkpt lat="43.1803989" lon="12.3520473"><ele>502.42857142857144</ele><time>2026-04-12T08:11:44.006Z</time></trkpt><trkpt lat="43.1804179" lon="12.3519522"><ele>503.5714285714286</ele><time>2026-04-12T08:11:47.016Z</time></trkpt><trkpt lat="43.1804384" lon="12.3518584"><ele>504.7142857142858</ele><time>2026-04-12T08:11:49.995Z</time></trkpt><trkpt lat="43.1804627" lon="12.351771"><ele>505.85714285714283</ele><time>2026-04-12T08:11:52.996Z</time></trkpt><trkpt lat="43.1804922" lon="12.3516822"><ele>507.0</ele><time>2026-04-12T08:11:56.093Z</time></trkpt><trkpt lat="43.1805085" lon="12.3515842"><ele>507.0</ele><time>2026-04-12T08:11:59.019Z</time></trkpt><trkpt lat="43.1805047" lon="12.3514831"><ele>507.0</ele><time>2026-04-12T08:12:02.01Z</time></trkpt><trkpt lat="43.1804857" lon="12.3513808"><ele>507.0</ele><time>2026-04-12T08:12:05.027Z</time></trkpt><trkpt lat="43.1804611" lon="12.3512841"><ele>507.0</ele><time>2026-04-12T08:12:07.995Z</time></trkpt><trkpt lat="43.1804399" lon="12.3511884"><ele>507.0</ele><time>2026-04-12T08:12:10.992Z</time></trkpt><trkpt lat="43.1804286" lon="12.3510947"><ele>507.0</ele><time>2026-04-12T08:12:14.005Z</time></trkpt><trkpt lat="43.180418" lon="12.3509914"><ele>507.0</ele><time>2026-04-12T08:12:16.996Z</time></trkpt><trkpt lat="43.1804071" lon="12.350888"><ele>509.0</ele><time>2026-04-12T08:12:20.014Z</time></trkpt><trkpt lat="43.1803953" lon="12.3507848"><ele>511.0</ele><time>2026-04-12T08:12:23.007Z</time></trkpt><trkpt lat="43.1803867" lon="12.350681"><ele>513.0</ele><time>2026-04-12T08:12:26.01Z</time></trkpt><trkpt lat="43.1803765" lon="12.3505814"><ele>515.0</ele><time>2026-04-12T08:12:29.012Z</time></trkpt><trkpt lat="43.180372" lon="12.3504915"><ele>517.0</ele><time>2026-04-12T08:12:32.013Z</time></trkpt><trkpt lat="43.1803628" lon="12.3503938"><ele>519.0</ele><time>2026-04-12T08:12:35.006Z</time></trkpt><trkpt lat="43.1803557" lon="12.3502863"><ele>521.0</ele><time>2026-04-12T08:12:38.011Z</time></trkpt><trkpt lat="43.1803481" lon="12.3501825"><ele>522.4285714285714</ele><time>2026-04-12T08:12:41.01Z</time></trkpt><trkpt lat="43.1803402" lon="12.350083"><ele>523.8571428571429</ele><time>2026-04-12T08:12:44.013Z</time></trkpt><trkpt lat="43.18033" lon="12.3499826"><ele>525.2857142857143</ele><time>2026-04-12T08:12:47.004Z</time></trkpt><trkpt lat="43.1803226" lon="12.3498868"><ele>526.7142857142858</ele><time>2026-04-12T08:12:50.008Z</time></trkpt><trkpt lat="43.180317" lon="12.3497892"><ele>528.1428571428572</ele><time>2026-04-12T08:12:53.011Z</time></trkpt><trkpt lat="43.1803207" lon="12.3496924"><ele>529.5714285714286</ele><time>2026-04-12T08:12:56.011Z</time></trkpt><trkpt lat="43.1803315" lon="12.3495936"><ele>531.0</ele><time>2026-04-12T08:12:59.014Z</time></trkpt><trkpt lat="43.180346" lon="12.3495002"><ele>532.0</ele><time>2026-04-12T08:13:02.017Z</time></trkpt><trkpt lat="43.1803585" lon="12.3494068"><ele>533.0</ele><time>2026-04-12T08:13:05.011Z</time></trkpt><trkpt lat="43.1803739" lon="12.3493036"><ele>534.0</ele><time>2026-04-12T08:13:08.008Z</time></trkpt><trkpt lat="43.1803835" lon="12.3491951"><ele>535.0</ele><time>2026-04-12T08:13:11.021Z</time></trkpt><trkpt lat="43.1803868" lon="12.3490848"><ele>536.0</ele><time>2026-04-12T08:13:14.009Z</time></trkpt><trkpt lat="43.1803826" lon="12.3489753"><ele>537.0</ele><time>2026-04-12T08:13:17.012Z</time></trkpt><trkpt lat="43.1803773" lon="12.3488639"><ele>537.6666666666666</ele><time>2026-04-12T08:13:20.012Z</time></trkpt><trkpt lat="43.1803713" lon="12.3487556"><ele>538.3333333333334</ele><time>2026-04-12T08:13:23.005Z</time></trkpt><trkpt lat="43.1803664" lon="12.3486434"><ele>539.0</ele><time>2026-04-12T08:13:26.005Z</time></trkpt><trkpt lat="43.1803612" lon="12.3485349"><ele>539.6666666666667</ele><time>2026-04-12T08:13:29.015Z</time></trkpt><trkpt lat="43.1803422" lon="12.348424"><ele>540.3333333333334</ele><time>2026-04-12T08:13:32.004Z</time></trkpt><trkpt lat="43.180306" lon="12.3483204"><ele>541.0</ele><time>2026-04-12T08:13:35.005Z</time></trkpt><trkpt lat="43.1802586" lon="12.3482126"><ele>541.0</ele><time>2026-04-12T08:13:38.011Z</time></trkpt><trkpt lat="43.1802222" lon="12.3481276"><ele>541.0</ele><time>2026-04-12T08:13:39.993Z</time></trkpt><trkpt lat="43.180177" lon="12.3480283"><ele>541.0</ele><time>2026-04-12T08:13:41.993Z</time></trkpt><trkpt lat="43.1801267" lon="12.3479384"><ele>541.0</ele><time>2026-04-12T08:13:44.011Z</time></trkpt><trkpt lat="43.1800745" lon="12.3478668"><ele>541.0</ele><time>2026-04-12T08:13:45.999Z</time></trkpt><trkpt lat="43.1800181" lon="12.3477989"><ele>541.0</ele><time>2026-04-12T08:13:47.999Z</time></trkpt><trkpt lat="43.179952" lon="12.3477218"><ele>540.0</ele><time>2026-04-12T08:13:50.012Z</time></trkpt><trkpt lat="43.1798774" lon="12.3476364"><ele>539.0</ele><time>2026-04-12T08:13:52.011Z</time></trkpt><trkpt lat="43.1798015" lon="12.3475436"><ele>538.0</ele><time>2026-04-12T08:13:54.007Z</time></trkpt><trkpt lat="43.1797292" lon="12.3474464"><ele>537.0</ele><time>2026-04-12T08:13:56.008Z</time></trkpt><trkpt lat="43.1796553" lon="12.3473428"><ele>536.0</ele><time>2026-04-12T08:13:58.011Z</time></trkpt><trkpt lat="43.179582" lon="12.3472461"><ele>534.6666666666666</ele><time>2026-04-12T08:14:00.012Z</time></trkpt><trkpt lat="43.179514" lon="12.3471549"><ele>533.3333333333333</ele><time>2026-04-12T08:14:02.016Z</time></trkpt><trkpt lat="43.1794518" lon="12.3470678"><ele>532.0</ele><time>2026-04-12T08:14:04.016Z</time></trkpt><trkpt lat="43.1794094" lon="12.3469945"><ele>530.6666666666666</ele><time>2026-04-12T08:14:06.016Z</time></trkpt><trkpt lat="43.1794228" lon="12.3468975"><ele>529.3333333333334</ele><time>2026-04-12T08:14:09.011Z</time></trkpt><trkpt lat="43.1795052" lon="12.3468676"><ele>528.0</ele><time>2026-04-12T08:14:12.013Z</time></trkpt><trkpt lat="43.1795706" lon="12.3468484"><ele>528.0</ele><time>2026-04-12T08:14:14.011Z</time></trkpt><trkpt lat="43.1796353" lon="12.3468306"><ele>528.0</ele><time>2026-04-12T08:14:16.015Z</time></trkpt><trkpt lat="43.1797277" lon="12.3468112"><ele>528.0</ele><time>2026-04-12T08:14:19.011Z</time></trkpt><trkpt lat="43.1797925" lon="12.3467869"><ele>528.0</ele><time>2026-04-12T08:14:21.012Z</time></trkpt><trkpt lat="43.1798547" lon="12.3467716"><ele>528.0</ele><time>2026-04-12T08:14:23.011Z</time></trkpt><trkpt lat="43.1799166" lon="12.3467468"><ele>528.0</ele><time>2026-04-12T08:14:25.01Z</time></trkpt><trkpt lat="43.1799777" lon="12.3467188"><ele>528.0</ele><time>2026-04-12T08:14:27.015Z</time></trkpt><trkpt lat="43.1800402" lon="12.3466844"><ele>528.4285714285714</ele><time>2026-04-12T08:14:29.01Z</time></trkpt><trkpt lat="43.1801022" lon="12.3466532"><ele>528.8571428571429</ele><time>2026-04-12T08:14:31.01Z</time></trkpt><trkpt lat="43.1801611" lon="12.3466221"><ele>529.2857142857143</ele><time>2026-04-12T08:14:33.013Z</time></trkpt><trkpt lat="43.1802189" lon="12.346583"><ele>529.7142857142858</ele><time>2026-04-12T08:14:35.011Z</time></trkpt><trkpt lat="43.1802761" lon="12.3465438"><ele>530.1428571428572</ele><time>2026-04-12T08:14:37.012Z</time></trkpt><trkpt lat="43.1803677" lon="12.3464829"><ele>530.5714285714286</ele><time>2026-04-12T08:14:40.11Z</time></trkpt><trkpt lat="43.1804262" lon="12.3464465"><ele>531.0</ele><time>2026-04-12T08:14:42.011Z</time></trkpt><trkpt lat="43.1805007" lon="12.346417"><ele>531.0</ele><time>2026-04-12T08:14:45.011Z</time></trkpt><trkpt lat="43.180582" lon="12.3463892"><ele>531.0</ele><time>2026-04-12T08:14:48.008Z</time></trkpt><trkpt lat="43.1806503" lon="12.3463647"><ele>531.0</ele><time>2026-04-12T08:14:50.011Z</time></trkpt><trkpt lat="43.1807235" lon="12.3463395"><ele>531.0</ele><time>2026-04-12T08:14:52.015Z</time></trkpt><trkpt lat="43.1807967" lon="12.3463082"><ele>531.0</ele><time>2026-04-12T08:14:54.01Z</time></trkpt><trkpt lat="43.1808703" lon="12.3462677"><ele>531.0</ele><time>2026-04-12T08:14:56.011Z</time></trkpt><trkpt lat="43.18094" lon="12.3462356"><ele>531.1666666666666</ele><time>2026-04-12T08:14:58.012Z</time></trkpt><trkpt lat="43.181006" lon="12.3462033"><ele>531.3333333333334</ele><time>2026-04-12T08:15:00.012Z</time></trkpt><trkpt lat="43.1810692" lon="12.3461741"><ele>531.5</ele><time>2026-04-12T08:15:02.008Z</time></trkpt><trkpt lat="43.1811324" lon="12.346152"><ele>531.6666666666667</ele><time>2026-04-12T08:15:04.011Z</time></trkpt><trkpt lat="43.1811948" lon="12.3461323"><ele>531.8333333333334</ele><time>2026-04-12T08:15:06.012Z</time></trkpt><trkpt lat="43.1812862" lon="12.3461006"><ele>532.0</ele><time>2026-04-12T08:15:09.014Z</time></trkpt><trkpt lat="43.1813761" lon="12.3460698"><ele>532.0</ele><time>2026-04-12T08:15:12.009Z</time></trkpt><trkpt lat="43.1814668" lon="12.3460346"><ele>532.0</ele><time>2026-04-12T08:15:15.015Z</time></trkpt><trkpt lat="43.1815541" lon="12.3460011"><ele>532.0</ele><time>2026-04-12T08:15:18.008Z</time></trkpt><trkpt lat="43.1816391" lon="12.3459623"><ele>532.0</ele><time>2026-04-12T08:15:21.018Z</time></trkpt><trkpt lat="43.1817212" lon="12.3459302"><ele>532.0</ele><time>2026-04-12T08:15:24.012Z</time></trkpt><trkpt lat="43.1817934" lon="12.3459204"><ele>532.0</ele><time>2026-04-12T08:15:28.009Z</time></trkpt><trkpt lat="43.1818574" lon="12.3458982"><ele>532.4</ele><time>2026-04-12T08:15:31.017Z</time></trkpt><trkpt lat="43.1819518" lon="12.3458739"><ele>532.8000000000001</ele><time>2026-04-12T08:15:34.011Z</time></trkpt><trkpt lat="43.1820387" lon="12.3458601"><ele>533.2</ele><time>2026-04-12T08:15:36.998Z</time></trkpt><trkpt lat="43.1821305" lon="12.3458377"><ele>533.6</ele><time>2026-04-12T08:15:40.012Z</time></trkpt><trkpt lat="43.1822229" lon="12.3458161"><ele>534.0</ele><time>2026-04-12T08:15:43.01Z</time></trkpt><trkpt lat="43.1823141" lon="12.3457979"><ele>535.1666666666666</ele><time>2026-04-12T08:15:46.014Z</time></trkpt><trkpt lat="43.1824225" lon="12.345768"><ele>536.3333333333334</ele><time>2026-04-12T08:15:50.026Z</time></trkpt><trkpt lat="43.1825044" lon="12.3457419"><ele>537.5</ele><time>2026-04-12T08:15:53.01Z</time></trkpt><trkpt lat="43.1825888" lon="12.3457223"><ele>538.6666666666667</ele><time>2026-04-12T08:15:56.012Z</time></trkpt><trkpt lat="43.1826691" lon="12.3457027"><ele>539.8333333333334</ele><time>2026-04-12T08:15:59.013Z</time></trkpt><trkpt lat="43.1827492" lon="12.3456829"><ele>541.0</ele><time>2026-04-12T08:16:02.011Z</time></trkpt><trkpt lat="43.1828305" lon="12.3456611"><ele>541.0</ele><time>2026-04-12T08:16:05.01Z</time></trkpt><trkpt lat="43.1829105" lon="12.3456427"><ele>541.0</ele><time>2026-04-12T08:16:08.012Z</time></trkpt><trkpt lat="43.1829886" lon="12.3456195"><ele>541.0</ele><time>2026-04-12T08:16:11.011Z</time></trkpt><trkpt lat="43.1830666" lon="12.3455945"><ele>541.0</ele><time>2026-04-12T08:16:14.013Z</time></trkpt><trkpt lat="43.1831518" lon="12.3455761"><ele>541.0</ele><time>2026-04-12T08:16:16.998Z</time></trkpt><trkpt lat="43.1832303" lon="12.3455697"><ele>541.0</ele><time>2026-04-12T08:16:20.013Z</time></trkpt><trkpt lat="43.1833087" lon="12.3455582"><ele>541.6666666666667</ele><time>2026-04-12T08:16:23.008Z</time></trkpt><trkpt lat="43.1833932" lon="12.3455385"><ele>542.3333333333334</ele><time>2026-04-12T08:16:26.012Z</time></trkpt><trkpt lat="43.1834743" lon="12.3455173"><ele>543.0</ele><time>2026-04-12T08:16:29.009Z</time></trkpt><trkpt lat="43.1835527" lon="12.345503"><ele>543.6666666666666</ele><time>2026-04-12T08:16:32.01Z</time></trkpt><trkpt lat="43.1836313" lon="12.3454802"><ele>544.3333333333333</ele><time>2026-04-12T08:16:35.115Z</time></trkpt><trkpt lat="43.1837005" lon="12.3454775"><ele>545.0</ele><time>2026-04-12T08:16:37.999Z</time></trkpt><trkpt lat="43.183781" lon="12.3454728"><ele>545.0</ele><time>2026-04-12T08:16:42.006Z</time></trkpt><trkpt lat="43.1838526" lon="12.3454948"><ele>545.0</ele><time>2026-04-12T08:16:45.005Z</time></trkpt><trkpt lat="43.1839237" lon="12.3455194"><ele>545.0</ele><time>2026-04-12T08:16:47.995Z</time></trkpt><trkpt lat="43.184" lon="12.3455554"><ele>545.0</ele><time>2026-04-12T08:16:51.992Z</time></trkpt><trkpt lat="43.1840667" lon="12.3455625"><ele>545.0</ele><time>2026-04-12T08:16:55.005Z</time></trkpt><trkpt lat="43.184136" lon="12.3455794"><ele>545.0</ele><time>2026-04-12T08:16:58.092Z</time></trkpt><trkpt lat="43.1842082" lon="12.3455927"><ele>545.0</ele><time>2026-04-12T08:17:01.002Z</time></trkpt><trkpt lat="43.1842837" lon="12.3455982"><ele>547.8333333333333</ele><time>2026-04-12T08:17:04.113Z</time></trkpt><trkpt lat="43.1843631" lon="12.345608"><ele>550.6666666666666</ele><time>2026-04-12T08:17:08.013Z</time></trkpt><trkpt lat="43.1844416" lon="12.3456306"><ele>553.5</ele><time>2026-04-12T08:17:12.012Z</time></trkpt><trkpt lat="43.1845193" lon="12.3456446"><ele>556.3333333333334</ele><time>2026-04-12T08:17:15.116Z</time></trkpt><trkpt lat="43.1845979" lon="12.3456531"><ele>559.1666666666667</ele><time>2026-04-12T08:17:18.01Z</time></trkpt><trkpt lat="43.1846711" lon="12.3456611"><ele>562.0</ele><time>2026-04-12T08:17:21.011Z</time></trkpt><trkpt lat="43.1847391" lon="12.3456657"><ele>562.0</ele><time>2026-04-12T08:17:24.004Z</time></trkpt><trkpt lat="43.1848231" lon="12.3456926"><ele>562.0</ele><time>2026-04-12T08:17:27.003Z</time></trkpt><trkpt lat="43.1849059" lon="12.3457138"><ele>562.0</ele><time>2026-04-12T08:17:30.009Z</time></trkpt><trkpt lat="43.1849895" lon="12.3457483"><ele>562.0</ele><time>2026-04-12T08:17:33.01Z</time></trkpt><trkpt lat="43.1850823" lon="12.3457599"><ele>562.0</ele><time>2026-04-12T08:17:36.01Z</time></trkpt><trkpt lat="43.1851491" lon="12.3457687"><ele>562.0</ele><time>2026-04-12T08:17:38.011Z</time></trkpt><trkpt lat="43.1852275" lon="12.3457755"><ele>562.4</ele><time>2026-04-12T08:17:40.011Z</time></trkpt><trkpt lat="43.1853156" lon="12.34578"><ele>562.8000000000001</ele><time>2026-04-12T08:17:42.011Z</time></trkpt><trkpt lat="43.185409" lon="12.3457572"><ele>563.2</ele><time>2026-04-12T08:17:44.003Z</time></trkpt><trkpt lat="43.1855125" lon="12.3457463"><ele>563.6</ele><time>2026-04-12T08:17:46.01Z</time></trkpt><trkpt lat="43.1856096" lon="12.3457635"><ele>564.0</ele><time>2026-04-12T08:17:48.004Z</time></trkpt><trkpt lat="43.1857071" lon="12.3457635"><ele>564.0</ele><time>2026-04-12T08:17:50.01Z</time></trkpt><trkpt lat="43.1858199" lon="12.3457248"><ele>564.0</ele><time>2026-04-12T08:17:52.012Z</time></trkpt><trkpt lat="43.1859223" lon="12.3456933"><ele>564.0</ele><time>2026-04-12T08:17:54.011Z</time></trkpt><trkpt lat="43.1859939" lon="12.3456631"><ele>564.0</ele><time>2026-04-12T08:17:56.008Z</time></trkpt><trkpt lat="43.1860652" lon="12.3456359"><ele>564.0</ele><time>2026-04-12T08:17:58.01Z</time></trkpt><trkpt lat="43.1861281" lon="12.3456021"><ele>564.0</ele><time>2026-04-12T08:18:00.013Z</time></trkpt><trkpt lat="43.1861915" lon="12.3455746"><ele>563.8333333333334</ele><time>2026-04-12T08:18:01.998Z</time></trkpt><trkpt lat="43.1862575" lon="12.3455393"><ele>563.6666666666666</ele><time>2026-04-12T08:18:04.004Z</time></trkpt><trkpt lat="43.1863246" lon="12.3455022"><ele>563.5</ele><time>2026-04-12T08:18:06.007Z</time></trkpt><trkpt lat="43.1864197" lon="12.3454742"><ele>563.3333333333333</ele><time>2026-04-12T08:18:09.011Z</time></trkpt><trkpt lat="43.1864897" lon="12.3454376"><ele>563.1666666666666</ele><time>2026-04-12T08:18:11.009Z</time></trkpt><trkpt lat="43.1865722" lon="12.3453864"><ele>563.0</ele><time>2026-04-12T08:18:13.012Z</time></trkpt><trkpt lat="43.1866581" lon="12.345307"><ele>563.0</ele><time>2026-04-12T08:18:15.006Z</time></trkpt><trkpt lat="43.1867341" lon="12.3452299"><ele>563.0</ele><time>2026-04-12T08:18:17.016Z</time></trkpt><trkpt lat="43.1868097" lon="12.3451471"><ele>563.0</ele><time>2026-04-12T08:18:19.01Z</time></trkpt><trkpt lat="43.1868788" lon="12.345062"><ele>563.0</ele><time>2026-04-12T08:18:21.013Z</time></trkpt><trkpt lat="43.1869093" lon="12.3449643"><ele>563.0</ele><time>2026-04-12T08:18:23.007Z</time></trkpt><trkpt lat="43.1869144" lon="12.3448512"><ele>563.0</ele><time>2026-04-12T08:18:25.014Z</time></trkpt><trkpt lat="43.1869526" lon="12.344726"><ele>561.4</ele><time>2026-04-12T08:18:27.011Z</time></trkpt><trkpt lat="43.186993" lon="12.3445942"><ele>559.8</ele><time>2026-04-12T08:18:29.005Z</time></trkpt><trkpt lat="43.187054" lon="12.3444949"><ele>558.2</ele><time>2026-04-12T08:18:31.005Z</time></trkpt><trkpt lat="43.187108" lon="12.3444141"><ele>556.6</ele><time>2026-04-12T08:18:33.003Z</time></trkpt><trkpt lat="43.187169" lon="12.3443429"><ele>555.0</ele><time>2026-04-12T08:18:35.011Z</time></trkpt><trkpt lat="43.1872404" lon="12.3442643"><ele>555.0</ele><time>2026-04-12T08:18:37.008Z</time></trkpt><trkpt lat="43.1873022" lon="12.3441906"><ele>555.0</ele><time>2026-04-12T08:18:39.001Z</time></trkpt><trkpt lat="43.1873673" lon="12.3441183"><ele>555.0</ele><time>2026-04-12T08:18:41.004Z</time></trkpt><trkpt lat="43.1874309" lon="12.3440413"><ele>555.0</ele><time>2026-04-12T08:18:43.009Z</time></trkpt><trkpt lat="43.1874936" lon="12.3439648"><ele>555.0</ele><time>2026-04-12T08:18:45.006Z</time></trkpt><trkpt lat="43.1875545" lon="12.3438909"><ele>555.0</ele><time>2026-04-12T08:18:47.02Z</time></trkpt><trkpt lat="43.1875983" lon="12.3438228"><ele>554.6666666666666</ele><time>2026-04-12T08:18:48.996Z</time></trkpt><trkpt lat="43.1876426" lon="12.3437501"><ele>554.3333333333334</ele><time>2026-04-12T08:18:51.01Z</time></trkpt><trkpt lat="43.187691" lon="12.3436792"><ele>554.0</ele><time>2026-04-12T08:18:53.013Z</time></trkpt><trkpt lat="43.1877415" lon="12.3436143"><ele>553.6666666666667</ele><time>2026-04-12T08:18:55.012Z</time></trkpt><trkpt lat="43.1878291" lon="12.3435654"><ele>553.3333333333334</ele><time>2026-04-12T08:18:58.112Z</time></trkpt><trkpt lat="43.1879152" lon="12.3435197"><ele>553.0</ele><time>2026-04-12T08:19:01.013Z</time></trkpt><trkpt lat="43.1879998" lon="12.3434692"><ele>553.0</ele><time>2026-04-12T08:19:03.995Z</time></trkpt><trkpt lat="43.1880552" lon="12.3434219"><ele>553.0</ele><time>2026-04-12T08:19:05.994Z</time></trkpt><trkpt lat="43.1881062" lon="12.343368"><ele>553.0</ele><time>2026-04-12T08:19:08.014Z</time></trkpt><trkpt lat="43.1881645" lon="12.3432728"><ele>553.0</ele><time>2026-04-12T08:19:11.012Z</time></trkpt><trkpt lat="43.1882301" lon="12.3431938"><ele>553.0</ele><time>2026-04-12T08:19:13.997Z</time></trkpt><trkpt lat="43.1882915" lon="12.3430988"><ele>553.0</ele><time>2026-04-12T08:19:17.01Z</time></trkpt><trkpt lat="43.1883373" lon="12.3430014"><ele>552.8333333333334</ele><time>2026-04-12T08:19:20.011Z</time></trkpt><trkpt lat="43.1884083" lon="12.3429962"><ele>552.6666666666667</ele><time>2026-04-12T08:19:23.009Z</time></trkpt><trkpt lat="43.1884411" lon="12.3431391"><ele>552.5</ele><time>2026-04-12T08:19:35.011Z</time></trkpt><trkpt lat="43.1884724" lon="12.3432205"><ele>552.3333333333334</ele><time>2026-04-12T08:19:38.017Z</time></trkpt><trkpt lat="43.1884482" lon="12.3433103"><ele>552.1666666666666</ele><time>2026-04-12T08:19:41.011Z</time></trkpt><trkpt lat="43.1884368" lon="12.343407"><ele>552.0</ele><time>2026-04-12T08:19:43.997Z</time></trkpt><trkpt lat="43.188441" lon="12.3435035"><ele>553.7142857142858</ele><time>2026-04-12T08:19:47.01Z</time></trkpt><trkpt lat="43.1884431" lon="12.3435991"><ele>555.4285714285714</ele><time>2026-04-12T08:19:50.008Z</time></trkpt><trkpt lat="43.1884477" lon="12.3436919"><ele>557.1428571428571</ele><time>2026-04-12T08:19:53.012Z</time></trkpt><trkpt lat="43.1884523" lon="12.3437834"><ele>558.8571428571429</ele><time>2026-04-12T08:19:56.012Z</time></trkpt><trkpt lat="43.1884555" lon="12.3438795"><ele>560.5714285714286</ele><time>2026-04-12T08:19:59.011Z</time></trkpt><trkpt lat="43.1884604" lon="12.3439717"><ele>562.2857142857143</ele><time>2026-04-12T08:20:02.01Z</time></trkpt><trkpt lat="43.1884713" lon="12.344088"><ele>564.0</ele><time>2026-04-12T08:20:06.014Z</time></trkpt><trkpt lat="43.1884933" lon="12.3441946"><ele>565.6666666666666</ele><time>2026-04-12T08:20:10.013Z</time></trkpt><trkpt lat="43.1885724" lon="12.3442173"><ele>567.3333333333334</ele><time>2026-04-12T08:20:14.001Z</time></trkpt><trkpt lat="43.1886349" lon="12.3442061"><ele>569.0</ele><time>2026-04-12T08:20:17Z</time></trkpt><trkpt lat="43.1887185" lon="12.3442051"><ele>570.6666666666667</ele><time>2026-04-12T08:20:21.009Z</time></trkpt><trkpt lat="43.1888002" lon="12.3442233"><ele>572.3333333333334</ele><time>2026-04-12T08:20:25.011Z</time></trkpt><trkpt lat="43.1888793" lon="12.3442415"><ele>574.0</ele><time>2026-04-12T08:20:29.011Z</time></trkpt><trkpt lat="43.1889422" lon="12.3442521"><ele>575.8571428571429</ele><time>2026-04-12T08:20:32.034Z</time></trkpt><trkpt lat="43.1890196" lon="12.3442654"><ele>577.7142857142858</ele><time>2026-04-12T08:20:35.996Z</time></trkpt><trkpt lat="43.1890965" lon="12.344285"><ele>579.5714285714286</ele><time>2026-04-12T08:20:40.012Z</time></trkpt><trkpt lat="43.1891688" lon="12.3443035"><ele>581.4285714285714</ele><time>2026-04-12T08:20:44.006Z</time></trkpt><trkpt lat="43.1892361" lon="12.344328"><ele>583.2857142857143</ele><time>2026-04-12T08:20:48.017Z</time></trkpt><trkpt lat="43.1892978" lon="12.3443485"><ele>585.1428571428571</ele><time>2026-04-12T08:20:52.009Z</time></trkpt><trkpt lat="43.1893657" lon="12.3443524"><ele>587.0</ele><time>2026-04-12T08:20:56.007Z</time></trkpt><trkpt lat="43.189441" lon="12.3443651"><ele>587.0</ele><time>2026-04-12T08:21:00.014Z</time></trkpt><trkpt lat="43.1895148" lon="12.3443721"><ele>587.0</ele><time>2026-04-12T08:21:04.114Z</time></trkpt><trkpt lat="43.1895874" lon="12.3443833"><ele>587.0</ele><time>2026-04-12T08:21:08.015Z</time></trkpt><trkpt lat="43.189648" lon="12.3444076"><ele>587.0</ele><time>2026-04-12T08:21:12.011Z</time></trkpt><trkpt lat="43.1896753" lon="12.3445078"><ele>587.0</ele><time>2026-04-12T08:21:17.016Z</time></trkpt><trkpt lat="43.1896484" lon="12.3446105"><ele>587.0</ele><time>2026-04-12T08:21:22.007Z</time></trkpt><trkpt lat="43.1896014" lon="12.3446919"><ele>587.0</ele><time>2026-04-12T08:21:25.999Z</time></trkpt><trkpt lat="43.1895479" lon="12.3447566"><ele>589.0</ele><time>2026-04-12T08:21:29.991Z</time></trkpt><trkpt lat="43.1894931" lon="12.3448132"><ele>591.0</ele><time>2026-04-12T08:21:33.994Z</time></trkpt><trkpt lat="43.1894403" lon="12.3448757"><ele>593.0</ele><time>2026-04-12T08:21:37.992Z</time></trkpt><trkpt lat="43.1893906" lon="12.3449478"><ele>595.0</ele><time>2026-04-12T08:21:42Z</time></trkpt><trkpt lat="43.1893462" lon="12.3450379"><ele>597.0</ele><time>2026-04-12T08:21:46.004Z</time></trkpt><trkpt lat="43.1892934" lon="12.345109"><ele>599.0</ele><time>2026-04-12T08:21:50.105Z</time></trkpt><trkpt lat="43.1892506" lon="12.3451778"><ele>601.0</ele><time>2026-04-12T08:21:54.009Z</time></trkpt><trkpt lat="43.1892038" lon="12.3452485"><ele>601.0</ele><time>2026-04-12T08:21:58.011Z</time></trkpt><trkpt lat="43.1891685" lon="12.3453385"><ele>601.0</ele><time>2026-04-12T08:22:22.012Z</time></trkpt><trkpt lat="43.1891083" lon="12.3453864"><ele>601.0</ele><time>2026-04-12T08:22:27.011Z</time></trkpt><trkpt lat="43.1890561" lon="12.345458"><ele>601.0</ele><time>2026-04-12T08:22:31.005Z</time></trkpt><trkpt lat="43.1890089" lon="12.3455398"><ele>601.0</ele><time>2026-04-12T08:22:35.01Z</time></trkpt><trkpt lat="43.1889516" lon="12.3456042"><ele>601.0</ele><time>2026-04-12T08:22:38.992Z</time></trkpt><trkpt lat="43.1888993" lon="12.345676"><ele>601.0</ele><time>2026-04-12T08:22:43.012Z</time></trkpt><trkpt lat="43.188847" lon="12.3457414"><ele>601.2857142857142</ele><time>2026-04-12T08:22:47.012Z</time></trkpt><trkpt lat="43.1887902" lon="12.3458174"><ele>601.5714285714287</ele><time>2026-04-12T08:22:51.008Z</time></trkpt><trkpt lat="43.1887491" lon="12.3458836"><ele>601.8571428571429</ele><time>2026-04-12T08:22:54.083Z</time></trkpt><trkpt lat="43.1886963" lon="12.3459426"><ele>602.1428571428571</ele><time>2026-04-12T08:22:58.009Z</time></trkpt><trkpt lat="43.1886347" lon="12.3460118"><ele>602.4285714285713</ele><time>2026-04-12T08:23:03.007Z</time></trkpt><trkpt lat="43.1885976" lon="12.3460847"><ele>602.7142857142858</ele><time>2026-04-12T08:23:06.006Z</time></trkpt><trkpt lat="43.1885484" lon="12.3461562"><ele>603.0</ele><time>2026-04-12T08:23:09.994Z</time></trkpt><trkpt lat="43.1884923" lon="12.3462208"><ele>603.0</ele><time>2026-04-12T08:23:14.004Z</time></trkpt><trkpt lat="43.1884563" lon="12.3462936"><ele>603.0</ele><time>2026-04-12T08:23:18.004Z</time></trkpt><trkpt lat="43.1884215" lon="12.34637"><ele>603.0</ele><time>2026-04-12T08:23:22.01Z</time></trkpt><trkpt lat="43.1884013" lon="12.3464815"><ele>603.0</ele><time>2026-04-12T08:23:26.01Z</time></trkpt><trkpt lat="43.1883898" lon="12.3465718"><ele>603.0</ele><time>2026-04-12T08:23:29.005Z</time></trkpt><trkpt lat="43.188373" lon="12.3466703"><ele>603.0</ele><time>2026-04-12T08:23:33.005Z</time></trkpt><trkpt lat="43.1883435" lon="12.3467555"><ele>603.0</ele><time>2026-04-12T08:23:36.999Z</time></trkpt><trkpt lat="43.1883164" lon="12.3468376"><ele>602.8571428571429</ele><time>2026-04-12T08:23:42.011Z</time></trkpt><trkpt lat="43.1882868" lon="12.3469363"><ele>602.7142857142857</ele><time>2026-04-12T08:23:46.996Z</time></trkpt><trkpt lat="43.1882525" lon="12.3470202"><ele>602.5714285714286</ele><time>2026-04-12T08:23:51.006Z</time></trkpt><trkpt lat="43.1882088" lon="12.3470857"><ele>602.4285714285714</ele><time>2026-04-12T08:23:54.013Z</time></trkpt><trkpt lat="43.1881754" lon="12.3471695"><ele>602.2857142857142</ele><time>2026-04-12T08:23:58.005Z</time></trkpt><trkpt lat="43.1881603" lon="12.347254"><ele>602.1428571428571</ele><time>2026-04-12T08:24:01.006Z</time></trkpt><trkpt lat="43.1881301" lon="12.3473511"><ele>602.0</ele><time>2026-04-12T08:24:05.008Z</time></trkpt><trkpt lat="43.1881039" lon="12.3474393"><ele>605.4285714285714</ele><time>2026-04-12T08:24:09.004Z</time></trkpt><trkpt lat="43.1880942" lon="12.3475254"><ele>608.8571428571429</ele><time>2026-04-12T08:24:13.008Z</time></trkpt><trkpt lat="43.188078" lon="12.3476206"><ele>612.2857142857142</ele><time>2026-04-12T08:24:17.015Z</time></trkpt><trkpt lat="43.1880677" lon="12.3477066"><ele>615.7142857142858</ele><time>2026-04-12T08:24:21.008Z</time></trkpt><trkpt lat="43.1880498" lon="12.3477956"><ele>619.1428571428571</ele><time>2026-04-12T08:24:25.008Z</time></trkpt><trkpt lat="43.1880355" lon="12.347898"><ele>622.5714285714286</ele><time>2026-04-12T08:26:03.989Z</time></trkpt><trkpt lat="43.1880042" lon="12.3479857"><ele>626.0</ele><time>2026-04-12T08:26:08.08Z</time></trkpt><trkpt lat="43.1879643" lon="12.3480772"><ele>628.1428571428571</ele><time>2026-04-12T08:26:11.989Z</time></trkpt><trkpt lat="43.1879362" lon="12.3481638"><ele>630.2857142857143</ele><time>2026-04-12T08:26:16.001Z</time></trkpt><trkpt lat="43.187905" lon="12.3482487"><ele>632.4285714285714</ele><time>2026-04-12T08:26:20.012Z</time></trkpt><trkpt lat="43.1878836" lon="12.3483425"><ele>634.5714285714286</ele><time>2026-04-12T08:26:24.009Z</time></trkpt><trkpt lat="43.1878604" lon="12.3484396"><ele>636.7142857142857</ele><time>2026-04-12T08:26:28.011Z</time></trkpt><trkpt lat="43.1878327" lon="12.348533"><ele>638.8571428571429</ele><time>2026-04-12T08:26:32.011Z</time></trkpt><trkpt lat="43.1877996" lon="12.3486259"><ele>641.0</ele><time>2026-04-12T08:26:36.094Z</time></trkpt><trkpt lat="43.1877809" lon="12.3487162"><ele>641.0</ele><time>2026-04-12T08:26:39.01Z</time></trkpt><trkpt lat="43.1877623" lon="12.3488116"><ele>641.0</ele><time>2026-04-12T08:26:43.006Z</time></trkpt><trkpt lat="43.1877543" lon="12.3489136"><ele>641.0</ele><time>2026-04-12T08:26:47.007Z</time></trkpt><trkpt lat="43.187745" lon="12.3490243"><ele>641.0</ele><time>2026-04-12T08:26:51.006Z</time></trkpt><trkpt lat="43.187736" lon="12.349115"><ele>641.0</ele><time>2026-04-12T08:26:54.997Z</time></trkpt><trkpt lat="43.1877385" lon="12.3492119"><ele>641.0</ele><time>2026-04-12T08:26:59.011Z</time></trkpt><trkpt lat="43.1877253" lon="12.3493037"><ele>641.0</ele><time>2026-04-12T08:27:03.013Z</time></trkpt><trkpt lat="43.1877107" lon="12.3494046"><ele>643.5</ele><time>2026-04-12T08:27:06.996Z</time></trkpt><trkpt lat="43.187691" lon="12.3495095"><ele>646.0</ele><time>2026-04-12T08:27:12.008Z</time></trkpt><trkpt lat="43.1876866" lon="12.3496069"><ele>648.5</ele><time>2026-04-12T08:27:17.006Z</time></trkpt><trkpt lat="43.1876617" lon="12.349695"><ele>651.0</ele><time>2026-04-12T08:27:21.984Z</time></trkpt><trkpt lat="43.1876389" lon="12.349794"><ele>653.5</ele><time>2026-04-12T08:27:26.012Z</time></trkpt><trkpt lat="43.1875867" lon="12.3498735"><ele>656.0</ele><time>2026-04-12T08:27:31.004Z</time></trkpt><trkpt lat="43.187576" lon="12.3499818"><ele>654.4285714285713</ele><time>2026-04-12T08:27:35.012Z</time></trkpt><trkpt lat="43.187571" lon="12.3500684"><ele>652.8571428571429</ele><time>2026-04-12T08:27:38.007Z</time></trkpt><trkpt lat="43.1875324" lon="12.3501467"><ele>651.2857142857142</ele><time>2026-04-12T08:27:42Z</time></trkpt><trkpt lat="43.1874949" lon="12.350218"><ele>649.7142857142857</ele><time>2026-04-12T08:27:46.011Z</time></trkpt><trkpt lat="43.1874612" lon="12.3503065"><ele>648.1428571428571</ele><time>2026-04-12T08:27:50.009Z</time></trkpt><trkpt lat="43.1874186" lon="12.350382"><ele>646.5714285714286</ele><time>2026-04-12T08:27:53.011Z</time></trkpt><trkpt lat="43.1873719" lon="12.3504464"><ele>645.0</ele><time>2026-04-12T08:27:56.005Z</time></trkpt><trkpt lat="43.187337" lon="12.3505235"><ele>647.6666666666666</ele><time>2026-04-12T08:27:59.01Z</time></trkpt><trkpt lat="43.1872948" lon="12.3505973"><ele>650.3333333333334</ele><time>2026-04-12T08:28:02.005Z</time></trkpt><trkpt lat="43.1872513" lon="12.3506759"><ele>653.0</ele><time>2026-04-12T08:28:04.991Z</time></trkpt><trkpt lat="43.1871902" lon="12.350766"><ele>655.6666666666667</ele><time>2026-04-12T08:28:07.989Z</time></trkpt><trkpt lat="43.1871619" lon="12.3508498"><ele>658.3333333333334</ele><time>2026-04-12T08:28:09.988Z</time></trkpt><trkpt lat="43.1871353" lon="12.350932"><ele>661.0</ele><time>2026-04-12T08:28:12.001Z</time></trkpt><trkpt lat="43.1870913" lon="12.3510403"><ele>661.0</ele><time>2026-04-12T08:28:15.011Z</time></trkpt><trkpt lat="43.1870604" lon="12.3511544"><ele>661.0</ele><time>2026-04-12T08:28:18.011Z</time></trkpt><trkpt lat="43.1870357" lon="12.351245"><ele>661.0</ele><time>2026-04-12T08:28:20.007Z</time></trkpt><trkpt lat="43.1870051" lon="12.3513657"><ele>661.0</ele><time>2026-04-12T08:28:23.008Z</time></trkpt><trkpt lat="43.186966" lon="12.3514808"><ele>661.0</ele><time>2026-04-12T08:28:26.007Z</time></trkpt><trkpt lat="43.1869045" lon="12.3515667"><ele>661.0</ele><time>2026-04-12T08:28:29.011Z</time></trkpt><trkpt lat="43.1868583" lon="12.3516372"><ele>663.8</ele><time>2026-04-12T08:28:31.01Z</time></trkpt><trkpt lat="43.186814" lon="12.351724"><ele>666.5999999999999</ele><time>2026-04-12T08:28:33.008Z</time></trkpt><trkpt lat="43.1867645" lon="12.351833"><ele>669.4</ele><time>2026-04-12T08:28:36.006Z</time></trkpt><trkpt lat="43.1867061" lon="12.3519391"><ele>672.2</ele><time>2026-04-12T08:28:39.012Z</time></trkpt><trkpt lat="43.1866446" lon="12.3520185"><ele>675.0</ele><time>2026-04-12T08:28:41.014Z</time></trkpt><trkpt lat="43.1865805" lon="12.3521393"><ele>670.0</ele><time>2026-04-12T08:28:43.007Z</time></trkpt><trkpt lat="43.1865057" lon="12.3523041"><ele>665.0</ele><time>2026-04-12T08:28:44.007Z</time></trkpt><trkpt lat="43.186452" lon="12.3524523"><ele>660.0</ele><time>2026-04-12T08:28:46.01Z</time></trkpt><trkpt lat="43.1864235" lon="12.3525997"><ele>655.0</ele><time>2026-04-12T08:28:48.008Z</time></trkpt><trkpt lat="43.1863879" lon="12.3527604"><ele>655.0</ele><time>2026-04-12T08:28:50.008Z</time></trkpt><trkpt lat="43.1863873" lon="12.3529018"><ele>655.0</ele><time>2026-04-12T08:28:52.007Z</time></trkpt><trkpt lat="43.1863984" lon="12.3530423"><ele>655.0</ele><time>2026-04-12T08:28:54.005Z</time></trkpt><trkpt lat="43.1863987" lon="12.3531616"><ele>655.0</ele><time>2026-04-12T08:28:56.009Z</time></trkpt><trkpt lat="43.186416" lon="12.3532639"><ele>655.0</ele><time>2026-04-12T08:28:58.011Z</time></trkpt><trkpt lat="43.1864306" lon="12.3533716"><ele>655.6666666666667</ele><time>2026-04-12T08:28:59.991Z</time></trkpt><trkpt lat="43.1864468" lon="12.3534706"><ele>656.3333333333334</ele><time>2026-04-12T08:29:02.001Z</time></trkpt><trkpt lat="43.1864654" lon="12.3535661"><ele>657.0</ele><time>2026-04-12T08:29:03.995Z</time></trkpt><trkpt lat="43.1864909" lon="12.3536769"><ele>657.6666666666666</ele><time>2026-04-12T08:29:05.994Z</time></trkpt><trkpt lat="43.1865385" lon="12.353781"><ele>658.3333333333333</ele><time>2026-04-12T08:29:08.004Z</time></trkpt><trkpt lat="43.1865883" lon="12.3538787"><ele>659.0</ele><time>2026-04-12T08:29:10.002Z</time></trkpt><trkpt lat="43.1866369" lon="12.3539643"><ele>662.0</ele><time>2026-04-12T08:29:12.003Z</time></trkpt><trkpt lat="43.1866785" lon="12.3540319"><ele>665.0</ele><time>2026-04-12T08:29:13.995Z</time></trkpt><trkpt lat="43.1867249" lon="12.3541227"><ele>668.0</ele><time>2026-04-12T08:29:16.013Z</time></trkpt><trkpt lat="43.1867548" lon="12.3542677"><ele>671.0</ele><time>2026-04-12T08:29:18.007Z</time></trkpt><trkpt lat="43.1867744" lon="12.3543813"><ele>674.0</ele><time>2026-04-12T08:29:20.012Z</time></trkpt><trkpt lat="43.1868184" lon="12.3545031"><ele>677.0</ele><time>2026-04-12T08:29:22.006Z</time></trkpt><trkpt lat="43.1868473" lon="12.3545917"><ele>677.0</ele><time>2026-04-12T08:29:23.013Z</time></trkpt><trkpt lat="43.1868776" lon="12.3546677"><ele>677.0</ele><time>2026-04-12T08:29:24.01Z</time></trkpt><trkpt lat="43.1869471" lon="12.3547579"><ele>677.0</ele><time>2026-04-12T08:29:26.004Z</time></trkpt><trkpt lat="43.1870216" lon="12.3548315"><ele>677.0</ele><time>2026-04-12T08:29:28.013Z</time></trkpt><trkpt lat="43.1870897" lon="12.3548679"><ele>677.0</ele><time>2026-04-12T08:29:30.011Z</time></trkpt><trkpt lat="43.1871676" lon="12.3549148"><ele>677.0</ele><time>2026-04-12T08:29:33.007Z</time></trkpt><trkpt lat="43.1872396" lon="12.3549557"><ele>678.3333333333333</ele><time>2026-04-12T08:29:36.005Z</time></trkpt><trkpt lat="43.1873232" lon="12.3549695"><ele>679.6666666666666</ele><time>2026-04-12T08:29:39.007Z</time></trkpt><trkpt lat="43.1874128" lon="12.3549849"><ele>681.0</ele><time>2026-04-12T08:29:42.014Z</time></trkpt><trkpt lat="43.1875096" lon="12.3550132"><ele>682.3333333333334</ele><time>2026-04-12T08:29:45.008Z</time></trkpt><trkpt lat="43.1875742" lon="12.3550313"><ele>683.6666666666667</ele><time>2026-04-12T08:29:47.011Z</time></trkpt><trkpt lat="43.1876641" lon="12.3550578"><ele>685.0</ele><time>2026-04-12T08:29:50.004Z</time></trkpt><trkpt lat="43.1877521" lon="12.3550769"><ele>685.0</ele><time>2026-04-12T08:29:53.008Z</time></trkpt><trkpt lat="43.1878379" lon="12.3550968"><ele>685.0</ele><time>2026-04-12T08:29:56.009Z</time></trkpt><trkpt lat="43.1879184" lon="12.3551154"><ele>685.0</ele><time>2026-04-12T08:29:59.007Z</time></trkpt><trkpt lat="43.1879933" lon="12.3551334"><ele>685.0</ele><time>2026-04-12T08:30:02.011Z</time></trkpt><trkpt lat="43.1880672" lon="12.355156"><ele>685.0</ele><time>2026-04-12T08:30:05.002Z</time></trkpt><trkpt lat="43.188129" lon="12.3551739"><ele>685.0</ele><time>2026-04-12T08:30:08.013Z</time></trkpt><trkpt lat="43.1881979" lon="12.3552012"><ele>688.8333333333334</ele><time>2026-04-12T08:30:11.013Z</time></trkpt><trkpt lat="43.1882765" lon="12.3552198"><ele>692.6666666666667</ele><time>2026-04-12T08:30:14.01Z</time></trkpt><trkpt lat="43.1883541" lon="12.3552451"><ele>696.5</ele><time>2026-04-12T08:30:17.014Z</time></trkpt><trkpt lat="43.1884365" lon="12.3552639"><ele>700.3333333333334</ele><time>2026-04-12T08:30:20.012Z</time></trkpt><trkpt lat="43.1885114" lon="12.3552924"><ele>704.1666666666666</ele><time>2026-04-12T08:30:23.014Z</time></trkpt><trkpt lat="43.1885903" lon="12.3553482"><ele>708.0</ele><time>2026-04-12T08:30:26.01Z</time></trkpt><trkpt lat="43.1886711" lon="12.3553845"><ele>708.0</ele><time>2026-04-12T08:30:28.994Z</time></trkpt><trkpt lat="43.1887555" lon="12.3554133"><ele>708.0</ele><time>2026-04-12T08:30:32.011Z</time></trkpt><trkpt lat="43.188841" lon="12.35544"><ele>708.0</ele><time>2026-04-12T08:30:35.001Z</time></trkpt><trkpt lat="43.188924" lon="12.3554641"><ele>708.0</ele><time>2026-04-12T08:30:38.017Z</time></trkpt><trkpt lat="43.1890047" lon="12.3554926"><ele>708.0</ele><time>2026-04-12T08:30:40.993Z</time></trkpt><trkpt lat="43.1890792" lon="12.3555335"><ele>708.0</ele><time>2026-04-12T08:30:44.002Z</time></trkpt><trkpt lat="43.1891562" lon="12.3555652"><ele>704.6666666666666</ele><time>2026-04-12T08:30:46.993Z</time></trkpt><trkpt lat="43.1892283" lon="12.3556038"><ele>701.3333333333334</ele><time>2026-04-12T08:30:49.993Z</time></trkpt><trkpt lat="43.1893" lon="12.3556431"><ele>698.0</ele><time>2026-04-12T08:30:53.108Z</time></trkpt><trkpt lat="43.1893757" lon="12.3556583"><ele>694.6666666666667</ele><time>2026-04-12T08:30:56.003Z</time></trkpt><trkpt lat="43.1894464" lon="12.3556731"><ele>691.3333333333334</ele><time>2026-04-12T08:30:59.011Z</time></trkpt><trkpt lat="43.1895243" lon="12.3557111"><ele>688.0</ele><time>2026-04-12T08:31:03.016Z</time></trkpt><trkpt lat="43.1895928" lon="12.3557349"><ele>688.0000000000001</ele><time>2026-04-12T08:31:06.01Z</time></trkpt><trkpt lat="43.1896631" lon="12.3557591"><ele>688.0</ele><time>2026-04-12T08:31:09.011Z</time></trkpt><trkpt lat="43.1897273" lon="12.3558007"><ele>688.0</ele><time>2026-04-12T08:31:12.012Z</time></trkpt><trkpt lat="43.189792" lon="12.3558332"><ele>688.0</ele><time>2026-04-12T08:31:15.01Z</time></trkpt><trkpt lat="43.1898563" lon="12.3558443"><ele>688.0</ele><time>2026-04-12T08:31:18.003Z</time></trkpt><trkpt lat="43.1899252" lon="12.3558592"><ele>688.0000000000001</ele><time>2026-04-12T08:31:21.01Z</time></trkpt><trkpt lat="43.1899894" lon="12.3558635"><ele>688.0</ele><time>2026-04-12T08:31:24.01Z</time></trkpt><trkpt lat="43.1900541" lon="12.3558856"><ele>691.4285714285714</ele><time>2026-04-12T08:31:27.002Z</time></trkpt><trkpt lat="43.1901231" lon="12.3559104"><ele>694.8571428571429</ele><time>2026-04-12T08:31:30.011Z</time></trkpt><trkpt lat="43.1901938" lon="12.3559262"><ele>698.2857142857142</ele><time>2026-04-12T08:31:32.986Z</time></trkpt><trkpt lat="43.1902775" lon="12.3559105"><ele>701.7142857142858</ele><time>2026-04-12T08:31:37.012Z</time></trkpt><trkpt lat="43.1903456" lon="12.3558963"><ele>705.1428571428571</ele><time>2026-04-12T08:31:40.115Z</time></trkpt><trkpt lat="43.1904194" lon="12.3558816"><ele>708.5714285714286</ele><time>2026-04-12T08:31:43.011Z</time></trkpt><trkpt lat="43.1904936" lon="12.3558725"><ele>712.0</ele><time>2026-04-12T08:31:46.012Z</time></trkpt><trkpt lat="43.1905687" lon="12.3558694"><ele>711.9999999999999</ele><time>2026-04-12T08:31:49.012Z</time></trkpt><trkpt lat="43.1906343" lon="12.3558823"><ele>712.0</ele><time>2026-04-12T08:31:52.014Z</time></trkpt><trkpt lat="43.1907001" lon="12.3559161"><ele>712.0</ele><time>2026-04-12T08:31:55.008Z</time></trkpt><trkpt lat="43.1907685" lon="12.3559502"><ele>712.0</ele><time>2026-04-12T08:31:58.007Z</time></trkpt><trkpt lat="43.1908384" lon="12.35599"><ele>712.0</ele><time>2026-04-12T08:32:01.018Z</time></trkpt><trkpt lat="43.1909096" lon="12.3560084"><ele>711.9999999999999</ele><time>2026-04-12T08:32:04.008Z</time></trkpt><trkpt lat="43.1909745" lon="12.3560488"><ele>712.0</ele><time>2026-04-12T08:32:06.998Z</time></trkpt><trkpt lat="43.1910399" lon="12.3560714"><ele>714.2857142857142</ele><time>2026-04-12T08:32:10.015Z</time></trkpt><trkpt lat="43.1911076" lon="12.356089"><ele>716.5714285714286</ele><time>2026-04-12T08:32:12.993Z</time></trkpt><trkpt lat="43.1911718" lon="12.3561069"><ele>718.8571428571429</ele><time>2026-04-12T08:32:16.012Z</time></trkpt><trkpt lat="43.1912338" lon="12.3561301"><ele>721.1428571428571</ele><time>2026-04-12T08:32:19.01Z</time></trkpt><trkpt lat="43.1913024" lon="12.3561439"><ele>723.4285714285714</ele><time>2026-04-12T08:32:22.008Z</time></trkpt><trkpt lat="43.1913616" lon="12.356176"><ele>725.7142857142857</ele><time>2026-04-12T08:32:25.008Z</time></trkpt><trkpt lat="43.191428" lon="12.3562273"><ele>728.0</ele><time>2026-04-12T08:32:28.01Z</time></trkpt><trkpt lat="43.1915014" lon="12.3562374"><ele>729.4285714285714</ele><time>2026-04-12T08:32:32.007Z</time></trkpt><trkpt lat="43.1915652" lon="12.3562494"><ele>730.8571428571429</ele><time>2026-04-12T08:32:35.006Z</time></trkpt><trkpt lat="43.1916327" lon="12.3562633"><ele>732.2857142857142</ele><time>2026-04-12T08:32:38.011Z</time></trkpt><trkpt lat="43.1916893" lon="12.3563013"><ele>733.7142857142858</ele><time>2026-04-12T08:32:41.109Z</time></trkpt><trkpt lat="43.1917133" lon="12.356383"><ele>735.1428571428571</ele><time>2026-04-12T08:32:44.018Z</time></trkpt><trkpt lat="43.1916768" lon="12.3564619"><ele>736.5714285714286</ele><time>2026-04-12T08:32:47.992Z</time></trkpt><trkpt lat="43.191613" lon="12.3565006"><ele>738.0</ele><time>2026-04-12T08:32:52.008Z</time></trkpt><trkpt lat="43.191541" lon="12.3565575"><ele>734.3333333333334</ele><time>2026-04-12T08:32:56.021Z</time></trkpt><trkpt lat="43.1914664" lon="12.3566182"><ele>730.6666666666666</ele><time>2026-04-12T08:33:00Z</time></trkpt><trkpt lat="43.1913997" lon="12.3566757"><ele>727.0</ele><time>2026-04-12T08:33:03.011Z</time></trkpt><trkpt lat="43.1913391" lon="12.3567566"><ele>723.3333333333333</ele><time>2026-04-12T08:33:06.012Z</time></trkpt><trkpt lat="43.1912709" lon="12.356838"><ele>719.6666666666666</ele><time>2026-04-12T08:33:09.008Z</time></trkpt><trkpt lat="43.1911944" lon="12.3568935"><ele>716.0</ele><time>2026-04-12T08:33:12.011Z</time></trkpt><trkpt lat="43.1911143" lon="12.3569636"><ele>716.0</ele><time>2026-04-12T08:33:15.017Z</time></trkpt><trkpt lat="43.1910599" lon="12.357009"><ele>716.0</ele><time>2026-04-12T08:33:17Z</time></trkpt><trkpt lat="43.1909864" lon="12.3570904"><ele>716.0</ele><time>2026-04-12T08:33:20.011Z</time></trkpt><trkpt lat="43.1909362" lon="12.3571433"><ele>716.0</ele><time>2026-04-12T08:33:22.007Z</time></trkpt><trkpt lat="43.1908649" lon="12.3572244"><ele>716.0</ele><time>2026-04-12T08:33:25.003Z</time></trkpt><trkpt lat="43.1908134" lon="12.3572854"><ele>716.0</ele><time>2026-04-12T08:33:27.105Z</time></trkpt><trkpt lat="43.1907614" lon="12.3573498"><ele>714.8571428571429</ele><time>2026-04-12T08:33:29.012Z</time></trkpt><trkpt lat="43.1907107" lon="12.3574135"><ele>713.7142857142858</ele><time>2026-04-12T08:33:31.011Z</time></trkpt><trkpt lat="43.1906608" lon="12.3574786"><ele>712.5714285714287</ele><time>2026-04-12T08:33:33.011Z</time></trkpt><trkpt lat="43.1906106" lon="12.357546"><ele>711.4285714285714</ele><time>2026-04-12T08:33:35.007Z</time></trkpt><trkpt lat="43.1905616" lon="12.3576087"><ele>710.2857142857142</ele><time>2026-04-12T08:33:37.007Z</time></trkpt><trkpt lat="43.1905123" lon="12.3576672"><ele>709.1428571428572</ele><time>2026-04-12T08:33:39.011Z</time></trkpt><trkpt lat="43.1904657" lon="12.3577264"><ele>708.0</ele><time>2026-04-12T08:33:41.021Z</time></trkpt><trkpt lat="43.1903971" lon="12.3578157"><ele>708.0</ele><time>2026-04-12T08:33:44.007Z</time></trkpt><trkpt lat="43.190325" lon="12.3578964"><ele>708.0</ele><time>2026-04-12T08:33:47.008Z</time></trkpt><trkpt lat="43.1902631" lon="12.3579691"><ele>708.0</ele><time>2026-04-12T08:33:50.012Z</time></trkpt><trkpt lat="43.1902005" lon="12.3580379"><ele>708.0</ele><time>2026-04-12T08:33:54.01Z</time></trkpt><trkpt lat="43.1901208" lon="12.3581256"><ele>708.0</ele><time>2026-04-12T08:33:57.008Z</time></trkpt><trkpt lat="43.190067" lon="12.3581788"><ele>708.0</ele><time>2026-04-12T08:33:59.011Z</time></trkpt><trkpt lat="43.1900205" lon="12.3582421"><ele>706.4285714285714</ele><time>2026-04-12T08:34:00.992Z</time></trkpt><trkpt lat="43.1899753" lon="12.3583075"><ele>704.8571428571428</ele><time>2026-04-12T08:34:03.006Z</time></trkpt><trkpt lat="43.1899326" lon="12.3583759"><ele>703.2857142857142</ele><time>2026-04-12T08:34:05.011Z</time></trkpt><trkpt lat="43.1898942" lon="12.3584533"><ele>701.7142857142858</ele><time>2026-04-12T08:34:06.993Z</time></trkpt><trkpt lat="43.1898614" lon="12.3585385"><ele>700.1428571428571</ele><time>2026-04-12T08:34:09.009Z</time></trkpt><trkpt lat="43.1898333" lon="12.3586263"><ele>698.5714285714286</ele><time>2026-04-12T08:34:11.011Z</time></trkpt><trkpt lat="43.1898111" lon="12.3587141"><ele>697.0</ele><time>2026-04-12T08:34:13.008Z</time></trkpt><trkpt lat="43.1898017" lon="12.3588024"><ele>699.0</ele><time>2026-04-12T08:34:15.009Z</time></trkpt><trkpt lat="43.1898002" lon="12.358892"><ele>701.0</ele><time>2026-04-12T08:34:16.996Z</time></trkpt><trkpt lat="43.1898175" lon="12.3589776"><ele>703.0</ele><time>2026-04-12T08:34:19.009Z</time></trkpt><trkpt lat="43.1898314" lon="12.3590622"><ele>705.0</ele><time>2026-04-12T08:34:21.01Z</time></trkpt><trkpt lat="43.189843" lon="12.3591878"><ele>707.0</ele><time>2026-04-12T08:34:24.011Z</time></trkpt><trkpt lat="43.1898552" lon="12.3593102"><ele>709.0</ele><time>2026-04-12T08:34:27.011Z</time></trkpt><trkpt lat="43.1898347" lon="12.3593939"><ele>711.0</ele><time>2026-04-12T08:34:29.009Z</time></trkpt><trkpt lat="43.1898029" lon="12.359469"><ele>711.0</ele><time>2026-04-12T08:34:31.006Z</time></trkpt><trkpt lat="43.1897659" lon="12.3595422"><ele>711.0</ele><time>2026-04-12T08:34:32.996Z</time></trkpt><trkpt lat="43.1897317" lon="12.3596163"><ele>711.0</ele><time>2026-04-12T08:34:35.013Z</time></trkpt><trkpt lat="43.1896958" lon="12.3596876"><ele>711.0</ele><time>2026-04-12T08:34:36.997Z</time></trkpt><trkpt lat="43.1896609" lon="12.3597647"><ele>711.0</ele><time>2026-04-12T08:34:39.008Z</time></trkpt><trkpt lat="43.1896221" lon="12.3598395"><ele>711.0</ele><time>2026-04-12T08:34:41.007Z</time></trkpt><trkpt lat="43.1895816" lon="12.3599078"><ele>711.0</ele><time>2026-04-12T08:34:43.008Z</time></trkpt><trkpt lat="43.1895379" lon="12.3599713"><ele>716.0</ele><time>2026-04-12T08:34:45.005Z</time></trkpt><trkpt lat="43.1894772" lon="12.3600655"><ele>721.0</ele><time>2026-04-12T08:34:48.009Z</time></trkpt><trkpt lat="43.1894153" lon="12.3601606"><ele>726.0</ele><time>2026-04-12T08:34:51.016Z</time></trkpt><trkpt lat="43.1893588" lon="12.360264"><ele>731.0</ele><time>2026-04-12T08:34:54.007Z</time></trkpt><trkpt lat="43.1893031" lon="12.3603654"><ele>736.0</ele><time>2026-04-12T08:34:57.01Z</time></trkpt><trkpt lat="43.1892501" lon="12.3604701"><ele>734.3333333333334</ele><time>2026-04-12T08:35:00.011Z</time></trkpt><trkpt lat="43.189194" lon="12.3605603"><ele>732.6666666666667</ele><time>2026-04-12T08:35:03.008Z</time></trkpt><trkpt lat="43.1891423" lon="12.3606553"><ele>731.0</ele><time>2026-04-12T08:35:05.994Z</time></trkpt><trkpt lat="43.1890876" lon="12.3607393"><ele>729.3333333333334</ele><time>2026-04-12T08:35:08.991Z</time></trkpt><trkpt lat="43.1890235" lon="12.3608216"><ele>727.6666666666666</ele><time>2026-04-12T08:35:12.008Z</time></trkpt><trkpt lat="43.1889871" lon="12.3608934"><ele>726.0</ele><time>2026-04-12T08:35:14.011Z</time></trkpt><trkpt lat="43.1889321" lon="12.3610004"><ele>726.0</ele><time>2026-04-12T08:35:16.996Z</time></trkpt><trkpt lat="43.1888915" lon="12.3610713"><ele>726.0</ele><time>2026-04-12T08:35:18.992Z</time></trkpt><trkpt lat="43.1888559" lon="12.3611453"><ele>726.0</ele><time>2026-04-12T08:35:21.011Z</time></trkpt><trkpt lat="43.188801" lon="12.3612423"><ele>726.0</ele><time>2026-04-12T08:35:24.009Z</time></trkpt><trkpt lat="43.1887488" lon="12.3613459"><ele>726.0</ele><time>2026-04-12T08:35:26.997Z</time></trkpt><trkpt lat="43.1886993" lon="12.3614487"><ele>726.0</ele><time>2026-04-12T08:35:30.007Z</time></trkpt><trkpt lat="43.1886507" lon="12.3615476"><ele>729.8333333333334</ele><time>2026-04-12T08:35:32.997Z</time></trkpt><trkpt lat="43.1885945" lon="12.36164"><ele>733.6666666666666</ele><time>2026-04-12T08:35:35.999Z</time></trkpt><trkpt lat="43.1885425" lon="12.3617379"><ele>737.5</ele><time>2026-04-12T08:35:38.995Z</time></trkpt><trkpt lat="43.188497" lon="12.3618398"><ele>741.3333333333333</ele><time>2026-04-12T08:35:41.995Z</time></trkpt><trkpt lat="43.188454" lon="12.3619409"><ele>745.1666666666666</ele><time>2026-04-12T08:35:45.999Z</time></trkpt><trkpt lat="43.1884065" lon="12.3619982"><ele>749.0</ele><time>2026-04-12T08:37:10Z</time></trkpt><trkpt lat="43.1883361" lon="12.3620877"><ele>749.0</ele><time>2026-04-12T08:37:14.011Z</time></trkpt><trkpt lat="43.1882755" lon="12.3621494"><ele>749.0</ele><time>2026-04-12T08:37:16.008Z</time></trkpt><trkpt lat="43.1882327" lon="12.3622136"><ele>749.0</ele><time>2026-04-12T08:37:16.995Z</time></trkpt><trkpt lat="43.1881822" lon="12.3623115"><ele>749.0</ele><time>2026-04-12T08:37:18.007Z</time></trkpt><trkpt lat="43.1881524" lon="12.3623883"><ele>749.0</ele><time>2026-04-12T08:37:19.008Z</time></trkpt><trkpt lat="43.1881333" lon="12.3624778"><ele>749.0</ele><time>2026-04-12T08:37:20.012Z</time></trkpt><trkpt lat="43.1881164" lon="12.362568"><ele>749.0</ele><time>2026-04-12T08:37:21.008Z</time></trkpt><trkpt lat="43.1880948" lon="12.3626549"><ele>744.2</ele><time>2026-04-12T08:37:22.009Z</time></trkpt><trkpt lat="43.188072" lon="12.3628151"><ele>739.4000000000001</ele><time>2026-04-12T08:37:24.009Z</time></trkpt><trkpt lat="43.1880366" lon="12.3629772"><ele>734.6</ele><time>2026-04-12T08:37:26.003Z</time></trkpt><trkpt lat="43.1880153" lon="12.3630668"><ele>729.8</ele><time>2026-04-12T08:37:27.007Z</time></trkpt><trkpt lat="43.1879916" lon="12.3631586"><ele>725.0</ele><time>2026-04-12T08:37:28.012Z</time></trkpt><trkpt lat="43.187967" lon="12.3632503"><ele>725.0</ele><time>2026-04-12T08:37:29.006Z</time></trkpt><trkpt lat="43.1879438" lon="12.3633522"><ele>725.0</ele><time>2026-04-12T08:37:30.011Z</time></trkpt><trkpt lat="43.187921" lon="12.3634471"><ele>725.0</ele><time>2026-04-12T08:37:31.01Z</time></trkpt><trkpt lat="43.1878901" lon="12.3635352"><ele>725.0</ele><time>2026-04-12T08:37:32.111Z</time></trkpt><trkpt lat="43.1878319" lon="12.3637041"><ele>725.0</ele><time>2026-04-12T08:37:34.007Z</time></trkpt><trkpt lat="43.187811" lon="12.3637871"><ele>725.0</ele><time>2026-04-12T08:37:35.011Z</time></trkpt><trkpt lat="43.1877759" lon="12.3639238"><ele>725.5</ele><time>2026-04-12T08:37:37.012Z</time></trkpt><trkpt lat="43.1877516" lon="12.3640768"><ele>726.0</ele><time>2026-04-12T08:37:39.007Z</time></trkpt><trkpt lat="43.1877234" lon="12.3642277"><ele>726.5</ele><time>2026-04-12T08:37:41.003Z</time></trkpt><trkpt lat="43.187704" lon="12.3644013"><ele>727.0</ele><time>2026-04-12T08:37:43.108Z</time></trkpt><trkpt lat="43.187696" lon="12.3645761"><ele>727.0</ele><time>2026-04-12T08:37:45.006Z</time></trkpt><trkpt lat="43.1877008" lon="12.3646632"><ele>727.0</ele><time>2026-04-12T08:37:46.007Z</time></trkpt><trkpt lat="43.187704" lon="12.3647503"><ele>727.0</ele><time>2026-04-12T08:37:47.001Z</time></trkpt><trkpt lat="43.187699" lon="12.3649112"><ele>727.0</ele><time>2026-04-12T08:37:49.105Z</time></trkpt><trkpt lat="43.1877006" lon="12.3650074"><ele>727.0</ele><time>2026-04-12T08:37:50.009Z</time></trkpt><trkpt lat="43.1877068" lon="12.3651033"><ele>727.0</ele><time>2026-04-12T08:37:51.014Z</time></trkpt><trkpt lat="43.1877367" lon="12.3652826"><ele>726.1666666666667</ele><time>2026-04-12T08:37:53.016Z</time></trkpt><trkpt lat="43.187741" lon="12.3653825"><ele>725.3333333333334</ele><time>2026-04-12T08:37:54.005Z</time></trkpt><trkpt lat="43.1877518" lon="12.3654923"><ele>724.5</ele><time>2026-04-12T08:37:55.011Z</time></trkpt><trkpt lat="43.1877417" lon="12.3655893"><ele>723.6666666666666</ele><time>2026-04-12T08:37:56.011Z</time></trkpt><trkpt lat="43.1877212" lon="12.3656819"><ele>722.8333333333333</ele><time>2026-04-12T08:37:57.007Z</time></trkpt><trkpt lat="43.1877148" lon="12.3658314"><ele>722.0</ele><time>2026-04-12T08:37:59.004Z</time></trkpt><trkpt lat="43.1877205" lon="12.36594"><ele>721.6666666666666</ele><time>2026-04-12T08:38:01.006Z</time></trkpt><trkpt lat="43.1876941" lon="12.3660259"><ele>721.3333333333333</ele><time>2026-04-12T08:38:05.008Z</time></trkpt><trkpt lat="43.1876362" lon="12.3659756"><ele>721.0</ele><time>2026-04-12T08:38:08.009Z</time></trkpt><trkpt lat="43.1876064" lon="12.365862"><ele>720.6666666666666</ele><time>2026-04-12T08:38:11.003Z</time></trkpt><trkpt lat="43.1875731" lon="12.3657714"><ele>720.3333333333334</ele><time>2026-04-12T08:38:13.009Z</time></trkpt><trkpt lat="43.1875239" lon="12.3656449"><ele>720.0</ele><time>2026-04-12T08:38:16.005Z</time></trkpt><trkpt lat="43.1875083" lon="12.3655441"><ele>720.4</ele><time>2026-04-12T08:38:16.996Z</time></trkpt><trkpt lat="43.187462" lon="12.3654381"><ele>720.8</ele><time>2026-04-12T08:38:19Z</time></trkpt><trkpt lat="43.1874007" lon="12.3652792"><ele>721.2</ele><time>2026-04-12T08:38:21.008Z</time></trkpt><trkpt lat="43.1873769" lon="12.3651371"><ele>721.6</ele><time>2026-04-12T08:38:23.008Z</time></trkpt><trkpt lat="43.1873231" lon="12.3650455"><ele>722.0</ele><time>2026-04-12T08:38:26.01Z</time></trkpt><trkpt lat="43.1872721" lon="12.36495"><ele>716.5</ele><time>2026-04-12T08:38:28.003Z</time></trkpt><trkpt lat="43.1872145" lon="12.3648593"><ele>711.0</ele><time>2026-04-12T08:38:30.006Z</time></trkpt><trkpt lat="43.1871623" lon="12.3647648"><ele>705.5</ele><time>2026-04-12T08:38:32.007Z</time></trkpt><trkpt lat="43.1871134" lon="12.3646802"><ele>700.0</ele><time>2026-04-12T08:38:34.006Z</time></trkpt><trkpt lat="43.1870623" lon="12.3645829"><ele>694.5</ele><time>2026-04-12T08:38:37.01Z</time></trkpt><trkpt lat="43.1870008" lon="12.3644816"><ele>689.0</ele><time>2026-04-12T08:38:39.007Z</time></trkpt><trkpt lat="43.1869547" lon="12.3643842"><ele>689.0</ele><time>2026-04-12T08:38:41.012Z</time></trkpt><trkpt lat="43.1869104" lon="12.3643011"><ele>689.0</ele><time>2026-04-12T08:38:43.007Z</time></trkpt><trkpt lat="43.186861" lon="12.3642166"><ele>689.0</ele><time>2026-04-12T08:38:45.004Z</time></trkpt><trkpt lat="43.1868365" lon="12.3641207"><ele>689.0</ele><time>2026-04-12T08:38:46.995Z</time></trkpt><trkpt lat="43.18681" lon="12.364032"><ele>689.0</ele><time>2026-04-12T08:38:49.005Z</time></trkpt><trkpt lat="43.1867625" lon="12.3639277"><ele>689.0</ele><time>2026-04-12T08:38:51.007Z</time></trkpt><trkpt lat="43.1867008" lon="12.3638299"><ele>688.8333333333333</ele><time>2026-04-12T08:38:53.004Z</time></trkpt><trkpt lat="43.1866509" lon="12.3637293"><ele>688.6666666666666</ele><time>2026-04-12T08:38:55.008Z</time></trkpt><trkpt lat="43.1866049" lon="12.3636304"><ele>688.5</ele><time>2026-04-12T08:38:56.999Z</time></trkpt><trkpt lat="43.1865617" lon="12.3635462"><ele>688.3333333333334</ele><time>2026-04-12T08:38:59.004Z</time></trkpt><trkpt lat="43.1865232" lon="12.3634404"><ele>688.1666666666667</ele><time>2026-04-12T08:39:02.015Z</time></trkpt><trkpt lat="43.186472" lon="12.3633566"><ele>688.0</ele><time>2026-04-12T08:39:06.014Z</time></trkpt><trkpt lat="43.1863937" lon="12.3633866"><ele>682.3333333333334</ele><time>2026-04-12T08:39:10.011Z</time></trkpt><trkpt lat="43.1863482" lon="12.3634628"><ele>676.6666666666667</ele><time>2026-04-12T08:39:12.021Z</time></trkpt><trkpt lat="43.1863055" lon="12.363551"><ele>671.0</ele><time>2026-04-12T08:39:14.009Z</time></trkpt><trkpt lat="43.1862649" lon="12.3636467"><ele>665.3333333333334</ele><time>2026-04-12T08:39:16.011Z</time></trkpt><trkpt lat="43.1862152" lon="12.3637164"><ele>659.6666666666666</ele><time>2026-04-12T08:39:18.019Z</time></trkpt><trkpt lat="43.1861896" lon="12.3638145"><ele>654.0</ele><time>2026-04-12T08:39:20.01Z</time></trkpt><trkpt lat="43.1861495" lon="12.3639235"><ele>654.0</ele><time>2026-04-12T08:39:22.008Z</time></trkpt><trkpt lat="43.1861215" lon="12.3640321"><ele>654.0</ele><time>2026-04-12T08:39:24.011Z</time></trkpt><trkpt lat="43.186079" lon="12.364136"><ele>654.0</ele><time>2026-04-12T08:39:26.006Z</time></trkpt><trkpt lat="43.1860578" lon="12.364257"><ele>654.0</ele><time>2026-04-12T08:39:28.011Z</time></trkpt><trkpt lat="43.1860256" lon="12.3643783"><ele>654.0</ele><time>2026-04-12T08:39:30.105Z</time></trkpt><trkpt lat="43.1859869" lon="12.3644933"><ele>654.0</ele><time>2026-04-12T08:39:32.01Z</time></trkpt><trkpt lat="43.1859775" lon="12.3645941"><ele>653.6666666666666</ele><time>2026-04-12T08:39:34.009Z</time></trkpt><trkpt lat="43.1859389" lon="12.3647068"><ele>653.3333333333334</ele><time>2026-04-12T08:39:36.998Z</time></trkpt><trkpt lat="43.1859167" lon="12.3647937"><ele>653.0</ele><time>2026-04-12T08:39:39.007Z</time></trkpt><trkpt lat="43.1859021" lon="12.3649193"><ele>652.6666666666667</ele><time>2026-04-12T08:39:42.005Z</time></trkpt><trkpt lat="43.1858618" lon="12.3650218"><ele>652.3333333333334</ele><time>2026-04-12T08:39:44.007Z</time></trkpt><trkpt lat="43.1858245" lon="12.3651279"><ele>652.0</ele><time>2026-04-12T08:39:46.002Z</time></trkpt><trkpt lat="43.1857838" lon="12.3651943"><ele>652.0</ele><time>2026-04-12T08:39:48.006Z</time></trkpt><trkpt lat="43.185721" lon="12.3652334"><ele>652.0</ele><time>2026-04-12T08:39:50.007Z</time></trkpt><trkpt lat="43.1856606" lon="12.3652677"><ele>652.0</ele><time>2026-04-12T08:39:52.009Z</time></trkpt><trkpt lat="43.185569" lon="12.3652944"><ele>652.0</ele><time>2026-04-12T08:39:55.015Z</time></trkpt><trkpt lat="43.1854869" lon="12.365318"><ele>652.0</ele><time>2026-04-12T08:39:57.011Z</time></trkpt><trkpt lat="43.1853577" lon="12.3653197"><ele>652.0</ele><time>2026-04-12T08:39:59.111Z</time></trkpt><trkpt lat="43.185282" lon="12.3653368"><ele>648.1666666666667</ele><time>2026-04-12T08:40:00.011Z</time></trkpt><trkpt lat="43.1852013" lon="12.3653438"><ele>644.3333333333334</ele><time>2026-04-12T08:40:01.004Z</time></trkpt><trkpt lat="43.1851177" lon="12.3653528"><ele>640.5</ele><time>2026-04-12T08:40:02.007Z</time></trkpt><trkpt lat="43.1850272" lon="12.365359"><ele>636.6666666666666</ele><time>2026-04-12T08:40:03.013Z</time></trkpt><trkpt lat="43.1849362" lon="12.3653569"><ele>632.8333333333333</ele><time>2026-04-12T08:40:04.014Z</time></trkpt><trkpt lat="43.1848431" lon="12.3653547"><ele>629.0</ele><time>2026-04-12T08:40:05.106Z</time></trkpt><trkpt lat="43.1847477" lon="12.3653606"><ele>628.5</ele><time>2026-04-12T08:40:06.011Z</time></trkpt><trkpt lat="43.1846501" lon="12.3653632"><ele>628.0</ele><time>2026-04-12T08:40:07.005Z</time></trkpt><trkpt lat="43.1845542" lon="12.3653706"><ele>627.5</ele><time>2026-04-12T08:40:08.006Z</time></trkpt><trkpt lat="43.1844679" lon="12.365382"><ele>627.0</ele><time>2026-04-12T08:40:09.006Z</time></trkpt><trkpt lat="43.1843888" lon="12.3653811"><ele>626.5</ele><time>2026-04-12T08:40:09.998Z</time></trkpt><trkpt lat="43.1843211" lon="12.3653779"><ele>626.0</ele><time>2026-04-12T08:40:11.004Z</time></trkpt><trkpt lat="43.1842405" lon="12.3653446"><ele>626.0</ele><time>2026-04-12T08:40:13.008Z</time></trkpt><trkpt lat="43.1841844" lon="12.3653873"><ele>626.0</ele><time>2026-04-12T08:43:28.008Z</time></trkpt><trkpt lat="43.1841698" lon="12.3655"><ele>626.0</ele><time>2026-04-12T08:43:32.008Z</time></trkpt><trkpt lat="43.1841563" lon="12.3656197"><ele>626.0</ele><time>2026-04-12T08:43:34.995Z</time></trkpt><trkpt lat="43.1841401" lon="12.3657155"><ele>626.0</ele><time>2026-04-12T08:43:37.105Z</time></trkpt><trkpt lat="43.1841174" lon="12.3658265"><ele>626.0</ele><time>2026-04-12T08:43:39.016Z</time></trkpt><trkpt lat="43.184077" lon="12.3659545"><ele>626.0</ele><time>2026-04-12T08:43:41.008Z</time></trkpt><trkpt lat="43.1840629" lon="12.3661079"><ele>626.0</ele><time>2026-04-12T08:43:43.005Z</time></trkpt><trkpt lat="43.1840476" lon="12.3662874"><ele>626.0</ele><time>2026-04-12T08:43:45.008Z</time></trkpt><trkpt lat="43.184051" lon="12.3663772"><ele>626.0</ele><time>2026-04-12T08:43:46.005Z</time></trkpt><trkpt lat="43.1840487" lon="12.3664662"><ele>626.0</ele><time>2026-04-12T08:43:46.998Z</time></trkpt><trkpt lat="43.1840447" lon="12.3665576"><ele>626.0</ele><time>2026-04-12T08:43:48.003Z</time></trkpt><trkpt lat="43.1840432" lon="12.3666472"><ele>624.2</ele><time>2026-04-12T08:43:49.007Z</time></trkpt><trkpt lat="43.1840537" lon="12.366742"><ele>622.4000000000001</ele><time>2026-04-12T08:43:50.012Z</time></trkpt><trkpt lat="43.1840637" lon="12.3669099"><ele>620.6</ele><time>2026-04-12T08:43:52.001Z</time></trkpt><trkpt lat="43.1840654" lon="12.3670711"><ele>618.8000000000001</ele><time>2026-04-12T08:43:54.006Z</time></trkpt><trkpt lat="43.1840441" lon="12.3672513"><ele>617.0</ele><time>2026-04-12T08:43:56.995Z</time></trkpt><trkpt lat="43.1840234" lon="12.367336"><ele>616.8333333333333</ele><time>2026-04-12T08:43:59.008Z</time></trkpt><trkpt lat="43.1839989" lon="12.3674435"><ele>616.6666666666666</ele><time>2026-04-12T08:44:02.003Z</time></trkpt><trkpt lat="43.1840036" lon="12.3675558"><ele>616.5</ele><time>2026-04-12T08:44:04.996Z</time></trkpt><trkpt lat="43.1840393" lon="12.3676272"><ele>616.3333333333334</ele><time>2026-04-12T08:44:06.996Z</time></trkpt><trkpt lat="43.184084" lon="12.3677415"><ele>616.1666666666667</ele><time>2026-04-12T08:44:10.01Z</time></trkpt><trkpt lat="43.1841103" lon="12.3678266"><ele>616.0</ele><time>2026-04-12T08:44:12.002Z</time></trkpt><trkpt lat="43.1841328" lon="12.3679173"><ele>616.0</ele><time>2026-04-12T08:44:14.015Z</time></trkpt><trkpt lat="43.18414" lon="12.3680177"><ele>616.0</ele><time>2026-04-12T08:44:16.003Z</time></trkpt><trkpt lat="43.1841445" lon="12.3681265"><ele>616.0</ele><time>2026-04-12T08:44:18.005Z</time></trkpt><trkpt lat="43.184137" lon="12.3682399"><ele>616.0</ele><time>2026-04-12T08:44:20.013Z</time></trkpt><trkpt lat="43.1841285" lon="12.3683696"><ele>616.0</ele><time>2026-04-12T08:44:21.996Z</time></trkpt><trkpt lat="43.1841379" lon="12.3684755"><ele>616.0</ele><time>2026-04-12T08:44:24.011Z</time></trkpt><trkpt lat="43.1841541" lon="12.3685928"><ele>616.4</ele><time>2026-04-12T08:44:26.012Z</time></trkpt><trkpt lat="43.1841964" lon="12.3687146"><ele>616.8</ele><time>2026-04-12T08:44:28.008Z</time></trkpt><trkpt lat="43.1842351" lon="12.3688138"><ele>617.1999999999999</ele><time>2026-04-12T08:44:30.004Z</time></trkpt><trkpt lat="43.1842661" lon="12.3688992"><ele>617.6</ele><time>2026-04-12T08:44:32.008Z</time></trkpt><trkpt lat="43.1843084" lon="12.3689959"><ele>618.0</ele><time>2026-04-12T08:44:34.016Z</time></trkpt><trkpt lat="43.1843541" lon="12.3691517"><ele>618.6666666666666</ele><time>2026-04-12T08:44:36.006Z</time></trkpt><trkpt lat="43.1843865" lon="12.3693255"><ele>619.3333333333334</ele><time>2026-04-12T08:44:38.001Z</time></trkpt><trkpt lat="43.1844068" lon="12.3694264"><ele>620.0</ele><time>2026-04-12T08:44:38.997Z</time></trkpt><trkpt lat="43.1844318" lon="12.3695102"><ele>620.6666666666667</ele><time>2026-04-12T08:44:40Z</time></trkpt><trkpt lat="43.1844492" lon="12.3695972"><ele>621.3333333333334</ele><time>2026-04-12T08:44:41.007Z</time></trkpt><trkpt lat="43.1844778" lon="12.3696856"><ele>622.0</ele><time>2026-04-12T08:44:42.001Z</time></trkpt><trkpt lat="43.1845062" lon="12.3697937"><ele>622.5</ele><time>2026-04-12T08:44:43.004Z</time></trkpt><trkpt lat="43.1845322" lon="12.3698806"><ele>623.0</ele><time>2026-04-12T08:44:44.004Z</time></trkpt><trkpt lat="43.1845718" lon="12.3699629"><ele>623.5</ele><time>2026-04-12T08:44:45.002Z</time></trkpt><trkpt lat="43.1846117" lon="12.370069"><ele>624.0</ele><time>2026-04-12T08:44:46.008Z</time></trkpt><trkpt lat="43.184635" lon="12.3702038"><ele>624.5</ele><time>2026-04-12T08:44:48.006Z</time></trkpt><trkpt lat="43.1846684" lon="12.3703005"><ele>625.0</ele><time>2026-04-12T08:44:50.002Z</time></trkpt><trkpt lat="43.1847329" lon="12.3702417"><ele>625.0</ele><time>2026-04-12T08:44:53.997Z</time></trkpt><trkpt lat="43.1847838" lon="12.3700985"><ele>625.0</ele><time>2026-04-12T08:44:56.007Z</time></trkpt><trkpt lat="43.1848181" lon="12.3699212"><ele>625.0</ele><time>2026-04-12T08:44:58.001Z</time></trkpt><trkpt lat="43.1848361" lon="12.3698159"><ele>625.0</ele><time>2026-04-12T08:44:59.004Z</time></trkpt><trkpt lat="43.1848793" lon="12.3696798"><ele>625.0</ele><time>2026-04-12T08:45:00.996Z</time></trkpt><trkpt lat="43.1849188" lon="12.3695499"><ele>622.0</ele><time>2026-04-12T08:45:03Z</time></trkpt><trkpt lat="43.1849553" lon="12.3694696"><ele>619.0</ele><time>2026-04-12T08:45:04.991Z</time></trkpt><trkpt lat="43.1850495" lon="12.3695429"><ele>616.0</ele><time>2026-04-12T08:45:08.997Z</time></trkpt><trkpt lat="43.1851389" lon="12.3696482"><ele>613.0</ele><time>2026-04-12T08:45:10.988Z</time></trkpt><trkpt lat="43.1851791" lon="12.3697556"><ele>610.0</ele><time>2026-04-12T08:45:12.99Z</time></trkpt><trkpt lat="43.1851907" lon="12.3698745"><ele>609.2</ele><time>2026-04-12T08:45:14.986Z</time></trkpt><trkpt lat="43.1852044" lon="12.3699862"><ele>608.4</ele><time>2026-04-12T08:45:16.998Z</time></trkpt><trkpt lat="43.1852621" lon="12.3701877"><ele>607.6</ele><time>2026-04-12T08:45:20.006Z</time></trkpt><trkpt lat="43.1853135" lon="12.3702439"><ele>606.8</ele><time>2026-04-12T08:45:21.007Z</time></trkpt><trkpt lat="43.1853706" lon="12.3703687"><ele>606.0</ele><time>2026-04-12T08:45:23.013Z</time></trkpt><trkpt lat="43.185426" lon="12.3705248"><ele>605.3333333333334</ele><time>2026-04-12T08:45:25.011Z</time></trkpt><trkpt lat="43.1854482" lon="12.3706122"><ele>604.6666666666666</ele><time>2026-04-12T08:45:26.013Z</time></trkpt><trkpt lat="43.1854609" lon="12.370697"><ele>604.0</ele><time>2026-04-12T08:45:26.996Z</time></trkpt><trkpt lat="43.1854644" lon="12.3708001"><ele>603.3333333333333</ele><time>2026-04-12T08:45:28.014Z</time></trkpt><trkpt lat="43.1854926" lon="12.3708898"><ele>602.6666666666666</ele><time>2026-04-12T08:45:29.012Z</time></trkpt><trkpt lat="43.1855287" lon="12.3710235"><ele>602.0</ele><time>2026-04-12T08:45:31.006Z</time></trkpt><trkpt lat="43.1855468" lon="12.3711319"><ele>602.0</ele><time>2026-04-12T08:45:32.008Z</time></trkpt><trkpt lat="43.1855797" lon="12.3712155"><ele>602.0</ele><time>2026-04-12T08:45:33.01Z</time></trkpt><trkpt lat="43.1855788" lon="12.3713071"><ele>602.0</ele><time>2026-04-12T08:45:34.004Z</time></trkpt><trkpt lat="43.1855661" lon="12.3714694"><ele>602.0</ele><time>2026-04-12T08:45:36.006Z</time></trkpt><trkpt lat="43.1855518" lon="12.3716235"><ele>602.0</ele><time>2026-04-12T08:45:38.014Z</time></trkpt><trkpt lat="43.1855518" lon="12.3717134"><ele>602.0</ele><time>2026-04-12T08:45:39.007Z</time></trkpt><trkpt lat="43.1855456" lon="12.3718724"><ele>601.0</ele><time>2026-04-12T08:45:41.005Z</time></trkpt><trkpt lat="43.1855305" lon="12.3720218"><ele>600.0</ele><time>2026-04-12T08:45:43.01Z</time></trkpt><trkpt lat="43.185503" lon="12.3721531"><ele>599.0</ele><time>2026-04-12T08:45:45.011Z</time></trkpt><trkpt lat="43.1855557" lon="12.3722857"><ele>598.0</ele><time>2026-04-12T08:45:47.014Z</time></trkpt><trkpt lat="43.1856067" lon="12.3723533"><ele>597.0</ele><time>2026-04-12T08:45:48.002Z</time></trkpt><trkpt lat="43.1856633" lon="12.3724493"><ele>592.6666666666666</ele><time>2026-04-12T08:45:50.009Z</time></trkpt><trkpt lat="43.1856872" lon="12.3725388"><ele>588.3333333333334</ele><time>2026-04-12T08:45:52.005Z</time></trkpt><trkpt lat="43.1857335" lon="12.3726375"><ele>584.0</ele><time>2026-04-12T08:45:54.005Z</time></trkpt><trkpt lat="43.1857808" lon="12.3727263"><ele>579.6666666666667</ele><time>2026-04-12T08:45:56.012Z</time></trkpt><trkpt lat="43.1858246" lon="12.3728179"><ele>575.3333333333334</ele><time>2026-04-12T08:45:58.008Z</time></trkpt><trkpt lat="43.185864" lon="12.3729184"><ele>571.0</ele><time>2026-04-12T08:46:00.005Z</time></trkpt><trkpt lat="43.1858888" lon="12.3730191"><ele>572.4</ele><time>2026-04-12T08:46:02.011Z</time></trkpt><trkpt lat="43.1859289" lon="12.3731436"><ele>573.8</ele><time>2026-04-12T08:46:04.004Z</time></trkpt><trkpt lat="43.1859594" lon="12.3732375"><ele>575.1999999999999</ele><time>2026-04-12T08:46:06.005Z</time></trkpt><trkpt lat="43.1859923" lon="12.3733485"><ele>576.6</ele><time>2026-04-12T08:46:08.005Z</time></trkpt><trkpt lat="43.1860339" lon="12.3735109"><ele>578.0</ele><time>2026-04-12T08:46:10.009Z</time></trkpt><trkpt lat="43.1860677" lon="12.3735945"><ele>578.0</ele><time>2026-04-12T08:46:11.007Z</time></trkpt><trkpt lat="43.1860987" lon="12.3736808"><ele>578.0</ele><time>2026-04-12T08:46:12.113Z</time></trkpt><trkpt lat="43.1861549" lon="12.3738425"><ele>578.0</ele><time>2026-04-12T08:46:14.011Z</time></trkpt><trkpt lat="43.1861864" lon="12.3739224"><ele>578.0</ele><time>2026-04-12T08:46:15.014Z</time></trkpt><trkpt lat="43.1862283" lon="12.3740188"><ele>578.0</ele><time>2026-04-12T08:46:16.007Z</time></trkpt><trkpt lat="43.1862705" lon="12.3741206"><ele>578.0</ele><time>2026-04-12T08:46:17.002Z</time></trkpt><trkpt lat="43.1862995" lon="12.374201"><ele>579.1999999999999</ele><time>2026-04-12T08:46:18.007Z</time></trkpt><trkpt lat="43.1863284" lon="12.3742805"><ele>580.4</ele><time>2026-04-12T08:46:19.013Z</time></trkpt><trkpt lat="43.1863546" lon="12.3743622"><ele>581.5999999999999</ele><time>2026-04-12T08:46:20.013Z</time></trkpt><trkpt lat="43.1863669" lon="12.3744607"><ele>582.8</ele><time>2026-04-12T08:46:21.004Z</time></trkpt><trkpt lat="43.1864294" lon="12.374609"><ele>584.0</ele><time>2026-04-12T08:46:23.004Z</time></trkpt><trkpt lat="43.1864956" lon="12.3747497"><ele>578.2</ele><time>2026-04-12T08:46:25.011Z</time></trkpt><trkpt lat="43.1865353" lon="12.3748879"><ele>572.4</ele><time>2026-04-12T08:46:27.013Z</time></trkpt><trkpt lat="43.1865632" lon="12.3750485"><ele>566.6</ele><time>2026-04-12T08:46:29.012Z</time></trkpt><trkpt lat="43.1865835" lon="12.375145"><ele>560.8</ele><time>2026-04-12T08:46:30.006Z</time></trkpt><trkpt lat="43.186603" lon="12.3753416"><ele>555.0</ele><time>2026-04-12T08:46:32.005Z</time></trkpt><trkpt lat="43.1866007" lon="12.3754394"><ele>554.8333333333334</ele><time>2026-04-12T08:46:33.004Z</time></trkpt><trkpt lat="43.1865921" lon="12.3755374"><ele>554.6666666666666</ele><time>2026-04-12T08:46:34.1Z</time></trkpt><trkpt lat="43.1865918" lon="12.3756422"><ele>554.5</ele><time>2026-04-12T08:46:35.01Z</time></trkpt><trkpt lat="43.1866165" lon="12.3757452"><ele>554.3333333333333</ele><time>2026-04-12T08:46:36.012Z</time></trkpt><trkpt lat="43.1866436" lon="12.375844"><ele>554.1666666666666</ele><time>2026-04-12T08:46:37.001Z</time></trkpt><trkpt lat="43.1866856" lon="12.3759515"><ele>554.0</ele><time>2026-04-12T08:46:38.012Z</time></trkpt><trkpt lat="43.1867005" lon="12.3760435"><ele>554.0</ele><time>2026-04-12T08:46:39.002Z</time></trkpt><trkpt lat="43.1867015" lon="12.3762113"><ele>554.0</ele><time>2026-04-12T08:46:41.011Z</time></trkpt><trkpt lat="43.1867412" lon="12.3763145"><ele>554.0</ele><time>2026-04-12T08:46:41.999Z</time></trkpt><trkpt lat="43.1867956" lon="12.3764749"><ele>554.0</ele><time>2026-04-12T08:46:44.005Z</time></trkpt><trkpt lat="43.1868159" lon="12.3765701"><ele>554.0</ele><time>2026-04-12T08:46:45.009Z</time></trkpt><trkpt lat="43.1868315" lon="12.3766679"><ele>554.0</ele><time>2026-04-12T08:46:46.109Z</time></trkpt><trkpt lat="43.1868725" lon="12.3768405"><ele>554.0</ele><time>2026-04-12T08:46:48.011Z</time></trkpt><trkpt lat="43.1869263" lon="12.3770033"><ele>554.0</ele><time>2026-04-12T08:46:50.011Z</time></trkpt><trkpt lat="43.1869491" lon="12.3770997"><ele>554.0</ele><time>2026-04-12T08:46:51Z</time></trkpt><trkpt lat="43.1869759" lon="12.3771879"><ele>554.0</ele><time>2026-04-12T08:46:52.005Z</time></trkpt><trkpt lat="43.1870003" lon="12.3773588"><ele>554.0</ele><time>2026-04-12T08:46:54.005Z</time></trkpt><trkpt lat="43.187012" lon="12.3774946"><ele>554.0</ele><time>2026-04-12T08:46:56.006Z</time></trkpt><trkpt lat="43.187002" lon="12.3776214"><ele>554.0</ele><time>2026-04-12T08:46:57.996Z</time></trkpt><trkpt lat="43.1870173" lon="12.3777357"><ele>554.0</ele><time>2026-04-12T08:47:00.01Z</time></trkpt><trkpt lat="43.1870128" lon="12.3778556"><ele>554.0</ele><time>2026-04-12T08:47:02.006Z</time></trkpt><trkpt lat="43.1870032" lon="12.377962"><ele>554.0</ele><time>2026-04-12T08:47:05.005Z</time></trkpt><trkpt lat="43.1870429" lon="12.3780327"><ele>554.0</ele><time>2026-04-12T08:48:04.013Z</time></trkpt><trkpt lat="43.1871021" lon="12.377994"><ele>554.0</ele><time>2026-04-12T08:48:23.009Z</time></trkpt><trkpt lat="43.187105" lon="12.3780807"><ele>554.0</ele><time>2026-04-12T08:50:10.012Z</time></trkpt><trkpt lat="43.1870629" lon="12.3781797"><ele>554.0</ele><time>2026-04-12T08:50:14.01Z</time></trkpt><trkpt lat="43.1870095" lon="12.378267"><ele>554.0</ele><time>2026-04-12T08:50:16.997Z</time></trkpt><trkpt lat="43.186947" lon="12.3783557"><ele>554.0</ele><time>2026-04-12T08:50:20.009Z</time></trkpt><trkpt lat="43.1869009" lon="12.3784337"><ele>551.4</ele><time>2026-04-12T08:50:21.989Z</time></trkpt><trkpt lat="43.1868572" lon="12.3785509"><ele>548.8</ele><time>2026-04-12T08:50:24Z</time></trkpt><trkpt lat="43.1867562" lon="12.3786632"><ele>546.2</ele><time>2026-04-12T08:50:25.991Z</time></trkpt><trkpt lat="43.1866607" lon="12.3787684"><ele>543.6</ele><time>2026-04-12T08:50:28.015Z</time></trkpt><trkpt lat="43.1866108" lon="12.3788252"><ele>541.0</ele><time>2026-04-12T08:50:29.009Z</time></trkpt><trkpt lat="43.1865051" lon="12.3789062"><ele>539.25</ele><time>2026-04-12T08:50:31.005Z</time></trkpt><trkpt lat="43.186405" lon="12.3789754"><ele>537.5</ele><time>2026-04-12T08:50:33.008Z</time></trkpt><trkpt lat="43.1863001" lon="12.3790613"><ele>535.75</ele><time>2026-04-12T08:50:35.01Z</time></trkpt><trkpt lat="43.1861253" lon="12.3792023"><ele>534.0</ele><time>2026-04-12T08:50:38.01Z</time></trkpt><trkpt lat="43.1860656" lon="12.3792523"><ele>534.0</ele><time>2026-04-12T08:50:39.004Z</time></trkpt><trkpt lat="43.1859939" lon="12.3792973"><ele>534.0</ele><time>2026-04-12T08:50:40.011Z</time></trkpt><trkpt lat="43.1859208" lon="12.3793323"><ele>534.0</ele><time>2026-04-12T08:50:41.005Z</time></trkpt><trkpt lat="43.1858417" lon="12.3793702"><ele>534.0</ele><time>2026-04-12T08:50:42.001Z</time></trkpt><trkpt lat="43.1857682" lon="12.3794045"><ele>534.0</ele><time>2026-04-12T08:50:43.002Z</time></trkpt><trkpt lat="43.1856911" lon="12.3794396"><ele>534.0</ele><time>2026-04-12T08:50:44.003Z</time></trkpt><trkpt lat="43.1856138" lon="12.3794634"><ele>533.0</ele><time>2026-04-12T08:50:45.012Z</time></trkpt><trkpt lat="43.1855333" lon="12.3794919"><ele>532.0</ele><time>2026-04-12T08:50:46.003Z</time></trkpt><trkpt lat="43.1854518" lon="12.3795242"><ele>531.0</ele><time>2026-04-12T08:50:46.997Z</time></trkpt><trkpt lat="43.1853778" lon="12.3795559"><ele>530.0</ele><time>2026-04-12T08:50:48.103Z</time></trkpt><trkpt lat="43.1853029" lon="12.3795846"><ele>529.0</ele><time>2026-04-12T08:50:49.008Z</time></trkpt><trkpt lat="43.1852254" lon="12.3796088"><ele>528.0</ele><time>2026-04-12T08:50:50.006Z</time></trkpt><trkpt lat="43.1851513" lon="12.3796357"><ele>528.0</ele><time>2026-04-12T08:50:51.007Z</time></trkpt><trkpt lat="43.1850796" lon="12.3796457"><ele>528.0</ele><time>2026-04-12T08:50:52.007Z</time></trkpt><trkpt lat="43.1850047" lon="12.3796554"><ele>528.0</ele><time>2026-04-12T08:50:53.004Z</time></trkpt><trkpt lat="43.1849231" lon="12.3796502"><ele>528.0</ele><time>2026-04-12T08:50:54.013Z</time></trkpt><trkpt lat="43.184847" lon="12.3796254"><ele>528.0</ele><time>2026-04-12T08:50:55.007Z</time></trkpt><trkpt lat="43.1847663" lon="12.3795698"><ele>528.0</ele><time>2026-04-12T08:50:56.003Z</time></trkpt><trkpt lat="43.1846991" lon="12.3794912"><ele>522.0</ele><time>2026-04-12T08:50:57.006Z</time></trkpt><trkpt lat="43.1846383" lon="12.379396"><ele>516.0</ele><time>2026-04-12T08:50:58.004Z</time></trkpt><trkpt lat="43.1845908" lon="12.379293"><ele>509.99999999999994</ele><time>2026-04-12T08:50:59.006Z</time></trkpt><trkpt lat="43.1845417" lon="12.3791913"><ele>504.0</ele><time>2026-04-12T08:51:00.003Z</time></trkpt><trkpt lat="43.1844911" lon="12.3790851"><ele>498.0</ele><time>2026-04-12T08:51:01.004Z</time></trkpt><trkpt lat="43.1844448" lon="12.3789746"><ele>498.0</ele><time>2026-04-12T08:51:02.006Z</time></trkpt><trkpt lat="43.1843971" lon="12.3788584"><ele>497.99999999999994</ele><time>2026-04-12T08:51:02.999Z</time></trkpt><trkpt lat="43.1843434" lon="12.3787425"><ele>497.99999999999994</ele><time>2026-04-12T08:51:04.007Z</time></trkpt><trkpt lat="43.1842891" lon="12.378627"><ele>498.0</ele><time>2026-04-12T08:51:05.001Z</time></trkpt><trkpt lat="43.1842398" lon="12.3785163"><ele>498.0</ele><time>2026-04-12T08:51:06.005Z</time></trkpt><trkpt lat="43.1841905" lon="12.3784071"><ele>497.59999999999997</ele><time>2026-04-12T08:51:07.005Z</time></trkpt><trkpt lat="43.1841325" lon="12.37829"><ele>497.19999999999993</ele><time>2026-04-12T08:51:08.005Z</time></trkpt><trkpt lat="43.1840836" lon="12.3781759"><ele>496.8</ele><time>2026-04-12T08:51:09.001Z</time></trkpt><trkpt lat="43.1840309" lon="12.3780616"><ele>496.4</ele><time>2026-04-12T08:51:10.012Z</time></trkpt><trkpt lat="43.1839777" lon="12.37795"><ele>496.0</ele><time>2026-04-12T08:51:11.003Z</time></trkpt><trkpt lat="43.1839227" lon="12.3778372"><ele>496.0</ele><time>2026-04-12T08:51:12.102Z</time></trkpt><trkpt lat="43.1838357" lon="12.3776055"><ele>496.0</ele><time>2026-04-12T08:51:14.004Z</time></trkpt><trkpt lat="43.1837972" lon="12.3774972"><ele>496.0</ele><time>2026-04-12T08:51:15.008Z</time></trkpt><trkpt lat="43.1837516" lon="12.3774011"><ele>496.0</ele><time>2026-04-12T08:51:16.009Z</time></trkpt><trkpt lat="43.1837009" lon="12.377322"><ele>496.0</ele><time>2026-04-12T08:51:16.996Z</time></trkpt><trkpt lat="43.1836353" lon="12.3772682"><ele>496.0</ele><time>2026-04-12T08:51:18.003Z</time></trkpt><trkpt lat="43.183547" lon="12.3772212"><ele>496.0</ele><time>2026-04-12T08:51:19.007Z</time></trkpt><trkpt lat="43.1834522" lon="12.3771997"><ele>496.0</ele><time>2026-04-12T08:51:20.005Z</time></trkpt><trkpt lat="43.1833529" lon="12.3772037"><ele>496.0</ele><time>2026-04-12T08:51:21.007Z</time></trkpt><trkpt lat="43.1832584" lon="12.3772233"><ele>496.0</ele><time>2026-04-12T08:51:22.006Z</time></trkpt><trkpt lat="43.1831675" lon="12.3772423"><ele>495.6666666666667</ele><time>2026-04-12T08:51:23.009Z</time></trkpt><trkpt lat="43.1830914" lon="12.377263"><ele>495.33333333333337</ele><time>2026-04-12T08:51:24.004Z</time></trkpt><trkpt lat="43.1830235" lon="12.3772839"><ele>495.0</ele><time>2026-04-12T08:51:25.005Z</time></trkpt><trkpt lat="43.1829607" lon="12.3772961"><ele>494.66666666666663</ele><time>2026-04-12T08:51:26.007Z</time></trkpt><trkpt lat="43.1828546" lon="12.3772783"><ele>494.3333333333333</ele><time>2026-04-12T08:51:28.01Z</time></trkpt><trkpt lat="43.1827757" lon="12.3771747"><ele>494.0</ele><time>2026-04-12T08:51:30.106Z</time></trkpt><trkpt lat="43.1826905" lon="12.3770516"><ele>494.0</ele><time>2026-04-12T08:51:32.004Z</time></trkpt><trkpt lat="43.1826377" lon="12.3769827"><ele>494.0</ele><time>2026-04-12T08:51:33.006Z</time></trkpt><trkpt lat="43.1825863" lon="12.3769179"><ele>494.0</ele><time>2026-04-12T08:51:34.003Z</time></trkpt><trkpt lat="43.1825363" lon="12.3768508"><ele>494.0</ele><time>2026-04-12T08:51:35.006Z</time></trkpt><trkpt lat="43.1824854" lon="12.3767819"><ele>494.0</ele><time>2026-04-12T08:51:36.003Z</time></trkpt><trkpt lat="43.1824395" lon="12.3767146"><ele>494.0</ele><time>2026-04-12T08:51:37.009Z</time></trkpt><trkpt lat="43.1823962" lon="12.3766477"><ele>494.0</ele><time>2026-04-12T08:51:38.007Z</time></trkpt><trkpt lat="43.1823533" lon="12.3765838"><ele>494.3333333333333</ele><time>2026-04-12T08:51:39.012Z</time></trkpt><trkpt lat="43.1823076" lon="12.3765207"><ele>494.66666666666663</ele><time>2026-04-12T08:51:40.004Z</time></trkpt><trkpt lat="43.1822632" lon="12.3764397"><ele>495.0</ele><time>2026-04-12T08:51:41.009Z</time></trkpt><trkpt lat="43.1822147" lon="12.37637"><ele>495.33333333333337</ele><time>2026-04-12T08:51:42.107Z</time></trkpt><trkpt lat="43.1821281" lon="12.3762329"><ele>495.6666666666667</ele><time>2026-04-12T08:51:44.007Z</time></trkpt><trkpt lat="43.1820849" lon="12.3761575"><ele>496.0</ele><time>2026-04-12T08:51:45.008Z</time></trkpt><trkpt lat="43.1820386" lon="12.3760816"><ele>496.00000000000006</ele><time>2026-04-12T08:51:46.01Z</time></trkpt><trkpt lat="43.1819999" lon="12.3760024"><ele>496.0</ele><time>2026-04-12T08:51:46.997Z</time></trkpt><trkpt lat="43.1819499" lon="12.3759266"><ele>496.0</ele><time>2026-04-12T08:51:48.114Z</time></trkpt><trkpt lat="43.1818647" lon="12.3757777"><ele>496.0</ele><time>2026-04-12T08:51:50.008Z</time></trkpt><trkpt lat="43.181821" lon="12.3756981"><ele>496.00000000000006</ele><time>2026-04-12T08:51:51.002Z</time></trkpt><trkpt lat="43.1817752" lon="12.375615"><ele>496.0</ele><time>2026-04-12T08:51:51.998Z</time></trkpt><trkpt lat="43.1817255" lon="12.3755238"><ele>497.00000000000006</ele><time>2026-04-12T08:51:53.009Z</time></trkpt><trkpt lat="43.1816778" lon="12.3754354"><ele>498.0</ele><time>2026-04-12T08:51:54.012Z</time></trkpt><trkpt lat="43.1816244" lon="12.3753529"><ele>499.0</ele><time>2026-04-12T08:51:55.002Z</time></trkpt><trkpt lat="43.1815678" lon="12.3752648"><ele>500.0</ele><time>2026-04-12T08:51:56.007Z</time></trkpt><trkpt lat="43.181515" lon="12.3751762"><ele>501.00000000000006</ele><time>2026-04-12T08:51:57.009Z</time></trkpt><trkpt lat="43.1814711" lon="12.3750865"><ele>502.0</ele><time>2026-04-12T08:51:58.008Z</time></trkpt><trkpt lat="43.1814111" lon="12.3750009"><ele>502.00000000000006</ele><time>2026-04-12T08:51:59.004Z</time></trkpt><trkpt lat="43.1813659" lon="12.3749193"><ele>502.0</ele><time>2026-04-12T08:52:00.003Z</time></trkpt><trkpt lat="43.1813219" lon="12.3748344"><ele>502.0</ele><time>2026-04-12T08:52:01.02Z</time></trkpt><trkpt lat="43.1812739" lon="12.3747491"><ele>502.0</ele><time>2026-04-12T08:52:02.009Z</time></trkpt><trkpt lat="43.1812275" lon="12.3746682"><ele>502.00000000000006</ele><time>2026-04-12T08:52:03.005Z</time></trkpt><trkpt lat="43.181179" lon="12.3745841"><ele>502.0</ele><time>2026-04-12T08:52:04.015Z</time></trkpt><trkpt lat="43.1811332" lon="12.3745008"><ele>499.2857142857142</ele><time>2026-04-12T08:52:05.008Z</time></trkpt><trkpt lat="43.1810869" lon="12.3744287"><ele>496.57142857142856</ele><time>2026-04-12T08:52:06.003Z</time></trkpt><trkpt lat="43.1810472" lon="12.3743508"><ele>493.85714285714283</ele><time>2026-04-12T08:52:07.012Z</time></trkpt><trkpt lat="43.1809923" lon="12.3742755"><ele>491.1428571428571</ele><time>2026-04-12T08:52:08.005Z</time></trkpt><trkpt lat="43.1809296" lon="12.3742064"><ele>488.42857142857144</ele><time>2026-04-12T08:52:09.012Z</time></trkpt><trkpt lat="43.1808707" lon="12.3741449"><ele>485.7142857142857</ele><time>2026-04-12T08:52:10.005Z</time></trkpt><trkpt lat="43.1808075" lon="12.3740877"><ele>483.0</ele><time>2026-04-12T08:52:11.002Z</time></trkpt><trkpt lat="43.1807442" lon="12.3740265"><ele>481.5</ele><time>2026-04-12T08:52:12.001Z</time></trkpt><trkpt lat="43.180677" lon="12.3739632"><ele>480.0</ele><time>2026-04-12T08:52:13.008Z</time></trkpt><trkpt lat="43.180606" lon="12.3739079"><ele>478.5</ele><time>2026-04-12T08:52:14.007Z</time></trkpt><trkpt lat="43.1805394" lon="12.3738551"><ele>477.0</ele><time>2026-04-12T08:52:14.996Z</time></trkpt><trkpt lat="43.1804715" lon="12.373798"><ele>475.5</ele><time>2026-04-12T08:52:16.008Z</time></trkpt><trkpt lat="43.1804086" lon="12.3737364"><ele>474.0</ele><time>2026-04-12T08:52:17.003Z</time></trkpt><trkpt lat="43.1803353" lon="12.373676"><ele>474.0</ele><time>2026-04-12T08:52:18.104Z</time></trkpt><trkpt lat="43.180194" lon="12.3735689"><ele>474.0</ele><time>2026-04-12T08:52:20.008Z</time></trkpt><trkpt lat="43.1801281" lon="12.3735156"><ele>474.0</ele><time>2026-04-12T08:52:21.001Z</time></trkpt><trkpt lat="43.1800522" lon="12.3734605"><ele>474.0</ele><time>2026-04-12T08:52:22.012Z</time></trkpt><trkpt lat="43.1799812" lon="12.3734097"><ele>474.0</ele><time>2026-04-12T08:52:23.012Z</time></trkpt><trkpt lat="43.1799122" lon="12.3733513"><ele>472.71428571428567</ele><time>2026-04-12T08:52:24.01Z</time></trkpt><trkpt lat="43.179844" lon="12.3732995"><ele>471.42857142857144</ele><time>2026-04-12T08:52:25.001Z</time></trkpt><trkpt lat="43.1797873" lon="12.3732433"><ele>470.1428571428571</ele><time>2026-04-12T08:52:25.994Z</time></trkpt><trkpt lat="43.1797241" lon="12.3731965"><ele>468.85714285714283</ele><time>2026-04-12T08:52:27.003Z</time></trkpt><trkpt lat="43.1796596" lon="12.373138"><ele>467.57142857142856</ele><time>2026-04-12T08:52:28.004Z</time></trkpt><trkpt lat="43.1795957" lon="12.3730803"><ele>466.2857142857143</ele><time>2026-04-12T08:52:29.001Z</time></trkpt><trkpt lat="43.1795294" lon="12.373031"><ele>465.0</ele><time>2026-04-12T08:52:30.002Z</time></trkpt><trkpt lat="43.179466" lon="12.3729866"><ele>465.0</ele><time>2026-04-12T08:52:31.009Z</time></trkpt><trkpt lat="43.1794048" lon="12.3729453"><ele>465.0</ele><time>2026-04-12T08:52:31.991Z</time></trkpt><trkpt lat="43.1793347" lon="12.3729007"><ele>465.0</ele><time>2026-04-12T08:52:33.003Z</time></trkpt><trkpt lat="43.1792707" lon="12.372856"><ele>465.0</ele><time>2026-04-12T08:52:34.012Z</time></trkpt><trkpt lat="43.1792076" lon="12.3728078"><ele>465.0</ele><time>2026-04-12T08:52:35.111Z</time></trkpt><trkpt lat="43.1791471" lon="12.3727656"><ele>465.0</ele><time>2026-04-12T08:52:36.012Z</time></trkpt><trkpt lat="43.1790854" lon="12.3727274"><ele>465.0</ele><time>2026-04-12T08:52:36.998Z</time></trkpt><trkpt lat="43.1790133" lon="12.3727022"><ele>465.85714285714283</ele><time>2026-04-12T08:52:38.012Z</time></trkpt><trkpt lat="43.1789437" lon="12.372658"><ele>466.7142857142858</ele><time>2026-04-12T08:52:39.003Z</time></trkpt><trkpt lat="43.1788865" lon="12.372615"><ele>467.5714285714286</ele><time>2026-04-12T08:52:40.004Z</time></trkpt><trkpt lat="43.1788159" lon="12.3725737"><ele>468.42857142857144</ele><time>2026-04-12T08:52:40.999Z</time></trkpt><trkpt lat="43.1787424" lon="12.3725351"><ele>469.28571428571433</ele><time>2026-04-12T08:52:42.008Z</time></trkpt><trkpt lat="43.1786738" lon="12.3724938"><ele>470.1428571428572</ele><time>2026-04-12T08:52:43Z</time></trkpt><trkpt lat="43.1786066" lon="12.3724506"><ele>471.00000000000006</ele><time>2026-04-12T08:52:44.002Z</time></trkpt><trkpt lat="43.1785494" lon="12.3724092"><ele>471.00000000000006</ele><time>2026-04-12T08:52:45.01Z</time></trkpt><trkpt lat="43.1784878" lon="12.3723688"><ele>471.0</ele><time>2026-04-12T08:52:46.009Z</time></trkpt><trkpt lat="43.1784116" lon="12.3723281"><ele>471.00000000000006</ele><time>2026-04-12T08:52:46.993Z</time></trkpt><trkpt lat="43.178351" lon="12.3722852"><ele>471.00000000000006</ele><time>2026-04-12T08:52:48.005Z</time></trkpt><trkpt lat="43.1782826" lon="12.3722397"><ele>471.0</ele><time>2026-04-12T08:52:48.999Z</time></trkpt><trkpt lat="43.1782248" lon="12.3721889"><ele>471.00000000000006</ele><time>2026-04-12T08:52:50.003Z</time></trkpt><trkpt lat="43.1781662" lon="12.372131"><ele>471.00000000000006</ele><time>2026-04-12T08:52:51.011Z</time></trkpt><trkpt lat="43.1780547" lon="12.3720222"><ele>470.0</ele><time>2026-04-12T08:52:53.001Z</time></trkpt><trkpt lat="43.1780047" lon="12.3719485"><ele>469.0</ele><time>2026-04-12T08:52:54.004Z</time></trkpt><trkpt lat="43.177954" lon="12.3718673"><ele>468.0</ele><time>2026-04-12T08:52:55.012Z</time></trkpt><trkpt lat="43.1778954" lon="12.3718043"><ele>467.0</ele><time>2026-04-12T08:52:56.01Z</time></trkpt><trkpt lat="43.1778415" lon="12.3717256"><ele>466.0</ele><time>2026-04-12T08:52:56.999Z</time></trkpt><trkpt lat="43.1777799" lon="12.3716559"><ele>465.0</ele><time>2026-04-12T08:52:58.004Z</time></trkpt><trkpt lat="43.1777199" lon="12.3715875"><ele>465.0</ele><time>2026-04-12T08:52:59.008Z</time></trkpt><trkpt lat="43.1776608" lon="12.371522"><ele>465.0</ele><time>2026-04-12T08:53:00.007Z</time></trkpt><trkpt lat="43.1776047" lon="12.3714538"><ele>465.0</ele><time>2026-04-12T08:53:00.991Z</time></trkpt><trkpt lat="43.1775486" lon="12.3713834"><ele>465.0</ele><time>2026-04-12T08:53:02.004Z</time></trkpt><trkpt lat="43.1774981" lon="12.371312"><ele>465.0</ele><time>2026-04-12T08:53:03.004Z</time></trkpt><trkpt lat="43.1774423" lon="12.3712453"><ele>465.0</ele><time>2026-04-12T08:53:03.998Z</time></trkpt><trkpt lat="43.1773876" lon="12.3711779"><ele>465.0</ele><time>2026-04-12T08:53:04.997Z</time></trkpt><trkpt lat="43.1773381" lon="12.3711185"><ele>466.0</ele><time>2026-04-12T08:53:06.002Z</time></trkpt><trkpt lat="43.1772789" lon="12.3710504"><ele>467.0</ele><time>2026-04-12T08:53:06.997Z</time></trkpt><trkpt lat="43.1772232" lon="12.3709824"><ele>468.0</ele><time>2026-04-12T08:53:08.001Z</time></trkpt><trkpt lat="43.1771739" lon="12.370921"><ele>469.0</ele><time>2026-04-12T08:53:09.004Z</time></trkpt><trkpt lat="43.1771303" lon="12.3708535"><ele>470.0</ele><time>2026-04-12T08:53:10.005Z</time></trkpt><trkpt lat="43.1770951" lon="12.3707811"><ele>471.0</ele><time>2026-04-12T08:53:10.99Z</time></trkpt><trkpt lat="43.1770654" lon="12.370698"><ele>472.0</ele><time>2026-04-12T08:53:12.011Z</time></trkpt><trkpt lat="43.1770381" lon="12.3706153"><ele>472.00000000000006</ele><time>2026-04-12T08:53:12.998Z</time></trkpt><trkpt lat="43.1770376" lon="12.3705277"><ele>472.0</ele><time>2026-04-12T08:53:14.006Z</time></trkpt><trkpt lat="43.1770492" lon="12.3703699"><ele>472.0</ele><time>2026-04-12T08:53:16.003Z</time></trkpt><trkpt lat="43.1770728" lon="12.3701892"><ele>472.0</ele><time>2026-04-12T08:53:18.006Z</time></trkpt><trkpt lat="43.1770937" lon="12.3700956"><ele>472.00000000000006</ele><time>2026-04-12T08:53:18.993Z</time></trkpt><trkpt lat="43.1771195" lon="12.3700164"><ele>472.0</ele><time>2026-04-12T08:53:20.007Z</time></trkpt><trkpt lat="43.1771619" lon="12.3697393"><ele>470.71428571428567</ele><time>2026-04-12T08:53:23.007Z</time></trkpt><trkpt lat="43.1771843" lon="12.3696434"><ele>469.42857142857144</ele><time>2026-04-12T08:53:24.001Z</time></trkpt><trkpt lat="43.1772027" lon="12.3695462"><ele>468.1428571428571</ele><time>2026-04-12T08:53:25.011Z</time></trkpt><trkpt lat="43.1772183" lon="12.3694505"><ele>466.85714285714283</ele><time>2026-04-12T08:53:26.001Z</time></trkpt><trkpt lat="43.1772246" lon="12.3693468"><ele>465.57142857142856</ele><time>2026-04-12T08:53:27.003Z</time></trkpt><trkpt lat="43.1772135" lon="12.3692505"><ele>464.2857142857143</ele><time>2026-04-12T08:53:27.999Z</time></trkpt><trkpt lat="43.1771978" lon="12.3691474"><ele>463.0</ele><time>2026-04-12T08:53:28.981Z</time></trkpt><trkpt lat="43.1771436" lon="12.3690509"><ele>463.00000000000006</ele><time>2026-04-12T08:53:30.009Z</time></trkpt><trkpt lat="43.1770781" lon="12.3689639"><ele>463.0</ele><time>2026-04-12T08:53:31.011Z</time></trkpt><trkpt lat="43.1770138" lon="12.3688877"><ele>463.0</ele><time>2026-04-12T08:53:32Z</time></trkpt><trkpt lat="43.1769352" lon="12.3688185"><ele>463.0</ele><time>2026-04-12T08:53:33.01Z</time></trkpt><trkpt lat="43.1768559" lon="12.3687552"><ele>463.00000000000006</ele><time>2026-04-12T08:53:34.007Z</time></trkpt><trkpt lat="43.1767845" lon="12.3686911"><ele>463.0</ele><time>2026-04-12T08:53:35.008Z</time></trkpt><trkpt lat="43.1767119" lon="12.3686203"><ele>464.2</ele><time>2026-04-12T08:53:36.005Z</time></trkpt><trkpt lat="43.1766416" lon="12.3685465"><ele>465.4</ele><time>2026-04-12T08:53:36.996Z</time></trkpt><trkpt lat="43.1765775" lon="12.3684587"><ele>466.59999999999997</ele><time>2026-04-12T08:53:38.004Z</time></trkpt><trkpt lat="43.1765198" lon="12.3683597"><ele>467.79999999999995</ele><time>2026-04-12T08:53:39.018Z</time></trkpt><trkpt lat="43.1764699" lon="12.3682563"><ele>469.0</ele><time>2026-04-12T08:53:40.006Z</time></trkpt><trkpt lat="43.1764231" lon="12.3681544"><ele>469.0</ele><time>2026-04-12T08:53:41.008Z</time></trkpt><trkpt lat="43.1763798" lon="12.368048"><ele>469.0</ele><time>2026-04-12T08:53:42.014Z</time></trkpt><trkpt lat="43.1763312" lon="12.3679395"><ele>469.0</ele><time>2026-04-12T08:53:43.005Z</time></trkpt><trkpt lat="43.1762868" lon="12.3678344"><ele>469.0</ele><time>2026-04-12T08:53:44.001Z</time></trkpt><trkpt lat="43.1762284" lon="12.3677075"><ele>469.0</ele><time>2026-04-12T08:53:45.006Z</time></trkpt><trkpt lat="43.1761709" lon="12.3676127"><ele>465.0</ele><time>2026-04-12T08:53:46.007Z</time></trkpt><trkpt lat="43.1761095" lon="12.3675238"><ele>461.0</ele><time>2026-04-12T08:53:47.001Z</time></trkpt><trkpt lat="43.1760398" lon="12.3674402"><ele>457.0</ele><time>2026-04-12T08:53:47.989Z</time></trkpt><trkpt lat="43.1759672" lon="12.3673651"><ele>453.0</ele><time>2026-04-12T08:53:49.003Z</time></trkpt><trkpt lat="43.1758919" lon="12.3672922"><ele>449.0</ele><time>2026-04-12T08:53:50.106Z</time></trkpt><trkpt lat="43.1757405" lon="12.3671524"><ele>447.4</ele><time>2026-04-12T08:53:51.991Z</time></trkpt><trkpt lat="43.1756558" lon="12.3670874"><ele>445.79999999999995</ele><time>2026-04-12T08:53:52.998Z</time></trkpt><trkpt lat="43.1755735" lon="12.3670115"><ele>444.20000000000005</ele><time>2026-04-12T08:53:54.008Z</time></trkpt><trkpt lat="43.1754944" lon="12.3669279"><ele>442.6</ele><time>2026-04-12T08:53:55.002Z</time></trkpt><trkpt lat="43.1754204" lon="12.3668408"><ele>441.0</ele><time>2026-04-12T08:53:56.108Z</time></trkpt><trkpt lat="43.1752635" lon="12.3666903"><ele>441.0</ele><time>2026-04-12T08:53:58.009Z</time></trkpt><trkpt lat="43.1751805" lon="12.3666186"><ele>441.0</ele><time>2026-04-12T08:53:58.996Z</time></trkpt><trkpt lat="43.1751018" lon="12.3665451"><ele>441.0</ele><time>2026-04-12T08:53:59.998Z</time></trkpt><trkpt lat="43.1750247" lon="12.3664718"><ele>441.0</ele><time>2026-04-12T08:54:01.009Z</time></trkpt><trkpt lat="43.1749436" lon="12.3664012"><ele>441.0</ele><time>2026-04-12T08:54:02.007Z</time></trkpt><trkpt lat="43.1748629" lon="12.3663313"><ele>436.8</ele><time>2026-04-12T08:54:03.015Z</time></trkpt><trkpt lat="43.1747862" lon="12.366263"><ele>432.6</ele><time>2026-04-12T08:54:03.994Z</time></trkpt><trkpt lat="43.1747064" lon="12.3661957"><ele>428.4</ele><time>2026-04-12T08:54:04.995Z</time></trkpt><trkpt lat="43.1746146" lon="12.3661475"><ele>424.2</ele><time>2026-04-12T08:54:05.985Z</time></trkpt><trkpt lat="43.1745198" lon="12.3661245"><ele>420.0</ele><time>2026-04-12T08:54:06.987Z</time></trkpt><trkpt lat="43.174418" lon="12.3661264"><ele>420.0</ele><time>2026-04-12T08:54:07.993Z</time></trkpt><trkpt lat="43.174324" lon="12.3661419"><ele>420.0</ele><time>2026-04-12T08:54:08.998Z</time></trkpt><trkpt lat="43.1742207" lon="12.3661515"><ele>420.0</ele><time>2026-04-12T08:54:09.99Z</time></trkpt><trkpt lat="43.1741244" lon="12.3661636"><ele>420.0</ele><time>2026-04-12T08:54:10.991Z</time></trkpt><trkpt lat="43.1740329" lon="12.3661799"><ele>420.0</ele><time>2026-04-12T08:54:11.999Z</time></trkpt><trkpt lat="43.1739368" lon="12.3661861"><ele>420.8</ele><time>2026-04-12T08:54:12.989Z</time></trkpt><trkpt lat="43.1738459" lon="12.3661702"><ele>421.6</ele><time>2026-04-12T08:54:13.994Z</time></trkpt><trkpt lat="43.1737532" lon="12.3661317"><ele>422.4</ele><time>2026-04-12T08:54:14.997Z</time></trkpt><trkpt lat="43.1736703" lon="12.3660831"><ele>423.2</ele><time>2026-04-12T08:54:15.995Z</time></trkpt><trkpt lat="43.1735852" lon="12.3660279"><ele>424.0</ele><time>2026-04-12T08:54:16.995Z</time></trkpt><trkpt lat="43.173506" lon="12.3659734"><ele>424.0</ele><time>2026-04-12T08:54:18.012Z</time></trkpt><trkpt lat="43.17343" lon="12.3659115"><ele>424.0</ele><time>2026-04-12T08:54:19.094Z</time></trkpt><trkpt lat="43.1733542" lon="12.365846"><ele>424.0</ele><time>2026-04-12T08:54:20.006Z</time></trkpt><trkpt lat="43.1732742" lon="12.3657826"><ele>424.0</ele><time>2026-04-12T08:54:21.007Z</time></trkpt><trkpt lat="43.1731956" lon="12.3657222"><ele>424.0</ele><time>2026-04-12T08:54:22Z</time></trkpt><trkpt lat="43.1731138" lon="12.3656675"><ele>423.50000000000006</ele><time>2026-04-12T08:54:23.008Z</time></trkpt><trkpt lat="43.1730349" lon="12.3656348"><ele>423.0</ele><time>2026-04-12T08:54:24.004Z</time></trkpt><trkpt lat="43.1729532" lon="12.3656156"><ele>422.5</ele><time>2026-04-12T08:54:25.098Z</time></trkpt><trkpt lat="43.1728615" lon="12.3656186"><ele>422.0</ele><time>2026-04-12T08:54:26.009Z</time></trkpt><trkpt lat="43.1727708" lon="12.3656329"><ele>421.50000000000006</ele><time>2026-04-12T08:54:27.004Z</time></trkpt><trkpt lat="43.1726782" lon="12.3656457"><ele>421.0</ele><time>2026-04-12T08:54:27.998Z</time></trkpt><trkpt lat="43.1725902" lon="12.3656685"><ele>421.00000000000006</ele><time>2026-04-12T08:54:29.01Z</time></trkpt><trkpt lat="43.1725048" lon="12.3656817"><ele>421.0</ele><time>2026-04-12T08:54:30.005Z</time></trkpt><trkpt lat="43.1724182" lon="12.3657108"><ele>421.0</ele><time>2026-04-12T08:54:31.002Z</time></trkpt><trkpt lat="43.1723368" lon="12.3657314"><ele>421.0</ele><time>2026-04-12T08:54:32.009Z</time></trkpt><trkpt lat="43.1722548" lon="12.3657458"><ele>421.00000000000006</ele><time>2026-04-12T08:54:33.011Z</time></trkpt><trkpt lat="43.1721645" lon="12.3657719"><ele>421.0</ele><time>2026-04-12T08:54:34.001Z</time></trkpt><trkpt lat="43.1720805" lon="12.365797"><ele>419.83333333333337</ele><time>2026-04-12T08:54:35.002Z</time></trkpt><trkpt lat="43.1719942" lon="12.3658153"><ele>418.6666666666667</ele><time>2026-04-12T08:54:36.006Z</time></trkpt><trkpt lat="43.171913" lon="12.3658387"><ele>417.5</ele><time>2026-04-12T08:54:37.005Z</time></trkpt><trkpt lat="43.1718255" lon="12.3658484"><ele>416.33333333333337</ele><time>2026-04-12T08:54:38.007Z</time></trkpt><trkpt lat="43.1717354" lon="12.3658757"><ele>415.1666666666667</ele><time>2026-04-12T08:54:39.012Z</time></trkpt><trkpt lat="43.1716472" lon="12.3658941"><ele>414.0</ele><time>2026-04-12T08:54:40.007Z</time></trkpt><trkpt lat="43.1715672" lon="12.3659163"><ele>412.6666666666667</ele><time>2026-04-12T08:54:41.007Z</time></trkpt><trkpt lat="43.1714852" lon="12.3659309"><ele>411.33333333333337</ele><time>2026-04-12T08:54:42.005Z</time></trkpt><trkpt lat="43.1714034" lon="12.3659559"><ele>410.0</ele><time>2026-04-12T08:54:43.003Z</time></trkpt><trkpt lat="43.1713172" lon="12.3659756"><ele>408.6666666666667</ele><time>2026-04-12T08:54:44.003Z</time></trkpt><trkpt lat="43.1712311" lon="12.3659988"><ele>407.33333333333337</ele><time>2026-04-12T08:54:45.001Z</time></trkpt><trkpt lat="43.1711463" lon="12.3660172"><ele>406.0</ele><time>2026-04-12T08:54:46.001Z</time></trkpt><trkpt lat="43.1710623" lon="12.3660323"><ele>406.00000000000006</ele><time>2026-04-12T08:54:47.002Z</time></trkpt><trkpt lat="43.1709779" lon="12.3660504"><ele>406.0</ele><time>2026-04-12T08:54:48.014Z</time></trkpt><trkpt lat="43.1708925" lon="12.3660655"><ele>406.0</ele><time>2026-04-12T08:54:48.995Z</time></trkpt><trkpt lat="43.1708075" lon="12.3660853"><ele>406.0</ele><time>2026-04-12T08:54:50.011Z</time></trkpt><trkpt lat="43.1707258" lon="12.3661101"><ele>406.00000000000006</ele><time>2026-04-12T08:54:51.004Z</time></trkpt><trkpt lat="43.1706356" lon="12.3661282"><ele>406.0</ele><time>2026-04-12T08:54:51.999Z</time></trkpt><trkpt lat="43.1705498" lon="12.366159"><ele>403.8</ele><time>2026-04-12T08:54:53.007Z</time></trkpt><trkpt lat="43.1704577" lon="12.3661748"><ele>401.6</ele><time>2026-04-12T08:54:54.001Z</time></trkpt><trkpt lat="43.1703674" lon="12.3661947"><ele>399.4</ele><time>2026-04-12T08:54:55.005Z</time></trkpt><trkpt lat="43.1702772" lon="12.3662136"><ele>397.2</ele><time>2026-04-12T08:54:56.006Z</time></trkpt><trkpt lat="43.1701875" lon="12.3662345"><ele>395.0</ele><time>2026-04-12T08:54:57.006Z</time></trkpt><trkpt lat="43.1700972" lon="12.3662508"><ele>394.99999999999994</ele><time>2026-04-12T08:54:58.002Z</time></trkpt><trkpt lat="43.1700079" lon="12.3662654"><ele>395.0</ele><time>2026-04-12T08:54:59.002Z</time></trkpt><trkpt lat="43.1699195" lon="12.3662853"><ele>395.0</ele><time>2026-04-12T08:55:00.001Z</time></trkpt><trkpt lat="43.1698334" lon="12.3663072"><ele>395.0</ele><time>2026-04-12T08:55:01Z</time></trkpt><trkpt lat="43.1697462" lon="12.3663269"><ele>394.99999999999994</ele><time>2026-04-12T08:55:02.001Z</time></trkpt><trkpt lat="43.1696577" lon="12.3663547"><ele>395.0</ele><time>2026-04-12T08:55:03.013Z</time></trkpt><trkpt lat="43.1695704" lon="12.3663863"><ele>395.6</ele><time>2026-04-12T08:55:03.989Z</time></trkpt><trkpt lat="43.1694864" lon="12.3664402"><ele>396.2</ele><time>2026-04-12T08:55:05.001Z</time></trkpt><trkpt lat="43.1694076" lon="12.366508"><ele>396.79999999999995</ele><time>2026-04-12T08:55:06.01Z</time></trkpt><trkpt lat="43.1693397" lon="12.3665881"><ele>397.4</ele><time>2026-04-12T08:55:07.106Z</time></trkpt><trkpt lat="43.1692918" lon="12.3666973"><ele>398.0</ele><time>2026-04-12T08:55:08.008Z</time></trkpt><trkpt lat="43.1692611" lon="12.3668015"><ele>398.0</ele><time>2026-04-12T08:55:09.002Z</time></trkpt><trkpt lat="43.1692397" lon="12.3669259"><ele>398.0</ele><time>2026-04-12T08:55:09.991Z</time></trkpt><trkpt lat="43.1692396" lon="12.3670558"><ele>398.0</ele><time>2026-04-12T08:55:11.014Z</time></trkpt><trkpt lat="43.1692697" lon="12.3671793"><ele>398.0</ele><time>2026-04-12T08:55:12.031Z</time></trkpt><trkpt lat="43.1693108" lon="12.3672956"><ele>398.0</ele><time>2026-04-12T08:55:12.999Z</time></trkpt><trkpt lat="43.1693652" lon="12.3673957"><ele>397.49999999999994</ele><time>2026-04-12T08:55:13.999Z</time></trkpt><trkpt lat="43.1694341" lon="12.3674918"><ele>397.0</ele><time>2026-04-12T08:55:14.997Z</time></trkpt><trkpt lat="43.1695009" lon="12.3675796"><ele>396.5</ele><time>2026-04-12T08:55:15.983Z</time></trkpt><trkpt lat="43.1695678" lon="12.3676323"><ele>396.0</ele><time>2026-04-12T08:55:16.99Z</time></trkpt><trkpt lat="43.1696564" lon="12.3676627"><ele>395.49999999999994</ele><time>2026-04-12T08:55:18.006Z</time></trkpt><trkpt lat="43.1697323" lon="12.367706"><ele>395.0</ele><time>2026-04-12T08:55:19.004Z</time></trkpt><trkpt lat="43.1698205" lon="12.367735"><ele>396.2</ele><time>2026-04-12T08:55:20.015Z</time></trkpt><trkpt lat="43.1699083" lon="12.3677846"><ele>397.4</ele><time>2026-04-12T08:55:21.011Z</time></trkpt><trkpt lat="43.1699952" lon="12.3678188"><ele>398.6</ele><time>2026-04-12T08:55:22.003Z</time></trkpt><trkpt lat="43.1700865" lon="12.367853"><ele>399.8</ele><time>2026-04-12T08:55:23.002Z</time></trkpt><trkpt lat="43.1701699" lon="12.3678811"><ele>401.0</ele><time>2026-04-12T08:55:24Z</time></trkpt><trkpt lat="43.1702565" lon="12.3679213"><ele>400.99999999999994</ele><time>2026-04-12T08:55:25.002Z</time></trkpt><trkpt lat="43.1703356" lon="12.3679569"><ele>401.0</ele><time>2026-04-12T08:55:26.005Z</time></trkpt><trkpt lat="43.1704049" lon="12.3680147"><ele>401.0</ele><time>2026-04-12T08:55:27.004Z</time></trkpt><trkpt lat="43.1704481" lon="12.3681048"><ele>401.0</ele><time>2026-04-12T08:55:28.003Z</time></trkpt><trkpt lat="43.1704769" lon="12.3682116"><ele>400.99999999999994</ele><time>2026-04-12T08:55:29.005Z</time></trkpt><trkpt lat="43.1704832" lon="12.368315"><ele>401.0</ele><time>2026-04-12T08:55:30.007Z</time></trkpt><trkpt lat="43.1704537" lon="12.3684218"><ele>398.6</ele><time>2026-04-12T08:55:31.003Z</time></trkpt><trkpt lat="43.1703881" lon="12.368502"><ele>396.20000000000005</ele><time>2026-04-12T08:55:32.003Z</time></trkpt><trkpt lat="43.1703037" lon="12.3685532"><ele>393.79999999999995</ele><time>2026-04-12T08:55:32.987Z</time></trkpt><trkpt lat="43.1702236" lon="12.3685912"><ele>391.4</ele><time>2026-04-12T08:55:33.994Z</time></trkpt><trkpt lat="43.1701205" lon="12.3685325"><ele>389.0</ele><time>2026-04-12T08:55:35.004Z</time></trkpt><trkpt lat="43.1700269" lon="12.3684957"><ele>389.0</ele><time>2026-04-12T08:55:36.002Z</time></trkpt><trkpt lat="43.1699335" lon="12.3684634"><ele>389.0</ele><time>2026-04-12T08:55:37.004Z</time></trkpt><trkpt lat="43.1698358" lon="12.3684248"><ele>389.0</ele><time>2026-04-12T08:55:38.004Z</time></trkpt><trkpt lat="43.1697407" lon="12.368397"><ele>389.0</ele><time>2026-04-12T08:55:39.007Z</time></trkpt><trkpt lat="43.1696455" lon="12.3683647"><ele>389.0</ele><time>2026-04-12T08:55:40.006Z</time></trkpt><trkpt lat="43.1695538" lon="12.3683266"><ele>386.79999999999995</ele><time>2026-04-12T08:55:41.001Z</time></trkpt><trkpt lat="43.1694553" lon="12.3682893"><ele>384.59999999999997</ele><time>2026-04-12T08:55:42Z</time></trkpt><trkpt lat="43.1693508" lon="12.3682538"><ele>382.4</ele><time>2026-04-12T08:55:42.998Z</time></trkpt><trkpt lat="43.1692504" lon="12.3682176"><ele>380.2</ele><time>2026-04-12T08:55:44.002Z</time></trkpt><trkpt lat="43.1691508" lon="12.3681882"><ele>378.0</ele><time>2026-04-12T08:55:45.003Z</time></trkpt><trkpt lat="43.1690501" lon="12.3681555"><ele>376.59999999999997</ele><time>2026-04-12T08:55:45.997Z</time></trkpt><trkpt lat="43.1689473" lon="12.3681229"><ele>375.2</ele><time>2026-04-12T08:55:46.995Z</time></trkpt><trkpt lat="43.1688461" lon="12.3680903"><ele>373.8</ele><time>2026-04-12T08:55:48.012Z</time></trkpt><trkpt lat="43.1687457" lon="12.3680637"><ele>372.4</ele><time>2026-04-12T08:55:48.992Z</time></trkpt><trkpt lat="43.1686359" lon="12.3680237"><ele>371.0</ele><time>2026-04-12T08:55:50.011Z</time></trkpt><trkpt lat="43.1685347" lon="12.3680151"><ele>370.0</ele><time>2026-04-12T08:55:51Z</time></trkpt><trkpt lat="43.1684324" lon="12.3680116"><ele>369.0</ele><time>2026-04-12T08:55:51.978Z</time></trkpt><trkpt lat="43.168306" lon="12.3679802"><ele>368.0</ele><time>2026-04-12T08:55:53.005Z</time></trkpt><trkpt lat="43.1682156" lon="12.3679287"><ele>367.0</ele><time>2026-04-12T08:55:53.998Z</time></trkpt><trkpt lat="43.1681177" lon="12.3678931"><ele>366.0</ele><time>2026-04-12T08:55:55.009Z</time></trkpt><trkpt lat="43.1680172" lon="12.367865"><ele>366.0</ele><time>2026-04-12T08:55:56.006Z</time></trkpt><trkpt lat="43.1679147" lon="12.3678246"><ele>366.0</ele><time>2026-04-12T08:55:57.009Z</time></trkpt><trkpt lat="43.167815" lon="12.3677736"><ele>366.0</ele><time>2026-04-12T08:55:58.004Z</time></trkpt><trkpt lat="43.1677178" lon="12.3677065"><ele>366.0</ele><time>2026-04-12T08:55:58.999Z</time></trkpt><trkpt lat="43.1676235" lon="12.3676249"><ele>366.0</ele><time>2026-04-12T08:56:00.008Z</time></trkpt><trkpt lat="43.1675456" lon="12.3675264"><ele>366.0</ele><time>2026-04-12T08:56:01.008Z</time></trkpt><trkpt lat="43.1674659" lon="12.3674116"><ele>366.0</ele><time>2026-04-12T08:56:02Z</time></trkpt><trkpt lat="43.1673965" lon="12.3672888"><ele>366.0</ele><time>2026-04-12T08:56:03.01Z</time></trkpt><trkpt lat="43.1673336" lon="12.3671693"><ele>366.0</ele><time>2026-04-12T08:56:03.998Z</time></trkpt><trkpt lat="43.1672671" lon="12.3670423"><ele>363.5</ele><time>2026-04-12T08:56:05.128Z</time></trkpt><trkpt lat="43.1672016" lon="12.3669085"><ele>361.0</ele><time>2026-04-12T08:56:06.016Z</time></trkpt><trkpt lat="43.167138" lon="12.3667829"><ele>358.5</ele><time>2026-04-12T08:56:06.996Z</time></trkpt><trkpt lat="43.1670728" lon="12.366643"><ele>356.0</ele><time>2026-04-12T08:56:07.987Z</time></trkpt><trkpt lat="43.1670005" lon="12.3665017"><ele>356.0</ele><time>2026-04-12T08:56:09.005Z</time></trkpt><trkpt lat="43.1669318" lon="12.3663772"><ele>356.0</ele><time>2026-04-12T08:56:09.987Z</time></trkpt><trkpt lat="43.1668652" lon="12.3662561"><ele>356.0</ele><time>2026-04-12T08:56:11.002Z</time></trkpt><trkpt lat="43.1668121" lon="12.3661294"><ele>356.0</ele><time>2026-04-12T08:56:12.002Z</time></trkpt><trkpt lat="43.1667702" lon="12.365989"><ele>356.0</ele><time>2026-04-12T08:56:12.992Z</time></trkpt><trkpt lat="43.1667242" lon="12.3658601"><ele>355.75</ele><time>2026-04-12T08:56:13.998Z</time></trkpt><trkpt lat="43.166724" lon="12.3657072"><ele>355.5</ele><time>2026-04-12T08:56:15.002Z</time></trkpt><trkpt lat="43.1667232" lon="12.365567"><ele>355.25</ele><time>2026-04-12T08:56:16.002Z</time></trkpt><trkpt lat="43.1667666" lon="12.3654309"><ele>355.0</ele><time>2026-04-12T08:56:17.121Z</time></trkpt><trkpt lat="43.1668436" lon="12.3651851"><ele>354.8</ele><time>2026-04-12T08:56:19.004Z</time></trkpt><trkpt lat="43.1669066" lon="12.3650301"><ele>354.6</ele><time>2026-04-12T08:56:20.004Z</time></trkpt><trkpt lat="43.1669241" lon="12.3648916"><ele>354.4</ele><time>2026-04-12T08:56:21.005Z</time></trkpt><trkpt lat="43.1669366" lon="12.3647517"><ele>354.2</ele><time>2026-04-12T08:56:22.006Z</time></trkpt><trkpt lat="43.1669165" lon="12.3646139"><ele>354.0</ele><time>2026-04-12T08:56:23Z</time></trkpt><trkpt lat="43.166874" lon="12.3645102"><ele>354.0</ele><time>2026-04-12T08:56:24.008Z</time></trkpt><trkpt lat="43.1668045" lon="12.364422"><ele>354.0</ele><time>2026-04-12T08:56:25.006Z</time></trkpt><trkpt lat="43.1667202" lon="12.3643489"><ele>354.0</ele><time>2026-04-12T08:56:26.012Z</time></trkpt><trkpt lat="43.1666496" lon="12.3643039"><ele>354.0</ele><time>2026-04-12T08:56:27Z</time></trkpt><trkpt lat="43.1665639" lon="12.3642637"><ele>354.0</ele><time>2026-04-12T08:56:28.01Z</time></trkpt><trkpt lat="43.1664893" lon="12.3642182"><ele>354.0</ele><time>2026-04-12T08:56:29.01Z</time></trkpt><trkpt lat="43.1664097" lon="12.3641857"><ele>352.8333333333333</ele><time>2026-04-12T08:56:30.011Z</time></trkpt><trkpt lat="43.1663345" lon="12.3641525"><ele>351.6666666666667</ele><time>2026-04-12T08:56:31.007Z</time></trkpt><trkpt lat="43.166255" lon="12.3641167"><ele>350.5</ele><time>2026-04-12T08:56:32.01Z</time></trkpt><trkpt lat="43.1661803" lon="12.3640832"><ele>349.33333333333337</ele><time>2026-04-12T08:56:33.008Z</time></trkpt><trkpt lat="43.1660994" lon="12.3640508"><ele>348.1666666666667</ele><time>2026-04-12T08:56:34.006Z</time></trkpt><trkpt lat="43.1660237" lon="12.3640119"><ele>347.0</ele><time>2026-04-12T08:56:35.01Z</time></trkpt><trkpt lat="43.1659503" lon="12.3639733"><ele>347.0</ele><time>2026-04-12T08:56:36.001Z</time></trkpt><trkpt lat="43.1658774" lon="12.3639315"><ele>347.0</ele><time>2026-04-12T08:56:36.994Z</time></trkpt><trkpt lat="43.1657993" lon="12.3638992"><ele>347.0</ele><time>2026-04-12T08:56:38.005Z</time></trkpt><trkpt lat="43.1657297" lon="12.3638531"><ele>347.0</ele><time>2026-04-12T08:56:39.007Z</time></trkpt><trkpt lat="43.1656654" lon="12.3638046"><ele>347.0</ele><time>2026-04-12T08:56:40.004Z</time></trkpt><trkpt lat="43.1655997" lon="12.3637414"><ele>347.0</ele><time>2026-04-12T08:56:41.013Z</time></trkpt><trkpt lat="43.1655324" lon="12.3636901"><ele>346.5</ele><time>2026-04-12T08:56:42.004Z</time></trkpt><trkpt lat="43.1654675" lon="12.3636338"><ele>346.0</ele><time>2026-04-12T08:56:43.003Z</time></trkpt><trkpt lat="43.1653997" lon="12.3635767"><ele>345.5</ele><time>2026-04-12T08:56:44.003Z</time></trkpt><trkpt lat="43.1653332" lon="12.3635085"><ele>345.0</ele><time>2026-04-12T08:56:45.007Z</time></trkpt><trkpt lat="43.1652688" lon="12.3634478"><ele>344.5</ele><time>2026-04-12T08:56:46.003Z</time></trkpt><trkpt lat="43.1651991" lon="12.363385"><ele>344.0</ele><time>2026-04-12T08:56:47.004Z</time></trkpt><trkpt lat="43.1651258" lon="12.3633177"><ele>344.0</ele><time>2026-04-12T08:56:48.002Z</time></trkpt><trkpt lat="43.1650582" lon="12.3632491"><ele>344.0</ele><time>2026-04-12T08:56:49.006Z</time></trkpt><trkpt lat="43.1649885" lon="12.3631927"><ele>344.0</ele><time>2026-04-12T08:56:50.006Z</time></trkpt><trkpt lat="43.1649203" lon="12.3631388"><ele>344.0</ele><time>2026-04-12T08:56:50.987Z</time></trkpt><trkpt lat="43.1648501" lon="12.3630854"><ele>344.0</ele><time>2026-04-12T08:56:52.005Z</time></trkpt><trkpt lat="43.1647839" lon="12.363024"><ele>344.0</ele><time>2026-04-12T08:56:53.004Z</time></trkpt><trkpt lat="43.1647289" lon="12.3629691"><ele>344.00000000000006</ele><time>2026-04-12T08:56:54.003Z</time></trkpt><trkpt lat="43.1646582" lon="12.3629109"><ele>344.0</ele><time>2026-04-12T08:56:55.003Z</time></trkpt><trkpt lat="43.1645938" lon="12.3628526"><ele>344.0</ele><time>2026-04-12T08:56:55.991Z</time></trkpt><trkpt lat="43.164535" lon="12.3628"><ele>344.0</ele><time>2026-04-12T08:56:56.987Z</time></trkpt><trkpt lat="43.1644809" lon="12.3627422"><ele>344.0</ele><time>2026-04-12T08:56:58.012Z</time></trkpt><trkpt lat="43.1644209" lon="12.3626879"><ele>344.00000000000006</ele><time>2026-04-12T08:56:59.005Z</time></trkpt><trkpt lat="43.1643596" lon="12.3626357"><ele>344.0</ele><time>2026-04-12T08:57:00.005Z</time></trkpt><trkpt lat="43.1642506" lon="12.3625496"><ele>344.0</ele><time>2026-04-12T08:57:02.001Z</time></trkpt><trkpt lat="43.1641462" lon="12.36246"><ele>344.0</ele><time>2026-04-12T08:57:04.006Z</time></trkpt><trkpt lat="43.1640873" lon="12.3624057"><ele>344.0</ele><time>2026-04-12T08:57:05.005Z</time></trkpt><trkpt lat="43.1639866" lon="12.3623123"><ele>344.0</ele><time>2026-04-12T08:57:06.995Z</time></trkpt><trkpt lat="43.1638808" lon="12.3622263"><ele>344.0</ele><time>2026-04-12T08:57:08.986Z</time></trkpt><trkpt lat="43.1637636" lon="12.3621367"><ele>343.25</ele><time>2026-04-12T08:57:10.988Z</time></trkpt><trkpt lat="43.1636693" lon="12.3620248"><ele>342.5</ele><time>2026-04-12T08:57:13.002Z</time></trkpt><trkpt lat="43.1635174" lon="12.3618861"><ele>341.75</ele><time>2026-04-12T08:57:16.016Z</time></trkpt><trkpt lat="43.1634656" lon="12.3618099"><ele>341.0</ele><time>2026-04-12T08:57:17.008Z</time></trkpt><trkpt lat="43.163363" lon="12.3616865"><ele>341.0</ele><time>2026-04-12T08:57:18.994Z</time></trkpt><trkpt lat="43.1632748" lon="12.3615432"><ele>341.0</ele><time>2026-04-12T08:57:21.008Z</time></trkpt><trkpt lat="43.1632458" lon="12.3614651"><ele>341.0</ele><time>2026-04-12T08:57:22.007Z</time></trkpt><trkpt lat="43.1632164" lon="12.3613842"><ele>341.0</ele><time>2026-04-12T08:57:23.004Z</time></trkpt><trkpt lat="43.1631891" lon="12.3613022"><ele>341.0</ele><time>2026-04-12T08:57:24.008Z</time></trkpt><trkpt lat="43.1631631" lon="12.3612216"><ele>341.0</ele><time>2026-04-12T08:57:25.005Z</time></trkpt><trkpt lat="43.1631322" lon="12.3611464"><ele>339.83333333333337</ele><time>2026-04-12T08:57:25.999Z</time></trkpt><trkpt lat="43.1631029" lon="12.3610606"><ele>338.6666666666667</ele><time>2026-04-12T08:57:27.004Z</time></trkpt><trkpt lat="43.1630687" lon="12.3609867"><ele>337.5</ele><time>2026-04-12T08:57:27.991Z</time></trkpt><trkpt lat="43.163032" lon="12.3609061"><ele>336.3333333333333</ele><time>2026-04-12T08:57:29.003Z</time></trkpt><trkpt lat="43.1629697" lon="12.3607593"><ele>335.16666666666663</ele><time>2026-04-12T08:57:30.999Z</time></trkpt><trkpt lat="43.1629395" lon="12.3606833"><ele>334.0</ele><time>2026-04-12T08:57:31.997Z</time></trkpt><trkpt lat="43.1628713" lon="12.3605574"><ele>335.79999999999995</ele><time>2026-04-12T08:57:34Z</time></trkpt><trkpt lat="43.1628317" lon="12.3604873"><ele>337.59999999999997</ele><time>2026-04-12T08:57:35.008Z</time></trkpt><trkpt lat="43.1627805" lon="12.3604199"><ele>339.4</ele><time>2026-04-12T08:57:36.003Z</time></trkpt><trkpt lat="43.1626801" lon="12.3603132"><ele>341.2</ele><time>2026-04-12T08:57:38.104Z</time></trkpt><trkpt lat="43.162576" lon="12.3602105"><ele>343.0</ele><time>2026-04-12T08:57:39.999Z</time></trkpt><trkpt lat="43.1625189" lon="12.3601572"><ele>343.0</ele><time>2026-04-12T08:57:41.005Z</time></trkpt><trkpt lat="43.1624635" lon="12.3601075"><ele>343.0</ele><time>2026-04-12T08:57:42.005Z</time></trkpt><trkpt lat="43.1624079" lon="12.360054"><ele>343.0</ele><time>2026-04-12T08:57:43.003Z</time></trkpt><trkpt lat="43.1622342" lon="12.3599154"><ele>343.0</ele><time>2026-04-12T08:57:46.001Z</time></trkpt><trkpt lat="43.1621774" lon="12.3598615"><ele>343.0</ele><time>2026-04-12T08:57:46.996Z</time></trkpt><trkpt lat="43.1621261" lon="12.3598111"><ele>344.4</ele><time>2026-04-12T08:57:47.993Z</time></trkpt><trkpt lat="43.1620289" lon="12.3597012"><ele>345.79999999999995</ele><time>2026-04-12T08:57:50Z</time></trkpt><trkpt lat="43.16193" lon="12.3595956"><ele>347.2</ele><time>2026-04-12T08:57:52.002Z</time></trkpt><trkpt lat="43.1618517" lon="12.3594788"><ele>348.6</ele><time>2026-04-12T08:57:54.006Z</time></trkpt><trkpt lat="43.161801" lon="12.3594193"><ele>350.0</ele><time>2026-04-12T08:57:55Z</time></trkpt><trkpt lat="43.1617396" lon="12.359365"><ele>350.0</ele><time>2026-04-12T08:57:56.007Z</time></trkpt><trkpt lat="43.1616428" lon="12.359272"><ele>350.0</ele><time>2026-04-12T08:57:58.004Z</time></trkpt><trkpt lat="43.1615469" lon="12.3591947"><ele>350.0</ele><time>2026-04-12T08:58:00Z</time></trkpt><trkpt lat="43.161483" lon="12.3591847"><ele>350.0</ele><time>2026-04-12T08:58:01.001Z</time></trkpt><trkpt lat="43.1613633" lon="12.3591876"><ele>350.0</ele><time>2026-04-12T08:58:03.006Z</time></trkpt><trkpt lat="43.1612529" lon="12.3592057"><ele>348.0</ele><time>2026-04-12T08:58:05Z</time></trkpt><trkpt lat="43.1611809" lon="12.3592288"><ele>346.0</ele><time>2026-04-12T08:58:06Z</time></trkpt><trkpt lat="43.1610548" lon="12.3592246"><ele>344.0</ele><time>2026-04-12T08:58:07.999Z</time></trkpt><trkpt lat="43.1609338" lon="12.3592077"><ele>342.0</ele><time>2026-04-12T08:58:10.004Z</time></trkpt><trkpt lat="43.1608315" lon="12.3591797"><ele>340.0</ele><time>2026-04-12T08:58:12.004Z</time></trkpt><trkpt lat="43.1607683" lon="12.3591536"><ele>339.25</ele><time>2026-04-12T08:58:13.006Z</time></trkpt><trkpt lat="43.1606437" lon="12.3591437"><ele>338.5</ele><time>2026-04-12T08:58:15.012Z</time></trkpt><trkpt lat="43.1605027" lon="12.3591412"><ele>337.75</ele><time>2026-04-12T08:58:17Z</time></trkpt><trkpt lat="43.1604345" lon="12.3591335"><ele>337.0</ele><time>2026-04-12T08:58:18.01Z</time></trkpt><trkpt lat="43.1603191" lon="12.3590999"><ele>337.00000000000006</ele><time>2026-04-12T08:58:19.989Z</time></trkpt><trkpt lat="43.1602563" lon="12.3590763"><ele>337.0</ele><time>2026-04-12T08:58:21Z</time></trkpt><trkpt lat="43.1601904" lon="12.3590581"><ele>337.0</ele><time>2026-04-12T08:58:21.999Z</time></trkpt><trkpt lat="43.1601138" lon="12.3590374"><ele>337.0</ele><time>2026-04-12T08:58:23.007Z</time></trkpt><trkpt lat="43.1600541" lon="12.3589954"><ele>337.0</ele><time>2026-04-12T08:58:24.005Z</time></trkpt><trkpt lat="43.1599909" lon="12.3589456"><ele>337.00000000000006</ele><time>2026-04-12T08:58:24.996Z</time></trkpt><trkpt lat="43.1599245" lon="12.35888"><ele>337.0</ele><time>2026-04-12T08:58:26.099Z</time></trkpt><trkpt lat="43.1598179" lon="12.3587568"><ele>337.00000000000006</ele><time>2026-04-12T08:58:28Z</time></trkpt><trkpt lat="43.1597692" lon="12.3586978"><ele>337.0</ele><time>2026-04-12T08:58:28.996Z</time></trkpt><trkpt lat="43.159722" lon="12.358619"><ele>337.0</ele><time>2026-04-12T08:58:30.014Z</time></trkpt><trkpt lat="43.1596777" lon="12.3585363"><ele>337.0</ele><time>2026-04-12T08:58:31.01Z</time></trkpt><trkpt lat="43.1596389" lon="12.3584547"><ele>337.0</ele><time>2026-04-12T08:58:31.995Z</time></trkpt><trkpt lat="43.1595952" lon="12.3583792"><ele>337.00000000000006</ele><time>2026-04-12T08:58:33.005Z</time></trkpt><trkpt lat="43.1595477" lon="12.3582964"><ele>337.0</ele><time>2026-04-12T08:58:33.986Z</time></trkpt><trkpt lat="43.159497" lon="12.3582302"><ele>337.00000000000006</ele><time>2026-04-12T08:58:34.988Z</time></trkpt><trkpt lat="43.1594551" lon="12.3581518"><ele>337.0</ele><time>2026-04-12T08:58:36.008Z</time></trkpt><trkpt lat="43.1594173" lon="12.3580685"><ele>337.0</ele><time>2026-04-12T08:58:36.987Z</time></trkpt><trkpt lat="43.1593781" lon="12.3579898"><ele>337.0</ele><time>2026-04-12T08:58:37.988Z</time></trkpt><trkpt lat="43.159334" lon="12.3579142"><ele>337.0</ele><time>2026-04-12T08:58:38.988Z</time></trkpt><trkpt lat="43.1592933" lon="12.3578324"><ele>337.00000000000006</ele><time>2026-04-12T08:58:39.99Z</time></trkpt><trkpt lat="43.1592499" lon="12.3577643"><ele>337.0</ele><time>2026-04-12T08:58:40.986Z</time></trkpt><trkpt lat="43.1592078" lon="12.3576841"><ele>336.8571428571429</ele><time>2026-04-12T08:58:41.986Z</time></trkpt><trkpt lat="43.159168" lon="12.3576088"><ele>336.7142857142857</ele><time>2026-04-12T08:58:42.985Z</time></trkpt><trkpt lat="43.1591288" lon="12.3575306"><ele>336.57142857142856</ele><time>2026-04-12T08:58:43.985Z</time></trkpt><trkpt lat="43.1590845" lon="12.3574431"><ele>336.42857142857144</ele><time>2026-04-12T08:58:44.988Z</time></trkpt><trkpt lat="43.1590483" lon="12.3573575"><ele>336.2857142857143</ele><time>2026-04-12T08:58:45.985Z</time></trkpt><trkpt lat="43.1590146" lon="12.3572794"><ele>336.14285714285717</ele><time>2026-04-12T08:58:46.989Z</time></trkpt><trkpt lat="43.1589797" lon="12.3571969"><ele>336.0</ele><time>2026-04-12T08:58:47.988Z</time></trkpt><trkpt lat="43.1589507" lon="12.3571129"><ele>334.0</ele><time>2026-04-12T08:58:48.988Z</time></trkpt><trkpt lat="43.1589205" lon="12.3570305"><ele>332.0</ele><time>2026-04-12T08:58:50.103Z</time></trkpt><trkpt lat="43.158854" lon="12.3568442"><ele>330.0</ele><time>2026-04-12T08:58:52Z</time></trkpt><trkpt lat="43.1588236" lon="12.3567496"><ele>328.0</ele><time>2026-04-12T08:58:53.001Z</time></trkpt><trkpt lat="43.1587977" lon="12.3566593"><ele>326.0</ele><time>2026-04-12T08:58:54.007Z</time></trkpt><trkpt lat="43.158764" lon="12.3565592"><ele>324.0</ele><time>2026-04-12T08:58:55.005Z</time></trkpt><trkpt lat="43.1587327" lon="12.3564632"><ele>324.0</ele><time>2026-04-12T08:58:56.004Z</time></trkpt><trkpt lat="43.1587088" lon="12.3563736"><ele>324.0</ele><time>2026-04-12T08:58:56.997Z</time></trkpt><trkpt lat="43.1586781" lon="12.3562827"><ele>324.0</ele><time>2026-04-12T08:58:58.013Z</time></trkpt><trkpt lat="43.1586345" lon="12.3561931"><ele>324.0</ele><time>2026-04-12T08:58:59.005Z</time></trkpt><trkpt lat="43.1586036" lon="12.3561064"><ele>324.0</ele><time>2026-04-12T08:59:00.013Z</time></trkpt><trkpt lat="43.1585692" lon="12.3560187"><ele>324.0</ele><time>2026-04-12T08:59:01.003Z</time></trkpt><trkpt lat="43.1585489" lon="12.3559285"><ele>324.0</ele><time>2026-04-12T08:59:02Z</time></trkpt><trkpt lat="43.1585217" lon="12.3558383"><ele>323.42857142857144</ele><time>2026-04-12T08:59:03.004Z</time></trkpt><trkpt lat="43.1585056" lon="12.3557318"><ele>322.85714285714283</ele><time>2026-04-12T08:59:03.989Z</time></trkpt><trkpt lat="43.1584634" lon="12.355639"><ele>322.2857142857143</ele><time>2026-04-12T08:59:05.008Z</time></trkpt><trkpt lat="43.1584326" lon="12.3555502"><ele>321.7142857142857</ele><time>2026-04-12T08:59:06.01Z</time></trkpt><trkpt lat="43.1584007" lon="12.355473"><ele>321.14285714285717</ele><time>2026-04-12T08:59:06.991Z</time></trkpt><trkpt lat="43.158366" lon="12.3553921"><ele>320.57142857142856</ele><time>2026-04-12T08:59:07.994Z</time></trkpt><trkpt lat="43.1583177" lon="12.3553256"><ele>320.0</ele><time>2026-04-12T08:59:09.001Z</time></trkpt><trkpt lat="43.1582714" lon="12.3552552"><ele>319.57142857142856</ele><time>2026-04-12T08:59:09.991Z</time></trkpt><trkpt lat="43.1582151" lon="12.3551925"><ele>319.14285714285717</ele><time>2026-04-12T08:59:10.994Z</time></trkpt><trkpt lat="43.1581639" lon="12.3551287"><ele>318.7142857142857</ele><time>2026-04-12T08:59:11.979Z</time></trkpt><trkpt lat="43.1581095" lon="12.3550786"><ele>318.2857142857143</ele><time>2026-04-12T08:59:12.985Z</time></trkpt><trkpt lat="43.1580507" lon="12.3550282"><ele>317.85714285714283</ele><time>2026-04-12T08:59:13.985Z</time></trkpt><trkpt lat="43.1579933" lon="12.3549758"><ele>317.42857142857144</ele><time>2026-04-12T08:59:14.99Z</time></trkpt><trkpt lat="43.1579326" lon="12.3549338"><ele>317.0</ele><time>2026-04-12T08:59:15.985Z</time></trkpt><trkpt lat="43.1578783" lon="12.3548844"><ele>317.0</ele><time>2026-04-12T08:59:16.988Z</time></trkpt><trkpt lat="43.1578216" lon="12.3548287"><ele>317.0</ele><time>2026-04-12T08:59:17.985Z</time></trkpt><trkpt lat="43.157763" lon="12.354774"><ele>317.0</ele><time>2026-04-12T08:59:18.985Z</time></trkpt><trkpt lat="43.1577042" lon="12.3547304"><ele>317.0</ele><time>2026-04-12T08:59:19.987Z</time></trkpt><trkpt lat="43.1576418" lon="12.3546856"><ele>317.0</ele><time>2026-04-12T08:59:20.988Z</time></trkpt><trkpt lat="43.1575833" lon="12.3546429"><ele>317.0</ele><time>2026-04-12T08:59:21.985Z</time></trkpt><trkpt lat="43.1575147" lon="12.354609"><ele>317.0</ele><time>2026-04-12T08:59:22.991Z</time></trkpt><trkpt lat="43.1574497" lon="12.3545905"><ele>316.5</ele><time>2026-04-12T08:59:23.987Z</time></trkpt><trkpt lat="43.1573885" lon="12.3545548"><ele>316.0</ele><time>2026-04-12T08:59:24.992Z</time></trkpt><trkpt lat="43.1573205" lon="12.3545229"><ele>315.5</ele><time>2026-04-12T08:59:26.1Z</time></trkpt><trkpt lat="43.1571868" lon="12.3544614"><ele>315.0</ele><time>2026-04-12T08:59:27.986Z</time></trkpt><trkpt lat="43.1571086" lon="12.3544364"><ele>314.5</ele><time>2026-04-12T08:59:28.987Z</time></trkpt><trkpt lat="43.1570383" lon="12.3544113"><ele>314.0</ele><time>2026-04-12T08:59:29.989Z</time></trkpt><trkpt lat="43.1569693" lon="12.3543908"><ele>314.0</ele><time>2026-04-12T08:59:30.987Z</time></trkpt><trkpt lat="43.1569028" lon="12.354375"><ele>314.0</ele><time>2026-04-12T08:59:32.087Z</time></trkpt><trkpt lat="43.1568385" lon="12.3543582"><ele>314.0</ele><time>2026-04-12T08:59:32.988Z</time></trkpt><trkpt lat="43.1567199" lon="12.354322"><ele>314.0</ele><time>2026-04-12T08:59:35.004Z</time></trkpt><trkpt lat="43.1566531" lon="12.3542996"><ele>314.0</ele><time>2026-04-12T08:59:35.998Z</time></trkpt><trkpt lat="43.1565918" lon="12.3542766"><ele>314.0</ele><time>2026-04-12T08:59:36.989Z</time></trkpt><trkpt lat="43.1565272" lon="12.3542572"><ele>313.75</ele><time>2026-04-12T08:59:38Z</time></trkpt><trkpt lat="43.1564153" lon="12.3542083"><ele>313.5</ele><time>2026-04-12T08:59:40.008Z</time></trkpt><trkpt lat="43.1562966" lon="12.3541718"><ele>313.25</ele><time>2026-04-12T08:59:42.002Z</time></trkpt><trkpt lat="43.1561752" lon="12.3541352"><ele>313.0</ele><time>2026-04-12T08:59:44.002Z</time></trkpt><trkpt lat="43.1560583" lon="12.3540859"><ele>313.0</ele><time>2026-04-12T08:59:45.996Z</time></trkpt><trkpt lat="43.1559976" lon="12.3540581"><ele>313.0</ele><time>2026-04-12T08:59:46.989Z</time></trkpt><trkpt lat="43.1559269" lon="12.3540352"><ele>313.0</ele><time>2026-04-12T08:59:48.002Z</time></trkpt><trkpt lat="43.1558021" lon="12.353996"><ele>313.0</ele><time>2026-04-12T08:59:50Z</time></trkpt><trkpt lat="43.1557433" lon="12.3539635"><ele>313.0</ele><time>2026-04-12T08:59:51.005Z</time></trkpt><trkpt lat="43.1556235" lon="12.3539237"><ele>312.25</ele><time>2026-04-12T08:59:53.006Z</time></trkpt><trkpt lat="43.1555148" lon="12.353871"><ele>311.5</ele><time>2026-04-12T08:59:55.108Z</time></trkpt><trkpt lat="43.1553947" lon="12.3538286"><ele>310.75</ele><time>2026-04-12T08:59:57.009Z</time></trkpt><trkpt lat="43.1552768" lon="12.3537988"><ele>310.0</ele><time>2026-04-12T08:59:58.999Z</time></trkpt><trkpt lat="43.1551632" lon="12.3537607"><ele>310.0</ele><time>2026-04-12T09:00:01.098Z</time></trkpt><trkpt lat="43.1550395" lon="12.3537423"><ele>310.0</ele><time>2026-04-12T09:00:02.982Z</time></trkpt><trkpt lat="43.1549133" lon="12.3537134"><ele>310.0</ele><time>2026-04-12T09:00:04.992Z</time></trkpt><trkpt lat="43.1548517" lon="12.3536838"><ele>310.0</ele><time>2026-04-12T09:00:05.999Z</time></trkpt><trkpt lat="43.1547298" lon="12.3536459"><ele>310.0</ele><time>2026-04-12T09:00:07.989Z</time></trkpt><trkpt lat="43.1546236" lon="12.3535971"><ele>311.4</ele><time>2026-04-12T09:00:09.989Z</time></trkpt><trkpt lat="43.1545162" lon="12.3535365"><ele>312.8</ele><time>2026-04-12T09:00:12.008Z</time></trkpt><trkpt lat="43.1544591" lon="12.3534989"><ele>314.2</ele><time>2026-04-12T09:00:12.986Z</time></trkpt><trkpt lat="43.1543641" lon="12.353423"><ele>315.6</ele><time>2026-04-12T09:00:14.992Z</time></trkpt><trkpt lat="43.1542822" lon="12.3533509"><ele>317.0</ele><time>2026-04-12T09:00:17.007Z</time></trkpt><trkpt lat="43.1541929" lon="12.3532843"><ele>317.0</ele><time>2026-04-12T09:00:18.992Z</time></trkpt><trkpt lat="43.1541089" lon="12.3532127"><ele>317.0</ele><time>2026-04-12T09:00:21.011Z</time></trkpt><trkpt lat="43.154036" lon="12.3531339"><ele>317.0</ele><time>2026-04-12T09:00:23.004Z</time></trkpt><trkpt lat="43.153968" lon="12.353063"><ele>317.0</ele><time>2026-04-12T09:00:24.993Z</time></trkpt><trkpt lat="43.1538961" lon="12.3529807"><ele>317.0</ele><time>2026-04-12T09:00:27.005Z</time></trkpt><trkpt lat="43.1538118" lon="12.3529206"><ele>316.0</ele><time>2026-04-12T09:00:29.002Z</time></trkpt><trkpt lat="43.1537022" lon="12.352856"><ele>315.0</ele><time>2026-04-12T09:00:31.008Z</time></trkpt><trkpt lat="43.1536051" lon="12.3527845"><ele>314.0</ele><time>2026-04-12T09:00:32.998Z</time></trkpt><trkpt lat="43.1534632" lon="12.3526569"><ele>313.0</ele><time>2026-04-12T09:00:36.008Z</time></trkpt><trkpt lat="43.1533689" lon="12.3525819"><ele>313.0</ele><time>2026-04-12T09:00:38.001Z</time></trkpt><trkpt lat="43.1532746" lon="12.3525084"><ele>313.0</ele><time>2026-04-12T09:00:40.108Z</time></trkpt><trkpt lat="43.1531842" lon="12.3524526"><ele>313.0</ele><time>2026-04-12T09:00:41.991Z</time></trkpt><trkpt lat="43.1531026" lon="12.3523832"><ele>313.0</ele><time>2026-04-12T09:00:44.002Z</time></trkpt><trkpt lat="43.153024" lon="12.3523118"><ele>313.0</ele><time>2026-04-12T09:00:46Z</time></trkpt><trkpt lat="43.1529413" lon="12.3522228"><ele>312.4</ele><time>2026-04-12T09:00:48.011Z</time></trkpt><trkpt lat="43.1528594" lon="12.3521523"><ele>311.8</ele><time>2026-04-12T09:00:50.009Z</time></trkpt><trkpt lat="43.1527731" lon="12.3520852"><ele>311.2</ele><time>2026-04-12T09:00:52.111Z</time></trkpt><trkpt lat="43.152686" lon="12.3520136"><ele>310.6</ele><time>2026-04-12T09:00:54.001Z</time></trkpt><trkpt lat="43.1526016" lon="12.351945"><ele>310.0</ele><time>2026-04-12T09:00:56.003Z</time></trkpt><trkpt lat="43.1525131" lon="12.3518793"><ele>310.0</ele><time>2026-04-12T09:00:58.005Z</time></trkpt><trkpt lat="43.1524224" lon="12.3518218"><ele>310.0</ele><time>2026-04-12T09:01:00.011Z</time></trkpt><trkpt lat="43.1523256" lon="12.3517872"><ele>310.0</ele><time>2026-04-12T09:01:02.006Z</time></trkpt><trkpt lat="43.1522306" lon="12.3517505"><ele>310.0</ele><time>2026-04-12T09:01:04.003Z</time></trkpt><trkpt lat="43.1521346" lon="12.3517212"><ele>310.0</ele><time>2026-04-12T09:01:06.006Z</time></trkpt><trkpt lat="43.1520272" lon="12.3516888"><ele>311.0</ele><time>2026-04-12T09:01:08.004Z</time></trkpt><trkpt lat="43.1519314" lon="12.3516538"><ele>312.0</ele><time>2026-04-12T09:01:10.101Z</time></trkpt><trkpt lat="43.1518287" lon="12.3516224"><ele>313.0</ele><time>2026-04-12T09:01:12.005Z</time></trkpt><trkpt lat="43.1517291" lon="12.3515821"><ele>314.0</ele><time>2026-04-12T09:01:14.005Z</time></trkpt><trkpt lat="43.1516236" lon="12.3515476"><ele>315.0</ele><time>2026-04-12T09:01:16.112Z</time></trkpt><trkpt lat="43.1515284" lon="12.3515039"><ele>315.2</ele><time>2026-04-12T09:01:17.997Z</time></trkpt><trkpt lat="43.1514217" lon="12.3514803"><ele>315.4</ele><time>2026-04-12T09:01:20.004Z</time></trkpt><trkpt lat="43.1513205" lon="12.3514619"><ele>315.6</ele><time>2026-04-12T09:01:22.112Z</time></trkpt><trkpt lat="43.1512238" lon="12.351451"><ele>315.8</ele><time>2026-04-12T09:01:24.004Z</time></trkpt><trkpt lat="43.1511243" lon="12.3514461"><ele>316.0</ele><time>2026-04-12T09:01:26.007Z</time></trkpt><trkpt lat="43.1510222" lon="12.3514514"><ele>316.0</ele><time>2026-04-12T09:01:28.011Z</time></trkpt><trkpt lat="43.1509203" lon="12.3514461"><ele>316.0</ele><time>2026-04-12T09:01:30.015Z</time></trkpt><trkpt lat="43.1508199" lon="12.351442"><ele>316.0</ele><time>2026-04-12T09:01:32.01Z</time></trkpt><trkpt lat="43.1507209" lon="12.3514465"><ele>316.0</ele><time>2026-04-12T09:01:34.002Z</time></trkpt><trkpt lat="43.150625" lon="12.3514677"><ele>316.0</ele><time>2026-04-12T09:01:36Z</time></trkpt><trkpt lat="43.150521" lon="12.3514847"><ele>315.40000000000003</ele><time>2026-04-12T09:01:37.999Z</time></trkpt><trkpt lat="43.1504258" lon="12.3515081"><ele>314.8</ele><time>2026-04-12T09:01:40.107Z</time></trkpt><trkpt lat="43.1503255" lon="12.3515305"><ele>314.20000000000005</ele><time>2026-04-12T09:01:42.001Z</time></trkpt><trkpt lat="43.150228" lon="12.3515626"><ele>313.6</ele><time>2026-04-12T09:01:44.003Z</time></trkpt><trkpt lat="43.1501283" lon="12.3515855"><ele>313.0</ele><time>2026-04-12T09:01:46.006Z</time></trkpt><trkpt lat="43.1500297" lon="12.3516136"><ele>313.0</ele><time>2026-04-12T09:01:48.015Z</time></trkpt><trkpt lat="43.1499228" lon="12.3516448"><ele>313.0</ele><time>2026-04-12T09:01:50.008Z</time></trkpt><trkpt lat="43.1498208" lon="12.3516769"><ele>313.0</ele><time>2026-04-12T09:01:52.001Z</time></trkpt><trkpt lat="43.149713" lon="12.3517054"><ele>313.0</ele><time>2026-04-12T09:01:53.999Z</time></trkpt><trkpt lat="43.1496048" lon="12.3517374"><ele>313.0</ele><time>2026-04-12T09:01:56.005Z</time></trkpt><trkpt lat="43.1495049" lon="12.351759"><ele>313.2</ele><time>2026-04-12T09:01:57.995Z</time></trkpt><trkpt lat="43.1494035" lon="12.3517837"><ele>313.4</ele><time>2026-04-12T09:02:00.013Z</time></trkpt><trkpt lat="43.1493004" lon="12.3518085"><ele>313.59999999999997</ele><time>2026-04-12T09:02:02.003Z</time></trkpt><trkpt lat="43.14921" lon="12.3518399"><ele>313.8</ele><time>2026-04-12T09:02:04.106Z</time></trkpt><trkpt lat="43.1491109" lon="12.3518793"><ele>314.0</ele><time>2026-04-12T09:02:06Z</time></trkpt><trkpt lat="43.1490126" lon="12.3518994"><ele>313.59999999999997</ele><time>2026-04-12T09:02:08.015Z</time></trkpt><trkpt lat="43.148918" lon="12.351915"><ele>313.2</ele><time>2026-04-12T09:02:10.002Z</time></trkpt><trkpt lat="43.1488268" lon="12.3519454"><ele>312.79999999999995</ele><time>2026-04-12T09:02:12.008Z</time></trkpt><trkpt lat="43.148717" lon="12.3519746"><ele>312.4</ele><time>2026-04-12T09:02:14.002Z</time></trkpt><trkpt lat="43.1486177" lon="12.3519983"><ele>312.0</ele><time>2026-04-12T09:02:16.108Z</time></trkpt><trkpt lat="43.1485257" lon="12.3520287"><ele>312.0</ele><time>2026-04-12T09:02:18.003Z</time></trkpt><trkpt lat="43.1484202" lon="12.3520634"><ele>312.0</ele><time>2026-04-12T09:02:20.008Z</time></trkpt><trkpt lat="43.1483237" lon="12.3521043"><ele>312.0</ele><time>2026-04-12T09:02:22.002Z</time></trkpt><trkpt lat="43.1482173" lon="12.35213"><ele>312.0</ele><time>2026-04-12T09:02:24.006Z</time></trkpt><trkpt lat="43.148123" lon="12.3521607"><ele>312.0</ele><time>2026-04-12T09:02:26.012Z</time></trkpt><trkpt lat="43.1480251" lon="12.3521943"><ele>312.0</ele><time>2026-04-12T09:02:28.007Z</time></trkpt><trkpt lat="43.1479378" lon="12.3522081"><ele>312.0</ele><time>2026-04-12T09:02:29.999Z</time></trkpt><trkpt lat="43.1478351" lon="12.3522462"><ele>312.0</ele><time>2026-04-12T09:02:32.015Z</time></trkpt><trkpt lat="43.1477365" lon="12.3522844"><ele>312.0</ele><time>2026-04-12T09:02:33.999Z</time></trkpt><trkpt lat="43.1476404" lon="12.3523201"><ele>312.0</ele><time>2026-04-12T09:02:36.008Z</time></trkpt><trkpt lat="43.1475511" lon="12.35235"><ele>312.0</ele><time>2026-04-12T09:02:38.003Z</time></trkpt><trkpt lat="43.1474531" lon="12.3523805"><ele>312.0</ele><time>2026-04-12T09:02:40.11Z</time></trkpt><trkpt lat="43.1473437" lon="12.3524035"><ele>312.0</ele><time>2026-04-12T09:02:42.011Z</time></trkpt><trkpt lat="43.1472464" lon="12.3524252"><ele>312.0</ele><time>2026-04-12T09:02:44.002Z</time></trkpt><trkpt lat="43.1471476" lon="12.3524557"><ele>312.0</ele><time>2026-04-12T09:02:46.014Z</time></trkpt><trkpt lat="43.1470523" lon="12.3524864"><ele>312.2</ele><time>2026-04-12T09:02:48.004Z</time></trkpt><trkpt lat="43.1469622" lon="12.352508"><ele>312.4</ele><time>2026-04-12T09:02:50.011Z</time></trkpt><trkpt lat="43.1468511" lon="12.35254"><ele>312.6</ele><time>2026-04-12T09:02:52.003Z</time></trkpt><trkpt lat="43.1467519" lon="12.3525534"><ele>312.8</ele><time>2026-04-12T09:02:54.021Z</time></trkpt><trkpt lat="43.1466535" lon="12.35258"><ele>313.0</ele><time>2026-04-12T09:02:56.011Z</time></trkpt><trkpt lat="43.1465569" lon="12.3526087"><ele>313.16666666666663</ele><time>2026-04-12T09:02:58Z</time></trkpt><trkpt lat="43.1464624" lon="12.3526406"><ele>313.3333333333333</ele><time>2026-04-12T09:03:00Z</time></trkpt><trkpt lat="43.1463758" lon="12.3526634"><ele>313.5</ele><time>2026-04-12T09:03:01.999Z</time></trkpt><trkpt lat="43.1462915" lon="12.352687"><ele>313.6666666666667</ele><time>2026-04-12T09:03:04.004Z</time></trkpt><trkpt lat="43.1462071" lon="12.3527201"><ele>313.83333333333337</ele><time>2026-04-12T09:03:06.015Z</time></trkpt><trkpt lat="43.1461216" lon="12.352747"><ele>314.0</ele><time>2026-04-12T09:03:07.988Z</time></trkpt><trkpt lat="43.1460331" lon="12.3527704"><ele>314.0</ele><time>2026-04-12T09:03:10.003Z</time></trkpt><trkpt lat="43.1459473" lon="12.3527936"><ele>314.0</ele><time>2026-04-12T09:03:11.994Z</time></trkpt><trkpt lat="43.1458665" lon="12.3528128"><ele>314.0</ele><time>2026-04-12T09:03:13.988Z</time></trkpt><trkpt lat="43.1457917" lon="12.3528317"><ele>314.0</ele><time>2026-04-12T09:03:16.003Z</time></trkpt><trkpt lat="43.1457182" lon="12.3528042"><ele>314.0</ele><time>2026-04-12T09:03:18.003Z</time></trkpt><trkpt lat="43.1456578" lon="12.3527139"><ele>314.0</ele><time>2026-04-12T09:03:19.997Z</time></trkpt><trkpt lat="43.1456119" lon="12.3526286"><ele>313.99999999999994</ele><time>2026-04-12T09:03:21.992Z</time></trkpt><trkpt lat="43.1455527" lon="12.3525861"><ele>314.0</ele><time>2026-04-12T09:03:24.989Z</time></trkpt><trkpt lat="43.1455836" lon="12.3526849"><ele>314.0</ele><time>2026-04-12T09:03:28.001Z</time></trkpt><trkpt lat="43.145601" lon="12.3528083"><ele>314.0</ele><time>2026-04-12T09:03:30.991Z</time></trkpt><trkpt lat="43.1455646" lon="12.3528799"><ele>314.0</ele><time>2026-04-12T09:03:32.995Z</time></trkpt><trkpt lat="43.1455052" lon="12.3529167"><ele>313.99999999999994</ele><time>2026-04-12T09:03:34.991Z</time></trkpt><trkpt lat="43.1454346" lon="12.3529328"><ele>314.0</ele><time>2026-04-12T09:03:36.988Z</time></trkpt><trkpt lat="43.1453624" lon="12.352942"><ele>313.99999999999994</ele><time>2026-04-12T09:03:38.992Z</time></trkpt><trkpt lat="43.1452937" lon="12.3529543"><ele>314.0</ele><time>2026-04-12T09:03:41.001Z</time></trkpt><trkpt lat="43.1452277" lon="12.3529658"><ele>314.0</ele><time>2026-04-12T09:03:43.012Z</time></trkpt><trkpt lat="43.1451608" lon="12.3529792"><ele>314.0</ele><time>2026-04-12T09:03:45.113Z</time></trkpt><trkpt lat="43.145095" lon="12.3529892"><ele>314.0</ele><time>2026-04-12T09:03:47.005Z</time></trkpt><trkpt lat="43.1450322" lon="12.3529974"><ele>313.99999999999994</ele><time>2026-04-12T09:03:49.004Z</time></trkpt><trkpt lat="43.1449376" lon="12.3529957"><ele>314.0</ele><time>2026-04-12T09:03:51.999Z</time></trkpt><trkpt lat="43.1448744" lon="12.3530032"><ele>313.83333333333337</ele><time>2026-04-12T09:03:54.011Z</time></trkpt><trkpt lat="43.1447823" lon="12.3530245"><ele>313.6666666666667</ele><time>2026-04-12T09:03:57.008Z</time></trkpt><trkpt lat="43.1447138" lon="12.3530394"><ele>313.5</ele><time>2026-04-12T09:03:58.989Z</time></trkpt><trkpt lat="43.1446356" lon="12.3530529"><ele>313.3333333333333</ele><time>2026-04-12T09:04:01.004Z</time></trkpt><trkpt lat="43.1445567" lon="12.3530665"><ele>313.16666666666663</ele><time>2026-04-12T09:04:03.007Z</time></trkpt><trkpt lat="43.1444796" lon="12.3530747"><ele>313.0</ele><time>2026-04-12T09:04:05.001Z</time></trkpt><trkpt lat="43.1444088" lon="12.353108"><ele>313.3333333333333</ele><time>2026-04-12T09:04:06.999Z</time></trkpt><trkpt lat="43.1443393" lon="12.3531413"><ele>313.66666666666663</ele><time>2026-04-12T09:04:09.016Z</time></trkpt><trkpt lat="43.1442702" lon="12.3531718"><ele>314.0</ele><time>2026-04-12T09:04:11.011Z</time></trkpt><trkpt lat="43.1441992" lon="12.3532265"><ele>314.3333333333333</ele><time>2026-04-12T09:04:13.001Z</time></trkpt><trkpt lat="43.1441407" lon="12.3533016"><ele>314.6666666666667</ele><time>2026-04-12T09:04:15.011Z</time></trkpt><trkpt lat="43.144092" lon="12.3533795"><ele>315.0</ele><time>2026-04-12T09:04:17.003Z</time></trkpt><trkpt lat="43.1440527" lon="12.3534566"><ele>315.57142857142856</ele><time>2026-04-12T09:04:19.004Z</time></trkpt><trkpt lat="43.1440249" lon="12.3535566"><ele>316.1428571428571</ele><time>2026-04-12T09:04:22.002Z</time></trkpt><trkpt lat="43.1440025" lon="12.3536408"><ele>316.7142857142857</ele><time>2026-04-12T09:04:24.005Z</time></trkpt><trkpt lat="43.1439863" lon="12.3537332"><ele>317.2857142857143</ele><time>2026-04-12T09:04:25.999Z</time></trkpt><trkpt lat="43.1439815" lon="12.3538395"><ele>317.85714285714283</ele><time>2026-04-12T09:04:28.005Z</time></trkpt><trkpt lat="43.1439864" lon="12.3539459"><ele>318.42857142857144</ele><time>2026-04-12T09:04:30.001Z</time></trkpt><trkpt lat="43.1439855" lon="12.3540489"><ele>319.0</ele><time>2026-04-12T09:04:32.108Z</time></trkpt><trkpt lat="43.1439972" lon="12.3541479"><ele>319.0</ele><time>2026-04-12T09:04:34.006Z</time></trkpt><trkpt lat="43.1440176" lon="12.354245"><ele>319.0</ele><time>2026-04-12T09:04:35.999Z</time></trkpt><trkpt lat="43.1440426" lon="12.3543402"><ele>319.0</ele><time>2026-04-12T09:04:38.002Z</time></trkpt><trkpt lat="43.1440674" lon="12.3544322"><ele>319.0</ele><time>2026-04-12T09:04:40.006Z</time></trkpt><trkpt lat="43.1440931" lon="12.3545186"><ele>319.0</ele><time>2026-04-12T09:04:42.003Z</time></trkpt><trkpt lat="43.1441202" lon="12.3546053"><ele>319.0</ele><time>2026-04-12T09:04:44.001Z</time></trkpt><trkpt lat="43.1441475" lon="12.3546918"><ele>319.0</ele><time>2026-04-12T09:04:45.993Z</time></trkpt><trkpt lat="43.1441716" lon="12.3547791"><ele>320.14285714285717</ele><time>2026-04-12T09:04:48.002Z</time></trkpt><trkpt lat="43.1441928" lon="12.3548696"><ele>321.2857142857143</ele><time>2026-04-12T09:04:50.005Z</time></trkpt><trkpt lat="43.1442135" lon="12.3549649"><ele>322.42857142857144</ele><time>2026-04-12T09:04:52.019Z</time></trkpt><trkpt lat="43.1442334" lon="12.3550614"><ele>323.57142857142856</ele><time>2026-04-12T09:04:54.004Z</time></trkpt><trkpt lat="43.1442468" lon="12.3551569"><ele>324.7142857142857</ele><time>2026-04-12T09:04:56.004Z</time></trkpt><trkpt lat="43.1442504" lon="12.355254"><ele>325.85714285714283</ele><time>2026-04-12T09:04:58.008Z</time></trkpt><trkpt lat="43.1442481" lon="12.3553477"><ele>327.0</ele><time>2026-04-12T09:05:00.002Z</time></trkpt><trkpt lat="43.1442397" lon="12.355444"><ele>327.0</ele><time>2026-04-12T09:05:02.011Z</time></trkpt><trkpt lat="43.1442203" lon="12.3555329"><ele>327.0</ele><time>2026-04-12T09:05:04.004Z</time></trkpt><trkpt lat="43.1441986" lon="12.355628"><ele>327.0</ele><time>2026-04-12T09:05:06.109Z</time></trkpt><trkpt lat="43.1441613" lon="12.3557199"><ele>327.0</ele><time>2026-04-12T09:05:07.999Z</time></trkpt><trkpt lat="43.1441214" lon="12.3558017"><ele>327.0</ele><time>2026-04-12T09:05:10.01Z</time></trkpt><trkpt lat="43.1440741" lon="12.3558754"><ele>327.0</ele><time>2026-04-12T09:05:11.991Z</time></trkpt><trkpt lat="43.1440243" lon="12.355942"><ele>327.0</ele><time>2026-04-12T09:05:14.007Z</time></trkpt><trkpt lat="43.1439704" lon="12.3560058"><ele>327.2857142857143</ele><time>2026-04-12T09:05:16.001Z</time></trkpt><trkpt lat="43.1439177" lon="12.3560692"><ele>327.57142857142856</ele><time>2026-04-12T09:05:17.999Z</time></trkpt><trkpt lat="43.1438586" lon="12.3561149"><ele>327.8571428571429</ele><time>2026-04-12T09:05:20.005Z</time></trkpt><trkpt lat="43.1437934" lon="12.3561528"><ele>328.1428571428571</ele><time>2026-04-12T09:05:22.02Z</time></trkpt><trkpt lat="43.1437288" lon="12.3561936"><ele>328.42857142857144</ele><time>2026-04-12T09:05:24.104Z</time></trkpt><trkpt lat="43.1436606" lon="12.35622"><ele>328.7142857142857</ele><time>2026-04-12T09:05:26.004Z</time></trkpt><trkpt lat="43.1435916" lon="12.3562448"><ele>329.0</ele><time>2026-04-12T09:05:28.002Z</time></trkpt><trkpt lat="43.1435213" lon="12.3562583"><ele>329.0</ele><time>2026-04-12T09:05:30.109Z</time></trkpt><trkpt lat="43.1434458" lon="12.3562605"><ele>329.0</ele><time>2026-04-12T09:05:32.005Z</time></trkpt><trkpt lat="43.1433731" lon="12.3562565"><ele>329.0</ele><time>2026-04-12T09:05:33.996Z</time></trkpt><trkpt lat="43.1433035" lon="12.3562415"><ele>329.0</ele><time>2026-04-12T09:05:36.003Z</time></trkpt><trkpt lat="43.1432328" lon="12.3562169"><ele>329.0</ele><time>2026-04-12T09:05:38.006Z</time></trkpt><trkpt lat="43.1431661" lon="12.3561777"><ele>329.0</ele><time>2026-04-12T09:05:40.003Z</time></trkpt><trkpt lat="43.1431058" lon="12.3561253"><ele>329.0</ele><time>2026-04-12T09:05:42.01Z</time></trkpt><trkpt lat="43.1430491" lon="12.356064"><ele>331.83333333333337</ele><time>2026-04-12T09:05:44.002Z</time></trkpt><trkpt lat="43.1429982" lon="12.3559891"><ele>334.6666666666667</ele><time>2026-04-12T09:05:46.007Z</time></trkpt><trkpt lat="43.1429483" lon="12.3559127"><ele>337.5</ele><time>2026-04-12T09:05:47.996Z</time></trkpt><trkpt lat="43.1429011" lon="12.3558275"><ele>340.3333333333333</ele><time>2026-04-12T09:05:50.004Z</time></trkpt><trkpt lat="43.14285" lon="12.3557441"><ele>343.16666666666663</ele><time>2026-04-12T09:05:51.997Z</time></trkpt><trkpt lat="43.1427993" lon="12.3556581"><ele>346.0</ele><time>2026-04-12T09:05:54.005Z</time></trkpt><trkpt lat="43.1427489" lon="12.3555797"><ele>345.16666666666663</ele><time>2026-04-12T09:05:56.008Z</time></trkpt><trkpt lat="43.142702" lon="12.3555018"><ele>344.3333333333333</ele><time>2026-04-12T09:05:57.998Z</time></trkpt><trkpt lat="43.1426553" lon="12.3554155"><ele>343.5</ele><time>2026-04-12T09:06:00.119Z</time></trkpt><trkpt lat="43.1426036" lon="12.3553315"><ele>342.6666666666667</ele><time>2026-04-12T09:06:01.989Z</time></trkpt><trkpt lat="43.142554" lon="12.3552474"><ele>341.83333333333337</ele><time>2026-04-12T09:06:04.008Z</time></trkpt><trkpt lat="43.1425041" lon="12.3551628"><ele>341.0</ele><time>2026-04-12T09:06:05.998Z</time></trkpt><trkpt lat="43.1424531" lon="12.3550802"><ele>341.0</ele><time>2026-04-12T09:06:07.991Z</time></trkpt><trkpt lat="43.1424024" lon="12.3549946"><ele>341.0</ele><time>2026-04-12T09:06:10.001Z</time></trkpt><trkpt lat="43.142352" lon="12.3549103"><ele>341.0</ele><time>2026-04-12T09:06:12.007Z</time></trkpt><trkpt lat="43.1423039" lon="12.3548237"><ele>341.0</ele><time>2026-04-12T09:06:14.004Z</time></trkpt><trkpt lat="43.1422526" lon="12.3547424"><ele>341.0</ele><time>2026-04-12T09:06:16.006Z</time></trkpt><trkpt lat="43.1421994" lon="12.3546644"><ele>341.0</ele><time>2026-04-12T09:06:18Z</time></trkpt><trkpt lat="43.142135" lon="12.3545934"><ele>340.83333333333337</ele><time>2026-04-12T09:06:20.011Z</time></trkpt><trkpt lat="43.1420662" lon="12.3545342"><ele>340.6666666666667</ele><time>2026-04-12T09:06:22.004Z</time></trkpt><trkpt lat="43.1419855" lon="12.3544859"><ele>340.5</ele><time>2026-04-12T09:06:24.002Z</time></trkpt><trkpt lat="43.1419098" lon="12.3544446"><ele>340.3333333333333</ele><time>2026-04-12T09:06:26.002Z</time></trkpt><trkpt lat="43.1418329" lon="12.3544161"><ele>340.16666666666663</ele><time>2026-04-12T09:06:27.997Z</time></trkpt><trkpt lat="43.1417541" lon="12.3543977"><ele>340.0</ele><time>2026-04-12T09:06:29.997Z</time></trkpt><trkpt lat="43.1416688" lon="12.3543861"><ele>340.0</ele><time>2026-04-12T09:06:32.005Z</time></trkpt><trkpt lat="43.1415807" lon="12.3543825"><ele>340.0</ele><time>2026-04-12T09:06:33.987Z</time></trkpt><trkpt lat="43.1414889" lon="12.3543922"><ele>340.0</ele><time>2026-04-12T09:06:36.11Z</time></trkpt><trkpt lat="43.1413935" lon="12.3544087"><ele>340.0</ele><time>2026-04-12T09:06:37.998Z</time></trkpt><trkpt lat="43.1413044" lon="12.3544209"><ele>340.0</ele><time>2026-04-12T09:06:40.008Z</time></trkpt><trkpt lat="43.141222" lon="12.3544395"><ele>340.0</ele><time>2026-04-12T09:06:42.105Z</time></trkpt><trkpt lat="43.1411401" lon="12.3544697"><ele>340.16666666666663</ele><time>2026-04-12T09:06:43.995Z</time></trkpt><trkpt lat="43.1410614" lon="12.3545102"><ele>340.3333333333333</ele><time>2026-04-12T09:06:46.005Z</time></trkpt><trkpt lat="43.1409817" lon="12.3545466"><ele>340.5</ele><time>2026-04-12T09:06:48.003Z</time></trkpt><trkpt lat="43.1409006" lon="12.3545853"><ele>340.6666666666667</ele><time>2026-04-12T09:06:50.008Z</time></trkpt><trkpt lat="43.1408199" lon="12.354636"><ele>340.83333333333337</ele><time>2026-04-12T09:06:52.013Z</time></trkpt><trkpt lat="43.1407359" lon="12.3546942"><ele>341.0</ele><time>2026-04-12T09:06:54.004Z</time></trkpt><trkpt lat="43.1406579" lon="12.354747"><ele>342.6666666666667</ele><time>2026-04-12T09:06:56.003Z</time></trkpt><trkpt lat="43.1405908" lon="12.3547872"><ele>344.33333333333337</ele><time>2026-04-12T09:06:57.989Z</time></trkpt><trkpt lat="43.1405186" lon="12.3548403"><ele>346.0</ele><time>2026-04-12T09:07:00.004Z</time></trkpt><trkpt lat="43.1404539" lon="12.3549151"><ele>347.6666666666667</ele><time>2026-04-12T09:07:01.998Z</time></trkpt><trkpt lat="43.1404004" lon="12.3550099"><ele>349.3333333333333</ele><time>2026-04-12T09:07:04.008Z</time></trkpt><trkpt lat="43.1403501" lon="12.3551169"><ele>351.0</ele><time>2026-04-12T09:07:06.001Z</time></trkpt><trkpt lat="43.1402991" lon="12.355218"><ele>351.0</ele><time>2026-04-12T09:07:08.003Z</time></trkpt><trkpt lat="43.1402496" lon="12.3553246"><ele>351.0</ele><time>2026-04-12T09:07:10Z</time></trkpt><trkpt lat="43.1402013" lon="12.3554287"><ele>351.0</ele><time>2026-04-12T09:07:12Z</time></trkpt><trkpt lat="43.1401568" lon="12.355531"><ele>351.0</ele><time>2026-04-12T09:07:13.987Z</time></trkpt><trkpt lat="43.1401031" lon="12.3556252"><ele>351.0</ele><time>2026-04-12T09:07:16.001Z</time></trkpt><trkpt lat="43.1400683" lon="12.3556999"><ele>351.0</ele><time>2026-04-12T09:07:17Z</time></trkpt><trkpt lat="43.1400505" lon="12.3557903"><ele>352.0</ele><time>2026-04-12T09:07:18.007Z</time></trkpt><trkpt lat="43.1400158" lon="12.3558953"><ele>353.0</ele><time>2026-04-12T09:07:20.008Z</time></trkpt><trkpt lat="43.139957" lon="12.3559995"><ele>354.0</ele><time>2026-04-12T09:07:21.996Z</time></trkpt><trkpt lat="43.1399075" lon="12.3560928"><ele>355.0</ele><time>2026-04-12T09:07:24.001Z</time></trkpt><trkpt lat="43.1398516" lon="12.3561964"><ele>356.0</ele><time>2026-04-12T09:07:26.014Z</time></trkpt><trkpt lat="43.1397862" lon="12.3562718"><ele>357.0</ele><time>2026-04-12T09:07:27.991Z</time></trkpt><trkpt lat="43.1397181" lon="12.3563332"><ele>358.20000000000005</ele><time>2026-04-12T09:07:30.004Z</time></trkpt><trkpt lat="43.139646" lon="12.3563827"><ele>359.4</ele><time>2026-04-12T09:07:32.001Z</time></trkpt><trkpt lat="43.1395604" lon="12.356411"><ele>360.6</ele><time>2026-04-12T09:07:34Z</time></trkpt><trkpt lat="43.1394334" lon="12.3564362"><ele>361.79999999999995</ele><time>2026-04-12T09:07:36.997Z</time></trkpt><trkpt lat="43.1393486" lon="12.3564322"><ele>363.0</ele><time>2026-04-12T09:07:39.003Z</time></trkpt><trkpt lat="43.1392603" lon="12.3564076"><ele>363.0</ele><time>2026-04-12T09:07:41.001Z</time></trkpt><trkpt lat="43.1391786" lon="12.3563734"><ele>363.0</ele><time>2026-04-12T09:07:42.999Z</time></trkpt><trkpt lat="43.1391001" lon="12.3563324"><ele>363.0</ele><time>2026-04-12T09:07:44.997Z</time></trkpt><trkpt lat="43.1390161" lon="12.3562887"><ele>363.0</ele><time>2026-04-12T09:07:47.093Z</time></trkpt><trkpt lat="43.1389329" lon="12.3562457"><ele>363.0</ele><time>2026-04-12T09:07:48.997Z</time></trkpt><trkpt lat="43.1388662" lon="12.3561998"><ele>363.0</ele><time>2026-04-12T09:07:51.015Z</time></trkpt><trkpt lat="43.1387867" lon="12.3561402"><ele>362.8333333333333</ele><time>2026-04-12T09:07:52.989Z</time></trkpt><trkpt lat="43.1387129" lon="12.3560991"><ele>362.6666666666667</ele><time>2026-04-12T09:07:54.99Z</time></trkpt><trkpt lat="43.1386247" lon="12.35608"><ele>362.5</ele><time>2026-04-12T09:07:56.99Z</time></trkpt><trkpt lat="43.1385384" lon="12.3560755"><ele>362.33333333333337</ele><time>2026-04-12T09:07:58.985Z</time></trkpt><trkpt lat="43.138454" lon="12.3560895"><ele>362.1666666666667</ele><time>2026-04-12T09:08:00.998Z</time></trkpt><trkpt lat="43.1383743" lon="12.3561239"><ele>362.0</ele><time>2026-04-12T09:08:02.988Z</time></trkpt><trkpt lat="43.1382877" lon="12.3561677"><ele>363.83333333333337</ele><time>2026-04-12T09:08:04.99Z</time></trkpt><trkpt lat="43.1382153" lon="12.3562252"><ele>365.6666666666667</ele><time>2026-04-12T09:08:06.995Z</time></trkpt><trkpt lat="43.1381465" lon="12.3562848"><ele>367.5</ele><time>2026-04-12T09:08:08.999Z</time></trkpt><trkpt lat="43.1380784" lon="12.3563566"><ele>369.3333333333333</ele><time>2026-04-12T09:08:11.001Z</time></trkpt><trkpt lat="43.1380009" lon="12.3564384"><ele>371.16666666666663</ele><time>2026-04-12T09:08:13.005Z</time></trkpt><trkpt lat="43.1379273" lon="12.3565024"><ele>373.0</ele><time>2026-04-12T09:08:15.004Z</time></trkpt><trkpt lat="43.1378494" lon="12.3565615"><ele>374.0</ele><time>2026-04-12T09:08:17Z</time></trkpt><trkpt lat="43.13777" lon="12.3566163"><ele>375.0</ele><time>2026-04-12T09:08:19.014Z</time></trkpt><trkpt lat="43.1376858" lon="12.3566603"><ele>376.0</ele><time>2026-04-12T09:08:21.002Z</time></trkpt><trkpt lat="43.137597" lon="12.3566935"><ele>377.0</ele><time>2026-04-12T09:08:23.112Z</time></trkpt><trkpt lat="43.1375074" lon="12.3566987"><ele>378.0</ele><time>2026-04-12T09:08:25.014Z</time></trkpt><trkpt lat="43.1374193" lon="12.3566737"><ele>382.59999999999997</ele><time>2026-04-12T09:08:27.009Z</time></trkpt><trkpt lat="43.1373366" lon="12.3566321"><ele>387.2</ele><time>2026-04-12T09:08:28.999Z</time></trkpt><trkpt lat="43.1372525" lon="12.3565718"><ele>391.8</ele><time>2026-04-12T09:08:31.005Z</time></trkpt><trkpt lat="43.1371847" lon="12.3564967"><ele>396.4</ele><time>2026-04-12T09:08:32.999Z</time></trkpt><trkpt lat="43.1371189" lon="12.3564023"><ele>401.0</ele><time>2026-04-12T09:08:34.981Z</time></trkpt><trkpt lat="43.1370677" lon="12.3562984"><ele>401.20000000000005</ele><time>2026-04-12T09:08:37.005Z</time></trkpt><trkpt lat="43.1370255" lon="12.3561892"><ele>401.40000000000003</ele><time>2026-04-12T09:08:39.01Z</time></trkpt><trkpt lat="43.1369983" lon="12.3560678"><ele>401.6</ele><time>2026-04-12T09:08:41.001Z</time></trkpt><trkpt lat="43.1369866" lon="12.3559441"><ele>401.8</ele><time>2026-04-12T09:08:43.006Z</time></trkpt><trkpt lat="43.1369978" lon="12.3558049"><ele>402.0</ele><time>2026-04-12T09:08:45.001Z</time></trkpt><trkpt lat="43.13702" lon="12.3556794"><ele>402.0</ele><time>2026-04-12T09:08:47.004Z</time></trkpt><trkpt lat="43.1370511" lon="12.3555519"><ele>402.0</ele><time>2026-04-12T09:08:49.015Z</time></trkpt><trkpt lat="43.1370872" lon="12.3554246"><ele>402.0</ele><time>2026-04-12T09:08:51.011Z</time></trkpt><trkpt lat="43.1371189" lon="12.3552953"><ele>402.0</ele><time>2026-04-12T09:08:53.001Z</time></trkpt><trkpt lat="43.1371496" lon="12.3551648"><ele>402.0</ele><time>2026-04-12T09:08:55.011Z</time></trkpt><trkpt lat="43.1371666" lon="12.3550271"><ele>400.20000000000005</ele><time>2026-04-12T09:08:57.011Z</time></trkpt><trkpt lat="43.137164" lon="12.3548823"><ele>398.4</ele><time>2026-04-12T09:08:59.001Z</time></trkpt><trkpt lat="43.1371494" lon="12.3547448"><ele>396.6</ele><time>2026-04-12T09:09:01.002Z</time></trkpt><trkpt lat="43.1371097" lon="12.3545986"><ele>394.79999999999995</ele><time>2026-04-12T09:09:03.014Z</time></trkpt><trkpt lat="43.1370633" lon="12.3544639"><ele>393.0</ele><time>2026-04-12T09:09:04.987Z</time></trkpt><trkpt lat="43.1369985" lon="12.3543466"><ele>391.2</ele><time>2026-04-12T09:09:07.003Z</time></trkpt><trkpt lat="43.1369048" lon="12.3542423"><ele>389.4</ele><time>2026-04-12T09:09:09.005Z</time></trkpt><trkpt lat="43.1368148" lon="12.3541559"><ele>387.59999999999997</ele><time>2026-04-12T09:09:11.107Z</time></trkpt><trkpt lat="43.1367354" lon="12.3540887"><ele>385.79999999999995</ele><time>2026-04-12T09:09:13.003Z</time></trkpt><trkpt lat="43.1366594" lon="12.3540383"><ele>384.0</ele><time>2026-04-12T09:09:15.004Z</time></trkpt><trkpt lat="43.1365782" lon="12.3539945"><ele>385.3333333333333</ele><time>2026-04-12T09:09:17.009Z</time></trkpt><trkpt lat="43.1364817" lon="12.3539668"><ele>386.66666666666663</ele><time>2026-04-12T09:09:18.997Z</time></trkpt><trkpt lat="43.1364185" lon="12.3539028"><ele>388.0</ele><time>2026-04-12T09:09:21.005Z</time></trkpt><trkpt lat="43.1363505" lon="12.3538306"><ele>389.3333333333333</ele><time>2026-04-12T09:09:23.014Z</time></trkpt><trkpt lat="43.1362782" lon="12.3537661"><ele>390.66666666666663</ele><time>2026-04-12T09:09:25.007Z</time></trkpt><trkpt lat="43.1362099" lon="12.3537054"><ele>392.0</ele><time>2026-04-12T09:09:27.009Z</time></trkpt><trkpt lat="43.1361453" lon="12.3536392"><ele>391.99999999999994</ele><time>2026-04-12T09:09:29.011Z</time></trkpt><trkpt lat="43.1360743" lon="12.3535828"><ele>392.0</ele><time>2026-04-12T09:09:31.008Z</time></trkpt><trkpt lat="43.1360113" lon="12.3535198"><ele>392.0</ele><time>2026-04-12T09:09:33.015Z</time></trkpt><trkpt lat="43.1359433" lon="12.3534565"><ele>392.0</ele><time>2026-04-12T09:09:35.004Z</time></trkpt><trkpt lat="43.1358725" lon="12.3533925"><ele>391.99999999999994</ele><time>2026-04-12T09:09:37.013Z</time></trkpt><trkpt lat="43.1357965" lon="12.3533326"><ele>392.0</ele><time>2026-04-12T09:09:39.005Z</time></trkpt><trkpt lat="43.1357199" lon="12.3532724"><ele>392.3333333333333</ele><time>2026-04-12T09:09:41.004Z</time></trkpt><trkpt lat="43.1356403" lon="12.3532056"><ele>392.66666666666663</ele><time>2026-04-12T09:09:43.006Z</time></trkpt><trkpt lat="43.1355718" lon="12.3531363"><ele>393.0</ele><time>2026-04-12T09:09:45.004Z</time></trkpt><trkpt lat="43.1354985" lon="12.3530767"><ele>393.33333333333337</ele><time>2026-04-12T09:09:47.004Z</time></trkpt><trkpt lat="43.135437" lon="12.3530133"><ele>393.6666666666667</ele><time>2026-04-12T09:09:49Z</time></trkpt><trkpt lat="43.1353669" lon="12.3529511"><ele>394.0</ele><time>2026-04-12T09:09:51.002Z</time></trkpt><trkpt lat="43.1352906" lon="12.3528871"><ele>394.00000000000006</ele><time>2026-04-12T09:09:52.999Z</time></trkpt><trkpt lat="43.1352195" lon="12.3528303"><ele>394.0</ele><time>2026-04-12T09:09:55.01Z</time></trkpt><trkpt lat="43.1351428" lon="12.3527805"><ele>394.0</ele><time>2026-04-12T09:09:56.995Z</time></trkpt><trkpt lat="43.1350746" lon="12.3527275"><ele>394.0</ele><time>2026-04-12T09:09:59.001Z</time></trkpt><trkpt lat="43.1350076" lon="12.3526692"><ele>394.00000000000006</ele><time>2026-04-12T09:10:01.008Z</time></trkpt><trkpt lat="43.134938" lon="12.3526175"><ele>394.0</ele><time>2026-04-12T09:10:03.007Z</time></trkpt><trkpt lat="43.1348609" lon="12.3525759"><ele>394.6666666666667</ele><time>2026-04-12T09:10:05.006Z</time></trkpt><trkpt lat="43.1347859" lon="12.3525413"><ele>395.33333333333337</ele><time>2026-04-12T09:10:06.994Z</time></trkpt><trkpt lat="43.1347145" lon="12.3525099"><ele>396.0</ele><time>2026-04-12T09:10:09.011Z</time></trkpt><trkpt lat="43.1346356" lon="12.3524985"><ele>396.66666666666663</ele><time>2026-04-12T09:10:11.012Z</time></trkpt><trkpt lat="43.1345629" lon="12.352477"><ele>397.3333333333333</ele><time>2026-04-12T09:10:13.007Z</time></trkpt><trkpt lat="43.1344952" lon="12.3524639"><ele>398.0</ele><time>2026-04-12T09:10:15.004Z</time></trkpt><trkpt lat="43.1344164" lon="12.3524467"><ele>397.99999999999994</ele><time>2026-04-12T09:10:16.998Z</time></trkpt><trkpt lat="43.1343385" lon="12.3524214"><ele>398.0</ele><time>2026-04-12T09:10:19.005Z</time></trkpt><trkpt lat="43.1342635" lon="12.3523935"><ele>398.0</ele><time>2026-04-12T09:10:20.994Z</time></trkpt><trkpt lat="43.1341997" lon="12.3523687"><ele>398.0</ele><time>2026-04-12T09:10:23.008Z</time></trkpt><trkpt lat="43.1341322" lon="12.3523441"><ele>397.99999999999994</ele><time>2026-04-12T09:10:24.992Z</time></trkpt><trkpt lat="43.1340515" lon="12.352329"><ele>398.0</ele><time>2026-04-12T09:10:26.981Z</time></trkpt><trkpt lat="43.1339616" lon="12.3523209"><ele>397.99999999999994</ele><time>2026-04-12T09:10:29.006Z</time></trkpt><trkpt lat="43.1338954" lon="12.3523109"><ele>398.0</ele><time>2026-04-12T09:10:30.997Z</time></trkpt><trkpt lat="43.1338287" lon="12.3523118"><ele>398.0</ele><time>2026-04-12T09:10:32.993Z</time></trkpt><trkpt lat="43.1337445" lon="12.3523182"><ele>398.0</ele><time>2026-04-12T09:10:34.995Z</time></trkpt><trkpt lat="43.1336666" lon="12.3523297"><ele>398.0</ele><time>2026-04-12T09:10:36.997Z</time></trkpt><trkpt lat="43.1335897" lon="12.3523401"><ele>397.99999999999994</ele><time>2026-04-12T09:10:38.999Z</time></trkpt><trkpt lat="43.1335143" lon="12.3523475"><ele>398.0</ele><time>2026-04-12T09:10:41.008Z</time></trkpt><trkpt lat="43.1334397" lon="12.352369"><ele>397.99999999999994</ele><time>2026-04-12T09:10:42.99Z</time></trkpt><trkpt lat="43.1333677" lon="12.3524027"><ele>398.0</ele><time>2026-04-12T09:10:45.001Z</time></trkpt><trkpt lat="43.1332722" lon="12.3524159"><ele>398.0</ele><time>2026-04-12T09:10:48.003Z</time></trkpt><trkpt lat="43.1332056" lon="12.3523614"><ele>398.0</ele><time>2026-04-12T09:10:50.005Z</time></trkpt><trkpt lat="43.1331481" lon="12.3522927"><ele>397.99999999999994</ele><time>2026-04-12T09:10:52.011Z</time></trkpt><trkpt lat="43.1330786" lon="12.3522109"><ele>398.0</ele><time>2026-04-12T09:10:54.986Z</time></trkpt><trkpt lat="43.1330392" lon="12.3521167"><ele>396.16666666666663</ele><time>2026-04-12T09:10:56.999Z</time></trkpt><trkpt lat="43.1330173" lon="12.3520101"><ele>394.3333333333333</ele><time>2026-04-12T09:10:58.997Z</time></trkpt><trkpt lat="43.1330035" lon="12.3519072"><ele>392.5</ele><time>2026-04-12T09:11:01.001Z</time></trkpt><trkpt lat="43.1329982" lon="12.3518037"><ele>390.66666666666663</ele><time>2026-04-12T09:11:03.011Z</time></trkpt><trkpt lat="43.1329901" lon="12.3516859"><ele>388.8333333333333</ele><time>2026-04-12T09:11:05.01Z</time></trkpt><trkpt lat="43.1329778" lon="12.3515712"><ele>387.0</ele><time>2026-04-12T09:11:07.003Z</time></trkpt><trkpt lat="43.1329792" lon="12.35143"><ele>389.5</ele><time>2026-04-12T09:11:09.01Z</time></trkpt><trkpt lat="43.1329374" lon="12.3512827"><ele>392.0</ele><time>2026-04-12T09:11:11Z</time></trkpt><trkpt lat="43.1329201" lon="12.3511958"><ele>394.5</ele><time>2026-04-12T09:11:12.004Z</time></trkpt><trkpt lat="43.132887" lon="12.3511205"><ele>397.0</ele><time>2026-04-12T09:11:13.001Z</time></trkpt><trkpt lat="43.1328291" lon="12.3510744"><ele>399.5</ele><time>2026-04-12T09:11:14Z</time></trkpt><trkpt lat="43.1327581" lon="12.3510454"><ele>402.0</ele><time>2026-04-12T09:11:15.002Z</time></trkpt><trkpt lat="43.1326891" lon="12.3510438"><ele>402.0</ele><time>2026-04-12T09:11:16.003Z</time></trkpt><trkpt lat="43.1325748" lon="12.3510767"><ele>402.0</ele><time>2026-04-12T09:11:17.987Z</time></trkpt><trkpt lat="43.1324559" lon="12.3511161"><ele>402.0</ele><time>2026-04-12T09:11:20Z</time></trkpt><trkpt lat="43.1323742" lon="12.3511717"><ele>402.0</ele><time>2026-04-12T09:11:22.006Z</time></trkpt><trkpt lat="43.1322737" lon="12.3511756"><ele>402.0</ele><time>2026-04-12T09:11:23.999Z</time></trkpt><trkpt lat="43.132192" lon="12.3511686"><ele>400.0</ele><time>2026-04-12T09:11:26Z</time></trkpt><trkpt lat="43.1320983" lon="12.3511893"><ele>398.0</ele><time>2026-04-12T09:11:28.012Z</time></trkpt><trkpt lat="43.1319999" lon="12.3511695"><ele>396.0</ele><time>2026-04-12T09:11:30.003Z</time></trkpt><trkpt lat="43.1318927" lon="12.3511334"><ele>394.0</ele><time>2026-04-12T09:11:32.007Z</time></trkpt><trkpt lat="43.1318001" lon="12.3510769"><ele>392.0</ele><time>2026-04-12T09:11:34.001Z</time></trkpt><trkpt lat="43.1317179" lon="12.3510194"><ele>391.99999999999994</ele><time>2026-04-12T09:11:36.001Z</time></trkpt><trkpt lat="43.1316593" lon="12.350981"><ele>392.0</ele><time>2026-04-12T09:11:37.008Z</time></trkpt><trkpt lat="43.1316062" lon="12.3509292"><ele>392.0</ele><time>2026-04-12T09:11:38.008Z</time></trkpt><trkpt lat="43.1315117" lon="12.35082"><ele>392.0</ele><time>2026-04-12T09:11:39.989Z</time></trkpt><trkpt lat="43.1314669" lon="12.3507534"><ele>391.99999999999994</ele><time>2026-04-12T09:11:41.005Z</time></trkpt><trkpt lat="43.1314213" lon="12.3506879"><ele>392.0</ele><time>2026-04-12T09:11:42.003Z</time></trkpt><trkpt lat="43.1313623" lon="12.3505519"><ele>392.6</ele><time>2026-04-12T09:11:44.006Z</time></trkpt><trkpt lat="43.1313004" lon="12.3504566"><ele>393.20000000000005</ele><time>2026-04-12T09:11:46.007Z</time></trkpt><trkpt lat="43.1312299" lon="12.3503559"><ele>393.8</ele><time>2026-04-12T09:11:48.001Z</time></trkpt><trkpt lat="43.1311587" lon="12.3502672"><ele>394.4</ele><time>2026-04-12T09:11:50.01Z</time></trkpt><trkpt lat="43.1310992" lon="12.3502275"><ele>395.0</ele><time>2026-04-12T09:11:51.009Z</time></trkpt><trkpt lat="43.1310181" lon="12.350166"><ele>394.99999999999994</ele><time>2026-04-12T09:11:53.002Z</time></trkpt><trkpt lat="43.130939" lon="12.3501268"><ele>395.0</ele><time>2026-04-12T09:11:55.112Z</time></trkpt><trkpt lat="43.1308652" lon="12.350085"><ele>395.0</ele><time>2026-04-12T09:11:56.988Z</time></trkpt><trkpt lat="43.1307993" lon="12.350043"><ele>395.0</ele><time>2026-04-12T09:11:58.998Z</time></trkpt><trkpt lat="43.130721" lon="12.3500084"><ele>394.99999999999994</ele><time>2026-04-12T09:12:01.111Z</time></trkpt><trkpt lat="43.1306331" lon="12.3499595"><ele>395.0</ele><time>2026-04-12T09:12:03.001Z</time></trkpt><trkpt lat="43.130547" lon="12.349902"><ele>393.99999999999994</ele><time>2026-04-12T09:12:05.012Z</time></trkpt><trkpt lat="43.130475" lon="12.3498073"><ele>393.0</ele><time>2026-04-12T09:12:07.082Z</time></trkpt><trkpt lat="43.1304218" lon="12.3496895"><ele>392.0</ele><time>2026-04-12T09:12:08.995Z</time></trkpt><trkpt lat="43.1303864" lon="12.3495714"><ele>391.0</ele><time>2026-04-12T09:12:10.997Z</time></trkpt><trkpt lat="43.1303659" lon="12.3494768"><ele>389.99999999999994</ele><time>2026-04-12T09:12:12.99Z</time></trkpt><trkpt lat="43.1303513" lon="12.3493745"><ele>389.0</ele><time>2026-04-12T09:12:15.003Z</time></trkpt><trkpt lat="43.1302966" lon="12.3492174"><ele>389.0</ele><time>2026-04-12T09:12:16.99Z</time></trkpt><trkpt lat="43.1302527" lon="12.3490636"><ele>389.0</ele><time>2026-04-12T09:12:19.003Z</time></trkpt><trkpt lat="43.1302156" lon="12.3489011"><ele>389.0</ele><time>2026-04-12T09:12:21.007Z</time></trkpt><trkpt lat="43.1301736" lon="12.3487617"><ele>389.0</ele><time>2026-04-12T09:12:22.989Z</time></trkpt><trkpt lat="43.1301325" lon="12.3486306"><ele>389.5</ele><time>2026-04-12T09:12:24.987Z</time></trkpt><trkpt lat="43.1300815" lon="12.3484957"><ele>390.0</ele><time>2026-04-12T09:12:26.988Z</time></trkpt><trkpt lat="43.1300231" lon="12.3483696"><ele>390.5</ele><time>2026-04-12T09:12:28.995Z</time></trkpt><trkpt lat="43.1299845" lon="12.3482268"><ele>391.0</ele><time>2026-04-12T09:12:30.99Z</time></trkpt><trkpt lat="43.1299746" lon="12.348059"><ele>390.6</ele><time>2026-04-12T09:12:32.992Z</time></trkpt><trkpt lat="43.1299724" lon="12.3478602"><ele>390.20000000000005</ele><time>2026-04-12T09:12:34.989Z</time></trkpt><trkpt lat="43.1299863" lon="12.3477736"><ele>389.79999999999995</ele><time>2026-04-12T09:12:35.999Z</time></trkpt><trkpt lat="43.1299924" lon="12.34759"><ele>389.4</ele><time>2026-04-12T09:12:37.998Z</time></trkpt><trkpt lat="43.1299925" lon="12.3474831"><ele>389.0</ele><time>2026-04-12T09:12:38.995Z</time></trkpt><trkpt lat="43.1299929" lon="12.3473763"><ele>388.99999999999994</ele><time>2026-04-12T09:12:40.007Z</time></trkpt><trkpt lat="43.1300007" lon="12.3472656"><ele>389.0</ele><time>2026-04-12T09:12:41.014Z</time></trkpt><trkpt lat="43.1300081" lon="12.3471496"><ele>389.0</ele><time>2026-04-12T09:12:42.005Z</time></trkpt><trkpt lat="43.1300233" lon="12.3470359"><ele>389.0</ele><time>2026-04-12T09:12:43.006Z</time></trkpt><trkpt lat="43.1300366" lon="12.3469168"><ele>388.99999999999994</ele><time>2026-04-12T09:12:44.011Z</time></trkpt><trkpt lat="43.1300413" lon="12.3467915"><ele>389.0</ele><time>2026-04-12T09:12:45.011Z</time></trkpt><trkpt lat="43.1300421" lon="12.3466656"><ele>388.8333333333333</ele><time>2026-04-12T09:12:46.012Z</time></trkpt><trkpt lat="43.1300244" lon="12.3465332"><ele>388.66666666666663</ele><time>2026-04-12T09:12:46.996Z</time></trkpt><trkpt lat="43.1299969" lon="12.346407"><ele>388.5</ele><time>2026-04-12T09:12:48.004Z</time></trkpt><trkpt lat="43.1299569" lon="12.3463064"><ele>388.33333333333337</ele><time>2026-04-12T09:12:49.004Z</time></trkpt><trkpt lat="43.1298933" lon="12.3462404"><ele>388.1666666666667</ele><time>2026-04-12T09:12:50.011Z</time></trkpt><trkpt lat="43.1298271" lon="12.3461585"><ele>388.0</ele><time>2026-04-12T09:12:51.002Z</time></trkpt><trkpt lat="43.1297362" lon="12.3461055"><ele>384.2</ele><time>2026-04-12T09:12:52Z</time></trkpt><trkpt lat="43.1296379" lon="12.3460435"><ele>380.4</ele><time>2026-04-12T09:12:53.01Z</time></trkpt><trkpt lat="43.129551" lon="12.3459675"><ele>376.59999999999997</ele><time>2026-04-12T09:12:54.006Z</time></trkpt><trkpt lat="43.1294824" lon="12.345899"><ele>372.79999999999995</ele><time>2026-04-12T09:12:54.998Z</time></trkpt><trkpt lat="43.1294101" lon="12.3458168"><ele>369.0</ele><time>2026-04-12T09:12:56.001Z</time></trkpt><trkpt lat="43.1293638" lon="12.3457336"><ele>369.0</ele><time>2026-04-12T09:12:56.995Z</time></trkpt><trkpt lat="43.1293037" lon="12.3456645"><ele>369.0</ele><time>2026-04-12T09:12:58Z</time></trkpt><trkpt lat="43.1292333" lon="12.3456127"><ele>369.0</ele><time>2026-04-12T09:12:59.006Z</time></trkpt><trkpt lat="43.129154" lon="12.3455416"><ele>369.0</ele><time>2026-04-12T09:13:00.005Z</time></trkpt><trkpt lat="43.1291001" lon="12.3454699"><ele>369.0</ele><time>2026-04-12T09:13:01.089Z</time></trkpt><trkpt lat="43.1290341" lon="12.3453669"><ele>369.0</ele><time>2026-04-12T09:13:01.999Z</time></trkpt><trkpt lat="43.1289724" lon="12.3452821"><ele>369.2</ele><time>2026-04-12T09:13:03.006Z</time></trkpt><trkpt lat="43.1289052" lon="12.3452094"><ele>369.4</ele><time>2026-04-12T09:13:04.006Z</time></trkpt><trkpt lat="43.1288272" lon="12.345125"><ele>369.6</ele><time>2026-04-12T09:13:05.002Z</time></trkpt><trkpt lat="43.1287307" lon="12.3450603"><ele>369.8</ele><time>2026-04-12T09:13:05.999Z</time></trkpt><trkpt lat="43.1286503" lon="12.3450123"><ele>370.0</ele><time>2026-04-12T09:13:06.994Z</time></trkpt><trkpt lat="43.1285724" lon="12.344986"><ele>370.0</ele><time>2026-04-12T09:13:08.005Z</time></trkpt><trkpt lat="43.1284746" lon="12.3449876"><ele>370.0</ele><time>2026-04-12T09:13:09.001Z</time></trkpt><trkpt lat="43.1283747" lon="12.3449766"><ele>370.0</ele><time>2026-04-12T09:13:10.004Z</time></trkpt><trkpt lat="43.1282867" lon="12.3449674"><ele>370.0</ele><time>2026-04-12T09:13:11.005Z</time></trkpt><trkpt lat="43.1281811" lon="12.3449541"><ele>370.0</ele><time>2026-04-12T09:13:11.999Z</time></trkpt><trkpt lat="43.1280802" lon="12.3449467"><ele>368.0</ele><time>2026-04-12T09:13:13.002Z</time></trkpt><trkpt lat="43.1279847" lon="12.3449347"><ele>366.0</ele><time>2026-04-12T09:13:13.997Z</time></trkpt><trkpt lat="43.1278717" lon="12.3449281"><ele>364.0</ele><time>2026-04-12T09:13:14.999Z</time></trkpt><trkpt lat="43.1277667" lon="12.344916"><ele>362.0</ele><time>2026-04-12T09:13:16.001Z</time></trkpt><trkpt lat="43.1276675" lon="12.3448921"><ele>360.0</ele><time>2026-04-12T09:13:17.003Z</time></trkpt><trkpt lat="43.1275675" lon="12.3448651"><ele>360.0</ele><time>2026-04-12T09:13:18.003Z</time></trkpt><trkpt lat="43.1274617" lon="12.3448264"><ele>360.0</ele><time>2026-04-12T09:13:18.996Z</time></trkpt><trkpt lat="43.1273729" lon="12.3448002"><ele>360.0</ele><time>2026-04-12T09:13:20.007Z</time></trkpt><trkpt lat="43.1272758" lon="12.3447523"><ele>360.0</ele><time>2026-04-12T09:13:21.003Z</time></trkpt><trkpt lat="43.1271798" lon="12.3447286"><ele>360.0</ele><time>2026-04-12T09:13:21.989Z</time></trkpt><trkpt lat="43.1270909" lon="12.3447182"><ele>357.8333333333333</ele><time>2026-04-12T09:13:23.001Z</time></trkpt><trkpt lat="43.1270099" lon="12.3447362"><ele>355.6666666666667</ele><time>2026-04-12T09:13:24.003Z</time></trkpt><trkpt lat="43.1269444" lon="12.3447928"><ele>353.5</ele><time>2026-04-12T09:13:25.002Z</time></trkpt><trkpt lat="43.1268682" lon="12.3448708"><ele>351.33333333333337</ele><time>2026-04-12T09:13:25.996Z</time></trkpt><trkpt lat="43.1268127" lon="12.3449405"><ele>349.1666666666667</ele><time>2026-04-12T09:13:26.997Z</time></trkpt><trkpt lat="43.126757" lon="12.3450224"><ele>347.0</ele><time>2026-04-12T09:13:28.004Z</time></trkpt><trkpt lat="43.126703" lon="12.3450977"><ele>347.0</ele><time>2026-04-12T09:13:29.006Z</time></trkpt><trkpt lat="43.1266497" lon="12.3451689"><ele>347.0</ele><time>2026-04-12T09:13:30.004Z</time></trkpt><trkpt lat="43.126602" lon="12.3452305"><ele>347.0</ele><time>2026-04-12T09:13:31.001Z</time></trkpt><trkpt lat="43.1265308" lon="12.3452893"><ele>347.0</ele><time>2026-04-12T09:13:33.007Z</time></trkpt><trkpt lat="43.1265242" lon="12.345167"><ele>347.0</ele><time>2026-04-12T09:13:35.015Z</time></trkpt><trkpt lat="43.1265801" lon="12.3450378"><ele>347.0</ele><time>2026-04-12T09:13:37.004Z</time></trkpt><trkpt lat="43.1266122" lon="12.3449472"><ele>347.0</ele><time>2026-04-12T09:13:38.015Z</time></trkpt><trkpt lat="43.1266385" lon="12.3448558"><ele>347.0</ele><time>2026-04-12T09:13:39.014Z</time></trkpt><trkpt lat="43.126668" lon="12.3447556"><ele>347.0</ele><time>2026-04-12T09:13:40.002Z</time></trkpt><trkpt lat="43.1266947" lon="12.3446513"><ele>347.0</ele><time>2026-04-12T09:13:41.004Z</time></trkpt><trkpt lat="43.1267082" lon="12.3445485"><ele>347.0</ele><time>2026-04-12T09:13:42.003Z</time></trkpt><trkpt lat="43.1267258" lon="12.3444474"><ele>347.0</ele><time>2026-04-12T09:13:43.005Z</time></trkpt><trkpt lat="43.1267661" lon="12.3443466"><ele>346.5</ele><time>2026-04-12T09:13:44.004Z</time></trkpt><trkpt lat="43.1267866" lon="12.3442201"><ele>346.0</ele><time>2026-04-12T09:13:45.002Z</time></trkpt><trkpt lat="43.1267559" lon="12.3441105"><ele>345.5</ele><time>2026-04-12T09:13:46.008Z</time></trkpt><trkpt lat="43.1266996" lon="12.3440209"><ele>345.0</ele><time>2026-04-12T09:13:46.995Z</time></trkpt><trkpt lat="43.1266459" lon="12.343948"><ele>344.5</ele><time>2026-04-12T09:13:48.011Z</time></trkpt><trkpt lat="43.1265861" lon="12.3438763"><ele>344.0</ele><time>2026-04-12T09:13:49.005Z</time></trkpt><trkpt lat="43.1265238" lon="12.3437927"><ele>343.1666666666667</ele><time>2026-04-12T09:13:50.005Z</time></trkpt><trkpt lat="43.1264633" lon="12.3437169"><ele>342.33333333333337</ele><time>2026-04-12T09:13:51.001Z</time></trkpt><trkpt lat="43.1263998" lon="12.3436385"><ele>341.5</ele><time>2026-04-12T09:13:52.003Z</time></trkpt><trkpt lat="43.1263311" lon="12.3435595"><ele>340.6666666666667</ele><time>2026-04-12T09:13:53Z</time></trkpt><trkpt lat="43.1262643" lon="12.3434913"><ele>339.8333333333333</ele><time>2026-04-12T09:13:54.004Z</time></trkpt><trkpt lat="43.1261887" lon="12.3434274"><ele>339.0</ele><time>2026-04-12T09:13:55.001Z</time></trkpt><trkpt lat="43.1261223" lon="12.3433659"><ele>339.0</ele><time>2026-04-12T09:13:56.02Z</time></trkpt><trkpt lat="43.1260548" lon="12.3433128"><ele>339.0</ele><time>2026-04-12T09:13:57.004Z</time></trkpt><trkpt lat="43.1259789" lon="12.3432573"><ele>339.0</ele><time>2026-04-12T09:13:57.988Z</time></trkpt><trkpt lat="43.1259162" lon="12.3432147"><ele>339.0</ele><time>2026-04-12T09:13:59.004Z</time></trkpt><trkpt lat="43.1258424" lon="12.3431895"><ele>339.0</ele><time>2026-04-12T09:14:00.001Z</time></trkpt><trkpt lat="43.1257688" lon="12.3432375"><ele>339.0</ele><time>2026-04-12T09:14:01.002Z</time></trkpt><trkpt lat="43.1257074" lon="12.3432843"><ele>339.0</ele><time>2026-04-12T09:14:02.011Z</time></trkpt><trkpt lat="43.1256554" lon="12.3433373"><ele>339.0</ele><time>2026-04-12T09:14:03.007Z</time></trkpt><trkpt lat="43.1256241" lon="12.34343"><ele>339.0</ele><time>2026-04-12T09:14:03.986Z</time></trkpt><trkpt lat="43.1255874" lon="12.343511"><ele>339.0</ele><time>2026-04-12T09:14:05.001Z</time></trkpt><trkpt lat="43.1255508" lon="12.3435876"><ele>339.0</ele><time>2026-04-12T09:14:06.012Z</time></trkpt><trkpt lat="43.1255212" lon="12.3436759"><ele>339.0</ele><time>2026-04-12T09:14:07.008Z</time></trkpt><trkpt lat="43.1254909" lon="12.3437748"><ele>339.0</ele><time>2026-04-12T09:14:08.003Z</time></trkpt><trkpt lat="43.1254592" lon="12.3438747"><ele>337.8333333333333</ele><time>2026-04-12T09:14:09.005Z</time></trkpt><trkpt lat="43.1254299" lon="12.3439962"><ele>336.6666666666667</ele><time>2026-04-12T09:14:09.987Z</time></trkpt><trkpt lat="43.1254044" lon="12.3441029"><ele>335.5</ele><time>2026-04-12T09:14:11.001Z</time></trkpt><trkpt lat="43.1253898" lon="12.3442191"><ele>334.33333333333337</ele><time>2026-04-12T09:14:11.999Z</time></trkpt><trkpt lat="43.1253754" lon="12.344337"><ele>333.1666666666667</ele><time>2026-04-12T09:14:13.001Z</time></trkpt><trkpt lat="43.1253612" lon="12.3444553"><ele>332.0</ele><time>2026-04-12T09:14:14.004Z</time></trkpt><trkpt lat="43.1253403" lon="12.3445691"><ele>332.0</ele><time>2026-04-12T09:14:15.001Z</time></trkpt><trkpt lat="43.1253342" lon="12.3446951"><ele>332.0</ele><time>2026-04-12T09:14:16.008Z</time></trkpt><trkpt lat="43.125336" lon="12.3448201"><ele>332.0</ele><time>2026-04-12T09:14:16.997Z</time></trkpt><trkpt lat="43.1253464" lon="12.3449647"><ele>332.0</ele><time>2026-04-12T09:14:18.112Z</time></trkpt><trkpt lat="43.1253229" lon="12.3452648"><ele>331.40000000000003</ele><time>2026-04-12T09:14:20.008Z</time></trkpt><trkpt lat="43.1252725" lon="12.3453953"><ele>330.8</ele><time>2026-04-12T09:14:21.009Z</time></trkpt><trkpt lat="43.1252043" lon="12.3455116"><ele>330.2</ele><time>2026-04-12T09:14:22.008Z</time></trkpt><trkpt lat="43.1251295" lon="12.3456321"><ele>329.6</ele><time>2026-04-12T09:14:23.004Z</time></trkpt><trkpt lat="43.1250548" lon="12.3457542"><ele>329.0</ele><time>2026-04-12T09:14:24.115Z</time></trkpt><trkpt lat="43.1249091" lon="12.345997"><ele>324.5</ele><time>2026-04-12T09:14:26.014Z</time></trkpt><trkpt lat="43.1248343" lon="12.3461504"><ele>320.0</ele><time>2026-04-12T09:14:27.01Z</time></trkpt><trkpt lat="43.1247698" lon="12.346322"><ele>315.5</ele><time>2026-04-12T09:14:28.003Z</time></trkpt><trkpt lat="43.1247253" lon="12.3464743"><ele>311.0</ele><time>2026-04-12T09:14:29.004Z</time></trkpt><trkpt lat="43.1246831" lon="12.346622"><ele>310.40000000000003</ele><time>2026-04-12T09:14:30.001Z</time></trkpt><trkpt lat="43.1246409" lon="12.3467604"><ele>309.8</ele><time>2026-04-12T09:14:31.005Z</time></trkpt><trkpt lat="43.1245882" lon="12.3468857"><ele>309.20000000000005</ele><time>2026-04-12T09:14:32.007Z</time></trkpt><trkpt lat="43.1245299" lon="12.3470056"><ele>308.6</ele><time>2026-04-12T09:14:33.003Z</time></trkpt><trkpt lat="43.1244573" lon="12.3470985"><ele>308.0</ele><time>2026-04-12T09:14:34.006Z</time></trkpt><trkpt lat="43.1243698" lon="12.3471808"><ele>308.4</ele><time>2026-04-12T09:14:35Z</time></trkpt><trkpt lat="43.1242784" lon="12.3472599"><ele>308.8</ele><time>2026-04-12T09:14:36.001Z</time></trkpt><trkpt lat="43.1241929" lon="12.3473283"><ele>309.2</ele><time>2026-04-12T09:14:37.003Z</time></trkpt><trkpt lat="43.1241212" lon="12.3473857"><ele>309.6</ele><time>2026-04-12T09:14:38.002Z</time></trkpt><trkpt lat="43.1240294" lon="12.3474462"><ele>310.0</ele><time>2026-04-12T09:14:39.008Z</time></trkpt><trkpt lat="43.1239352" lon="12.3475077"><ele>310.0</ele><time>2026-04-12T09:14:40.003Z</time></trkpt><trkpt lat="43.1238496" lon="12.3475656"><ele>310.0</ele><time>2026-04-12T09:14:41.004Z</time></trkpt><trkpt lat="43.1237612" lon="12.3476249"><ele>310.0</ele><time>2026-04-12T09:14:41.999Z</time></trkpt><trkpt lat="43.1236715" lon="12.3476912"><ele>310.0</ele><time>2026-04-12T09:14:43.008Z</time></trkpt><trkpt lat="43.1235837" lon="12.3477534"><ele>310.0</ele><time>2026-04-12T09:14:44.008Z</time></trkpt><trkpt lat="43.123501" lon="12.3478129"><ele>310.0</ele><time>2026-04-12T09:14:45Z</time></trkpt><trkpt lat="43.1234048" lon="12.347866"><ele>310.0</ele><time>2026-04-12T09:14:46.013Z</time></trkpt><trkpt lat="43.1233125" lon="12.3479156"><ele>310.0</ele><time>2026-04-12T09:14:46.994Z</time></trkpt><trkpt lat="43.1232166" lon="12.3479516"><ele>310.0</ele><time>2026-04-12T09:14:48.001Z</time></trkpt><trkpt lat="43.1231215" lon="12.3479868"><ele>310.0</ele><time>2026-04-12T09:14:49.012Z</time></trkpt><trkpt lat="43.123029" lon="12.3480096"><ele>309.8</ele><time>2026-04-12T09:14:50.012Z</time></trkpt><trkpt lat="43.1229317" lon="12.3480283"><ele>309.6</ele><time>2026-04-12T09:14:51.002Z</time></trkpt><trkpt lat="43.1228358" lon="12.3480427"><ele>309.4</ele><time>2026-04-12T09:14:52.005Z</time></trkpt><trkpt lat="43.1227415" lon="12.3480603"><ele>309.2</ele><time>2026-04-12T09:14:52.997Z</time></trkpt><trkpt lat="43.1226557" lon="12.3480854"><ele>309.0</ele><time>2026-04-12T09:14:54.012Z</time></trkpt><trkpt lat="43.122563" lon="12.3481231"><ele>308.4</ele><time>2026-04-12T09:14:55.001Z</time></trkpt><trkpt lat="43.1224766" lon="12.3481724"><ele>307.79999999999995</ele><time>2026-04-12T09:14:56Z</time></trkpt><trkpt lat="43.1223878" lon="12.3482217"><ele>307.20000000000005</ele><time>2026-04-12T09:14:56.999Z</time></trkpt><trkpt lat="43.1223015" lon="12.3482652"><ele>306.6</ele><time>2026-04-12T09:14:58.003Z</time></trkpt><trkpt lat="43.1222082" lon="12.3482978"><ele>306.0</ele><time>2026-04-12T09:14:59.004Z</time></trkpt><trkpt lat="43.122107" lon="12.3483357"><ele>305.8333333333333</ele><time>2026-04-12T09:15:00.009Z</time></trkpt><trkpt lat="43.1220263" lon="12.3483788"><ele>305.6666666666667</ele><time>2026-04-12T09:15:00.984Z</time></trkpt><trkpt lat="43.121952" lon="12.3484246"><ele>305.5</ele><time>2026-04-12T09:15:01.98Z</time></trkpt><trkpt lat="43.1218877" lon="12.3484942"><ele>305.33333333333337</ele><time>2026-04-12T09:15:03.004Z</time></trkpt><trkpt lat="43.1218205" lon="12.3485491"><ele>305.1666666666667</ele><time>2026-04-12T09:15:04.007Z</time></trkpt><trkpt lat="43.12176" lon="12.3485959"><ele>305.0</ele><time>2026-04-12T09:15:05.004Z</time></trkpt><trkpt lat="43.1217106" lon="12.3486602"><ele>305.0</ele><time>2026-04-12T09:15:06.004Z</time></trkpt><trkpt lat="43.1216551" lon="12.3487237"><ele>305.0</ele><time>2026-04-12T09:15:06.985Z</time></trkpt><trkpt lat="43.1215895" lon="12.3487941"><ele>305.0</ele><time>2026-04-12T09:15:08.009Z</time></trkpt><trkpt lat="43.1215365" lon="12.3488587"><ele>305.0</ele><time>2026-04-12T09:15:09.01Z</time></trkpt><trkpt lat="43.1214839" lon="12.3489276"><ele>305.0</ele><time>2026-04-12T09:15:09.988Z</time></trkpt><trkpt lat="43.1214212" lon="12.3489823"><ele>305.0</ele><time>2026-04-12T09:15:11.003Z</time></trkpt><trkpt lat="43.1213679" lon="12.3490434"><ele>305.0</ele><time>2026-04-12T09:15:11.993Z</time></trkpt><trkpt lat="43.1213196" lon="12.3491165"><ele>304.2857142857143</ele><time>2026-04-12T09:15:13.014Z</time></trkpt><trkpt lat="43.1212712" lon="12.3491855"><ele>303.57142857142856</ele><time>2026-04-12T09:15:14.007Z</time></trkpt><trkpt lat="43.1212212" lon="12.3492592"><ele>302.85714285714283</ele><time>2026-04-12T09:15:15.002Z</time></trkpt><trkpt lat="43.1211773" lon="12.3493273"><ele>302.1428571428571</ele><time>2026-04-12T09:15:16.004Z</time></trkpt><trkpt lat="43.1211276" lon="12.3493887"><ele>301.42857142857144</ele><time>2026-04-12T09:15:17.003Z</time></trkpt><trkpt lat="43.1210758" lon="12.3494519"><ele>300.71428571428567</ele><time>2026-04-12T09:15:18.003Z</time></trkpt><trkpt lat="43.1210241" lon="12.3495182"><ele>300.0</ele><time>2026-04-12T09:15:19.011Z</time></trkpt><trkpt lat="43.120937" lon="12.3496403"><ele>299.0</ele><time>2026-04-12T09:15:21.012Z</time></trkpt><trkpt lat="43.120861" lon="12.3497742"><ele>298.0</ele><time>2026-04-12T09:15:23.006Z</time></trkpt><trkpt lat="43.1207806" lon="12.3499165"><ele>297.0</ele><time>2026-04-12T09:15:24.989Z</time></trkpt><trkpt lat="43.1207156" lon="12.3500625"><ele>296.0</ele><time>2026-04-12T09:15:26.998Z</time></trkpt><trkpt lat="43.1206695" lon="12.3501298"><ele>295.0</ele><time>2026-04-12T09:15:28.001Z</time></trkpt><trkpt lat="43.1205796" lon="12.3502383"><ele>294.7142857142857</ele><time>2026-04-12T09:15:29.99Z</time></trkpt><trkpt lat="43.1205309" lon="12.3502983"><ele>294.42857142857144</ele><time>2026-04-12T09:15:31.004Z</time></trkpt><trkpt lat="43.1204856" lon="12.350398"><ele>294.1428571428571</ele><time>2026-04-12T09:15:32.01Z</time></trkpt><trkpt lat="43.1204405" lon="12.3504652"><ele>293.8571428571429</ele><time>2026-04-12T09:15:33.003Z</time></trkpt><trkpt lat="43.1204002" lon="12.3505349"><ele>293.57142857142856</ele><time>2026-04-12T09:15:34.001Z</time></trkpt><trkpt lat="43.1203611" lon="12.3506079"><ele>293.2857142857143</ele><time>2026-04-12T09:15:34.985Z</time></trkpt><trkpt lat="43.1203237" lon="12.3506857"><ele>293.0</ele><time>2026-04-12T09:15:36.003Z</time></trkpt><trkpt lat="43.1202827" lon="12.3507598"><ele>292.5</ele><time>2026-04-12T09:15:37.002Z</time></trkpt><trkpt lat="43.1202064" lon="12.3509101"><ele>292.0</ele><time>2026-04-12T09:15:39.008Z</time></trkpt><trkpt lat="43.1201321" lon="12.3510297"><ele>291.5</ele><time>2026-04-12T09:15:41.111Z</time></trkpt><trkpt lat="43.1200592" lon="12.3512071"><ele>291.0</ele><time>2026-04-12T09:15:43.015Z</time></trkpt><trkpt lat="43.1200208" lon="12.3512897"><ele>291.0</ele><time>2026-04-12T09:15:44.007Z</time></trkpt><trkpt lat="43.1200047" lon="12.3514018"><ele>291.0</ele><time>2026-04-12T09:15:44.986Z</time></trkpt><trkpt lat="43.1199255" lon="12.3515187"><ele>291.0</ele><time>2026-04-12T09:15:47.003Z</time></trkpt><trkpt lat="43.1198481" lon="12.3516299"><ele>291.0</ele><time>2026-04-12T09:15:49.004Z</time></trkpt><trkpt lat="43.1197507" lon="12.3517184"><ele>291.0</ele><time>2026-04-12T09:15:51.003Z</time></trkpt><trkpt lat="43.1196479" lon="12.3517791"><ele>290.25</ele><time>2026-04-12T09:15:53.007Z</time></trkpt><trkpt lat="43.1195289" lon="12.3518272"><ele>289.5</ele><time>2026-04-12T09:15:54.987Z</time></trkpt><trkpt lat="43.1194204" lon="12.351901"><ele>288.75</ele><time>2026-04-12T09:15:56.995Z</time></trkpt><trkpt lat="43.1193075" lon="12.351958"><ele>288.0</ele><time>2026-04-12T09:15:59.005Z</time></trkpt><trkpt lat="43.1191968" lon="12.3520086"><ele>288.0</ele><time>2026-04-12T09:16:01.003Z</time></trkpt><trkpt lat="43.1190883" lon="12.3520577"><ele>288.0</ele><time>2026-04-12T09:16:03.012Z</time></trkpt><trkpt lat="43.118984" lon="12.3521084"><ele>288.0</ele><time>2026-04-12T09:16:05.002Z</time></trkpt><trkpt lat="43.1188779" lon="12.3521574"><ele>288.0</ele><time>2026-04-12T09:16:06.995Z</time></trkpt><trkpt lat="43.1187562" lon="12.3521851"><ele>287.8571428571429</ele><time>2026-04-12T09:16:09.011Z</time></trkpt><trkpt lat="43.1186908" lon="12.3522063"><ele>287.7142857142857</ele><time>2026-04-12T09:16:09.997Z</time></trkpt><trkpt lat="43.1186255" lon="12.3522332"><ele>287.57142857142856</ele><time>2026-04-12T09:16:11.002Z</time></trkpt><trkpt lat="43.1185629" lon="12.3522582"><ele>287.42857142857144</ele><time>2026-04-12T09:16:12.011Z</time></trkpt><trkpt lat="43.118502" lon="12.352288"><ele>287.2857142857143</ele><time>2026-04-12T09:16:12.986Z</time></trkpt><trkpt lat="43.1184333" lon="12.3523243"><ele>287.14285714285717</ele><time>2026-04-12T09:16:14.011Z</time></trkpt><trkpt lat="43.1183688" lon="12.3523491"><ele>287.0</ele><time>2026-04-12T09:16:14.997Z</time></trkpt><trkpt lat="43.1183037" lon="12.3523824"><ele>286.85714285714283</ele><time>2026-04-12T09:16:15.999Z</time></trkpt><trkpt lat="43.1182394" lon="12.3524176"><ele>286.7142857142857</ele><time>2026-04-12T09:16:16.997Z</time></trkpt><trkpt lat="43.1181754" lon="12.3524483"><ele>286.57142857142856</ele><time>2026-04-12T09:16:18.006Z</time></trkpt><trkpt lat="43.1181143" lon="12.3524811"><ele>286.42857142857144</ele><time>2026-04-12T09:16:19.009Z</time></trkpt><trkpt lat="43.1180521" lon="12.35251"><ele>286.2857142857143</ele><time>2026-04-12T09:16:19.999Z</time></trkpt><trkpt lat="43.117993" lon="12.3525402"><ele>286.1428571428571</ele><time>2026-04-12T09:16:21.1Z</time></trkpt><trkpt lat="43.1179334" lon="12.3525688"><ele>286.0</ele><time>2026-04-12T09:16:22.005Z</time></trkpt><trkpt lat="43.1178154" lon="12.3526158"><ele>285.2</ele><time>2026-04-12T09:16:24.003Z</time></trkpt><trkpt lat="43.1176933" lon="12.3526723"><ele>284.40000000000003</ele><time>2026-04-12T09:16:26.015Z</time></trkpt><trkpt lat="43.1176322" lon="12.3527093"><ele>283.6</ele><time>2026-04-12T09:16:27.081Z</time></trkpt><trkpt lat="43.1175109" lon="12.3527515"><ele>282.8</ele><time>2026-04-12T09:16:29.001Z</time></trkpt><trkpt lat="43.1174516" lon="12.3527815"><ele>282.0</ele><time>2026-04-12T09:16:29.997Z</time></trkpt><trkpt lat="43.1173279" lon="12.3528346"><ele>282.0</ele><time>2026-04-12T09:16:32.011Z</time></trkpt><trkpt lat="43.1172092" lon="12.3528854"><ele>282.0</ele><time>2026-04-12T09:16:33.995Z</time></trkpt><trkpt lat="43.1170956" lon="12.3529354"><ele>282.0</ele><time>2026-04-12T09:16:36.005Z</time></trkpt><trkpt lat="43.1170373" lon="12.3529733"><ele>282.0</ele><time>2026-04-12T09:16:36.999Z</time></trkpt><trkpt lat="43.11693" lon="12.3530206"><ele>282.0</ele><time>2026-04-12T09:16:39.107Z</time></trkpt><trkpt lat="43.1168285" lon="12.3530623"><ele>282.4</ele><time>2026-04-12T09:16:41.012Z</time></trkpt><trkpt lat="43.1167336" lon="12.3530831"><ele>282.79999999999995</ele><time>2026-04-12T09:16:43.004Z</time></trkpt><trkpt lat="43.116642" lon="12.3531211"><ele>283.2</ele><time>2026-04-12T09:16:44.998Z</time></trkpt><trkpt lat="43.1165683" lon="12.3532133"><ele>283.59999999999997</ele><time>2026-04-12T09:16:47.008Z</time></trkpt><trkpt lat="43.1164978" lon="12.3533187"><ele>284.0</ele><time>2026-04-12T09:16:49.004Z</time></trkpt><trkpt lat="43.1164143" lon="12.3534103"><ele>284.0</ele><time>2026-04-12T09:16:51.103Z</time></trkpt><trkpt lat="43.1163182" lon="12.353483"><ele>284.0</ele><time>2026-04-12T09:16:52.991Z</time></trkpt><trkpt lat="43.116233" lon="12.3535327"><ele>284.0</ele><time>2026-04-12T09:16:54.993Z</time></trkpt><trkpt lat="43.116152" lon="12.3535873"><ele>284.0</ele><time>2026-04-12T09:16:56.986Z</time></trkpt><trkpt lat="43.1160612" lon="12.35366"><ele>284.0</ele><time>2026-04-12T09:16:58.999Z</time></trkpt><trkpt lat="43.1159719" lon="12.3537267"><ele>284.0</ele><time>2026-04-12T09:17:01.007Z</time></trkpt><trkpt lat="43.1158892" lon="12.3537847"><ele>284.0</ele><time>2026-04-12T09:17:03.091Z</time></trkpt><trkpt lat="43.1157865" lon="12.3538422"><ele>284.0</ele><time>2026-04-12T09:17:05.013Z</time></trkpt><trkpt lat="43.1156909" lon="12.3538494"><ele>284.0</ele><time>2026-04-12T09:17:06.997Z</time></trkpt><trkpt lat="43.1155895" lon="12.3538145"><ele>284.0</ele><time>2026-04-12T09:17:09.001Z</time></trkpt><trkpt lat="43.1155025" lon="12.353772"><ele>283.6666666666667</ele><time>2026-04-12T09:17:11.011Z</time></trkpt><trkpt lat="43.1154433" lon="12.3537303"><ele>283.33333333333337</ele><time>2026-04-12T09:17:13.004Z</time></trkpt><trkpt lat="43.1154212" lon="12.3536224"><ele>283.0</ele><time>2026-04-12T09:17:16.006Z</time></trkpt><trkpt lat="43.1154972" lon="12.3535741"><ele>282.6666666666667</ele><time>2026-04-12T09:17:20.002Z</time></trkpt><trkpt lat="43.1155653" lon="12.3536011"><ele>282.3333333333333</ele><time>2026-04-12T09:17:22.011Z</time></trkpt><trkpt lat="43.1156413" lon="12.3536268"><ele>282.0</ele><time>2026-04-12T09:17:24Z</time></trkpt><trkpt lat="43.1157201" lon="12.35363"><ele>282.3333333333333</ele><time>2026-04-12T09:17:26.009Z</time></trkpt><trkpt lat="43.115773" lon="12.3535819"><ele>282.6666666666667</ele><time>2026-04-12T09:17:29.008Z</time></trkpt><trkpt lat="43.1158493" lon="12.3535269"><ele>283.0</ele><time>2026-04-12T09:17:32.001Z</time></trkpt><trkpt lat="43.1159386" lon="12.3535193"><ele>283.33333333333337</ele><time>2026-04-12T09:17:34.007Z</time></trkpt><trkpt lat="43.1160043" lon="12.35346"><ele>283.6666666666667</ele><time>2026-04-12T09:17:36.012Z</time></trkpt><trkpt lat="43.1159995" lon="12.3533613"><ele>284.0</ele><time>2026-04-12T09:17:38Z</time></trkpt><trkpt lat="43.115964" lon="12.3532717"><ele>284.0</ele><time>2026-04-12T09:17:40.011Z</time></trkpt><trkpt lat="43.1159068" lon="12.3531716"><ele>284.0</ele><time>2026-04-12T09:17:42.005Z</time></trkpt><trkpt lat="43.1158492" lon="12.3530773"><ele>284.0</ele><time>2026-04-12T09:17:43.998Z</time></trkpt><trkpt lat="43.1157813" lon="12.3529716"><ele>284.0</ele><time>2026-04-12T09:17:45.995Z</time></trkpt><trkpt lat="43.1157268" lon="12.3528594"><ele>284.0</ele><time>2026-04-12T09:17:48.005Z</time></trkpt><trkpt lat="43.1156764" lon="12.3527345"><ele>283.4</ele><time>2026-04-12T09:17:49.987Z</time></trkpt><trkpt lat="43.115603" lon="12.3526194"><ele>282.79999999999995</ele><time>2026-04-12T09:17:52.009Z</time></trkpt><trkpt lat="43.1155156" lon="12.3525147"><ele>282.20000000000005</ele><time>2026-04-12T09:17:54.001Z</time></trkpt><trkpt lat="43.115449" lon="12.3524134"><ele>281.6</ele><time>2026-04-12T09:17:56.001Z</time></trkpt><trkpt lat="43.1153691" lon="12.3523043"><ele>281.0</ele><time>2026-04-12T09:17:58.01Z</time></trkpt><trkpt lat="43.1153079" lon="12.3522174"><ele>281.2</ele><time>2026-04-12T09:17:59.988Z</time></trkpt><trkpt lat="43.115233" lon="12.3521424"><ele>281.40000000000003</ele><time>2026-04-12T09:18:02.011Z</time></trkpt><trkpt lat="43.1151543" lon="12.3520671"><ele>281.6</ele><time>2026-04-12T09:18:04.003Z</time></trkpt><trkpt lat="43.1150641" lon="12.3520045"><ele>281.8</ele><time>2026-04-12T09:18:06.015Z</time></trkpt><trkpt lat="43.1149853" lon="12.3519241"><ele>282.0</ele><time>2026-04-12T09:18:08.014Z</time></trkpt><trkpt lat="43.114906" lon="12.3518636"><ele>281.8333333333333</ele><time>2026-04-12T09:18:10.002Z</time></trkpt><trkpt lat="43.1148366" lon="12.351803"><ele>281.6666666666667</ele><time>2026-04-12T09:18:12.008Z</time></trkpt><trkpt lat="43.1147744" lon="12.3517557"><ele>281.5</ele><time>2026-04-12T09:18:14.005Z</time></trkpt><trkpt lat="43.1147148" lon="12.3516918"><ele>281.33333333333337</ele><time>2026-04-12T09:18:16.007Z</time></trkpt><trkpt lat="43.1146491" lon="12.3516362"><ele>281.1666666666667</ele><time>2026-04-12T09:18:18.008Z</time></trkpt><trkpt lat="43.1145761" lon="12.3515812"><ele>281.0</ele><time>2026-04-12T09:18:20.011Z</time></trkpt><trkpt lat="43.1144964" lon="12.3515249"><ele>281.0</ele><time>2026-04-12T09:18:22.005Z</time></trkpt><trkpt lat="43.1144191" lon="12.3514721"><ele>281.0</ele><time>2026-04-12T09:18:24.12Z</time></trkpt><trkpt lat="43.1143481" lon="12.3514168"><ele>281.0</ele><time>2026-04-12T09:18:26.008Z</time></trkpt><trkpt lat="43.1142833" lon="12.3513771"><ele>281.0</ele><time>2026-04-12T09:18:27.985Z</time></trkpt><trkpt lat="43.114204" lon="12.3513221"><ele>281.0</ele><time>2026-04-12T09:18:31.007Z</time></trkpt><trkpt lat="43.11412" lon="12.3512641"><ele>281.0</ele><time>2026-04-12T09:18:34.004Z</time></trkpt><trkpt lat="43.114059" lon="12.3512035"><ele>281.14285714285717</ele><time>2026-04-12T09:18:36.001Z</time></trkpt><trkpt lat="43.1139899" lon="12.3511654"><ele>281.2857142857143</ele><time>2026-04-12T09:18:37.987Z</time></trkpt><trkpt lat="43.11392" lon="12.3511403"><ele>281.42857142857144</ele><time>2026-04-12T09:18:40.006Z</time></trkpt><trkpt lat="43.1138487" lon="12.3511153"><ele>281.57142857142856</ele><time>2026-04-12T09:18:42.113Z</time></trkpt><trkpt lat="43.1137804" lon="12.3511008"><ele>281.7142857142857</ele><time>2026-04-12T09:18:44Z</time></trkpt><trkpt lat="43.1137182" lon="12.3510863"><ele>281.8571428571429</ele><time>2026-04-12T09:18:45.998Z</time></trkpt><trkpt lat="43.1136338" lon="12.3510806"><ele>282.0</ele><time>2026-04-12T09:18:49.002Z</time></trkpt><trkpt lat="43.1135569" lon="12.3510759"><ele>282.0</ele><time>2026-04-12T09:18:52.005Z</time></trkpt><trkpt lat="43.1134859" lon="12.3511153"><ele>282.0</ele><time>2026-04-12T09:18:55.013Z</time></trkpt><trkpt lat="43.1134245" lon="12.3512043"><ele>282.0</ele><time>2026-04-12T09:18:58.004Z</time></trkpt><trkpt lat="43.1133623" lon="12.3512811"><ele>282.0</ele><time>2026-04-12T09:19:01.014Z</time></trkpt><trkpt lat="43.1133146" lon="12.3513437"><ele>282.0</ele><time>2026-04-12T09:19:03.013Z</time></trkpt><trkpt lat="43.1132771" lon="12.3514251"><ele>282.0</ele><time>2026-04-12T09:19:04.987Z</time></trkpt><trkpt lat="43.1132411" lon="12.351535"><ele>281.6666666666667</ele><time>2026-04-12T09:19:07Z</time></trkpt><trkpt lat="43.1131902" lon="12.3516474"><ele>281.3333333333333</ele><time>2026-04-12T09:19:09.007Z</time></trkpt><trkpt lat="43.1131565" lon="12.3517674"><ele>281.0</ele><time>2026-04-12T09:19:11.113Z</time></trkpt><trkpt lat="43.1131296" lon="12.3518844"><ele>280.66666666666663</ele><time>2026-04-12T09:19:13.002Z</time></trkpt><trkpt lat="43.1131098" lon="12.3519759"><ele>280.3333333333333</ele><time>2026-04-12T09:19:15.002Z</time></trkpt><trkpt lat="43.1130959" lon="12.3520959"><ele>280.0</ele><time>2026-04-12T09:19:18.009Z</time></trkpt><trkpt lat="43.1130988" lon="12.3522002"><ele>280.0</ele><time>2026-04-12T09:19:21.001Z</time></trkpt><trkpt lat="43.1130325" lon="12.3522233"><ele>280.0</ele><time>2026-04-12T09:19:25.009Z</time></trkpt><trkpt lat="43.1129555" lon="12.3521563"><ele>280.0</ele><time>2026-04-12T09:19:28.012Z</time></trkpt><trkpt lat="43.1128747" lon="12.3521096"><ele>280.0</ele><time>2026-04-12T09:19:31.004Z</time></trkpt><trkpt lat="43.1128032" lon="12.3520989"><ele>280.0</ele><time>2026-04-12T09:19:33.011Z</time></trkpt><trkpt lat="43.1127322" lon="12.3520931"><ele>280.0</ele><time>2026-04-12T09:19:35.006Z</time></trkpt><trkpt lat="43.1126475" lon="12.3521027"><ele>280.0</ele><time>2026-04-12T09:19:36.998Z</time></trkpt><trkpt lat="43.1125735" lon="12.352085"><ele>280.0</ele><time>2026-04-12T09:19:39.011Z</time></trkpt><trkpt lat="43.1125104" lon="12.3520242"><ele>280.0</ele><time>2026-04-12T09:19:41.004Z</time></trkpt><trkpt lat="43.1124523" lon="12.3519616"><ele>280.0</ele><time>2026-04-12T09:19:43.007Z</time></trkpt><trkpt lat="43.1123787" lon="12.3519441"><ele>280.0</ele><time>2026-04-12T09:19:44.998Z</time></trkpt><trkpt lat="43.1122962" lon="12.3519738"><ele>280.0</ele><time>2026-04-12T09:19:46.999Z</time></trkpt><trkpt lat="43.1122183" lon="12.3520168"><ele>279.85714285714283</ele><time>2026-04-12T09:19:49.011Z</time></trkpt><trkpt lat="43.1121558" lon="12.3520644"><ele>279.7142857142857</ele><time>2026-04-12T09:19:51.109Z</time></trkpt><trkpt lat="43.1120922" lon="12.352091"><ele>279.57142857142856</ele><time>2026-04-12T09:19:53.002Z</time></trkpt><trkpt lat="43.1120242" lon="12.3521068"><ele>279.42857142857144</ele><time>2026-04-12T09:19:55.006Z</time></trkpt><trkpt lat="43.1119621" lon="12.3521346"><ele>279.2857142857143</ele><time>2026-04-12T09:19:56.996Z</time></trkpt><trkpt lat="43.1118799" lon="12.3521838"><ele>279.1428571428571</ele><time>2026-04-12T09:20:00.012Z</time></trkpt><trkpt lat="43.1118196" lon="12.3522097"><ele>279.0</ele><time>2026-04-12T09:20:02.007Z</time></trkpt><trkpt lat="43.111754" lon="12.3522455"><ele>278.5</ele><time>2026-04-12T09:20:04.004Z</time></trkpt><trkpt lat="43.1116811" lon="12.3522791"><ele>278.0</ele><time>2026-04-12T09:20:06.017Z</time></trkpt><trkpt lat="43.1116159" lon="12.3523093"><ele>277.5</ele><time>2026-04-12T09:20:08.002Z</time></trkpt><trkpt lat="43.1115513" lon="12.3523415"><ele>277.0</ele><time>2026-04-12T09:20:10.011Z</time></trkpt><trkpt lat="43.1114786" lon="12.3523834"><ele>276.5</ele><time>2026-04-12T09:20:12.003Z</time></trkpt><trkpt lat="43.1114019" lon="12.352423"><ele>276.0</ele><time>2026-04-12T09:20:14Z</time></trkpt><trkpt lat="43.1113277" lon="12.3524674"><ele>276.0</ele><time>2026-04-12T09:20:16.001Z</time></trkpt><trkpt lat="43.1112584" lon="12.352529"><ele>276.0</ele><time>2026-04-12T09:20:18.003Z</time></trkpt><trkpt lat="43.1111871" lon="12.3525839"><ele>276.0</ele><time>2026-04-12T09:20:20.001Z</time></trkpt><trkpt lat="43.1111179" lon="12.3526216"><ele>276.0</ele><time>2026-04-12T09:20:22.004Z</time></trkpt><trkpt lat="43.1110571" lon="12.352657"><ele>276.0</ele><time>2026-04-12T09:20:23.995Z</time></trkpt><trkpt lat="43.1109625" lon="12.3526853"><ele>276.0</ele><time>2026-04-12T09:20:26.998Z</time></trkpt><trkpt lat="43.1108963" lon="12.3527008"><ele>276.0</ele><time>2026-04-12T09:20:29.001Z</time></trkpt><trkpt lat="43.1108278" lon="12.352728"><ele>276.0</ele><time>2026-04-12T09:20:31.006Z</time></trkpt><trkpt lat="43.1107495" lon="12.3527719"><ele>276.0</ele><time>2026-04-12T09:20:33.001Z</time></trkpt><trkpt lat="43.1106746" lon="12.3528318"><ele>276.0</ele><time>2026-04-12T09:20:35.098Z</time></trkpt><trkpt lat="43.1105891" lon="12.3528595"><ele>276.0</ele><time>2026-04-12T09:20:36.997Z</time></trkpt><trkpt lat="43.1105086" lon="12.3529208"><ele>276.0</ele><time>2026-04-12T09:20:39.011Z</time></trkpt><trkpt lat="43.110436" lon="12.3529663"><ele>276.0</ele><time>2026-04-12T09:20:41.025Z</time></trkpt><trkpt lat="43.1103501" lon="12.3530117"><ele>276.0</ele><time>2026-04-12T09:20:43.004Z</time></trkpt><trkpt lat="43.1102662" lon="12.3530899"><ele>276.0</ele><time>2026-04-12T09:20:45.003Z</time></trkpt><trkpt lat="43.1101856" lon="12.3531558"><ele>276.0</ele><time>2026-04-12T09:20:46.993Z</time></trkpt><trkpt lat="43.110096" lon="12.3531841"><ele>276.0</ele><time>2026-04-12T09:20:49.002Z</time></trkpt><trkpt lat="43.1100028" lon="12.3532232"><ele>275.40000000000003</ele><time>2026-04-12T09:20:51.011Z</time></trkpt><trkpt lat="43.1099" lon="12.3532786"><ele>274.8</ele><time>2026-04-12T09:20:53.012Z</time></trkpt><trkpt lat="43.1097914" lon="12.353332"><ele>274.20000000000005</ele><time>2026-04-12T09:20:55.013Z</time></trkpt><trkpt lat="43.1096874" lon="12.3533949"><ele>273.6</ele><time>2026-04-12T09:20:57.007Z</time></trkpt><trkpt lat="43.109597" lon="12.353456"><ele>273.0</ele><time>2026-04-12T09:20:59.004Z</time></trkpt><trkpt lat="43.109515" lon="12.3534995"><ele>273.0</ele><time>2026-04-12T09:21:00.99Z</time></trkpt><trkpt lat="43.1094515" lon="12.3535525"><ele>273.0</ele><time>2026-04-12T09:21:02.999Z</time></trkpt><trkpt lat="43.1093889" lon="12.3535879"><ele>273.0</ele><time>2026-04-12T09:21:06.989Z</time></trkpt><trkpt lat="43.1093311" lon="12.3536399"><ele>273.0</ele><time>2026-04-12T09:21:10.003Z</time></trkpt><trkpt lat="43.109264" lon="12.3536803"><ele>273.0</ele><time>2026-04-12T09:21:12.007Z</time></trkpt><trkpt lat="43.1091791" lon="12.3537331"><ele>273.0</ele><time>2026-04-12T09:21:13.99Z</time></trkpt><trkpt lat="43.1091244" lon="12.3537792"><ele>273.0</ele><time>2026-04-12T09:21:14.996Z</time></trkpt><trkpt lat="43.1090444" lon="12.3538414"><ele>273.4</ele><time>2026-04-12T09:21:16.991Z</time></trkpt><trkpt lat="43.1089638" lon="12.3539019"><ele>273.8</ele><time>2026-04-12T09:21:18.995Z</time></trkpt><trkpt lat="43.1088408" lon="12.3539713"><ele>274.2</ele><time>2026-04-12T09:21:21.987Z</time></trkpt><trkpt lat="43.108763" lon="12.3539434"><ele>274.6</ele><time>2026-04-12T09:21:23.984Z</time></trkpt><trkpt lat="43.1086993" lon="12.3538538"><ele>275.0</ele><time>2026-04-12T09:21:25.998Z</time></trkpt><trkpt lat="43.1086548" lon="12.3537456"><ele>275.0</ele><time>2026-04-12T09:21:27.986Z</time></trkpt><trkpt lat="43.1085965" lon="12.3536347"><ele>275.0</ele><time>2026-04-12T09:21:29.987Z</time></trkpt><trkpt lat="43.1085385" lon="12.353549"><ele>275.0</ele><time>2026-04-12T09:21:31.996Z</time></trkpt><trkpt lat="43.1084665" lon="12.3534931"><ele>275.0</ele><time>2026-04-12T09:21:33.998Z</time></trkpt><trkpt lat="43.1083802" lon="12.3534436"><ele>275.0</ele><time>2026-04-12T09:21:36.115Z</time></trkpt><trkpt lat="43.1082872" lon="12.3534149"><ele>275.0</ele><time>2026-04-12T09:21:38.005Z</time></trkpt><trkpt lat="43.108198" lon="12.3534263"><ele>275.0</ele><time>2026-04-12T09:21:39.997Z</time></trkpt><trkpt lat="43.1081071" lon="12.3534719"><ele>275.0</ele><time>2026-04-12T09:21:42.004Z</time></trkpt><trkpt lat="43.1080164" lon="12.3535276"><ele>275.0</ele><time>2026-04-12T09:21:44.001Z</time></trkpt><trkpt lat="43.1079264" lon="12.353574"><ele>275.0</ele><time>2026-04-12T09:21:46.005Z</time></trkpt><trkpt lat="43.1078452" lon="12.3536078"><ele>275.0</ele><time>2026-04-12T09:21:48.004Z</time></trkpt><trkpt lat="43.1077662" lon="12.3536528"><ele>275.0</ele><time>2026-04-12T09:21:50.007Z</time></trkpt><trkpt lat="43.1076885" lon="12.3537019"><ele>275.0</ele><time>2026-04-12T09:21:52.006Z</time></trkpt><trkpt lat="43.1076017" lon="12.3537542"><ele>275.0</ele><time>2026-04-12T09:21:53.998Z</time></trkpt><trkpt lat="43.1075171" lon="12.3538036"><ele>275.0</ele><time>2026-04-12T09:21:56.012Z</time></trkpt><trkpt lat="43.1074426" lon="12.3538591"><ele>275.0</ele><time>2026-04-12T09:21:58.012Z</time></trkpt><trkpt lat="43.1073612" lon="12.3539072"><ele>274.5</ele><time>2026-04-12T09:22:00.004Z</time></trkpt><trkpt lat="43.1072863" lon="12.3539601"><ele>274.0</ele><time>2026-04-12T09:22:02.012Z</time></trkpt><trkpt lat="43.107213" lon="12.3540226"><ele>273.5</ele><time>2026-04-12T09:22:04.096Z</time></trkpt><trkpt lat="43.1071512" lon="12.3540811"><ele>273.0</ele><time>2026-04-12T09:22:06.012Z</time></trkpt><trkpt lat="43.1070819" lon="12.3541441"><ele>272.5</ele><time>2026-04-12T09:22:08.005Z</time></trkpt><trkpt lat="43.107005" lon="12.3542088"><ele>272.0</ele><time>2026-04-12T09:22:10.004Z</time></trkpt><trkpt lat="43.1069179" lon="12.3542443"><ele>272.0</ele><time>2026-04-12T09:22:12.017Z</time></trkpt><trkpt lat="43.1068246" lon="12.3542745"><ele>272.0</ele><time>2026-04-12T09:22:14.008Z</time></trkpt><trkpt lat="43.106724" lon="12.3543087"><ele>272.0</ele><time>2026-04-12T09:22:16.014Z</time></trkpt><trkpt lat="43.1066304" lon="12.3543647"><ele>272.0</ele><time>2026-04-12T09:22:18.008Z</time></trkpt><trkpt lat="43.1065507" lon="12.3544296"><ele>272.0</ele><time>2026-04-12T09:22:20.001Z</time></trkpt><trkpt lat="43.1064609" lon="12.354476"><ele>272.4</ele><time>2026-04-12T09:22:22.01Z</time></trkpt><trkpt lat="43.1063746" lon="12.3545418"><ele>272.79999999999995</ele><time>2026-04-12T09:22:24.006Z</time></trkpt><trkpt lat="43.1062941" lon="12.3545786"><ele>273.2</ele><time>2026-04-12T09:22:25.999Z</time></trkpt><trkpt lat="43.1061994" lon="12.354643"><ele>273.59999999999997</ele><time>2026-04-12T09:22:28.001Z</time></trkpt><trkpt lat="43.106115" lon="12.3547009"><ele>274.0</ele><time>2026-04-12T09:22:30.005Z</time></trkpt><trkpt lat="43.1060225" lon="12.3547577"><ele>272.8</ele><time>2026-04-12T09:22:32.006Z</time></trkpt><trkpt lat="43.1059378" lon="12.3548196"><ele>271.59999999999997</ele><time>2026-04-12T09:22:34.008Z</time></trkpt><trkpt lat="43.10587" lon="12.3548977"><ele>270.4</ele><time>2026-04-12T09:22:36.001Z</time></trkpt><trkpt lat="43.105827" lon="12.355008"><ele>269.2</ele><time>2026-04-12T09:22:38.019Z</time></trkpt><trkpt lat="43.1058233" lon="12.3551341"><ele>268.0</ele><time>2026-04-12T09:22:40.01Z</time></trkpt><trkpt lat="43.1058154" lon="12.3552608"><ele>268.0</ele><time>2026-04-12T09:22:42.011Z</time></trkpt><trkpt lat="43.1057815" lon="12.3553984"><ele>268.0</ele><time>2026-04-12T09:22:43.997Z</time></trkpt><trkpt lat="43.1057073" lon="12.3554845"><ele>268.0</ele><time>2026-04-12T09:22:46Z</time></trkpt><trkpt lat="43.1056266" lon="12.3555566"><ele>268.0</ele><time>2026-04-12T09:22:48.002Z</time></trkpt><trkpt lat="43.1055501" lon="12.3556431"><ele>268.0</ele><time>2026-04-12T09:22:50.008Z</time></trkpt><trkpt lat="43.1054722" lon="12.355716"><ele>268.2</ele><time>2026-04-12T09:22:52.011Z</time></trkpt><trkpt lat="43.1053948" lon="12.3557806"><ele>268.4</ele><time>2026-04-12T09:22:54Z</time></trkpt><trkpt lat="43.1053029" lon="12.3558275"><ele>268.59999999999997</ele><time>2026-04-12T09:22:56.002Z</time></trkpt><trkpt lat="43.1052243" lon="12.3558939"><ele>268.8</ele><time>2026-04-12T09:22:58.008Z</time></trkpt><trkpt lat="43.1051462" lon="12.3559486"><ele>269.0</ele><time>2026-04-12T09:23:00Z</time></trkpt><trkpt lat="43.1050778" lon="12.3560245"><ele>269.0</ele><time>2026-04-12T09:23:01.999Z</time></trkpt><trkpt lat="43.1050331" lon="12.3561088"><ele>269.0</ele><time>2026-04-12T09:23:04.02Z</time></trkpt><trkpt lat="43.1050137" lon="12.3561959"><ele>269.0</ele><time>2026-04-12T09:23:06.002Z</time></trkpt><trkpt lat="43.1049738" lon="12.3562789"><ele>269.0</ele><time>2026-04-12T09:23:09.006Z</time></trkpt><trkpt lat="43.1049235" lon="12.3563399"><ele>269.0</ele><time>2026-04-12T09:24:11.004Z</time></trkpt><trkpt lat="43.104857" lon="12.3563977"><ele>269.0</ele><time>2026-04-12T09:24:14.004Z</time></trkpt><trkpt lat="43.1047895" lon="12.3564648"><ele>269.0</ele><time>2026-04-12T09:24:17.005Z</time></trkpt><trkpt lat="43.1047407" lon="12.3565273"><ele>269.0</ele><time>2026-04-12T09:24:19.007Z</time></trkpt><trkpt lat="43.1046858" lon="12.3565995"><ele>269.0</ele><time>2026-04-12T09:24:20.997Z</time></trkpt><trkpt lat="43.1046196" lon="12.3566565"><ele>269.0</ele><time>2026-04-12T09:24:23.002Z</time></trkpt><trkpt lat="43.1045441" lon="12.3566963"><ele>269.0</ele><time>2026-04-12T09:24:25.011Z</time></trkpt><trkpt lat="43.1044588" lon="12.3567242"><ele>269.0</ele><time>2026-04-12T09:24:27.008Z</time></trkpt><trkpt lat="43.1043761" lon="12.3567482"><ele>269.0</ele><time>2026-04-12T09:24:29.003Z</time></trkpt><trkpt lat="43.1042921" lon="12.3567666"><ele>269.0</ele><time>2026-04-12T09:24:31.001Z</time></trkpt><trkpt lat="43.1042082" lon="12.3567823"><ele>269.0</ele><time>2026-04-12T09:24:33.022Z</time></trkpt><trkpt lat="43.1041227" lon="12.3568031"><ele>269.0</ele><time>2026-04-12T09:24:35.011Z</time></trkpt><trkpt lat="43.1040349" lon="12.3568249"><ele>269.0</ele><time>2026-04-12T09:24:37.005Z</time></trkpt><trkpt lat="43.103942" lon="12.3568608"><ele>269.0</ele><time>2026-04-12T09:24:39.003Z</time></trkpt><trkpt lat="43.1038578" lon="12.3568847"><ele>269.0</ele><time>2026-04-12T09:24:41.004Z</time></trkpt><trkpt lat="43.1037695" lon="12.3569136"><ele>269.1666666666667</ele><time>2026-04-12T09:24:42.997Z</time></trkpt><trkpt lat="43.1036837" lon="12.3569462"><ele>269.33333333333337</ele><time>2026-04-12T09:24:45Z</time></trkpt><trkpt lat="43.1036023" lon="12.3569757"><ele>269.5</ele><time>2026-04-12T09:24:46.998Z</time></trkpt><trkpt lat="43.1035203" lon="12.357009"><ele>269.6666666666667</ele><time>2026-04-12T09:24:48.998Z</time></trkpt><trkpt lat="43.1034373" lon="12.3570442"><ele>269.8333333333333</ele><time>2026-04-12T09:24:51.008Z</time></trkpt><trkpt lat="43.1033509" lon="12.3570777"><ele>270.0</ele><time>2026-04-12T09:24:52.999Z</time></trkpt><trkpt lat="43.1032693" lon="12.357103"><ele>269.6666666666667</ele><time>2026-04-12T09:24:55.005Z</time></trkpt><trkpt lat="43.1031815" lon="12.3571056"><ele>269.3333333333333</ele><time>2026-04-12T09:24:57.017Z</time></trkpt><trkpt lat="43.1031057" lon="12.3570889"><ele>269.0</ele><time>2026-04-12T09:24:59.001Z</time></trkpt><trkpt lat="43.1030458" lon="12.3570308"><ele>268.66666666666663</ele><time>2026-04-12T09:25:01Z</time></trkpt><trkpt lat="43.102995" lon="12.3569738"><ele>268.3333333333333</ele><time>2026-04-12T09:25:02.998Z</time></trkpt><trkpt lat="43.1029099" lon="12.3569672"><ele>268.0</ele><time>2026-04-12T09:25:06.006Z</time></trkpt><trkpt lat="43.1028303" lon="12.356966"><ele>268.0</ele><time>2026-04-12T09:25:10.001Z</time></trkpt><trkpt lat="43.102744" lon="12.3569687"><ele>268.0</ele><time>2026-04-12T09:25:12.987Z</time></trkpt><trkpt lat="43.102675" lon="12.3569598"><ele>268.0</ele><time>2026-04-12T09:25:15.007Z</time></trkpt><trkpt lat="43.1026051" lon="12.3569389"><ele>268.0</ele><time>2026-04-12T09:25:16.997Z</time></trkpt><trkpt lat="43.1025326" lon="12.3569159"><ele>268.0</ele><time>2026-04-12T09:25:19.017Z</time></trkpt><trkpt lat="43.1024629" lon="12.3568965"><ele>268.0</ele><time>2026-04-12T09:25:20.999Z</time></trkpt><trkpt lat="43.1023854" lon="12.3568805"><ele>267.8333333333333</ele><time>2026-04-12T09:25:23.01Z</time></trkpt><trkpt lat="43.1023035" lon="12.3568635"><ele>267.66666666666663</ele><time>2026-04-12T09:25:24.992Z</time></trkpt><trkpt lat="43.1022206" lon="12.3568439"><ele>267.5</ele><time>2026-04-12T09:25:27Z</time></trkpt><trkpt lat="43.1021402" lon="12.3568157"><ele>267.3333333333333</ele><time>2026-04-12T09:25:29.001Z</time></trkpt><trkpt lat="43.1020675" lon="12.3567781"><ele>267.1666666666667</ele><time>2026-04-12T09:25:30.984Z</time></trkpt><trkpt lat="43.1020001" lon="12.3567379"><ele>267.0</ele><time>2026-04-12T09:25:33.014Z</time></trkpt><trkpt lat="43.1019323" lon="12.3566899"><ele>267.0</ele><time>2026-04-12T09:25:35.01Z</time></trkpt><trkpt lat="43.1018689" lon="12.3566409"><ele>267.0</ele><time>2026-04-12T09:25:36.988Z</time></trkpt><trkpt lat="43.1018007" lon="12.3566096"><ele>267.0</ele><time>2026-04-12T09:25:39.119Z</time></trkpt><trkpt lat="43.1017289" lon="12.3565882"><ele>267.0</ele><time>2026-04-12T09:25:41.018Z</time></trkpt><trkpt lat="43.101647" lon="12.3565768"><ele>267.0</ele><time>2026-04-12T09:25:43.012Z</time></trkpt><trkpt lat="43.1015606" lon="12.356565"><ele>267.0</ele><time>2026-04-12T09:25:44.988Z</time></trkpt><trkpt lat="43.1014643" lon="12.3565581"><ele>266.2</ele><time>2026-04-12T09:25:46.988Z</time></trkpt><trkpt lat="43.1013797" lon="12.3565465"><ele>265.4</ele><time>2026-04-12T09:25:48.984Z</time></trkpt><trkpt lat="43.1012853" lon="12.3565361"><ele>264.6</ele><time>2026-04-12T09:25:50.99Z</time></trkpt><trkpt lat="43.1011896" lon="12.3565219"><ele>263.8</ele><time>2026-04-12T09:25:52.989Z</time></trkpt><trkpt lat="43.1010825" lon="12.3565041"><ele>263.0</ele><time>2026-04-12T09:25:54.993Z</time></trkpt><trkpt lat="43.100986" lon="12.3564761"><ele>263.0</ele><time>2026-04-12T09:25:57.002Z</time></trkpt><trkpt lat="43.1008808" lon="12.3564527"><ele>263.0</ele><time>2026-04-12T09:25:58.999Z</time></trkpt><trkpt lat="43.100768" lon="12.3564295"><ele>263.0</ele><time>2026-04-12T09:26:01.007Z</time></trkpt><trkpt lat="43.1006493" lon="12.3564047"><ele>263.0</ele><time>2026-04-12T09:26:03.003Z</time></trkpt><trkpt lat="43.1005394" lon="12.3563709"><ele>263.0</ele><time>2026-04-12T09:26:05.008Z</time></trkpt><trkpt lat="43.100435" lon="12.3563407"><ele>263.0</ele><time>2026-04-12T09:26:06.993Z</time></trkpt><trkpt lat="43.1003307" lon="12.356327"><ele>263.0</ele><time>2026-04-12T09:26:09Z</time></trkpt><trkpt lat="43.1002262" lon="12.3562991"><ele>263.0</ele><time>2026-04-12T09:26:11.005Z</time></trkpt><trkpt lat="43.1001181" lon="12.3562605"><ele>263.0</ele><time>2026-04-12T09:26:13.002Z</time></trkpt><trkpt lat="43.1000057" lon="12.3562232"><ele>262.8</ele><time>2026-04-12T09:26:15.009Z</time></trkpt><trkpt lat="43.0998907" lon="12.3561868"><ele>262.6</ele><time>2026-04-12T09:26:16.997Z</time></trkpt><trkpt lat="43.099786" lon="12.3561695"><ele>262.4</ele><time>2026-04-12T09:26:19.009Z</time></trkpt><trkpt lat="43.0996808" lon="12.3561482"><ele>262.2</ele><time>2026-04-12T09:26:21.007Z</time></trkpt><trkpt lat="43.0995775" lon="12.3561183"><ele>262.0</ele><time>2026-04-12T09:26:23.005Z</time></trkpt><trkpt lat="43.0994675" lon="12.3560977"><ele>262.0</ele><time>2026-04-12T09:26:25Z</time></trkpt><trkpt lat="43.099356" lon="12.3560744"><ele>262.0</ele><time>2026-04-12T09:26:27.003Z</time></trkpt><trkpt lat="43.09924" lon="12.3560624"><ele>262.0</ele><time>2026-04-12T09:26:29.007Z</time></trkpt><trkpt lat="43.0991306" lon="12.3560577"><ele>262.0</ele><time>2026-04-12T09:26:31.004Z</time></trkpt><trkpt lat="43.0990313" lon="12.3560408"><ele>262.0</ele><time>2026-04-12T09:26:33.012Z</time></trkpt><trkpt lat="43.0989269" lon="12.3560159"><ele>261.75</ele><time>2026-04-12T09:26:35.006Z</time></trkpt><trkpt lat="43.0987782" lon="12.355974"><ele>261.5</ele><time>2026-04-12T09:26:38.005Z</time></trkpt><trkpt lat="43.0986716" lon="12.3559507"><ele>261.25</ele><time>2026-04-12T09:26:40.013Z</time></trkpt><trkpt lat="43.0985645" lon="12.3559177"><ele>261.0</ele><time>2026-04-12T09:26:41.999Z</time></trkpt><trkpt lat="43.0984601" lon="12.3558856"><ele>261.0</ele><time>2026-04-12T09:26:44.001Z</time></trkpt><trkpt lat="43.0983624" lon="12.3558389"><ele>261.0</ele><time>2026-04-12T09:26:46.005Z</time></trkpt><trkpt lat="43.0982702" lon="12.3557962"><ele>261.0</ele><time>2026-04-12T09:26:48.003Z</time></trkpt><trkpt lat="43.0981694" lon="12.3557852"><ele>261.0</ele><time>2026-04-12T09:26:50.004Z</time></trkpt><trkpt lat="43.0980642" lon="12.3557872"><ele>261.0</ele><time>2026-04-12T09:26:51.996Z</time></trkpt><trkpt lat="43.0979712" lon="12.355785"><ele>261.0</ele><time>2026-04-12T09:26:53.982Z</time></trkpt><trkpt lat="43.0978675" lon="12.3557731"><ele>261.0</ele><time>2026-04-12T09:26:56.006Z</time></trkpt><trkpt lat="43.0977814" lon="12.3557739"><ele>261.0</ele><time>2026-04-12T09:26:58.003Z</time></trkpt><trkpt lat="43.0976683" lon="12.3557398"><ele>261.0</ele><time>2026-04-12T09:27:00Z</time></trkpt><trkpt lat="43.0975831" lon="12.3557083"><ele>261.0</ele><time>2026-04-12T09:27:01.994Z</time></trkpt><trkpt lat="43.0974834" lon="12.3557039"><ele>260.6</ele><time>2026-04-12T09:27:04.009Z</time></trkpt><trkpt lat="43.0973756" lon="12.3557311"><ele>260.20000000000005</ele><time>2026-04-12T09:27:06.005Z</time></trkpt><trkpt lat="43.0972577" lon="12.3557676"><ele>259.79999999999995</ele><time>2026-04-12T09:27:08.008Z</time></trkpt><trkpt lat="43.0971514" lon="12.3557718"><ele>259.4</ele><time>2026-04-12T09:27:10.005Z</time></trkpt><trkpt lat="43.0970469" lon="12.3557759"><ele>259.0</ele><time>2026-04-12T09:27:11.996Z</time></trkpt><trkpt lat="43.0969509" lon="12.3557888"><ele>259.0</ele><time>2026-04-12T09:27:14.002Z</time></trkpt><trkpt lat="43.0968558" lon="12.3558063"><ele>259.0</ele><time>2026-04-12T09:27:16.109Z</time></trkpt><trkpt lat="43.0967669" lon="12.3558068"><ele>259.0</ele><time>2026-04-12T09:27:18.007Z</time></trkpt><trkpt lat="43.0966725" lon="12.3558022"><ele>259.0</ele><time>2026-04-12T09:27:20.012Z</time></trkpt><trkpt lat="43.0965816" lon="12.3557949"><ele>259.0</ele><time>2026-04-12T09:27:22.003Z</time></trkpt><trkpt lat="43.0964829" lon="12.3557945"><ele>259.16666666666663</ele><time>2026-04-12T09:27:24.01Z</time></trkpt><trkpt lat="43.0964151" lon="12.3558076"><ele>259.3333333333333</ele><time>2026-04-12T09:27:25.999Z</time></trkpt><trkpt lat="43.0963451" lon="12.3558243"><ele>259.5</ele><time>2026-04-12T09:27:28.004Z</time></trkpt><trkpt lat="43.0962647" lon="12.3558378"><ele>259.6666666666667</ele><time>2026-04-12T09:27:30.007Z</time></trkpt><trkpt lat="43.0961672" lon="12.3558576"><ele>259.83333333333337</ele><time>2026-04-12T09:27:32.004Z</time></trkpt><trkpt lat="43.0960661" lon="12.3558841"><ele>260.0</ele><time>2026-04-12T09:27:34.003Z</time></trkpt><trkpt lat="43.0959738" lon="12.355902"><ele>260.0</ele><time>2026-04-12T09:27:35.998Z</time></trkpt><trkpt lat="43.0958677" lon="12.3558979"><ele>260.0</ele><time>2026-04-12T09:27:38.01Z</time></trkpt><trkpt lat="43.095712" lon="12.3559047"><ele>260.0</ele><time>2026-04-12T09:27:41.007Z</time></trkpt><trkpt lat="43.095611" lon="12.3559181"><ele>260.0</ele><time>2026-04-12T09:27:42.999Z</time></trkpt><trkpt lat="43.0955169" lon="12.3559381"><ele>259.8</ele><time>2026-04-12T09:27:45Z</time></trkpt><trkpt lat="43.0954298" lon="12.3559747"><ele>259.6</ele><time>2026-04-12T09:27:47.007Z</time></trkpt><trkpt lat="43.0953279" lon="12.3559961"><ele>259.4</ele><time>2026-04-12T09:27:49.001Z</time></trkpt><trkpt lat="43.0952264" lon="12.3560038"><ele>259.2</ele><time>2026-04-12T09:27:51.102Z</time></trkpt><trkpt lat="43.0951222" lon="12.3560055"><ele>259.0</ele><time>2026-04-12T09:27:52.999Z</time></trkpt><trkpt lat="43.0950105" lon="12.3560092"><ele>258.5</ele><time>2026-04-12T09:27:55.006Z</time></trkpt><trkpt lat="43.0949005" lon="12.3560018"><ele>258.0</ele><time>2026-04-12T09:27:56.994Z</time></trkpt><trkpt lat="43.0947771" lon="12.3560186"><ele>257.5</ele><time>2026-04-12T09:27:59.007Z</time></trkpt><trkpt lat="43.0946598" lon="12.3560325"><ele>257.0</ele><time>2026-04-12T09:28:01.004Z</time></trkpt><trkpt lat="43.0945557" lon="12.3560442"><ele>257.0</ele><time>2026-04-12T09:28:03.104Z</time></trkpt><trkpt lat="43.0944439" lon="12.3560592"><ele>257.0</ele><time>2026-04-12T09:28:05.003Z</time></trkpt><trkpt lat="43.0943386" lon="12.3560733"><ele>257.0</ele><time>2026-04-12T09:28:07Z</time></trkpt><trkpt lat="43.0942513" lon="12.3560997"><ele>257.0</ele><time>2026-04-12T09:28:09.012Z</time></trkpt><trkpt lat="43.0941488" lon="12.3561124"><ele>257.0</ele><time>2026-04-12T09:28:11.006Z</time></trkpt><trkpt lat="43.0940571" lon="12.3561202"><ele>257.5</ele><time>2026-04-12T09:28:13.01Z</time></trkpt><trkpt lat="43.0939724" lon="12.3561045"><ele>258.0</ele><time>2026-04-12T09:28:15.008Z</time></trkpt><trkpt lat="43.0938988" lon="12.3560427"><ele>258.5</ele><time>2026-04-12T09:28:17.008Z</time></trkpt><trkpt lat="43.0938331" lon="12.3559532"><ele>259.0</ele><time>2026-04-12T09:28:19.008Z</time></trkpt><trkpt lat="43.0937735" lon="12.3558578"><ele>259.5</ele><time>2026-04-12T09:28:21.001Z</time></trkpt><trkpt lat="43.0937114" lon="12.355771"><ele>260.0</ele><time>2026-04-12T09:28:23.003Z</time></trkpt><trkpt lat="43.0936487" lon="12.3556864"><ele>260.0</ele><time>2026-04-12T09:28:25.007Z</time></trkpt><trkpt lat="43.0935737" lon="12.3556714"><ele>260.0</ele><time>2026-04-12T09:28:26.993Z</time></trkpt><trkpt lat="43.0934886" lon="12.3556809"><ele>260.0</ele><time>2026-04-12T09:28:29.004Z</time></trkpt><trkpt lat="43.093409" lon="12.3556688"><ele>260.0</ele><time>2026-04-12T09:28:31.012Z</time></trkpt><trkpt lat="43.0933214" lon="12.3556569"><ele>260.0</ele><time>2026-04-12T09:28:34.004Z</time></trkpt><trkpt lat="43.0932445" lon="12.3556604"><ele>260.0</ele><time>2026-04-12T09:28:50.013Z</time></trkpt><trkpt lat="43.093176" lon="12.3557072"><ele>260.42857142857144</ele><time>2026-04-12T09:28:53.008Z</time></trkpt><trkpt lat="43.0931131" lon="12.3557016"><ele>260.8571428571429</ele><time>2026-04-12T09:28:55.115Z</time></trkpt><trkpt lat="43.0930428" lon="12.3556947"><ele>261.2857142857143</ele><time>2026-04-12T09:28:57.009Z</time></trkpt><trkpt lat="43.0929731" lon="12.355692"><ele>261.7142857142857</ele><time>2026-04-12T09:28:58.992Z</time></trkpt><trkpt lat="43.0928995" lon="12.3556897"><ele>262.1428571428571</ele><time>2026-04-12T09:29:01Z</time></trkpt><trkpt lat="43.0928269" lon="12.3556896"><ele>262.57142857142856</ele><time>2026-04-12T09:29:02.992Z</time></trkpt><trkpt lat="43.0927569" lon="12.3556919"><ele>263.0</ele><time>2026-04-12T09:29:04.986Z</time></trkpt><trkpt lat="43.0926901" lon="12.3556955"><ele>263.0</ele><time>2026-04-12T09:29:07.108Z</time></trkpt><trkpt lat="43.0926264" lon="12.355699"><ele>263.0</ele><time>2026-04-12T09:29:09.002Z</time></trkpt><trkpt lat="43.0925317" lon="12.3556983"><ele>263.0</ele><time>2026-04-12T09:29:12.004Z</time></trkpt><trkpt lat="43.0924579" lon="12.3556976"><ele>263.0</ele><time>2026-04-12T09:29:14.013Z</time></trkpt><trkpt lat="43.0923852" lon="12.3556978"><ele>263.0</ele><time>2026-04-12T09:29:16.012Z</time></trkpt><trkpt lat="43.0923137" lon="12.3556982"><ele>263.0</ele><time>2026-04-12T09:29:18.003Z</time></trkpt><trkpt lat="43.0922438" lon="12.3556989"><ele>263.0</ele><time>2026-04-12T09:29:20Z</time></trkpt><trkpt lat="43.0921727" lon="12.3557022"><ele>263.1666666666667</ele><time>2026-04-12T09:29:22.004Z</time></trkpt><trkpt lat="43.0921096" lon="12.3557181"><ele>263.33333333333337</ele><time>2026-04-12T09:29:24.004Z</time></trkpt><trkpt lat="43.0920473" lon="12.3557987"><ele>263.5</ele><time>2026-04-12T09:29:27.008Z</time></trkpt><trkpt lat="43.0919902" lon="12.3558373"><ele>263.6666666666667</ele><time>2026-04-12T09:29:29.008Z</time></trkpt><trkpt lat="43.091866" lon="12.3558677"><ele>263.8333333333333</ele><time>2026-04-12T09:29:32.009Z</time></trkpt><trkpt lat="43.0917702" lon="12.3558817"><ele>264.0</ele><time>2026-04-12T09:29:33.999Z</time></trkpt><trkpt lat="43.0916636" lon="12.3559076"><ele>264.3333333333333</ele><time>2026-04-12T09:29:36.002Z</time></trkpt><trkpt lat="43.0915603" lon="12.3559589"><ele>264.6666666666667</ele><time>2026-04-12T09:29:38.009Z</time></trkpt><trkpt lat="43.0914518" lon="12.3560226"><ele>265.0</ele><time>2026-04-12T09:29:40.005Z</time></trkpt><trkpt lat="43.091395" lon="12.356067"><ele>265.33333333333337</ele><time>2026-04-12T09:29:40.998Z</time></trkpt><trkpt lat="43.0913409" lon="12.3561278"><ele>265.6666666666667</ele><time>2026-04-12T09:29:42.005Z</time></trkpt><trkpt lat="43.0912882" lon="12.3561867"><ele>266.0</ele><time>2026-04-12T09:29:43.008Z</time></trkpt><trkpt lat="43.0912305" lon="12.356254"><ele>266.0</ele><time>2026-04-12T09:29:44.004Z</time></trkpt><trkpt lat="43.0911748" lon="12.3563201"><ele>266.0</ele><time>2026-04-12T09:29:45.017Z</time></trkpt><trkpt lat="43.0911131" lon="12.3563791"><ele>266.0</ele><time>2026-04-12T09:29:45.996Z</time></trkpt><trkpt lat="43.0910495" lon="12.3564373"><ele>266.0</ele><time>2026-04-12T09:29:47.002Z</time></trkpt><trkpt lat="43.0909877" lon="12.3564951"><ele>266.0</ele><time>2026-04-12T09:29:48.011Z</time></trkpt><trkpt lat="43.0909304" lon="12.3565495"><ele>266.0</ele><time>2026-04-12T09:29:48.997Z</time></trkpt><trkpt lat="43.0908676" lon="12.3566116"><ele>266.0</ele><time>2026-04-12T09:29:49.995Z</time></trkpt><trkpt lat="43.0908026" lon="12.3566609"><ele>265.1666666666667</ele><time>2026-04-12T09:29:50.998Z</time></trkpt><trkpt lat="43.0907407" lon="12.3567107"><ele>264.33333333333337</ele><time>2026-04-12T09:29:52.004Z</time></trkpt><trkpt lat="43.0906809" lon="12.3567427"><ele>263.5</ele><time>2026-04-12T09:29:52.997Z</time></trkpt><trkpt lat="43.0906187" lon="12.3567792"><ele>262.6666666666667</ele><time>2026-04-12T09:29:54.015Z</time></trkpt><trkpt lat="43.0905088" lon="12.3568448"><ele>261.8333333333333</ele><time>2026-04-12T09:29:56.007Z</time></trkpt><trkpt lat="43.090414" lon="12.3569206"><ele>261.0</ele><time>2026-04-12T09:29:57.988Z</time></trkpt><trkpt lat="43.0903219" lon="12.3569753"><ele>261.0</ele><time>2026-04-12T09:30:00.004Z</time></trkpt><trkpt lat="43.0902403" lon="12.3570057"><ele>261.0</ele><time>2026-04-12T09:30:01.987Z</time></trkpt><trkpt lat="43.0901596" lon="12.3570064"><ele>261.0</ele><time>2026-04-12T09:30:03.988Z</time></trkpt><trkpt lat="43.0900709" lon="12.3569922"><ele>261.0</ele><time>2026-04-12T09:30:05.987Z</time></trkpt><trkpt lat="43.0899739" lon="12.3569807"><ele>261.0</ele><time>2026-04-12T09:30:07.988Z</time></trkpt><trkpt lat="43.0898831" lon="12.3569813"><ele>261.0</ele><time>2026-04-12T09:30:09.989Z</time></trkpt><trkpt lat="43.0897876" lon="12.356989"><ele>260.6666666666667</ele><time>2026-04-12T09:30:12.001Z</time></trkpt><trkpt lat="43.0896991" lon="12.3569849"><ele>260.3333333333333</ele><time>2026-04-12T09:30:13.994Z</time></trkpt><trkpt lat="43.0896071" lon="12.3569942"><ele>260.0</ele><time>2026-04-12T09:30:16.002Z</time></trkpt><trkpt lat="43.0895251" lon="12.357001"><ele>259.66666666666663</ele><time>2026-04-12T09:30:17.994Z</time></trkpt><trkpt lat="43.0894489" lon="12.3570141"><ele>259.3333333333333</ele><time>2026-04-12T09:30:20.007Z</time></trkpt><trkpt lat="43.0893626" lon="12.3570094"><ele>259.0</ele><time>2026-04-12T09:30:22.1Z</time></trkpt><trkpt lat="43.0892754" lon="12.3570135"><ele>259.0</ele><time>2026-04-12T09:30:24.005Z</time></trkpt><trkpt lat="43.0891928" lon="12.3570317"><ele>259.0</ele><time>2026-04-12T09:30:26.017Z</time></trkpt><trkpt lat="43.0891124" lon="12.3570649"><ele>259.0</ele><time>2026-04-12T09:30:27.993Z</time></trkpt><trkpt lat="43.0890062" lon="12.3571005"><ele>259.0</ele><time>2026-04-12T09:30:30Z</time></trkpt><trkpt lat="43.0888966" lon="12.3571127"><ele>259.0</ele><time>2026-04-12T09:30:32.004Z</time></trkpt><trkpt lat="43.0887926" lon="12.357078"><ele>259.4</ele><time>2026-04-12T09:30:33.995Z</time></trkpt><trkpt lat="43.0886976" lon="12.3570556"><ele>259.79999999999995</ele><time>2026-04-12T09:30:36.006Z</time></trkpt><trkpt lat="43.0885881" lon="12.3570504"><ele>260.20000000000005</ele><time>2026-04-12T09:30:38.005Z</time></trkpt><trkpt lat="43.0884845" lon="12.3570533"><ele>260.6</ele><time>2026-04-12T09:30:40.003Z</time></trkpt><trkpt lat="43.0883857" lon="12.3570374"><ele>261.0</ele><time>2026-04-12T09:30:42.007Z</time></trkpt><trkpt lat="43.0882941" lon="12.3570328"><ele>261.1666666666667</ele><time>2026-04-12T09:30:43.998Z</time></trkpt><trkpt lat="43.0882139" lon="12.3570213"><ele>261.3333333333333</ele><time>2026-04-12T09:30:45.99Z</time></trkpt><trkpt lat="43.0881322" lon="12.3570027"><ele>261.5</ele><time>2026-04-12T09:30:48.007Z</time></trkpt><trkpt lat="43.0880423" lon="12.3569787"><ele>261.66666666666663</ele><time>2026-04-12T09:30:50.01Z</time></trkpt><trkpt lat="43.0879584" lon="12.3569723"><ele>261.8333333333333</ele><time>2026-04-12T09:30:52.006Z</time></trkpt><trkpt lat="43.0878597" lon="12.3569928"><ele>262.0</ele><time>2026-04-12T09:30:54Z</time></trkpt><trkpt lat="43.0877746" lon="12.3570227"><ele>262.0</ele><time>2026-04-12T09:30:56.005Z</time></trkpt><trkpt lat="43.0876884" lon="12.3570441"><ele>262.0</ele><time>2026-04-12T09:30:57.998Z</time></trkpt><trkpt lat="43.0876091" lon="12.3570798"><ele>262.0</ele><time>2026-04-12T09:31:00.004Z</time></trkpt><trkpt lat="43.087524" lon="12.3571125"><ele>262.0</ele><time>2026-04-12T09:31:02.01Z</time></trkpt><trkpt lat="43.0874378" lon="12.3571442"><ele>262.0</ele><time>2026-04-12T09:31:04.001Z</time></trkpt><trkpt lat="43.0873513" lon="12.357177"><ele>262.0</ele><time>2026-04-12T09:31:06.004Z</time></trkpt><trkpt lat="43.0872691" lon="12.3572131"><ele>259.6</ele><time>2026-04-12T09:31:07.993Z</time></trkpt><trkpt lat="43.0871764" lon="12.3572533"><ele>257.2</ele><time>2026-04-12T09:31:09.985Z</time></trkpt><trkpt lat="43.0870715" lon="12.3572918"><ele>254.8</ele><time>2026-04-12T09:31:11.992Z</time></trkpt><trkpt lat="43.0869566" lon="12.3573222"><ele>252.4</ele><time>2026-04-12T09:31:13.99Z</time></trkpt><trkpt lat="43.0868939" lon="12.3573356"><ele>250.0</ele><time>2026-04-12T09:31:14.981Z</time></trkpt><trkpt lat="43.0868246" lon="12.3573476"><ele>249.99999999999997</ele><time>2026-04-12T09:31:15.987Z</time></trkpt><trkpt lat="43.0867519" lon="12.3573552"><ele>250.0</ele><time>2026-04-12T09:31:16.982Z</time></trkpt><trkpt lat="43.086671" lon="12.3573673"><ele>250.0</ele><time>2026-04-12T09:31:17.981Z</time></trkpt><trkpt lat="43.0865904" lon="12.3573737"><ele>250.0</ele><time>2026-04-12T09:31:18.981Z</time></trkpt><trkpt lat="43.0865057" lon="12.3573811"><ele>249.99999999999997</ele><time>2026-04-12T09:31:19.983Z</time></trkpt><trkpt lat="43.0864318" lon="12.357389"><ele>250.0</ele><time>2026-04-12T09:31:20.987Z</time></trkpt><trkpt lat="43.0863575" lon="12.3573923"><ele>250.2</ele><time>2026-04-12T09:31:22.098Z</time></trkpt><trkpt lat="43.0862917" lon="12.3573989"><ele>250.4</ele><time>2026-04-12T09:31:23.007Z</time></trkpt><trkpt lat="43.0861739" lon="12.357405"><ele>250.60000000000002</ele><time>2026-04-12T09:31:25.012Z</time></trkpt><trkpt lat="43.086067" lon="12.3574149"><ele>250.8</ele><time>2026-04-12T09:31:26.996Z</time></trkpt><trkpt lat="43.0859595" lon="12.3574121"><ele>251.0</ele><time>2026-04-12T09:31:28.989Z</time></trkpt><trkpt lat="43.0858605" lon="12.3574121"><ele>251.00000000000003</ele><time>2026-04-12T09:31:31Z</time></trkpt><trkpt lat="43.0857642" lon="12.3574259"><ele>251.0</ele><time>2026-04-12T09:31:33Z</time></trkpt><trkpt lat="43.0856825" lon="12.3574309"><ele>251.0</ele><time>2026-04-12T09:31:34.999Z</time></trkpt><trkpt lat="43.0856058" lon="12.3574444"><ele>251.0</ele><time>2026-04-12T09:31:37Z</time></trkpt><trkpt lat="43.0855418" lon="12.3575147"><ele>251.00000000000003</ele><time>2026-04-12T09:31:39.11Z</time></trkpt><trkpt lat="43.0854909" lon="12.357613"><ele>251.0</ele><time>2026-04-12T09:31:41.003Z</time></trkpt><trkpt lat="43.0854092" lon="12.3576809"><ele>252.20000000000002</ele><time>2026-04-12T09:31:43.007Z</time></trkpt><trkpt lat="43.0853063" lon="12.3576835"><ele>253.40000000000003</ele><time>2026-04-12T09:31:45.001Z</time></trkpt><trkpt lat="43.0852115" lon="12.357675"><ele>254.6</ele><time>2026-04-12T09:31:47.015Z</time></trkpt><trkpt lat="43.0851194" lon="12.357664"><ele>255.8</ele><time>2026-04-12T09:31:48.996Z</time></trkpt><trkpt lat="43.0850372" lon="12.3576601"><ele>257.0</ele><time>2026-04-12T09:31:51.008Z</time></trkpt><trkpt lat="43.0849543" lon="12.3576533"><ele>257.1666666666667</ele><time>2026-04-12T09:31:53.001Z</time></trkpt><trkpt lat="43.0848733" lon="12.3576432"><ele>257.33333333333337</ele><time>2026-04-12T09:31:55.004Z</time></trkpt><trkpt lat="43.0847913" lon="12.3576458"><ele>257.5</ele><time>2026-04-12T09:31:56.995Z</time></trkpt><trkpt lat="43.0847125" lon="12.3576558"><ele>257.6666666666667</ele><time>2026-04-12T09:31:59Z</time></trkpt><trkpt lat="43.0846337" lon="12.3576475"><ele>257.8333333333333</ele><time>2026-04-12T09:32:00.998Z</time></trkpt><trkpt lat="43.0845549" lon="12.3576466"><ele>258.0</ele><time>2026-04-12T09:32:03.008Z</time></trkpt><trkpt lat="43.0844852" lon="12.3576516"><ele>258.0</ele><time>2026-04-12T09:32:04.996Z</time></trkpt><trkpt lat="43.0844242" lon="12.3576818"><ele>258.0</ele><time>2026-04-12T09:32:07.004Z</time></trkpt><trkpt lat="43.0843693" lon="12.3577756"><ele>258.0</ele><time>2026-04-12T09:32:09.997Z</time></trkpt><trkpt lat="43.084357" lon="12.3579045"><ele>258.0</ele><time>2026-04-12T09:32:13.001Z</time></trkpt><trkpt lat="43.0843857" lon="12.358019"><ele>258.0</ele><time>2026-04-12T09:32:15.01Z</time></trkpt><trkpt lat="43.0844075" lon="12.3581015"><ele>258.0</ele><time>2026-04-12T09:32:16.008Z</time></trkpt><trkpt lat="43.0844509" lon="12.3582628"><ele>257.4285714285714</ele><time>2026-04-12T09:32:17.995Z</time></trkpt><trkpt lat="43.0844804" lon="12.3583553"><ele>256.85714285714283</ele><time>2026-04-12T09:32:19Z</time></trkpt><trkpt lat="43.0845105" lon="12.3584409"><ele>256.2857142857143</ele><time>2026-04-12T09:32:20Z</time></trkpt><trkpt lat="43.0845484" lon="12.3585287"><ele>255.7142857142857</ele><time>2026-04-12T09:32:21Z</time></trkpt><trkpt lat="43.0845804" lon="12.3586144"><ele>255.1428571428571</ele><time>2026-04-12T09:32:22.003Z</time></trkpt><trkpt lat="43.0846116" lon="12.3587016"><ele>254.57142857142858</ele><time>2026-04-12T09:32:22.999Z</time></trkpt><trkpt lat="43.0846467" lon="12.3587912"><ele>254.0</ele><time>2026-04-12T09:32:24.004Z</time></trkpt><trkpt lat="43.0846777" lon="12.3588798"><ele>253.0</ele><time>2026-04-12T09:32:25.005Z</time></trkpt><trkpt lat="43.0847101" lon="12.3589662"><ele>251.99999999999997</ele><time>2026-04-12T09:32:26.105Z</time></trkpt><trkpt lat="43.0847694" lon="12.3591137"><ele>250.99999999999997</ele><time>2026-04-12T09:32:27.985Z</time></trkpt><trkpt lat="43.0848106" lon="12.3592408"><ele>250.0</ele><time>2026-04-12T09:32:29.997Z</time></trkpt><trkpt lat="43.0848005" lon="12.3593605"><ele>249.0</ele><time>2026-04-12T09:32:32.101Z</time></trkpt><trkpt lat="43.0847478" lon="12.3594346"><ele>249.0</ele><time>2026-04-12T09:32:34.008Z</time></trkpt><trkpt lat="43.0846923" lon="12.3595131"><ele>248.99999999999997</ele><time>2026-04-12T09:32:35.983Z</time></trkpt><trkpt lat="43.0846164" lon="12.359576"><ele>248.99999999999997</ele><time>2026-04-12T09:32:38.003Z</time></trkpt><trkpt lat="43.0845159" lon="12.3595652"><ele>249.0</ele><time>2026-04-12T09:32:39.998Z</time></trkpt><trkpt lat="43.0844399" lon="12.3594743"><ele>249.0</ele><time>2026-04-12T09:32:42.003Z</time></trkpt><trkpt lat="43.0843928" lon="12.359359"><ele>249.0</ele><time>2026-04-12T09:32:44.014Z</time></trkpt><trkpt lat="43.0843624" lon="12.3592511"><ele>249.0</ele><time>2026-04-12T09:32:46.011Z</time></trkpt><trkpt lat="43.0843325" lon="12.3591483"><ele>249.0</ele><time>2026-04-12T09:32:48.014Z</time></trkpt><trkpt lat="43.0842971" lon="12.3590589"><ele>249.0</ele><time>2026-04-12T09:32:49.997Z</time></trkpt><trkpt lat="43.0842717" lon="12.3589694"><ele>249.0</ele><time>2026-04-12T09:32:51.996Z</time></trkpt><trkpt lat="43.0842498" lon="12.3588771"><ele>249.0</ele><time>2026-04-12T09:32:53.998Z</time></trkpt><trkpt lat="43.084232" lon="12.3587841"><ele>249.7142857142857</ele><time>2026-04-12T09:32:56.001Z</time></trkpt><trkpt lat="43.0842102" lon="12.3586954"><ele>250.4285714285714</ele><time>2026-04-12T09:32:57.983Z</time></trkpt><trkpt lat="43.0842026" lon="12.3585885"><ele>251.14285714285714</ele><time>2026-04-12T09:33:00Z</time></trkpt><trkpt lat="43.0841822" lon="12.3584924"><ele>251.85714285714283</ele><time>2026-04-12T09:33:01.998Z</time></trkpt><trkpt lat="43.0841504" lon="12.358401"><ele>252.57142857142856</ele><time>2026-04-12T09:33:04.008Z</time></trkpt><trkpt lat="43.0841197" lon="12.3583136"><ele>253.28571428571428</ele><time>2026-04-12T09:33:05.996Z</time></trkpt><trkpt lat="43.0840849" lon="12.358222"><ele>254.0</ele><time>2026-04-12T09:33:08.005Z</time></trkpt><trkpt lat="43.0840556" lon="12.3581292"><ele>254.57142857142858</ele><time>2026-04-12T09:33:10.004Z</time></trkpt><trkpt lat="43.0840221" lon="12.3580441"><ele>255.1428571428571</ele><time>2026-04-12T09:33:12.002Z</time></trkpt><trkpt lat="43.083989" lon="12.3579507"><ele>255.7142857142857</ele><time>2026-04-12T09:33:14.004Z</time></trkpt><trkpt lat="43.0839607" lon="12.357857"><ele>256.2857142857143</ele><time>2026-04-12T09:33:16Z</time></trkpt><trkpt lat="43.0839329" lon="12.3577665"><ele>256.85714285714283</ele><time>2026-04-12T09:33:18.001Z</time></trkpt><trkpt lat="43.0839" lon="12.3576788"><ele>257.4285714285714</ele><time>2026-04-12T09:33:20.013Z</time></trkpt><trkpt lat="43.0838651" lon="12.3575908"><ele>258.0</ele><time>2026-04-12T09:33:22.007Z</time></trkpt><trkpt lat="43.0838307" lon="12.3575019"><ele>258.71428571428567</ele><time>2026-04-12T09:33:24.002Z</time></trkpt><trkpt lat="43.0838055" lon="12.3574158"><ele>259.42857142857144</ele><time>2026-04-12T09:33:26.001Z</time></trkpt><trkpt lat="43.0837805" lon="12.3573287"><ele>260.1428571428571</ele><time>2026-04-12T09:33:28.004Z</time></trkpt><trkpt lat="43.0837502" lon="12.3572423"><ele>260.85714285714283</ele><time>2026-04-12T09:33:30.102Z</time></trkpt><trkpt lat="43.0837189" lon="12.357162"><ele>261.57142857142856</ele><time>2026-04-12T09:33:32.004Z</time></trkpt><trkpt lat="43.0836807" lon="12.3570814"><ele>262.2857142857143</ele><time>2026-04-12T09:33:34.004Z</time></trkpt><trkpt lat="43.0836487" lon="12.3569987"><ele>263.0</ele><time>2026-04-12T09:33:36.002Z</time></trkpt><trkpt lat="43.0836442" lon="12.3569113"><ele>263.83333333333337</ele><time>2026-04-12T09:33:38.001Z</time></trkpt><trkpt lat="43.0836277" lon="12.3568122"><ele>264.6666666666667</ele><time>2026-04-12T09:33:40.005Z</time></trkpt><trkpt lat="43.0835881" lon="12.3567183"><ele>265.5</ele><time>2026-04-12T09:33:42.002Z</time></trkpt><trkpt lat="43.0835498" lon="12.3566231"><ele>266.3333333333333</ele><time>2026-04-12T09:33:44Z</time></trkpt><trkpt lat="43.0835108" lon="12.3565322"><ele>267.16666666666663</ele><time>2026-04-12T09:33:46.005Z</time></trkpt><trkpt lat="43.0834714" lon="12.3564421"><ele>268.0</ele><time>2026-04-12T09:33:48.002Z</time></trkpt><trkpt lat="43.0834298" lon="12.3563553"><ele>268.42857142857144</ele><time>2026-04-12T09:33:49.984Z</time></trkpt><trkpt lat="43.0833855" lon="12.3562706"><ele>268.85714285714283</ele><time>2026-04-12T09:33:52.006Z</time></trkpt><trkpt lat="43.0833412" lon="12.3561859"><ele>269.2857142857143</ele><time>2026-04-12T09:33:54Z</time></trkpt><trkpt lat="43.0832988" lon="12.3560998"><ele>269.7142857142857</ele><time>2026-04-12T09:33:56.002Z</time></trkpt><trkpt lat="43.0832592" lon="12.3560153"><ele>270.14285714285717</ele><time>2026-04-12T09:33:57.996Z</time></trkpt><trkpt lat="43.0832229" lon="12.3559431"><ele>270.57142857142856</ele><time>2026-04-12T09:34:00.006Z</time></trkpt><trkpt lat="43.0831863" lon="12.3558676"><ele>271.0</ele><time>2026-04-12T09:34:02.004Z</time></trkpt><trkpt lat="43.0831469" lon="12.3557809"><ele>272.3333333333333</ele><time>2026-04-12T09:34:03.983Z</time></trkpt><trkpt lat="43.0830955" lon="12.3556972"><ele>273.66666666666663</ele><time>2026-04-12T09:34:06.001Z</time></trkpt><trkpt lat="43.0830509" lon="12.3556036"><ele>275.0</ele><time>2026-04-12T09:34:07.996Z</time></trkpt><trkpt lat="43.0830112" lon="12.3555251"><ele>276.3333333333333</ele><time>2026-04-12T09:34:10.004Z</time></trkpt><trkpt lat="43.0829476" lon="12.355407"><ele>277.6666666666667</ele><time>2026-04-12T09:34:13.004Z</time></trkpt><trkpt lat="43.0829016" lon="12.3553308"><ele>279.0</ele><time>2026-04-12T09:34:15.001Z</time></trkpt><trkpt lat="43.0828538" lon="12.3552523"><ele>278.99999999999994</ele><time>2026-04-12T09:34:17.091Z</time></trkpt><trkpt lat="43.0828078" lon="12.355174"><ele>279.0</ele><time>2026-04-12T09:34:19.007Z</time></trkpt><trkpt lat="43.0827619" lon="12.3550895"><ele>279.0</ele><time>2026-04-12T09:34:20.997Z</time></trkpt><trkpt lat="43.0827135" lon="12.3550079"><ele>279.0</ele><time>2026-04-12T09:34:23.106Z</time></trkpt><trkpt lat="43.0826613" lon="12.3549391"><ele>279.0</ele><time>2026-04-12T09:34:24.999Z</time></trkpt><trkpt lat="43.0826087" lon="12.354875"><ele>278.99999999999994</ele><time>2026-04-12T09:34:27.009Z</time></trkpt><trkpt lat="43.0825579" lon="12.3547984"><ele>279.0</ele><time>2026-04-12T09:34:28.993Z</time></trkpt><trkpt lat="43.0824977" lon="12.3547229"><ele>279.0</ele><time>2026-04-12T09:34:31Z</time></trkpt><trkpt lat="43.0824456" lon="12.3546466"><ele>279.0</ele><time>2026-04-12T09:34:33.007Z</time></trkpt><trkpt lat="43.0823928" lon="12.3545659"><ele>279.0</ele><time>2026-04-12T09:34:35.002Z</time></trkpt><trkpt lat="43.0823424" lon="12.3544873"><ele>279.0</ele><time>2026-04-12T09:34:36.987Z</time></trkpt><trkpt lat="43.0822925" lon="12.3544087"><ele>279.0</ele><time>2026-04-12T09:34:38.986Z</time></trkpt><trkpt lat="43.0822377" lon="12.3543282"><ele>279.0</ele><time>2026-04-12T09:34:40.994Z</time></trkpt><trkpt lat="43.0821777" lon="12.3542493"><ele>279.0</ele><time>2026-04-12T09:34:42.984Z</time></trkpt><trkpt lat="43.0821217" lon="12.3541673"><ele>279.0</ele><time>2026-04-12T09:34:44.976Z</time></trkpt><trkpt lat="43.0820701" lon="12.3540893"><ele>279.0</ele><time>2026-04-12T09:34:46.989Z</time></trkpt><trkpt lat="43.0820063" lon="12.3540127"><ele>279.0</ele><time>2026-04-12T09:34:48.991Z</time></trkpt><trkpt lat="43.081945" lon="12.3539315"><ele>279.0</ele><time>2026-04-12T09:34:50.987Z</time></trkpt><trkpt lat="43.0818823" lon="12.3538495"><ele>279.0</ele><time>2026-04-12T09:34:52.991Z</time></trkpt><trkpt lat="43.0818215" lon="12.3537729"><ele>278.8333333333333</ele><time>2026-04-12T09:34:54.994Z</time></trkpt><trkpt lat="43.0817601" lon="12.3537039"><ele>278.6666666666667</ele><time>2026-04-12T09:34:56.996Z</time></trkpt><trkpt lat="43.081705" lon="12.3536381"><ele>278.5</ele><time>2026-04-12T09:34:58.996Z</time></trkpt><trkpt lat="43.0816483" lon="12.3535691"><ele>278.33333333333337</ele><time>2026-04-12T09:35:01.015Z</time></trkpt><trkpt lat="43.0815872" lon="12.3535022"><ele>278.1666666666667</ele><time>2026-04-12T09:35:02.995Z</time></trkpt><trkpt lat="43.081527" lon="12.353437"><ele>278.0</ele><time>2026-04-12T09:35:05.006Z</time></trkpt><trkpt lat="43.0814639" lon="12.3533797"><ele>277.83333333333337</ele><time>2026-04-12T09:35:06.994Z</time></trkpt><trkpt lat="43.0813932" lon="12.3533671"><ele>277.6666666666667</ele><time>2026-04-12T09:35:09.002Z</time></trkpt><trkpt lat="43.0813262" lon="12.3533588"><ele>277.5</ele><time>2026-04-12T09:35:11.001Z</time></trkpt><trkpt lat="43.0812582" lon="12.3532795"><ele>277.3333333333333</ele><time>2026-04-12T09:35:14.013Z</time></trkpt><trkpt lat="43.0812075" lon="12.3531914"><ele>277.16666666666663</ele><time>2026-04-12T09:35:17.003Z</time></trkpt><trkpt lat="43.0811397" lon="12.3530917"><ele>277.0</ele><time>2026-04-12T09:35:20.011Z</time></trkpt><trkpt lat="43.081086" lon="12.3530173"><ele>277.0</ele><time>2026-04-12T09:35:22.012Z</time></trkpt><trkpt lat="43.0810093" lon="12.3529969"><ele>277.0</ele><time>2026-04-12T09:35:23.988Z</time></trkpt><trkpt lat="43.0809345" lon="12.3530254"><ele>277.0</ele><time>2026-04-12T09:35:26.003Z</time></trkpt><trkpt lat="43.0808624" lon="12.3530299"><ele>277.0</ele><time>2026-04-12T09:35:28.001Z</time></trkpt><trkpt lat="43.0807921" lon="12.3529896"><ele>277.0</ele><time>2026-04-12T09:35:30.001Z</time></trkpt><trkpt lat="43.0807423" lon="12.3529123"><ele>277.0</ele><time>2026-04-12T09:35:31.986Z</time></trkpt><trkpt lat="43.080696" lon="12.3528339"><ele>277.16666666666663</ele><time>2026-04-12T09:35:34.003Z</time></trkpt><trkpt lat="43.0806452" lon="12.3527503"><ele>277.3333333333333</ele><time>2026-04-12T09:35:36.008Z</time></trkpt><trkpt lat="43.0806168" lon="12.3526415"><ele>277.5</ele><time>2026-04-12T09:35:38.008Z</time></trkpt><trkpt lat="43.0806025" lon="12.3525406"><ele>277.6666666666667</ele><time>2026-04-12T09:35:40Z</time></trkpt><trkpt lat="43.0806" lon="12.3524452"><ele>277.83333333333337</ele><time>2026-04-12T09:35:42.011Z</time></trkpt><trkpt lat="43.0805979" lon="12.3523469"><ele>278.0</ele><time>2026-04-12T09:35:45.008Z</time></trkpt><trkpt lat="43.0805557" lon="12.3522689"><ele>278.1666666666667</ele><time>2026-04-12T09:39:35.992Z</time></trkpt><trkpt lat="43.080549" lon="12.3521507"><ele>278.33333333333337</ele><time>2026-04-12T09:39:40.011Z</time></trkpt><trkpt lat="43.0805291" lon="12.352037"><ele>278.5</ele><time>2026-04-12T09:39:43.01Z</time></trkpt><trkpt lat="43.0804911" lon="12.3519236"><ele>278.6666666666667</ele><time>2026-04-12T09:39:45.991Z</time></trkpt><trkpt lat="43.0804622" lon="12.3518282"><ele>278.8333333333333</ele><time>2026-04-12T09:39:48.008Z</time></trkpt><trkpt lat="43.0804254" lon="12.351729"><ele>279.0</ele><time>2026-04-12T09:39:50.005Z</time></trkpt><trkpt lat="43.0803664" lon="12.351631"><ele>279.0</ele><time>2026-04-12T09:39:52.011Z</time></trkpt><trkpt lat="43.08031" lon="12.3515272"><ele>279.0</ele><time>2026-04-12T09:39:53.983Z</time></trkpt><trkpt lat="43.0802525" lon="12.3514031"><ele>279.0</ele><time>2026-04-12T09:39:56.001Z</time></trkpt><trkpt lat="43.0801869" lon="12.3512627"><ele>279.0</ele><time>2026-04-12T09:39:57.999Z</time></trkpt><trkpt lat="43.0801548" lon="12.3511881"><ele>279.0</ele><time>2026-04-12T09:39:59.091Z</time></trkpt><trkpt lat="43.0801186" lon="12.3511102"><ele>277.85714285714283</ele><time>2026-04-12T09:39:59.999Z</time></trkpt><trkpt lat="43.0800866" lon="12.3510249"><ele>276.7142857142857</ele><time>2026-04-12T09:40:01.001Z</time></trkpt><trkpt lat="43.0800483" lon="12.3509447"><ele>275.57142857142856</ele><time>2026-04-12T09:40:02.001Z</time></trkpt><trkpt lat="43.0800172" lon="12.3508665"><ele>274.42857142857144</ele><time>2026-04-12T09:40:03.013Z</time></trkpt><trkpt lat="43.0799846" lon="12.3507898"><ele>273.2857142857143</ele><time>2026-04-12T09:40:04.011Z</time></trkpt><trkpt lat="43.0799534" lon="12.3507025"><ele>272.1428571428571</ele><time>2026-04-12T09:40:05.004Z</time></trkpt><trkpt lat="43.0799229" lon="12.3506159"><ele>271.0</ele><time>2026-04-12T09:40:06Z</time></trkpt><trkpt lat="43.0798958" lon="12.3505312"><ele>270.57142857142856</ele><time>2026-04-12T09:40:07.006Z</time></trkpt><trkpt lat="43.0798633" lon="12.3504489"><ele>270.14285714285717</ele><time>2026-04-12T09:40:07.997Z</time></trkpt><trkpt lat="43.0798231" lon="12.3503694"><ele>269.7142857142857</ele><time>2026-04-12T09:40:09.011Z</time></trkpt><trkpt lat="43.0797615" lon="12.3502995"><ele>269.2857142857143</ele><time>2026-04-12T09:40:10.01Z</time></trkpt><trkpt lat="43.0797115" lon="12.3502421"><ele>268.85714285714283</ele><time>2026-04-12T09:40:11Z</time></trkpt><trkpt lat="43.0796531" lon="12.3501863"><ele>268.42857142857144</ele><time>2026-04-12T09:40:12.006Z</time></trkpt><trkpt lat="43.0795959" lon="12.3501339"><ele>268.0</ele><time>2026-04-12T09:40:12.999Z</time></trkpt><trkpt lat="43.0794958" lon="12.3500478"><ele>268.0</ele><time>2026-04-12T09:40:15.011Z</time></trkpt><trkpt lat="43.079394" lon="12.3500308"><ele>268.0</ele><time>2026-04-12T09:40:16.992Z</time></trkpt><trkpt lat="43.0792977" lon="12.3501"><ele>268.0</ele><time>2026-04-12T09:40:19Z</time></trkpt><trkpt lat="43.0792067" lon="12.350192"><ele>268.0</ele><time>2026-04-12T09:40:20.999Z</time></trkpt><trkpt lat="43.0791226" lon="12.3502944"><ele>268.0</ele><time>2026-04-12T09:40:23.001Z</time></trkpt><trkpt lat="43.0790364" lon="12.3503803"><ele>267.8333333333333</ele><time>2026-04-12T09:40:25.005Z</time></trkpt><trkpt lat="43.0789623" lon="12.3504537"><ele>267.66666666666663</ele><time>2026-04-12T09:40:26.995Z</time></trkpt><trkpt lat="43.0788918" lon="12.3505279"><ele>267.5</ele><time>2026-04-12T09:40:29.013Z</time></trkpt><trkpt lat="43.0788282" lon="12.3505846"><ele>267.3333333333333</ele><time>2026-04-12T09:40:30.997Z</time></trkpt><trkpt lat="43.0787475" lon="12.3506572"><ele>267.1666666666667</ele><time>2026-04-12T09:40:33.004Z</time></trkpt><trkpt lat="43.0786666" lon="12.350726"><ele>267.0</ele><time>2026-04-12T09:40:35.003Z</time></trkpt><trkpt lat="43.0785713" lon="12.3507838"><ele>266.6</ele><time>2026-04-12T09:40:37.004Z</time></trkpt><trkpt lat="43.0784788" lon="12.3508321"><ele>266.2</ele><time>2026-04-12T09:40:39.013Z</time></trkpt><trkpt lat="43.0783768" lon="12.3508882"><ele>265.8</ele><time>2026-04-12T09:40:41.005Z</time></trkpt><trkpt lat="43.0782713" lon="12.3509499"><ele>265.4</ele><time>2026-04-12T09:40:43.003Z</time></trkpt><trkpt lat="43.078163" lon="12.3510031"><ele>265.0</ele><time>2026-04-12T09:40:45.008Z</time></trkpt><trkpt lat="43.078059" lon="12.3510494"><ele>265.0</ele><time>2026-04-12T09:40:46.997Z</time></trkpt><trkpt lat="43.0779474" lon="12.3510873"><ele>265.0</ele><time>2026-04-12T09:40:48.997Z</time></trkpt><trkpt lat="43.0778413" lon="12.3511052"><ele>265.0</ele><time>2026-04-12T09:40:51.003Z</time></trkpt><trkpt lat="43.0777411" lon="12.3511259"><ele>265.0</ele><time>2026-04-12T09:40:53.005Z</time></trkpt><trkpt lat="43.0776559" lon="12.3511972"><ele>265.0</ele><time>2026-04-12T09:40:54.995Z</time></trkpt><trkpt lat="43.0776113" lon="12.3512697"><ele>265.0</ele><time>2026-04-12T09:40:56.992Z</time></trkpt><trkpt lat="43.077582" lon="12.3513532"><ele>265.0</ele><time>2026-04-12T09:40:58.994Z</time></trkpt><trkpt lat="43.0775554" lon="12.3514585"><ele>265.0</ele><time>2026-04-12T09:41:01.992Z</time></trkpt><trkpt lat="43.0775194" lon="12.3515806"><ele>265.0</ele><time>2026-04-12T09:41:04.006Z</time></trkpt><trkpt lat="43.0774716" lon="12.351684"><ele>265.0</ele><time>2026-04-12T09:41:06Z</time></trkpt><trkpt lat="43.0774148" lon="12.3517616"><ele>265.0</ele><time>2026-04-12T09:41:08.01Z</time></trkpt><trkpt lat="43.0773568" lon="12.3518255"><ele>265.16666666666663</ele><time>2026-04-12T09:41:09.999Z</time></trkpt><trkpt lat="43.0772895" lon="12.3518857"><ele>265.3333333333333</ele><time>2026-04-12T09:41:13Z</time></trkpt><trkpt lat="43.0772132" lon="12.3519399"><ele>265.5</ele><time>2026-04-12T09:41:16.006Z</time></trkpt><trkpt lat="43.0771548" lon="12.3519911"><ele>265.6666666666667</ele><time>2026-04-12T09:41:18.01Z</time></trkpt><trkpt lat="43.077081" lon="12.3520385"><ele>265.83333333333337</ele><time>2026-04-12T09:41:20.002Z</time></trkpt><trkpt lat="43.0770015" lon="12.3520927"><ele>266.0</ele><time>2026-04-12T09:41:22.007Z</time></trkpt><trkpt lat="43.0769178" lon="12.3521334"><ele>266.0</ele><time>2026-04-12T09:41:24.007Z</time></trkpt><trkpt lat="43.0768291" lon="12.3521665"><ele>266.0</ele><time>2026-04-12T09:41:26.002Z</time></trkpt><trkpt lat="43.0767457" lon="12.3522254"><ele>266.0</ele><time>2026-04-12T09:41:28.014Z</time></trkpt><trkpt lat="43.076662" lon="12.3522814"><ele>266.0</ele><time>2026-04-12T09:41:30.003Z</time></trkpt><trkpt lat="43.0765543" lon="12.3523794"><ele>266.0</ele><time>2026-04-12T09:41:32.998Z</time></trkpt><trkpt lat="43.0764932" lon="12.3524738"><ele>266.40000000000003</ele><time>2026-04-12T09:41:35.002Z</time></trkpt><trkpt lat="43.0764338" lon="12.352572"><ele>266.8</ele><time>2026-04-12T09:41:37.119Z</time></trkpt><trkpt lat="43.0763776" lon="12.352666"><ele>267.20000000000005</ele><time>2026-04-12T09:41:39.01Z</time></trkpt><trkpt lat="43.0763221" lon="12.3527625"><ele>267.6</ele><time>2026-04-12T09:41:41.002Z</time></trkpt><trkpt lat="43.0762624" lon="12.3528555"><ele>268.0</ele><time>2026-04-12T09:41:43Z</time></trkpt><trkpt lat="43.0762037" lon="12.3529482"><ele>268.3333333333333</ele><time>2026-04-12T09:41:45.002Z</time></trkpt><trkpt lat="43.0761509" lon="12.3530409"><ele>268.66666666666663</ele><time>2026-04-12T09:41:46.997Z</time></trkpt><trkpt lat="43.0760971" lon="12.3531348"><ele>269.0</ele><time>2026-04-12T09:41:49Z</time></trkpt><trkpt lat="43.0760419" lon="12.3532225"><ele>269.3333333333333</ele><time>2026-04-12T09:41:51.002Z</time></trkpt><trkpt lat="43.075975" lon="12.3532901"><ele>269.6666666666667</ele><time>2026-04-12T09:41:53.001Z</time></trkpt><trkpt lat="43.0758904" lon="12.3532908"><ele>270.0</ele><time>2026-04-12T09:41:55.009Z</time></trkpt><trkpt lat="43.0758044" lon="12.3532424"><ele>269.4</ele><time>2026-04-12T09:41:56.998Z</time></trkpt><trkpt lat="43.0757114" lon="12.3531999"><ele>268.8</ele><time>2026-04-12T09:41:59.004Z</time></trkpt><trkpt lat="43.075613" lon="12.3532086"><ele>268.2</ele><time>2026-04-12T09:42:01.014Z</time></trkpt><trkpt lat="43.0755216" lon="12.3533065"><ele>267.6</ele><time>2026-04-12T09:42:03.002Z</time></trkpt><trkpt lat="43.0754495" lon="12.3534069"><ele>267.0</ele><time>2026-04-12T09:42:04.998Z</time></trkpt><trkpt lat="43.0754043" lon="12.353471"><ele>267.0</ele><time>2026-04-12T09:42:05.998Z</time></trkpt><trkpt lat="43.0753786" lon="12.3536346"><ele>267.0</ele><time>2026-04-12T09:42:08.001Z</time></trkpt><trkpt lat="43.0753673" lon="12.3537649"><ele>267.0</ele><time>2026-04-12T09:42:10.003Z</time></trkpt><trkpt lat="43.0753655" lon="12.3538726"><ele>267.0</ele><time>2026-04-12T09:42:11.993Z</time></trkpt><trkpt lat="43.0753619" lon="12.3539685"><ele>267.0</ele><time>2026-04-12T09:42:14.012Z</time></trkpt><trkpt lat="43.0753669" lon="12.3540765"><ele>267.0</ele><time>2026-04-12T09:42:16.001Z</time></trkpt><trkpt lat="43.0753743" lon="12.3541828"><ele>268.0</ele><time>2026-04-12T09:42:18.008Z</time></trkpt><trkpt lat="43.075385" lon="12.3542874"><ele>269.0</ele><time>2026-04-12T09:42:20.001Z</time></trkpt><trkpt lat="43.0753934" lon="12.3543979"><ele>270.0</ele><time>2026-04-12T09:42:22.006Z</time></trkpt><trkpt lat="43.0754011" lon="12.3545121"><ele>271.0</ele><time>2026-04-12T09:42:24.002Z</time></trkpt><trkpt lat="43.0754092" lon="12.354633"><ele>272.0</ele><time>2026-04-12T09:42:25.977Z</time></trkpt><trkpt lat="43.0754053" lon="12.3547422"><ele>273.0</ele><time>2026-04-12T09:42:27.999Z</time></trkpt><trkpt lat="43.0753989" lon="12.3548577"><ele>273.0</ele><time>2026-04-12T09:42:30.01Z</time></trkpt><trkpt lat="43.0753955" lon="12.3549746"><ele>273.0</ele><time>2026-04-12T09:42:32.001Z</time></trkpt><trkpt lat="43.0753928" lon="12.3550939"><ele>273.0</ele><time>2026-04-12T09:42:34.012Z</time></trkpt><trkpt lat="43.0753903" lon="12.3552117"><ele>273.0</ele><time>2026-04-12T09:42:36.001Z</time></trkpt><trkpt lat="43.0753863" lon="12.3553336"><ele>273.0</ele><time>2026-04-12T09:42:37.998Z</time></trkpt><trkpt lat="43.0753871" lon="12.3554603"><ele>273.0</ele><time>2026-04-12T09:42:40Z</time></trkpt><trkpt lat="43.0753899" lon="12.355587"><ele>273.3333333333333</ele><time>2026-04-12T09:42:42.005Z</time></trkpt><trkpt lat="43.0753871" lon="12.3557083"><ele>273.6666666666667</ele><time>2026-04-12T09:42:44.006Z</time></trkpt><trkpt lat="43.075377" lon="12.3558172"><ele>274.0</ele><time>2026-04-12T09:42:45.99Z</time></trkpt><trkpt lat="43.0753748" lon="12.3559397"><ele>274.33333333333337</ele><time>2026-04-12T09:42:47.994Z</time></trkpt><trkpt lat="43.0753803" lon="12.3560637"><ele>274.6666666666667</ele><time>2026-04-12T09:42:50.005Z</time></trkpt><trkpt lat="43.0753847" lon="12.3561848"><ele>275.0</ele><time>2026-04-12T09:42:52.007Z</time></trkpt><trkpt lat="43.0753892" lon="12.3563052"><ele>275.0</ele><time>2026-04-12T09:42:54.009Z</time></trkpt><trkpt lat="43.0753936" lon="12.3564214"><ele>275.0</ele><time>2026-04-12T09:42:56.001Z</time></trkpt><trkpt lat="43.0753948" lon="12.3565416"><ele>275.0</ele><time>2026-04-12T09:42:58.004Z</time></trkpt><trkpt lat="43.0753979" lon="12.3566664"><ele>275.0</ele><time>2026-04-12T09:42:59.999Z</time></trkpt><trkpt lat="43.075396" lon="12.3567889"><ele>275.0</ele><time>2026-04-12T09:43:01.991Z</time></trkpt><trkpt lat="43.075399" lon="12.3569088"><ele>275.0</ele><time>2026-04-12T09:43:04.004Z</time></trkpt><trkpt lat="43.0754015" lon="12.3570273"><ele>275.0</ele><time>2026-04-12T09:43:06Z</time></trkpt><trkpt lat="43.075402" lon="12.3571438"><ele>275.0</ele><time>2026-04-12T09:43:08Z</time></trkpt><trkpt lat="43.0754041" lon="12.3572583"><ele>275.0</ele><time>2026-04-12T09:43:09.984Z</time></trkpt><trkpt lat="43.0754061" lon="12.3573709"><ele>275.0</ele><time>2026-04-12T09:43:11.998Z</time></trkpt><trkpt lat="43.0754081" lon="12.357482"><ele>275.0</ele><time>2026-04-12T09:43:14.001Z</time></trkpt><trkpt lat="43.075416" lon="12.3575936"><ele>275.0</ele><time>2026-04-12T09:43:16.003Z</time></trkpt><trkpt lat="43.0754175" lon="12.3577036"><ele>275.5</ele><time>2026-04-12T09:43:17.997Z</time></trkpt><trkpt lat="43.0754155" lon="12.3578092"><ele>276.0</ele><time>2026-04-12T09:43:20.007Z</time></trkpt><trkpt lat="43.0754232" lon="12.3579147"><ele>276.5</ele><time>2026-04-12T09:43:21.985Z</time></trkpt><trkpt lat="43.0754276" lon="12.3580206"><ele>277.0</ele><time>2026-04-12T09:43:23.995Z</time></trkpt><trkpt lat="43.0754326" lon="12.3581154"><ele>277.5</ele><time>2026-04-12T09:43:26.001Z</time></trkpt><trkpt lat="43.0753759" lon="12.3581951"><ele>278.0</ele><time>2026-04-12T09:43:29.01Z</time></trkpt><trkpt lat="43.0753101" lon="12.3581287"><ele>278.0</ele><time>2026-04-12T09:43:31.01Z</time></trkpt><trkpt lat="43.0752623" lon="12.358004"><ele>278.0</ele><time>2026-04-12T09:43:32.997Z</time></trkpt><trkpt lat="43.0752168" lon="12.3578804"><ele>278.0</ele><time>2026-04-12T09:43:34.998Z</time></trkpt><trkpt lat="43.0751604" lon="12.3577815"><ele>278.0</ele><time>2026-04-12T09:43:36.986Z</time></trkpt><trkpt lat="43.0750947" lon="12.3577025"><ele>278.0</ele><time>2026-04-12T09:43:38.986Z</time></trkpt><trkpt lat="43.0750576" lon="12.3575813"><ele>278.0</ele><time>2026-04-12T09:43:41.01Z</time></trkpt><trkpt lat="43.0750385" lon="12.3574881"><ele>278.0</ele><time>2026-04-12T09:43:42.107Z</time></trkpt><trkpt lat="43.0749812" lon="12.3573591"><ele>278.0</ele><time>2026-04-12T09:43:44.003Z</time></trkpt><trkpt lat="43.0749237" lon="12.3572423"><ele>278.0</ele><time>2026-04-12T09:43:46.019Z</time></trkpt><trkpt lat="43.0748666" lon="12.3571384"><ele>278.0</ele><time>2026-04-12T09:43:48.004Z</time></trkpt><trkpt lat="43.0747937" lon="12.357053"><ele>277.6</ele><time>2026-04-12T09:43:49.992Z</time></trkpt><trkpt lat="43.0747179" lon="12.3569743"><ele>277.20000000000005</ele><time>2026-04-12T09:43:51.998Z</time></trkpt><trkpt lat="43.0746204" lon="12.356902"><ele>276.8</ele><time>2026-04-12T09:43:53.981Z</time></trkpt><trkpt lat="43.0745243" lon="12.3568261"><ele>276.40000000000003</ele><time>2026-04-12T09:43:55.984Z</time></trkpt><trkpt lat="43.0744424" lon="12.3567606"><ele>276.0</ele><time>2026-04-12T09:43:57.987Z</time></trkpt><trkpt lat="43.0743556" lon="12.3566739"><ele>276.0</ele><time>2026-04-12T09:43:59.985Z</time></trkpt><trkpt lat="43.0742783" lon="12.3565887"><ele>276.0</ele><time>2026-04-12T09:44:01.993Z</time></trkpt><trkpt lat="43.0742023" lon="12.3564956"><ele>276.0</ele><time>2026-04-12T09:44:03.984Z</time></trkpt><trkpt lat="43.0741325" lon="12.3564306"><ele>276.0</ele><time>2026-04-12T09:44:05.991Z</time></trkpt><trkpt lat="43.0740549" lon="12.3563362"><ele>276.0</ele><time>2026-04-12T09:44:07.996Z</time></trkpt><trkpt lat="43.073963" lon="12.3563166"><ele>276.6666666666667</ele><time>2026-04-12T09:44:10.016Z</time></trkpt><trkpt lat="43.0738927" lon="12.3563913"><ele>277.3333333333333</ele><time>2026-04-12T09:44:11.996Z</time></trkpt><trkpt lat="43.0738278" lon="12.3564862"><ele>278.0</ele><time>2026-04-12T09:44:14Z</time></trkpt><trkpt lat="43.0737763" lon="12.3565769"><ele>278.66666666666663</ele><time>2026-04-12T09:44:16.003Z</time></trkpt><trkpt lat="43.0737139" lon="12.3566698"><ele>279.3333333333333</ele><time>2026-04-12T09:44:17.984Z</time></trkpt><trkpt lat="43.0736597" lon="12.3567567"><ele>280.0</ele><time>2026-04-12T09:44:20.003Z</time></trkpt><trkpt lat="43.0736091" lon="12.3568345"><ele>280.0</ele><time>2026-04-12T09:44:21.999Z</time></trkpt><trkpt lat="43.0735489" lon="12.3569256"><ele>280.0</ele><time>2026-04-12T09:44:24.004Z</time></trkpt><trkpt lat="43.073496" lon="12.3570174"><ele>280.0</ele><time>2026-04-12T09:44:26.01Z</time></trkpt><trkpt lat="43.0734399" lon="12.3571063"><ele>280.0</ele><time>2026-04-12T09:44:27.997Z</time></trkpt><trkpt lat="43.0733857" lon="12.357202"><ele>280.0</ele><time>2026-04-12T09:44:30.004Z</time></trkpt><trkpt lat="43.07333" lon="12.3572972"><ele>280.0</ele><time>2026-04-12T09:44:31.997Z</time></trkpt><trkpt lat="43.0732762" lon="12.3573926"><ele>280.16666666666663</ele><time>2026-04-12T09:44:34.001Z</time></trkpt><trkpt lat="43.0732216" lon="12.3574805"><ele>280.3333333333333</ele><time>2026-04-12T09:44:36.009Z</time></trkpt><trkpt lat="43.0731626" lon="12.3575718"><ele>280.5</ele><time>2026-04-12T09:44:38.001Z</time></trkpt><trkpt lat="43.0731039" lon="12.3576663"><ele>280.6666666666667</ele><time>2026-04-12T09:44:40.006Z</time></trkpt><trkpt lat="43.073044" lon="12.3577563"><ele>280.83333333333337</ele><time>2026-04-12T09:44:42.003Z</time></trkpt><trkpt lat="43.0729637" lon="12.3577654"><ele>281.0</ele><time>2026-04-12T09:44:44.01Z</time></trkpt><trkpt lat="43.072892" lon="12.3576782"><ele>281.0</ele><time>2026-04-12T09:44:46.008Z</time></trkpt><trkpt lat="43.072826" lon="12.3575839"><ele>281.0</ele><time>2026-04-12T09:44:48.006Z</time></trkpt><trkpt lat="43.0727604" lon="12.3574958"><ele>281.0</ele><time>2026-04-12T09:44:50.004Z</time></trkpt><trkpt lat="43.0726891" lon="12.3574097"><ele>281.0</ele><time>2026-04-12T09:44:52.006Z</time></trkpt><trkpt lat="43.0726146" lon="12.357319"><ele>281.0</ele><time>2026-04-12T09:44:54.011Z</time></trkpt><trkpt lat="43.0725394" lon="12.3572274"><ele>281.0</ele><time>2026-04-12T09:44:56.005Z</time></trkpt><trkpt lat="43.0724648" lon="12.3571419"><ele>281.0</ele><time>2026-04-12T09:44:58.006Z</time></trkpt><trkpt lat="43.07239" lon="12.3570512"><ele>281.0</ele><time>2026-04-12T09:45:00.012Z</time></trkpt><trkpt lat="43.0723161" lon="12.3569663"><ele>281.0</ele><time>2026-04-12T09:45:02.008Z</time></trkpt><trkpt lat="43.0722524" lon="12.3568829"><ele>281.0</ele><time>2026-04-12T09:45:04.002Z</time></trkpt><trkpt lat="43.0721829" lon="12.3567989"><ele>281.0</ele><time>2026-04-12T09:45:06.004Z</time></trkpt><trkpt lat="43.072114" lon="12.356714"><ele>281.0</ele><time>2026-04-12T09:45:08.003Z</time></trkpt><trkpt lat="43.0720679" lon="12.356607"><ele>281.0</ele><time>2026-04-12T09:45:10.007Z</time></trkpt><trkpt lat="43.0720852" lon="12.3564986"><ele>281.0</ele><time>2026-04-12T09:45:12Z</time></trkpt><trkpt lat="43.0721297" lon="12.3563985"><ele>281.0</ele><time>2026-04-12T09:45:14.01Z</time></trkpt><trkpt lat="43.0721878" lon="12.3563135"><ele>281.0</ele><time>2026-04-12T09:45:16.006Z</time></trkpt><trkpt lat="43.0722347" lon="12.356242"><ele>281.28571428571433</ele><time>2026-04-12T09:45:18.005Z</time></trkpt><trkpt lat="43.0722593" lon="12.3561625"><ele>281.57142857142856</ele><time>2026-04-12T09:45:21.012Z</time></trkpt><trkpt lat="43.0722207" lon="12.3560896"><ele>281.8571428571429</ele><time>2026-04-12T09:45:25.005Z</time></trkpt><trkpt lat="43.0721542" lon="12.3560114"><ele>282.14285714285717</ele><time>2026-04-12T09:45:29.007Z</time></trkpt><trkpt lat="43.0721072" lon="12.3559411"><ele>282.42857142857144</ele><time>2026-04-12T09:45:31.001Z</time></trkpt><trkpt lat="43.0720536" lon="12.3558823"><ele>282.7142857142857</ele><time>2026-04-12T09:45:33.108Z</time></trkpt><trkpt lat="43.0719879" lon="12.3558704"><ele>283.0</ele><time>2026-04-12T09:45:35Z</time></trkpt><trkpt lat="43.0719318" lon="12.355922"><ele>283.0</ele><time>2026-04-12T09:45:36.995Z</time></trkpt><trkpt lat="43.0718831" lon="12.3559945"><ele>283.0</ele><time>2026-04-12T09:45:39.109Z</time></trkpt><trkpt lat="43.0718334" lon="12.3560659"><ele>283.0</ele><time>2026-04-12T09:45:41.003Z</time></trkpt><trkpt lat="43.0717846" lon="12.3561473"><ele>283.0</ele><time>2026-04-12T09:45:43.006Z</time></trkpt><trkpt lat="43.0717346" lon="12.3562291"><ele>283.0</ele><time>2026-04-12T09:45:45.002Z</time></trkpt><trkpt lat="43.071672" lon="12.3563238"><ele>283.0</ele><time>2026-04-12T09:45:46.993Z</time></trkpt><trkpt lat="43.071608" lon="12.3564331"><ele>281.75</ele><time>2026-04-12T09:45:49.001Z</time></trkpt><trkpt lat="43.0715371" lon="12.3565468"><ele>280.5</ele><time>2026-04-12T09:45:51.109Z</time></trkpt><trkpt lat="43.0714521" lon="12.3566716"><ele>279.25</ele><time>2026-04-12T09:45:53.004Z</time></trkpt><trkpt lat="43.0713773" lon="12.3567798"><ele>278.0</ele><time>2026-04-12T09:45:55.007Z</time></trkpt><trkpt lat="43.0712838" lon="12.3568753"><ele>278.0</ele><time>2026-04-12T09:45:56.996Z</time></trkpt><trkpt lat="43.0711832" lon="12.356918"><ele>278.0</ele><time>2026-04-12T09:45:58.997Z</time></trkpt><trkpt lat="43.0710724" lon="12.3568962"><ele>278.0</ele><time>2026-04-12T09:46:01.004Z</time></trkpt><trkpt lat="43.0709896" lon="12.3568226"><ele>278.0</ele><time>2026-04-12T09:46:02.999Z</time></trkpt><trkpt lat="43.070924" lon="12.3567435"><ele>278.0</ele><time>2026-04-12T09:46:04.999Z</time></trkpt><trkpt lat="43.0708794" lon="12.3566433"><ele>278.0</ele><time>2026-04-12T09:46:06.996Z</time></trkpt><trkpt lat="43.0708201" lon="12.3565679"><ele>278.0</ele><time>2026-04-12T09:46:09.003Z</time></trkpt><trkpt lat="43.0707645" lon="12.3564989"><ele>278.0</ele><time>2026-04-12T09:46:11.001Z</time></trkpt><trkpt lat="43.0706943" lon="12.3564426"><ele>278.0</ele><time>2026-04-12T09:46:12.993Z</time></trkpt><trkpt lat="43.0706349" lon="12.3563686"><ele>278.0</ele><time>2026-04-12T09:46:15.002Z</time></trkpt><trkpt lat="43.0705902" lon="12.3562918"><ele>278.0</ele><time>2026-04-12T09:46:16.999Z</time></trkpt><trkpt lat="43.070548" lon="12.3562213"><ele>278.4</ele><time>2026-04-12T09:46:18.999Z</time></trkpt><trkpt lat="43.0704977" lon="12.3561389"><ele>278.8</ele><time>2026-04-12T09:46:20.995Z</time></trkpt><trkpt lat="43.0704467" lon="12.3560093"><ele>279.2</ele><time>2026-04-12T09:46:23.009Z</time></trkpt><trkpt lat="43.0703808" lon="12.3559166"><ele>279.6</ele><time>2026-04-12T09:46:24.995Z</time></trkpt><trkpt lat="43.0703142" lon="12.3558377"><ele>280.0</ele><time>2026-04-12T09:46:26.996Z</time></trkpt><trkpt lat="43.070251" lon="12.3557472"><ele>280.0</ele><time>2026-04-12T09:46:29Z</time></trkpt><trkpt lat="43.0701916" lon="12.355646"><ele>280.0</ele><time>2026-04-12T09:46:30.996Z</time></trkpt><trkpt lat="43.0701464" lon="12.3555696"><ele>280.0</ele><time>2026-04-12T09:46:33.01Z</time></trkpt><trkpt lat="43.070074" lon="12.3554729"><ele>280.0</ele><time>2026-04-12T09:46:35.004Z</time></trkpt><trkpt lat="43.0700034" lon="12.3553816"><ele>280.0</ele><time>2026-04-12T09:46:36.997Z</time></trkpt><trkpt lat="43.0699413" lon="12.3553001"><ele>280.2</ele><time>2026-04-12T09:46:38.995Z</time></trkpt><trkpt lat="43.0698816" lon="12.3552245"><ele>280.4</ele><time>2026-04-12T09:46:40.997Z</time></trkpt><trkpt lat="43.0698046" lon="12.3551409"><ele>280.6</ele><time>2026-04-12T09:46:43.005Z</time></trkpt><trkpt lat="43.069738" lon="12.3550605"><ele>280.8</ele><time>2026-04-12T09:46:45.012Z</time></trkpt><trkpt lat="43.0696681" lon="12.354958"><ele>281.0</ele><time>2026-04-12T09:46:47.002Z</time></trkpt><trkpt lat="43.0695967" lon="12.3548539"><ele>281.0</ele><time>2026-04-12T09:46:49.002Z</time></trkpt><trkpt lat="43.0695126" lon="12.3547477"><ele>281.0</ele><time>2026-04-12T09:46:51.012Z</time></trkpt><trkpt lat="43.0694345" lon="12.354638"><ele>281.0</ele><time>2026-04-12T09:46:52.996Z</time></trkpt><trkpt lat="43.0693616" lon="12.3545419"><ele>281.0</ele><time>2026-04-12T09:46:55.003Z</time></trkpt><trkpt lat="43.0692908" lon="12.354452"><ele>281.0</ele><time>2026-04-12T09:46:57.002Z</time></trkpt><trkpt lat="43.069218" lon="12.3543578"><ele>281.2</ele><time>2026-04-12T09:46:58.998Z</time></trkpt><trkpt lat="43.0691662" lon="12.354289"><ele>281.40000000000003</ele><time>2026-04-12T09:46:59.997Z</time></trkpt><trkpt lat="43.0691047" lon="12.3541828"><ele>281.6</ele><time>2026-04-12T09:47:02.01Z</time></trkpt><trkpt lat="43.0690346" lon="12.3540796"><ele>281.8</ele><time>2026-04-12T09:47:04.003Z</time></trkpt><trkpt lat="43.0689603" lon="12.3539946"><ele>282.0</ele><time>2026-04-12T09:47:06.012Z</time></trkpt><trkpt lat="43.0688834" lon="12.3539"><ele>282.75</ele><time>2026-04-12T09:47:08Z</time></trkpt><trkpt lat="43.0688094" lon="12.3537936"><ele>283.5</ele><time>2026-04-12T09:47:10.006Z</time></trkpt><trkpt lat="43.068684" lon="12.3536292"><ele>284.25</ele><time>2026-04-12T09:47:13.01Z</time></trkpt><trkpt lat="43.0686043" lon="12.3535316"><ele>285.0</ele><time>2026-04-12T09:47:15.002Z</time></trkpt><trkpt lat="43.0685231" lon="12.3534234"><ele>285.0</ele><time>2026-04-12T09:47:17Z</time></trkpt><trkpt lat="43.0684551" lon="12.3533202"><ele>285.0</ele><time>2026-04-12T09:47:19.001Z</time></trkpt><trkpt lat="43.0683755" lon="12.3532167"><ele>285.0</ele><time>2026-04-12T09:47:21Z</time></trkpt><trkpt lat="43.0682919" lon="12.3531147"><ele>285.0</ele><time>2026-04-12T09:47:23.003Z</time></trkpt><trkpt lat="43.0682085" lon="12.3530043"><ele>285.0</ele><time>2026-04-12T09:47:24.994Z</time></trkpt><trkpt lat="43.068135" lon="12.3528982"><ele>285.0</ele><time>2026-04-12T09:47:27.004Z</time></trkpt><trkpt lat="43.0680598" lon="12.352801"><ele>285.0</ele><time>2026-04-12T09:47:29.001Z</time></trkpt><trkpt lat="43.0679846" lon="12.3527033"><ele>285.0</ele><time>2026-04-12T09:47:30.987Z</time></trkpt><trkpt lat="43.067905" lon="12.3525977"><ele>285.0</ele><time>2026-04-12T09:47:33.004Z</time></trkpt><trkpt lat="43.0678284" lon="12.3524993"><ele>285.0</ele><time>2026-04-12T09:47:35Z</time></trkpt><trkpt lat="43.0677535" lon="12.3524007"><ele>285.0</ele><time>2026-04-12T09:47:36.998Z</time></trkpt><trkpt lat="43.0676726" lon="12.3523026"><ele>285.0</ele><time>2026-04-12T09:47:39.001Z</time></trkpt><trkpt lat="43.0675944" lon="12.3521981"><ele>285.0</ele><time>2026-04-12T09:47:41.008Z</time></trkpt><trkpt lat="43.0675205" lon="12.3520918"><ele>285.0</ele><time>2026-04-12T09:47:43.005Z</time></trkpt><trkpt lat="43.067443" lon="12.3519871"><ele>285.0</ele><time>2026-04-12T09:47:45.003Z</time></trkpt><trkpt lat="43.0673648" lon="12.351888"><ele>284.6</ele><time>2026-04-12T09:47:47.017Z</time></trkpt><trkpt lat="43.0672847" lon="12.3517882"><ele>284.2</ele><time>2026-04-12T09:47:48.999Z</time></trkpt><trkpt lat="43.0672157" lon="12.3516839"><ele>283.8</ele><time>2026-04-12T09:47:51.015Z</time></trkpt><trkpt lat="43.067137" lon="12.3515796"><ele>283.4</ele><time>2026-04-12T09:47:52.986Z</time></trkpt><trkpt lat="43.0670677" lon="12.3514826"><ele>283.0</ele><time>2026-04-12T09:47:54.995Z</time></trkpt><trkpt lat="43.0670024" lon="12.3513905"><ele>282.8333333333333</ele><time>2026-04-12T09:47:56.993Z</time></trkpt><trkpt lat="43.0669163" lon="12.3512706"><ele>282.66666666666663</ele><time>2026-04-12T09:47:59.994Z</time></trkpt><trkpt lat="43.0668726" lon="12.3511947"><ele>282.5</ele><time>2026-04-12T09:48:01.999Z</time></trkpt><trkpt lat="43.0668419" lon="12.351096"><ele>282.3333333333333</ele><time>2026-04-12T09:48:05.985Z</time></trkpt><trkpt lat="43.0668042" lon="12.3510051"><ele>282.1666666666667</ele><time>2026-04-12T09:48:08.986Z</time></trkpt><trkpt lat="43.0667304" lon="12.3509496"><ele>282.0</ele><time>2026-04-12T09:48:11.995Z</time></trkpt><trkpt lat="43.0666764" lon="12.3508685"><ele>282.0</ele><time>2026-04-12T09:48:13.981Z</time></trkpt><trkpt lat="43.0666145" lon="12.3507882"><ele>282.0</ele><time>2026-04-12T09:48:15.986Z</time></trkpt><trkpt lat="43.0665574" lon="12.3507013"><ele>282.0</ele><time>2026-04-12T09:48:17.986Z</time></trkpt><trkpt lat="43.0665039" lon="12.3506072"><ele>282.0</ele><time>2026-04-12T09:48:19.983Z</time></trkpt><trkpt lat="43.0664443" lon="12.3505194"><ele>282.0</ele><time>2026-04-12T09:48:21.996Z</time></trkpt><trkpt lat="43.0663855" lon="12.3504399"><ele>282.0</ele><time>2026-04-12T09:48:23.993Z</time></trkpt><trkpt lat="43.066325" lon="12.3503612"><ele>281.8333333333333</ele><time>2026-04-12T09:48:26.018Z</time></trkpt><trkpt lat="43.0662685" lon="12.3502837"><ele>281.6666666666667</ele><time>2026-04-12T09:48:27.984Z</time></trkpt><trkpt lat="43.0662077" lon="12.3501979"><ele>281.5</ele><time>2026-04-12T09:48:30.003Z</time></trkpt><trkpt lat="43.0661449" lon="12.3501133"><ele>281.33333333333337</ele><time>2026-04-12T09:48:31.995Z</time></trkpt><trkpt lat="43.0660778" lon="12.3500269"><ele>281.1666666666667</ele><time>2026-04-12T09:48:34.005Z</time></trkpt><trkpt lat="43.0660114" lon="12.3499456"><ele>281.0</ele><time>2026-04-12T09:48:36Z</time></trkpt><trkpt lat="43.0659445" lon="12.349853"><ele>281.0</ele><time>2026-04-12T09:48:38.004Z</time></trkpt><trkpt lat="43.065885" lon="12.3497526"><ele>281.0</ele><time>2026-04-12T09:48:40.01Z</time></trkpt><trkpt lat="43.0658259" lon="12.3496627"><ele>281.0</ele><time>2026-04-12T09:48:42.001Z</time></trkpt><trkpt lat="43.0657548" lon="12.3495651"><ele>281.0</ele><time>2026-04-12T09:48:43.994Z</time></trkpt><trkpt lat="43.0656892" lon="12.3494696"><ele>281.0</ele><time>2026-04-12T09:48:46.004Z</time></trkpt><trkpt lat="43.065618" lon="12.3493885"><ele>280.8</ele><time>2026-04-12T09:48:48Z</time></trkpt><trkpt lat="43.0655379" lon="12.3492947"><ele>280.6</ele><time>2026-04-12T09:48:50.005Z</time></trkpt><trkpt lat="43.0654755" lon="12.3491967"><ele>280.4</ele><time>2026-04-12T09:48:52.008Z</time></trkpt><trkpt lat="43.0654033" lon="12.3491098"><ele>280.2</ele><time>2026-04-12T09:48:54Z</time></trkpt><trkpt lat="43.0653404" lon="12.3490149"><ele>280.0</ele><time>2026-04-12T09:48:56.008Z</time></trkpt><trkpt lat="43.0652789" lon="12.3489257"><ele>280.0</ele><time>2026-04-12T09:48:58.002Z</time></trkpt><trkpt lat="43.0652161" lon="12.3488356"><ele>280.0</ele><time>2026-04-12T09:49:00.012Z</time></trkpt><trkpt lat="43.0651446" lon="12.348746"><ele>280.0</ele><time>2026-04-12T09:49:01.993Z</time></trkpt><trkpt lat="43.0650809" lon="12.3486524"><ele>280.0</ele><time>2026-04-12T09:49:03.988Z</time></trkpt><trkpt lat="43.0650005" lon="12.3485479"><ele>280.0</ele><time>2026-04-12T09:49:06.01Z</time></trkpt><trkpt lat="43.0649276" lon="12.348461"><ele>280.0</ele><time>2026-04-12T09:49:08.001Z</time></trkpt><trkpt lat="43.0648512" lon="12.3483698"><ele>280.0</ele><time>2026-04-12T09:49:09.994Z</time></trkpt><trkpt lat="43.0647827" lon="12.3482781"><ele>280.0</ele><time>2026-04-12T09:49:12.002Z</time></trkpt><trkpt lat="43.0647111" lon="12.3481892"><ele>280.0</ele><time>2026-04-12T09:49:13.997Z</time></trkpt><trkpt lat="43.0646472" lon="12.3480885"><ele>280.0</ele><time>2026-04-12T09:49:15.999Z</time></trkpt><trkpt lat="43.0645779" lon="12.347999"><ele>280.2</ele><time>2026-04-12T09:49:18Z</time></trkpt><trkpt lat="43.0645116" lon="12.3479069"><ele>280.4</ele><time>2026-04-12T09:49:19.997Z</time></trkpt><trkpt lat="43.0644461" lon="12.3478065"><ele>280.6</ele><time>2026-04-12T09:49:22.005Z</time></trkpt><trkpt lat="43.0643868" lon="12.3477124"><ele>280.8</ele><time>2026-04-12T09:49:24.01Z</time></trkpt><trkpt lat="43.0643236" lon="12.3476302"><ele>281.0</ele><time>2026-04-12T09:49:26.112Z</time></trkpt><trkpt lat="43.0642469" lon="12.3475448"><ele>281.0</ele><time>2026-04-12T09:49:28.01Z</time></trkpt><trkpt lat="43.0641912" lon="12.347461"><ele>281.0</ele><time>2026-04-12T09:49:30Z</time></trkpt><trkpt lat="43.0641378" lon="12.3473759"><ele>281.0</ele><time>2026-04-12T09:49:32.005Z</time></trkpt><trkpt lat="43.0640635" lon="12.3472785"><ele>281.0</ele><time>2026-04-12T09:49:33.999Z</time></trkpt><trkpt lat="43.0639982" lon="12.3471842"><ele>281.0</ele><time>2026-04-12T09:49:36Z</time></trkpt><trkpt lat="43.0639359" lon="12.3470927"><ele>280.40000000000003</ele><time>2026-04-12T09:49:38.015Z</time></trkpt><trkpt lat="43.0638682" lon="12.3469968"><ele>279.8</ele><time>2026-04-12T09:49:40.001Z</time></trkpt><trkpt lat="43.0638127" lon="12.3469202"><ele>279.20000000000005</ele><time>2026-04-12T09:49:41.995Z</time></trkpt><trkpt lat="43.0637477" lon="12.3468323"><ele>278.6</ele><time>2026-04-12T09:49:44.008Z</time></trkpt><trkpt lat="43.0636874" lon="12.3467286"><ele>278.0</ele><time>2026-04-12T09:49:45.997Z</time></trkpt><trkpt lat="43.0636208" lon="12.3466483"><ele>278.0</ele><time>2026-04-12T09:49:48.001Z</time></trkpt><trkpt lat="43.0635589" lon="12.3465585"><ele>278.0</ele><time>2026-04-12T09:49:49.999Z</time></trkpt><trkpt lat="43.0634929" lon="12.3464585"><ele>278.0</ele><time>2026-04-12T09:49:52.007Z</time></trkpt><trkpt lat="43.0634232" lon="12.3463739"><ele>278.0</ele><time>2026-04-12T09:49:53.998Z</time></trkpt><trkpt lat="43.0633196" lon="12.3462434"><ele>278.0</ele><time>2026-04-12T09:49:56.994Z</time></trkpt><trkpt lat="43.0632544" lon="12.346154"><ele>278.4</ele><time>2026-04-12T09:49:59Z</time></trkpt><trkpt lat="43.0631989" lon="12.3460648"><ele>278.8</ele><time>2026-04-12T09:50:01.003Z</time></trkpt><trkpt lat="43.0631375" lon="12.3459704"><ele>279.2</ele><time>2026-04-12T09:50:03.007Z</time></trkpt><trkpt lat="43.0630736" lon="12.3458821"><ele>279.6</ele><time>2026-04-12T09:50:05.005Z</time></trkpt><trkpt lat="43.0630042" lon="12.3457956"><ele>280.0</ele><time>2026-04-12T09:50:06.994Z</time></trkpt><trkpt lat="43.0629344" lon="12.3457016"><ele>280.0</ele><time>2026-04-12T09:50:09.003Z</time></trkpt><trkpt lat="43.0628644" lon="12.345606"><ele>280.0</ele><time>2026-04-12T09:50:11.006Z</time></trkpt><trkpt lat="43.0627654" lon="12.3454627"><ele>280.0</ele><time>2026-04-12T09:50:13.996Z</time></trkpt><trkpt lat="43.0626961" lon="12.3453727"><ele>280.0</ele><time>2026-04-12T09:50:16.001Z</time></trkpt><trkpt lat="43.0626182" lon="12.3452721"><ele>280.0</ele><time>2026-04-12T09:50:18.001Z</time></trkpt><trkpt lat="43.0625396" lon="12.3451558"><ele>280.0</ele><time>2026-04-12T09:50:20.007Z</time></trkpt><trkpt lat="43.0624656" lon="12.3450608"><ele>280.0</ele><time>2026-04-12T09:50:22Z</time></trkpt><trkpt lat="43.0623818" lon="12.3449549"><ele>280.0</ele><time>2026-04-12T09:50:24.012Z</time></trkpt><trkpt lat="43.0623012" lon="12.344857"><ele>280.0</ele><time>2026-04-12T09:50:26.006Z</time></trkpt><trkpt lat="43.0622325" lon="12.3447589"><ele>280.0</ele><time>2026-04-12T09:50:28.004Z</time></trkpt><trkpt lat="43.0621641" lon="12.3446716"><ele>280.0</ele><time>2026-04-12T09:50:29.999Z</time></trkpt><trkpt lat="43.062092" lon="12.3445748"><ele>280.0</ele><time>2026-04-12T09:50:32.001Z</time></trkpt><trkpt lat="43.0620235" lon="12.3444776"><ele>280.0</ele><time>2026-04-12T09:50:33.997Z</time></trkpt><trkpt lat="43.0619496" lon="12.3443773"><ele>280.0</ele><time>2026-04-12T09:50:35.996Z</time></trkpt><trkpt lat="43.0618821" lon="12.3442849"><ele>280.0</ele><time>2026-04-12T09:50:37.999Z</time></trkpt><trkpt lat="43.0618012" lon="12.3441792"><ele>280.0</ele><time>2026-04-12T09:50:40.102Z</time></trkpt><trkpt lat="43.0617344" lon="12.3440781"><ele>280.0</ele><time>2026-04-12T09:50:42.013Z</time></trkpt><trkpt lat="43.0616627" lon="12.3439862"><ele>280.0</ele><time>2026-04-12T09:50:44.002Z</time></trkpt><trkpt lat="43.0615907" lon="12.3438813"><ele>280.0</ele><time>2026-04-12T09:50:46.107Z</time></trkpt><trkpt lat="43.0615268" lon="12.3437855"><ele>280.0</ele><time>2026-04-12T09:50:48.007Z</time></trkpt><trkpt lat="43.0614552" lon="12.3436894"><ele>280.0</ele><time>2026-04-12T09:50:50.006Z</time></trkpt><trkpt lat="43.0613809" lon="12.3435955"><ele>280.0</ele><time>2026-04-12T09:50:51.999Z</time></trkpt><trkpt lat="43.0613043" lon="12.3434943"><ele>280.0</ele><time>2026-04-12T09:50:53.998Z</time></trkpt><trkpt lat="43.0612394" lon="12.3433773"><ele>280.0</ele><time>2026-04-12T09:50:55.997Z</time></trkpt><trkpt lat="43.0611799" lon="12.3432864"><ele>280.0</ele><time>2026-04-12T09:50:57.997Z</time></trkpt><trkpt lat="43.0611106" lon="12.3431887"><ele>280.0</ele><time>2026-04-12T09:51:00.004Z</time></trkpt><trkpt lat="43.0610521" lon="12.3430972"><ele>280.0</ele><time>2026-04-12T09:51:01.996Z</time></trkpt><trkpt lat="43.0609811" lon="12.3430039"><ele>280.0</ele><time>2026-04-12T09:51:04.001Z</time></trkpt><trkpt lat="43.0609" lon="12.3429059"><ele>280.0</ele><time>2026-04-12T09:51:05.997Z</time></trkpt><trkpt lat="43.0608366" lon="12.342795"><ele>280.0</ele><time>2026-04-12T09:51:07.999Z</time></trkpt><trkpt lat="43.0607672" lon="12.342705"><ele>280.4</ele><time>2026-04-12T09:51:10.013Z</time></trkpt><trkpt lat="43.0606911" lon="12.3426068"><ele>280.8</ele><time>2026-04-12T09:51:12.009Z</time></trkpt><trkpt lat="43.0606256" lon="12.3425061"><ele>281.2</ele><time>2026-04-12T09:51:13.995Z</time></trkpt><trkpt lat="43.0605586" lon="12.3424091"><ele>281.6</ele><time>2026-04-12T09:51:16.005Z</time></trkpt><trkpt lat="43.0604893" lon="12.3423131"><ele>282.0</ele><time>2026-04-12T09:51:18.011Z</time></trkpt><trkpt lat="43.0604296" lon="12.3422106"><ele>282.0</ele><time>2026-04-12T09:51:19.998Z</time></trkpt><trkpt lat="43.0603683" lon="12.3421132"><ele>282.0</ele><time>2026-04-12T09:51:22.007Z</time></trkpt><trkpt lat="43.0602905" lon="12.3420221"><ele>282.0</ele><time>2026-04-12T09:51:24.002Z</time></trkpt><trkpt lat="43.0602294" lon="12.3419161"><ele>282.0</ele><time>2026-04-12T09:51:26.004Z</time></trkpt><trkpt lat="43.060158" lon="12.3418219"><ele>282.0</ele><time>2026-04-12T09:51:27.992Z</time></trkpt><trkpt lat="43.0600829" lon="12.3417328"><ele>282.0</ele><time>2026-04-12T09:51:30.003Z</time></trkpt><trkpt lat="43.0600151" lon="12.3416345"><ele>282.0</ele><time>2026-04-12T09:51:31.996Z</time></trkpt><trkpt lat="43.0599535" lon="12.3415469"><ele>282.0</ele><time>2026-04-12T09:51:34.007Z</time></trkpt><trkpt lat="43.0598934" lon="12.341445"><ele>282.0</ele><time>2026-04-12T09:51:36.008Z</time></trkpt><trkpt lat="43.0598186" lon="12.341338"><ele>282.0</ele><time>2026-04-12T09:51:37.999Z</time></trkpt><trkpt lat="43.0597533" lon="12.3412455"><ele>281.2</ele><time>2026-04-12T09:51:40.008Z</time></trkpt><trkpt lat="43.0596933" lon="12.3411426"><ele>280.4</ele><time>2026-04-12T09:51:42.001Z</time></trkpt><trkpt lat="43.0596367" lon="12.3410329"><ele>279.6</ele><time>2026-04-12T09:51:44.004Z</time></trkpt><trkpt lat="43.0595717" lon="12.3409246"><ele>278.8</ele><time>2026-04-12T09:51:46.011Z</time></trkpt><trkpt lat="43.0595147" lon="12.3408173"><ele>278.0</ele><time>2026-04-12T09:51:48Z</time></trkpt><trkpt lat="43.0594521" lon="12.3407167"><ele>278.0</ele><time>2026-04-12T09:51:50.107Z</time></trkpt><trkpt lat="43.0594" lon="12.3406054"><ele>278.0</ele><time>2026-04-12T09:51:52Z</time></trkpt><trkpt lat="43.0593425" lon="12.3405015"><ele>278.0</ele><time>2026-04-12T09:51:54.006Z</time></trkpt><trkpt lat="43.0592804" lon="12.3403987"><ele>278.0</ele><time>2026-04-12T09:51:56.002Z</time></trkpt><trkpt lat="43.0592148" lon="12.3402944"><ele>278.0</ele><time>2026-04-12T09:51:58.001Z</time></trkpt><trkpt lat="43.0591483" lon="12.3401846"><ele>277.4</ele><time>2026-04-12T09:52:00.003Z</time></trkpt><trkpt lat="43.0590844" lon="12.3400799"><ele>276.8</ele><time>2026-04-12T09:52:02.006Z</time></trkpt><trkpt lat="43.0590145" lon="12.3399594"><ele>276.2</ele><time>2026-04-12T09:52:04.001Z</time></trkpt><trkpt lat="43.0589529" lon="12.339847"><ele>275.6</ele><time>2026-04-12T09:52:06.01Z</time></trkpt><trkpt lat="43.0588844" lon="12.3397534"><ele>275.0</ele><time>2026-04-12T09:52:08.007Z</time></trkpt><trkpt lat="43.0588176" lon="12.3396426"><ele>275.0</ele><time>2026-04-12T09:52:10.01Z</time></trkpt><trkpt lat="43.0587568" lon="12.339524"><ele>275.0</ele><time>2026-04-12T09:52:12.001Z</time></trkpt><trkpt lat="43.058697" lon="12.339407"><ele>275.0</ele><time>2026-04-12T09:52:13.997Z</time></trkpt><trkpt lat="43.0586388" lon="12.3392981"><ele>275.0</ele><time>2026-04-12T09:52:16.005Z</time></trkpt><trkpt lat="43.058581" lon="12.3391836"><ele>275.0</ele><time>2026-04-12T09:52:17.981Z</time></trkpt><trkpt lat="43.0585153" lon="12.3390671"><ele>275.0</ele><time>2026-04-12T09:52:19.997Z</time></trkpt><trkpt lat="43.0584504" lon="12.3389625"><ele>275.0</ele><time>2026-04-12T09:52:21.986Z</time></trkpt><trkpt lat="43.0583832" lon="12.3388559"><ele>275.0</ele><time>2026-04-12T09:52:23.987Z</time></trkpt><trkpt lat="43.0583133" lon="12.3387485"><ele>275.0</ele><time>2026-04-12T09:52:25.987Z</time></trkpt><trkpt lat="43.0582506" lon="12.3386375"><ele>275.0</ele><time>2026-04-12T09:52:27.984Z</time></trkpt><trkpt lat="43.0581881" lon="12.3385393"><ele>274.6</ele><time>2026-04-12T09:52:29.988Z</time></trkpt><trkpt lat="43.0581185" lon="12.3384404"><ele>274.2</ele><time>2026-04-12T09:52:31.998Z</time></trkpt><trkpt lat="43.058047" lon="12.3383436"><ele>273.8</ele><time>2026-04-12T09:52:34.006Z</time></trkpt><trkpt lat="43.0579763" lon="12.3382376"><ele>273.4</ele><time>2026-04-12T09:52:36.001Z</time></trkpt><trkpt lat="43.057907" lon="12.3381368"><ele>273.0</ele><time>2026-04-12T09:52:38.011Z</time></trkpt><trkpt lat="43.0578357" lon="12.3380535"><ele>273.8</ele><time>2026-04-12T09:52:40.001Z</time></trkpt><trkpt lat="43.0577582" lon="12.3379632"><ele>274.6</ele><time>2026-04-12T09:52:41.997Z</time></trkpt><trkpt lat="43.0577085" lon="12.3378972"><ele>275.4</ele><time>2026-04-12T09:52:43.011Z</time></trkpt><trkpt lat="43.0576528" lon="12.3378106"><ele>276.2</ele><time>2026-04-12T09:52:45.006Z</time></trkpt><trkpt lat="43.0575843" lon="12.3377108"><ele>277.0</ele><time>2026-04-12T09:52:46.996Z</time></trkpt><trkpt lat="43.0575124" lon="12.3376182"><ele>276.6</ele><time>2026-04-12T09:52:49.003Z</time></trkpt><trkpt lat="43.0574423" lon="12.3375274"><ele>276.2</ele><time>2026-04-12T09:52:50.995Z</time></trkpt><trkpt lat="43.0573717" lon="12.3374455"><ele>275.8</ele><time>2026-04-12T09:52:53Z</time></trkpt><trkpt lat="43.0573011" lon="12.3373738"><ele>275.4</ele><time>2026-04-12T09:52:55.013Z</time></trkpt><trkpt lat="43.0572394" lon="12.3372917"><ele>275.0</ele><time>2026-04-12T09:52:57.003Z</time></trkpt><trkpt lat="43.0571654" lon="12.3372052"><ele>275.83333333333337</ele><time>2026-04-12T09:52:59Z</time></trkpt><trkpt lat="43.0571018" lon="12.3371314"><ele>276.6666666666667</ele><time>2026-04-12T09:53:01.007Z</time></trkpt><trkpt lat="43.0570368" lon="12.3370503"><ele>277.5</ele><time>2026-04-12T09:53:03.001Z</time></trkpt><trkpt lat="43.0569681" lon="12.3369682"><ele>278.3333333333333</ele><time>2026-04-12T09:53:05.004Z</time></trkpt><trkpt lat="43.0568986" lon="12.3368963"><ele>279.16666666666663</ele><time>2026-04-12T09:53:06.995Z</time></trkpt><trkpt lat="43.0568289" lon="12.3368198"><ele>280.0</ele><time>2026-04-12T09:53:09.01Z</time></trkpt><trkpt lat="43.0567583" lon="12.3367467"><ele>280.0</ele><time>2026-04-12T09:53:11.01Z</time></trkpt><trkpt lat="43.0566897" lon="12.3366736"><ele>280.0</ele><time>2026-04-12T09:53:12.987Z</time></trkpt><trkpt lat="43.0566211" lon="12.3366081"><ele>280.0</ele><time>2026-04-12T09:53:14.992Z</time></trkpt><trkpt lat="43.0565462" lon="12.3365415"><ele>280.0</ele><time>2026-04-12T09:53:16.991Z</time></trkpt><trkpt lat="43.0564774" lon="12.3364748"><ele>280.0</ele><time>2026-04-12T09:53:19.007Z</time></trkpt><trkpt lat="43.0564145" lon="12.33641"><ele>280.0</ele><time>2026-04-12T09:53:20.998Z</time></trkpt><trkpt lat="43.0563521" lon="12.3363424"><ele>280.5</ele><time>2026-04-12T09:53:23.091Z</time></trkpt><trkpt lat="43.0562922" lon="12.3362799"><ele>281.0</ele><time>2026-04-12T09:53:25.007Z</time></trkpt><trkpt lat="43.0562289" lon="12.3362184"><ele>281.5</ele><time>2026-04-12T09:53:26.996Z</time></trkpt><trkpt lat="43.056168" lon="12.3361573"><ele>282.0</ele><time>2026-04-12T09:53:28.996Z</time></trkpt><trkpt lat="43.056105" lon="12.3360965"><ele>282.5</ele><time>2026-04-12T09:53:31.007Z</time></trkpt><trkpt lat="43.0560398" lon="12.3360338"><ele>283.0</ele><time>2026-04-12T09:53:33.002Z</time></trkpt><trkpt lat="43.0559791" lon="12.3359594"><ele>283.0</ele><time>2026-04-12T09:53:35.099Z</time></trkpt><trkpt lat="43.05593" lon="12.3358704"><ele>283.0</ele><time>2026-04-12T09:53:36.995Z</time></trkpt><trkpt lat="43.0558753" lon="12.3357875"><ele>283.0</ele><time>2026-04-12T09:53:38.999Z</time></trkpt><trkpt lat="43.055803" lon="12.3357334"><ele>283.0</ele><time>2026-04-12T09:53:41.003Z</time></trkpt><trkpt lat="43.0557292" lon="12.3356945"><ele>283.0</ele><time>2026-04-12T09:53:42.998Z</time></trkpt><trkpt lat="43.0556626" lon="12.3356313"><ele>283.0</ele><time>2026-04-12T09:53:45.001Z</time></trkpt><trkpt lat="43.0555974" lon="12.3355611"><ele>283.3333333333333</ele><time>2026-04-12T09:53:46.994Z</time></trkpt><trkpt lat="43.0555356" lon="12.3354834"><ele>283.66666666666663</ele><time>2026-04-12T09:53:48.997Z</time></trkpt><trkpt lat="43.0554745" lon="12.3354042"><ele>284.0</ele><time>2026-04-12T09:53:51.005Z</time></trkpt><trkpt lat="43.0554121" lon="12.33533"><ele>284.3333333333333</ele><time>2026-04-12T09:53:53.002Z</time></trkpt><trkpt lat="43.0553503" lon="12.3352625"><ele>284.6666666666667</ele><time>2026-04-12T09:53:55.003Z</time></trkpt><trkpt lat="43.0552902" lon="12.3351937"><ele>285.0</ele><time>2026-04-12T09:53:56.995Z</time></trkpt><trkpt lat="43.055224" lon="12.3351238"><ele>285.0</ele><time>2026-04-12T09:53:58.993Z</time></trkpt><trkpt lat="43.0551628" lon="12.335059"><ele>285.0</ele><time>2026-04-12T09:54:01Z</time></trkpt><trkpt lat="43.0550958" lon="12.3349911"><ele>285.0</ele><time>2026-04-12T09:54:02.99Z</time></trkpt><trkpt lat="43.0550325" lon="12.334916"><ele>285.0</ele><time>2026-04-12T09:54:05.001Z</time></trkpt><trkpt lat="43.0549709" lon="12.3348437"><ele>285.0</ele><time>2026-04-12T09:54:06.993Z</time></trkpt><trkpt lat="43.0549117" lon="12.3347709"><ele>285.0</ele><time>2026-04-12T09:54:08.998Z</time></trkpt><trkpt lat="43.0548548" lon="12.3346921"><ele>285.5</ele><time>2026-04-12T09:54:11.004Z</time></trkpt><trkpt lat="43.0547939" lon="12.3346161"><ele>286.0</ele><time>2026-04-12T09:54:13.006Z</time></trkpt><trkpt lat="43.0547302" lon="12.3345385"><ele>286.5</ele><time>2026-04-12T09:54:15.009Z</time></trkpt><trkpt lat="43.0546641" lon="12.3344552"><ele>287.0</ele><time>2026-04-12T09:54:16.995Z</time></trkpt><trkpt lat="43.0546031" lon="12.3343716"><ele>287.5</ele><time>2026-04-12T09:54:18.999Z</time></trkpt><trkpt lat="43.0545398" lon="12.3342786"><ele>288.0</ele><time>2026-04-12T09:54:20.997Z</time></trkpt><trkpt lat="43.0544722" lon="12.3341899"><ele>288.0</ele><time>2026-04-12T09:54:23.012Z</time></trkpt><trkpt lat="43.054402" lon="12.334098"><ele>288.0</ele><time>2026-04-12T09:54:25Z</time></trkpt><trkpt lat="43.0543295" lon="12.334018"><ele>288.0</ele><time>2026-04-12T09:54:26.998Z</time></trkpt><trkpt lat="43.0542607" lon="12.333927"><ele>288.0</ele><time>2026-04-12T09:54:29.002Z</time></trkpt><trkpt lat="43.0541913" lon="12.333834"><ele>288.0</ele><time>2026-04-12T09:54:31.006Z</time></trkpt><trkpt lat="43.0541193" lon="12.3337385"><ele>288.2</ele><time>2026-04-12T09:54:33.007Z</time></trkpt><trkpt lat="43.0540537" lon="12.3336479"><ele>288.4</ele><time>2026-04-12T09:54:34.998Z</time></trkpt><trkpt lat="43.0539856" lon="12.333561"><ele>288.59999999999997</ele><time>2026-04-12T09:54:37.001Z</time></trkpt><trkpt lat="43.053929" lon="12.3334654"><ele>288.8</ele><time>2026-04-12T09:54:39.003Z</time></trkpt><trkpt lat="43.0538653" lon="12.3333778"><ele>289.0</ele><time>2026-04-12T09:54:41.011Z</time></trkpt><trkpt lat="43.053798" lon="12.3332961"><ele>289.0</ele><time>2026-04-12T09:54:43.003Z</time></trkpt><trkpt lat="43.0537342" lon="12.3332104"><ele>289.0</ele><time>2026-04-12T09:54:45.004Z</time></trkpt><trkpt lat="43.0536821" lon="12.3331409"><ele>289.0</ele><time>2026-04-12T09:54:46.992Z</time></trkpt><trkpt lat="43.05362" lon="12.3330608"><ele>289.0</ele><time>2026-04-12T09:54:49.006Z</time></trkpt><trkpt lat="43.0535554" lon="12.3329813"><ele>289.0</ele><time>2026-04-12T09:54:51.012Z</time></trkpt><trkpt lat="43.0534924" lon="12.3329026"><ele>289.0</ele><time>2026-04-12T09:54:53.005Z</time></trkpt><trkpt lat="43.0534246" lon="12.3328226"><ele>288.8333333333333</ele><time>2026-04-12T09:54:54.996Z</time></trkpt><trkpt lat="43.0533583" lon="12.3327392"><ele>288.66666666666663</ele><time>2026-04-12T09:54:56.996Z</time></trkpt><trkpt lat="43.0532939" lon="12.3326595"><ele>288.5</ele><time>2026-04-12T09:54:58.994Z</time></trkpt><trkpt lat="43.0532395" lon="12.3325807"><ele>288.3333333333333</ele><time>2026-04-12T09:55:00.987Z</time></trkpt><trkpt lat="43.053186" lon="12.3324984"><ele>288.1666666666667</ele><time>2026-04-12T09:55:02.998Z</time></trkpt><trkpt lat="43.0531319" lon="12.3324253"><ele>288.0</ele><time>2026-04-12T09:55:05.005Z</time></trkpt><trkpt lat="43.0530744" lon="12.3323487"><ele>289.3333333333333</ele><time>2026-04-12T09:55:06.998Z</time></trkpt><trkpt lat="43.0530144" lon="12.3322709"><ele>290.6666666666667</ele><time>2026-04-12T09:55:09.004Z</time></trkpt><trkpt lat="43.0529577" lon="12.3321931"><ele>292.0</ele><time>2026-04-12T09:55:11.003Z</time></trkpt><trkpt lat="43.0528956" lon="12.3321028"><ele>293.33333333333337</ele><time>2026-04-12T09:55:13.002Z</time></trkpt><trkpt lat="43.0528301" lon="12.3320143"><ele>294.6666666666667</ele><time>2026-04-12T09:55:15.01Z</time></trkpt><trkpt lat="43.0527688" lon="12.331928"><ele>296.0</ele><time>2026-04-12T09:55:16.996Z</time></trkpt><trkpt lat="43.052714" lon="12.3318512"><ele>296.0</ele><time>2026-04-12T09:55:19Z</time></trkpt><trkpt lat="43.0526575" lon="12.3317728"><ele>296.0</ele><time>2026-04-12T09:55:20.994Z</time></trkpt><trkpt lat="43.0525956" lon="12.331689"><ele>296.0</ele><time>2026-04-12T09:55:22.988Z</time></trkpt><trkpt lat="43.0525338" lon="12.3316078"><ele>296.0</ele><time>2026-04-12T09:55:25.007Z</time></trkpt><trkpt lat="43.0524753" lon="12.3315265"><ele>296.0</ele><time>2026-04-12T09:55:26.995Z</time></trkpt><trkpt lat="43.0524177" lon="12.3314493"><ele>296.0</ele><time>2026-04-12T09:55:29.005Z</time></trkpt><trkpt lat="43.0523616" lon="12.3313687"><ele>296.2857142857143</ele><time>2026-04-12T09:55:30.997Z</time></trkpt><trkpt lat="43.0523136" lon="12.331296"><ele>296.57142857142856</ele><time>2026-04-12T09:55:32.995Z</time></trkpt><trkpt lat="43.0522633" lon="12.3312237"><ele>296.85714285714283</ele><time>2026-04-12T09:55:34.992Z</time></trkpt><trkpt lat="43.0522166" lon="12.331147"><ele>297.1428571428571</ele><time>2026-04-12T09:55:37.004Z</time></trkpt><trkpt lat="43.0521726" lon="12.3310766"><ele>297.4285714285714</ele><time>2026-04-12T09:55:39.001Z</time></trkpt><trkpt lat="43.0521283" lon="12.3309993"><ele>297.7142857142857</ele><time>2026-04-12T09:55:41.009Z</time></trkpt><trkpt lat="43.0520886" lon="12.3309134"><ele>298.0</ele><time>2026-04-12T09:55:42.996Z</time></trkpt><trkpt lat="43.0520323" lon="12.3308365"><ele>298.0</ele><time>2026-04-12T09:55:45.009Z</time></trkpt><trkpt lat="43.051965" lon="12.3307824"><ele>298.0</ele><time>2026-04-12T09:55:46.995Z</time></trkpt><trkpt lat="43.051904" lon="12.3307058"><ele>298.0</ele><time>2026-04-12T09:55:48.996Z</time></trkpt><trkpt lat="43.0518298" lon="12.3306074"><ele>298.0</ele><time>2026-04-12T09:55:51.004Z</time></trkpt><trkpt lat="43.0517758" lon="12.330527"><ele>298.0</ele><time>2026-04-12T09:55:52.997Z</time></trkpt><trkpt lat="43.0516921" lon="12.3304702"><ele>298.0</ele><time>2026-04-12T09:55:55.008Z</time></trkpt><trkpt lat="43.0516203" lon="12.3304268"><ele>297.8333333333333</ele><time>2026-04-12T09:55:56.995Z</time></trkpt><trkpt lat="43.051567" lon="12.3303587"><ele>297.66666666666663</ele><time>2026-04-12T09:55:59.002Z</time></trkpt><trkpt lat="43.0515021" lon="12.3302748"><ele>297.5</ele><time>2026-04-12T09:56:02.092Z</time></trkpt><trkpt lat="43.0514468" lon="12.3302068"><ele>297.3333333333333</ele><time>2026-04-12T09:56:04.985Z</time></trkpt><trkpt lat="43.0513942" lon="12.3301485"><ele>297.1666666666667</ele><time>2026-04-12T09:56:07.994Z</time></trkpt><trkpt lat="43.0513225" lon="12.3301826"><ele>297.0</ele><time>2026-04-12T09:56:11.001Z</time></trkpt><trkpt lat="43.0512577" lon="12.3302537"><ele>297.0</ele><time>2026-04-12T09:56:13.988Z</time></trkpt><trkpt lat="43.0511972" lon="12.3303223"><ele>297.0</ele><time>2026-04-12T09:56:16.998Z</time></trkpt><trkpt lat="43.0511452" lon="12.3304028"><ele>297.0</ele><time>2026-04-12T09:56:20.984Z</time></trkpt><trkpt lat="43.0510963" lon="12.3304678"><ele>297.0</ele><time>2026-04-12T09:56:38.99Z</time></trkpt><trkpt lat="43.05104" lon="12.330411"><ele>297.0</ele><time>2026-04-12T09:57:28.993Z</time></trkpt><trkpt lat="43.0509638" lon="12.3303889"><ele>297.0</ele><time>2026-04-12T09:57:36.994Z</time></trkpt><trkpt lat="43.0509118" lon="12.3304439"><ele>297.0</ele><time>2026-04-12T09:57:50.998Z</time></trkpt></trkseg></trk></gpx>